<?xml version='1.0' encoding='UTF-8'?><gpx version="1.1" creator="JPX - https://github.com/jenetics/jpx" xmlns="http://www.topografix.com/GPX/1/1"><trk><trkseg><trkpt lat="42.09601928307761" lon="11.822252672401088"><ele>130.0</ele><time>2026-04-24T12:00:05Z</time></trkpt><trkpt lat="42.096074546872025" lon="11.822385564836353"><ele>130.0</ele><time>2026-04-24T12:00:08Z</time></trkpt><trkpt lat="42.09607432769856" lon="11.82247540475372"><ele>130.0</ele><time>2026-04-24T12:00:11Z</time></trkpt><trkpt lat="42.09601773303707" lon="11.8225130582504"><ele>130.0</ele><time>2026-04-24T12:00:13Z</time></trkpt><trkpt lat="42.0959963973671" lon="11.822603341898333"><ele>130.0</ele><time>2026-04-24T12:00:30Z</time></trkpt><trkpt lat="42.09611959761129" lon="11.822796649594306"><ele>130.14285714285717</ele><time>2026-04-24T12:00:35Z</time></trkpt><trkpt lat="42.09616002188792" lon="11.822862956180808"><ele>130.28571428571428</ele><time>2026-04-24T12:00:36Z</time></trkpt><trkpt lat="42.096229869580846" lon="11.822946616095713"><ele>130.42857142857144</ele><time>2026-04-24T12:00:37Z</time></trkpt><trkpt lat="42.0962810528507" lon="11.82301596193792"><ele>130.57142857142858</ele><time>2026-04-24T12:00:38Z</time></trkpt><trkpt lat="42.09632755585149" lon="11.823099688360829"><ele>130.71428571428572</ele><time>2026-04-24T12:00:39Z</time></trkpt><trkpt lat="42.0963846098178" lon="11.82316394727703"><ele>130.85714285714286</ele><time>2026-04-24T12:00:40Z</time></trkpt><trkpt lat="42.09643343615713" lon="11.823218939556837"><ele>131.0</ele><time>2026-04-24T12:00:41Z</time></trkpt><trkpt lat="42.096489407746866" lon="11.823281979411789"><ele>131.0</ele><time>2026-04-24T12:00:42Z</time></trkpt><trkpt lat="42.096548905193515" lon="11.823348990395289"><ele>131.0</ele><time>2026-04-24T12:00:43Z</time></trkpt><trkpt lat="42.09660226827869" lon="11.823411242462623"><ele>131.0</ele><time>2026-04-24T12:00:44Z</time></trkpt><trkpt lat="42.096660866206264" lon="11.8234782982772"><ele>131.0</ele><time>2026-04-24T12:00:45Z</time></trkpt><trkpt lat="42.09671594670891" lon="11.823541328969045"><ele>131.0</ele><time>2026-04-24T12:00:46Z</time></trkpt><trkpt lat="42.09676576943724" lon="11.823598342992971"><ele>131.0</ele><time>2026-04-24T12:00:47Z</time></trkpt><trkpt lat="42.09683314812528" lon="11.823675446962"><ele>131.6</ele><time>2026-04-24T12:00:48Z</time></trkpt><trkpt lat="42.09690304296343" lon="11.8237602793375"><ele>132.2</ele><time>2026-04-24T12:00:50Z</time></trkpt><trkpt lat="42.096955495780136" lon="11.82381406896861"><ele>132.8</ele><time>2026-04-24T12:00:51Z</time></trkpt><trkpt lat="42.09705982856508" lon="11.823934933886854"><ele>133.4</ele><time>2026-04-24T12:00:53Z</time></trkpt><trkpt lat="42.09711322090066" lon="11.823996834928067"><ele>134.0</ele><time>2026-04-24T12:00:54Z</time></trkpt><trkpt lat="42.09717464481132" lon="11.824103400390575"><ele>134.0</ele><time>2026-04-24T12:00:56Z</time></trkpt><trkpt lat="42.09722745173988" lon="11.824160617205713"><ele>134.0</ele><time>2026-04-24T12:00:57Z</time></trkpt><trkpt lat="42.09727998739801" lon="11.824218184544023"><ele>134.0</ele><time>2026-04-24T12:00:58Z</time></trkpt><trkpt lat="42.09736699697589" lon="11.824312987311403"><ele>134.0</ele><time>2026-04-24T12:00:59Z</time></trkpt><trkpt lat="42.097448735120345" lon="11.824411665240191"><ele>134.0</ele><time>2026-04-24T12:01:00Z</time></trkpt><trkpt lat="42.097521872450926" lon="11.824504342054485"><ele>134.6</ele><time>2026-04-24T12:01:01Z</time></trkpt><trkpt lat="42.09758762556382" lon="11.824592083450506"><ele>135.2</ele><time>2026-04-24T12:01:02Z</time></trkpt><trkpt lat="42.09764100273618" lon="11.824672975950156"><ele>135.79999999999998</ele><time>2026-04-24T12:01:03Z</time></trkpt><trkpt lat="42.09769085661789" lon="11.824766147122736"><ele>136.4</ele><time>2026-04-24T12:01:04Z</time></trkpt><trkpt lat="42.09774033080054" lon="11.824860339715238"><ele>137.0</ele><time>2026-04-24T12:01:05Z</time></trkpt><trkpt lat="42.09760070856583" lon="11.825064817288359"><ele>136.66666666666666</ele><time>2026-04-24T12:01:07Z</time></trkpt><trkpt lat="42.097555594787025" lon="11.82516799891445"><ele>136.33333333333331</ele><time>2026-04-24T12:01:08Z</time></trkpt><trkpt lat="42.09750471182113" lon="11.825260273611825"><ele>136.0</ele><time>2026-04-24T12:01:09Z</time></trkpt><trkpt lat="42.097482570370175" lon="11.825371923829644"><ele>135.66666666666666</ele><time>2026-04-24T12:01:10Z</time></trkpt><trkpt lat="42.09747615032023" lon="11.825482795896239"><ele>135.33333333333334</ele><time>2026-04-24T12:01:11Z</time></trkpt><trkpt lat="42.097491487704794" lon="11.825603821891798"><ele>135.0</ele><time>2026-04-24T12:01:12Z</time></trkpt><trkpt lat="42.09751735884655" lon="11.825709003816518"><ele>135.0</ele><time>2026-04-24T12:01:13Z</time></trkpt><trkpt lat="42.097549585395235" lon="11.825842754132818"><ele>135.0</ele><time>2026-04-24T12:01:14Z</time></trkpt><trkpt lat="42.097619308778455" lon="11.82596397971295"><ele>135.0</ele><time>2026-04-24T12:01:15Z</time></trkpt><trkpt lat="42.097704384419494" lon="11.826081179081003"><ele>135.0</ele><time>2026-04-24T12:01:16Z</time></trkpt><trkpt lat="42.09777798132329" lon="11.826190982654309"><ele>136.4</ele><time>2026-04-24T12:01:17Z</time></trkpt><trkpt lat="42.09784876622083" lon="11.826263504318282"><ele>137.8</ele><time>2026-04-24T12:01:18Z</time></trkpt><trkpt lat="42.09792185589961" lon="11.826336826120347"><ele>139.2</ele><time>2026-04-24T12:01:19Z</time></trkpt><trkpt lat="42.09799403387096" lon="11.826426442557041"><ele>140.6</ele><time>2026-04-24T12:01:20Z</time></trkpt><trkpt lat="42.098065004403075" lon="11.826510710428742"><ele>142.0</ele><time>2026-04-24T12:01:21Z</time></trkpt><trkpt lat="42.09818914264124" lon="11.826602131220204"><ele>142.0</ele><time>2026-04-24T12:01:22Z</time></trkpt><trkpt lat="42.09824877567091" lon="11.82664609263528"><ele>142.0</ele><time>2026-04-24T12:01:23Z</time></trkpt><trkpt lat="42.098350438603454" lon="11.826673975188392"><ele>142.0</ele><time>2026-04-24T12:01:24Z</time></trkpt><trkpt lat="42.09845333565755" lon="11.826685902281794"><ele>142.0</ele><time>2026-04-24T12:01:25Z</time></trkpt><trkpt lat="42.09853648631957" lon="11.826675453507109"><ele>142.0</ele><time>2026-04-24T12:01:26Z</time></trkpt><trkpt lat="42.09863175153218" lon="11.826623546856405"><ele>142.66666666666669</ele><time>2026-04-24T12:01:27Z</time></trkpt><trkpt lat="42.0987125370506" lon="11.826551683261233"><ele>143.33333333333334</ele><time>2026-04-24T12:01:28Z</time></trkpt><trkpt lat="42.09878680830576" lon="11.826480558485693"><ele>144.0</ele><time>2026-04-24T12:01:29Z</time></trkpt><trkpt lat="42.09885096644072" lon="11.82641800382548"><ele>144.66666666666666</ele><time>2026-04-24T12:01:30Z</time></trkpt><trkpt lat="42.09889973639439" lon="11.82634821030457"><ele>145.33333333333331</ele><time>2026-04-24T12:01:31Z</time></trkpt><trkpt lat="42.0989608981949" lon="11.826260478681121"><ele>146.0</ele><time>2026-04-24T12:01:32Z</time></trkpt><trkpt lat="42.09901509582108" lon="11.826161016613266"><ele>147.0</ele><time>2026-04-24T12:01:33Z</time></trkpt><trkpt lat="42.099112051095936" lon="11.826072465187213"><ele>148.0</ele><time>2026-04-24T12:01:34Z</time></trkpt><trkpt lat="42.09918319192857" lon="11.825939006809152"><ele>149.0</ele><time>2026-04-24T12:01:35Z</time></trkpt><trkpt lat="42.099248638772345" lon="11.825842692845074"><ele>150.0</ele><time>2026-04-24T12:01:36Z</time></trkpt><trkpt lat="42.099302586423235" lon="11.825759654500747"><ele>151.0</ele><time>2026-04-24T12:01:37Z</time></trkpt><trkpt lat="42.099355793236576" lon="11.825681118898876"><ele>151.0</ele><time>2026-04-24T12:01:38Z</time></trkpt><trkpt lat="42.099406386432264" lon="11.825605182106761"><ele>151.0</ele><time>2026-04-24T12:01:39Z</time></trkpt><trkpt lat="42.09945518598589" lon="11.825517758406779"><ele>151.0</ele><time>2026-04-24T12:01:40Z</time></trkpt><trkpt lat="42.099505433157546" lon="11.825428992685685"><ele>151.0</ele><time>2026-04-24T12:01:41Z</time></trkpt><trkpt lat="42.09955922530347" lon="11.82535197541932"><ele>151.0</ele><time>2026-04-24T12:01:42Z</time></trkpt><trkpt lat="42.09961104710826" lon="11.825265846221889"><ele>151.0</ele><time>2026-04-24T12:01:43Z</time></trkpt><trkpt lat="42.09965822623296" lon="11.825187980908568"><ele>150.83333333333334</ele><time>2026-04-24T12:01:44Z</time></trkpt><trkpt lat="42.099702130888865" lon="11.825116260525633"><ele>150.66666666666669</ele><time>2026-04-24T12:01:45Z</time></trkpt><trkpt lat="42.09977519277587" lon="11.825002554227261"><ele>150.5</ele><time>2026-04-24T12:01:47Z</time></trkpt><trkpt lat="42.099830501873576" lon="11.824949990248621"><ele>150.33333333333334</ele><time>2026-04-24T12:01:49Z</time></trkpt><trkpt lat="42.099883317909054" lon="11.824889048407798"><ele>150.16666666666666</ele><time>2026-04-24T12:01:53Z</time></trkpt><trkpt lat="42.09990648763841" lon="11.824802794151191"><ele>150.0</ele><time>2026-04-24T12:02:10Z</time></trkpt><trkpt lat="42.09998109676701" lon="11.824704893198781"><ele>150.0</ele><time>2026-04-24T12:02:12Z</time></trkpt><trkpt lat="42.10009810365118" lon="11.824746266362066"><ele>150.0</ele><time>2026-04-24T12:02:14Z</time></trkpt><trkpt lat="42.10021260845213" lon="11.824837545783321"><ele>150.0</ele><time>2026-04-24T12:02:16Z</time></trkpt><trkpt lat="42.10027557335886" lon="11.824922881780891"><ele>150.0</ele><time>2026-04-24T12:02:17Z</time></trkpt><trkpt lat="42.10035499871352" lon="11.824995630599965"><ele>150.0</ele><time>2026-04-24T12:02:18Z</time></trkpt><trkpt lat="42.100458548367385" lon="11.825036314997229"><ele>150.0</ele><time>2026-04-24T12:02:19Z</time></trkpt><trkpt lat="42.100546032522274" lon="11.825065319586681"><ele>150.0</ele><time>2026-04-24T12:02:20Z</time></trkpt><trkpt lat="42.100625164612566" lon="11.825072560292812"><ele>150.0</ele><time>2026-04-24T12:02:21Z</time></trkpt><trkpt lat="42.10070513158619" lon="11.825067033232061"><ele>150.0</ele><time>2026-04-24T12:02:22Z</time></trkpt><trkpt lat="42.10080868055464" lon="11.825035205471098"><ele>150.0</ele><time>2026-04-24T12:02:23Z</time></trkpt><trkpt lat="42.10091483981532" lon="11.825014222453948"><ele>150.6</ele><time>2026-04-24T12:02:24Z</time></trkpt><trkpt lat="42.10102085190823" lon="11.824993372457724"><ele>151.2</ele><time>2026-04-24T12:02:25Z</time></trkpt><trkpt lat="42.101091110533645" lon="11.824966715654334"><ele>151.8</ele><time>2026-04-24T12:02:26Z</time></trkpt><trkpt lat="42.10117952109088" lon="11.824944228619477"><ele>152.4</ele><time>2026-04-24T12:02:27Z</time></trkpt><trkpt lat="42.10127337937776" lon="11.82493027054666"><ele>153.0</ele><time>2026-04-24T12:02:28Z</time></trkpt><trkpt lat="42.10137309492238" lon="11.824916647430065"><ele>153.0</ele><time>2026-04-24T12:02:29Z</time></trkpt><trkpt lat="42.101444200372924" lon="11.824924953052994"><ele>153.0</ele><time>2026-04-24T12:02:30Z</time></trkpt><trkpt lat="42.10158903407021" lon="11.824925743793182"><ele>153.0</ele><time>2026-04-24T12:02:32Z</time></trkpt><trkpt lat="42.101655992532095" lon="11.824919931987946"><ele>153.0</ele><time>2026-04-24T12:02:33Z</time></trkpt><trkpt lat="42.10173521054234" lon="11.82492294462198"><ele>153.0</ele><time>2026-04-24T12:02:34Z</time></trkpt><trkpt lat="42.10181424665872" lon="11.824923170130191"><ele>153.0</ele><time>2026-04-24T12:02:35Z</time></trkpt><trkpt lat="42.10187891253712" lon="11.824897860710024"><ele>152.83333333333334</ele><time>2026-04-24T12:02:36Z</time></trkpt><trkpt lat="42.10193644144498" lon="11.824854159124165"><ele>152.66666666666666</ele><time>2026-04-24T12:02:37Z</time></trkpt><trkpt lat="42.101998188462346" lon="11.824790933665295"><ele>152.5</ele><time>2026-04-24T12:02:38Z</time></trkpt><trkpt lat="42.102040538289636" lon="11.824720548384775"><ele>152.33333333333331</ele><time>2026-04-24T12:02:39Z</time></trkpt><trkpt lat="42.102081503353055" lon="11.824630793326419"><ele>152.16666666666666</ele><time>2026-04-24T12:02:40Z</time></trkpt><trkpt lat="42.10212028045382" lon="11.824526362948143"><ele>152.0</ele><time>2026-04-24T12:02:41Z</time></trkpt><trkpt lat="42.102153593887344" lon="11.824416693261375"><ele>152.0</ele><time>2026-04-24T12:02:42Z</time></trkpt><trkpt lat="42.1021832854969" lon="11.824324122698922"><ele>152.0</ele><time>2026-04-24T12:02:43Z</time></trkpt><trkpt lat="42.10219810841694" lon="11.82423361296785"><ele>152.0</ele><time>2026-04-24T12:02:44Z</time></trkpt><trkpt lat="42.10222414717841" lon="11.824155032934856"><ele>152.0</ele><time>2026-04-24T12:02:45Z</time></trkpt><trkpt lat="42.10225454280893" lon="11.824071549289783"><ele>152.0</ele><time>2026-04-24T12:02:46Z</time></trkpt><trkpt lat="42.10230168867536" lon="11.823992234793685"><ele>152.0</ele><time>2026-04-24T12:02:47Z</time></trkpt><trkpt lat="42.10240732641306" lon="11.82386627761167"><ele>151.4</ele><time>2026-04-24T12:02:49Z</time></trkpt><trkpt lat="42.10246388756256" lon="11.823795193897991"><ele>150.79999999999998</ele><time>2026-04-24T12:02:50Z</time></trkpt><trkpt lat="42.10255983569074" lon="11.823700281455121"><ele>150.2</ele><time>2026-04-24T12:02:52Z</time></trkpt><trkpt lat="42.10266137100495" lon="11.823679781987655"><ele>149.6</ele><time>2026-04-24T12:02:54Z</time></trkpt><trkpt lat="42.10280977479429" lon="11.823662825701291"><ele>149.0</ele><time>2026-04-24T12:02:55Z</time></trkpt><trkpt lat="42.10300485316162" lon="11.823630324743725"><ele>149.0</ele><time>2026-04-24T12:02:56Z</time></trkpt><trkpt lat="42.10315673253077" lon="11.823639830374491"><ele>149.0</ele><time>2026-04-24T12:02:57Z</time></trkpt><trkpt lat="42.103305564919204" lon="11.8235947792404"><ele>149.0</ele><time>2026-04-24T12:02:58Z</time></trkpt><trkpt lat="42.10343117356346" lon="11.823533982161042"><ele>149.0</ele><time>2026-04-24T12:02:59Z</time></trkpt><trkpt lat="42.103571755281806" lon="11.823472663056275"><ele>147.5</ele><time>2026-04-24T12:03:00Z</time></trkpt><trkpt lat="42.103690840615315" lon="11.823394144182958"><ele>146.0</ele><time>2026-04-24T12:03:01Z</time></trkpt><trkpt lat="42.10380730944132" lon="11.823331667185803"><ele>144.5</ele><time>2026-04-24T12:03:02Z</time></trkpt><trkpt lat="42.10393752747255" lon="11.82330191299353"><ele>143.0</ele><time>2026-04-24T12:03:03Z</time></trkpt><trkpt lat="42.10405012791964" lon="11.82325049806555"><ele>143.0</ele><time>2026-04-24T12:03:04Z</time></trkpt><trkpt lat="42.104158605748054" lon="11.823195783417257"><ele>143.0</ele><time>2026-04-24T12:03:05Z</time></trkpt><trkpt lat="42.10424681635879" lon="11.823143774184418"><ele>143.0</ele><time>2026-04-24T12:03:06Z</time></trkpt><trkpt lat="42.104338328015004" lon="11.823107545528854"><ele>143.0</ele><time>2026-04-24T12:03:07Z</time></trkpt><trkpt lat="42.104437101066914" lon="11.82306154760515"><ele>143.0</ele><time>2026-04-24T12:03:08Z</time></trkpt><trkpt lat="42.10453697660141" lon="11.82301135914031"><ele>143.0</ele><time>2026-04-24T12:03:09Z</time></trkpt><trkpt lat="42.1046055258285" lon="11.82302614965165"><ele>143.0</ele><time>2026-04-24T12:03:10Z</time></trkpt><trkpt lat="42.10469382138177" lon="11.822982986687768"><ele>143.0</ele><time>2026-04-24T12:03:12Z</time></trkpt><trkpt lat="42.10476463791234" lon="11.822944729988443"><ele>143.0</ele><time>2026-04-24T12:03:14Z</time></trkpt><trkpt lat="42.104833524354056" lon="11.822907643445701"><ele>143.0</ele><time>2026-04-24T12:04:46Z</time></trkpt><trkpt lat="42.10491353030453" lon="11.8228651098104"><ele>143.0</ele><time>2026-04-24T12:04:48Z</time></trkpt><trkpt lat="42.10499176483081" lon="11.822826041959516"><ele>143.25</ele><time>2026-04-24T12:04:50Z</time></trkpt><trkpt lat="42.105074752137945" lon="11.82281356147235"><ele>143.5</ele><time>2026-04-24T12:04:52Z</time></trkpt><trkpt lat="42.10517830416599" lon="11.822775669897556"><ele>143.75</ele><time>2026-04-24T12:04:54Z</time></trkpt><trkpt lat="42.105275223957264" lon="11.823072328537934"><ele>144.0</ele><time>2026-04-24T12:05:09Z</time></trkpt><trkpt lat="42.10527945412603" lon="11.823201371547906"><ele>144.0</ele><time>2026-04-24T12:05:10Z</time></trkpt><trkpt lat="42.105283444785215" lon="11.823331466181731"><ele>144.0</ele><time>2026-04-24T12:05:11Z</time></trkpt><trkpt lat="42.10529853881697" lon="11.823450632117678"><ele>144.0</ele><time>2026-04-24T12:05:12Z</time></trkpt><trkpt lat="42.105313426080414" lon="11.823556619288524"><ele>144.0</ele><time>2026-04-24T12:05:13Z</time></trkpt><trkpt lat="42.10532063815071" lon="11.823669829317865"><ele>144.0</ele><time>2026-04-24T12:05:14Z</time></trkpt><trkpt lat="42.1053452116245" lon="11.823823118979773"><ele>144.75</ele><time>2026-04-24T12:05:16Z</time></trkpt><trkpt lat="42.105370016736714" lon="11.823961623705877"><ele>145.5</ele><time>2026-04-24T12:05:18Z</time></trkpt><trkpt lat="42.10552811188362" lon="11.823985840726584"><ele>146.25</ele><time>2026-04-24T12:05:19Z</time></trkpt><trkpt lat="42.105620140933674" lon="11.82399675800049"><ele>147.0</ele><time>2026-04-24T12:05:20Z</time></trkpt><trkpt lat="42.1057514159585" lon="11.82405792801582"><ele>147.0</ele><time>2026-04-24T12:05:21Z</time></trkpt><trkpt lat="42.10585411898719" lon="11.824098758679277"><ele>147.0</ele><time>2026-04-24T12:05:22Z</time></trkpt><trkpt lat="42.10596394152348" lon="11.824159946424585"><ele>147.0</ele><time>2026-04-24T12:05:23Z</time></trkpt><trkpt lat="42.106064195506455" lon="11.824222231508251"><ele>147.0</ele><time>2026-04-24T12:05:24Z</time></trkpt><trkpt lat="42.106168975494136" lon="11.824301596369263"><ele>148.0</ele><time>2026-04-24T12:05:25Z</time></trkpt><trkpt lat="42.106258502016814" lon="11.824392258528391"><ele>149.0</ele><time>2026-04-24T12:05:26Z</time></trkpt><trkpt lat="42.10636601169745" lon="11.824481182236442"><ele>150.0</ele><time>2026-04-24T12:05:27Z</time></trkpt><trkpt lat="42.106465334732384" lon="11.824555270144645"><ele>151.0</ele><time>2026-04-24T12:05:28Z</time></trkpt><trkpt lat="42.10655364388813" lon="11.824627273083347"><ele>151.2</ele><time>2026-04-24T12:05:29Z</time></trkpt><trkpt lat="42.10665529447944" lon="11.824712715578505"><ele>151.39999999999998</ele><time>2026-04-24T12:05:30Z</time></trkpt><trkpt lat="42.10673596879252" lon="11.824779263780393"><ele>151.6</ele><time>2026-04-24T12:05:31Z</time></trkpt><trkpt lat="42.10681642971455" lon="11.824842809882748"><ele>151.79999999999998</ele><time>2026-04-24T12:05:32Z</time></trkpt><trkpt lat="42.10690695092277" lon="11.824917028798392"><ele>152.0</ele><time>2026-04-24T12:05:33Z</time></trkpt><trkpt lat="42.10699409227731" lon="11.824989807742298"><ele>152.0</ele><time>2026-04-24T12:05:34Z</time></trkpt><trkpt lat="42.107070079135774" lon="11.825054843581933"><ele>152.0</ele><time>2026-04-24T12:05:35Z</time></trkpt><trkpt lat="42.1071400581085" lon="11.825117025326657"><ele>152.0</ele><time>2026-04-24T12:05:36Z</time></trkpt><trkpt lat="42.10722583927083" lon="11.825174968353517"><ele>152.0</ele><time>2026-04-24T12:05:37Z</time></trkpt><trkpt lat="42.10729503739559" lon="11.825277299931797"><ele>152.0</ele><time>2026-04-24T12:05:38Z</time></trkpt><trkpt lat="42.10733727527579" lon="11.825406187912883"><ele>153.0</ele><time>2026-04-24T12:05:39Z</time></trkpt><trkpt lat="42.1073799017906" lon="11.82552820971646"><ele>154.0</ele><time>2026-04-24T12:05:40Z</time></trkpt><trkpt lat="42.10739950585144" lon="11.825649779454233"><ele>155.0</ele><time>2026-04-24T12:05:41Z</time></trkpt><trkpt lat="42.107398776083045" lon="11.825780326538519"><ele>156.0</ele><time>2026-04-24T12:05:42Z</time></trkpt><trkpt lat="42.107379253263794" lon="11.825939305557492"><ele>157.0</ele><time>2026-04-24T12:05:43Z</time></trkpt><trkpt lat="42.10735727763372" lon="11.826123443320178"><ele>158.0</ele><time>2026-04-24T12:05:44Z</time></trkpt><trkpt lat="42.10733905596296" lon="11.826289583513462"><ele>159.0</ele><time>2026-04-24T12:05:45Z</time></trkpt><trkpt lat="42.107326188952136" lon="11.82645443805412"><ele>160.0</ele><time>2026-04-24T12:05:46Z</time></trkpt><trkpt lat="42.107315976384754" lon="11.826589943858206"><ele>161.0</ele><time>2026-04-24T12:05:47Z</time></trkpt><trkpt lat="42.107308166919616" lon="11.82671672700416"><ele>162.0</ele><time>2026-04-24T12:05:48Z</time></trkpt><trkpt lat="42.10730997994844" lon="11.826865658983563"><ele>162.6</ele><time>2026-04-24T12:05:49Z</time></trkpt><trkpt lat="42.107284134166584" lon="11.826997468387283"><ele>163.2</ele><time>2026-04-24T12:05:50Z</time></trkpt><trkpt lat="42.10731934254828" lon="11.827152702555367"><ele>163.8</ele><time>2026-04-24T12:05:51Z</time></trkpt><trkpt lat="42.107364115404955" lon="11.827295572369673"><ele>164.4</ele><time>2026-04-24T12:05:52Z</time></trkpt><trkpt lat="42.10743405831072" lon="11.827388454486938"><ele>165.0</ele><time>2026-04-24T12:05:53Z</time></trkpt><trkpt lat="42.10751946147672" lon="11.827517378955696"><ele>166.5</ele><time>2026-04-24T12:05:54Z</time></trkpt><trkpt lat="42.10761891667315" lon="11.827669554085245"><ele>168.0</ele><time>2026-04-24T12:05:55Z</time></trkpt><trkpt lat="42.107743756560865" lon="11.827727175648203"><ele>169.5</ele><time>2026-04-24T12:05:56Z</time></trkpt><trkpt lat="42.10784908412647" lon="11.827806493327369"><ele>171.0</ele><time>2026-04-24T12:05:57Z</time></trkpt><trkpt lat="42.10796346016581" lon="11.827855527115904"><ele>171.0</ele><time>2026-04-24T12:05:58Z</time></trkpt><trkpt lat="42.10808947882273" lon="11.827923137609096"><ele>171.0</ele><time>2026-04-24T12:05:59Z</time></trkpt><trkpt lat="42.108191533413034" lon="11.827966134858613"><ele>171.0</ele><time>2026-04-24T12:06:00Z</time></trkpt><trkpt lat="42.10831216425678" lon="11.827986569709338"><ele>171.0</ele><time>2026-04-24T12:06:01Z</time></trkpt><trkpt lat="42.10845590516413" lon="11.827992986388969"><ele>170.0</ele><time>2026-04-24T12:06:02Z</time></trkpt><trkpt lat="42.108583802540835" lon="11.827980316048189"><ele>169.0</ele><time>2026-04-24T12:06:03Z</time></trkpt><trkpt lat="42.108719096909105" lon="11.827946207752616"><ele>168.0</ele><time>2026-04-24T12:06:04Z</time></trkpt><trkpt lat="42.10887676885364" lon="11.827882593807779"><ele>167.0</ele><time>2026-04-24T12:06:05Z</time></trkpt><trkpt lat="42.109012119473874" lon="11.827816246851025"><ele>167.0</ele><time>2026-04-24T12:06:06Z</time></trkpt><trkpt lat="42.10914658539378" lon="11.827769902843862"><ele>167.0</ele><time>2026-04-24T12:06:07Z</time></trkpt><trkpt lat="42.109281397680384" lon="11.82772981025723"><ele>167.0</ele><time>2026-04-24T12:06:08Z</time></trkpt><trkpt lat="42.10942065922662" lon="11.827698167274045"><ele>167.0</ele><time>2026-04-24T12:06:09Z</time></trkpt><trkpt lat="42.1095559577053" lon="11.827676846183158"><ele>167.0</ele><time>2026-04-24T12:06:10Z</time></trkpt><trkpt lat="42.10970098893827" lon="11.827664024240383"><ele>167.0</ele><time>2026-04-24T12:06:11Z</time></trkpt><trkpt lat="42.10984819256095" lon="11.82764596740162"><ele>167.0</ele><time>2026-04-24T12:06:12Z</time></trkpt><trkpt lat="42.109992177421425" lon="11.827664044578196"><ele>167.0</ele><time>2026-04-24T12:06:13Z</time></trkpt><trkpt lat="42.11013338263061" lon="11.82768971824238"><ele>166.0</ele><time>2026-04-24T12:06:14Z</time></trkpt><trkpt lat="42.11028377572441" lon="11.827765857240722"><ele>165.0</ele><time>2026-04-24T12:06:15Z</time></trkpt><trkpt lat="42.11043199570941" lon="11.827841798197547"><ele>164.0</ele><time>2026-04-24T12:06:16Z</time></trkpt><trkpt lat="42.11061369119041" lon="11.827900413237922"><ele>160.0</ele><time>2026-04-24T12:06:17Z</time></trkpt><trkpt lat="42.11078588010414" lon="11.827959959938141"><ele>156.0</ele><time>2026-04-24T12:06:18Z</time></trkpt><trkpt lat="42.11096046760769" lon="11.82797083125594"><ele>152.0</ele><time>2026-04-24T12:06:19Z</time></trkpt><trkpt lat="42.11113747082633" lon="11.828018545809664"><ele>152.0</ele><time>2026-04-24T12:06:20Z</time></trkpt><trkpt lat="42.111316332769114" lon="11.82805536263749"><ele>152.0</ele><time>2026-04-24T12:06:21Z</time></trkpt><trkpt lat="42.11149999226773" lon="11.828077002512776"><ele>152.0</ele><time>2026-04-24T12:06:22Z</time></trkpt><trkpt lat="42.111686609969425" lon="11.828068406115152"><ele>149.33333333333331</ele><time>2026-04-24T12:06:23Z</time></trkpt><trkpt lat="42.11186602405051" lon="11.82806539239431"><ele>146.66666666666666</ele><time>2026-04-24T12:06:24Z</time></trkpt><trkpt lat="42.112053530830636" lon="11.8280406238449"><ele>144.0</ele><time>2026-04-24T12:06:25Z</time></trkpt><trkpt lat="42.11224574019105" lon="11.827994129834899"><ele>142.33333333333334</ele><time>2026-04-24T12:06:26Z</time></trkpt><trkpt lat="42.11244315339577" lon="11.827941948758163"><ele>140.66666666666669</ele><time>2026-04-24T12:06:27Z</time></trkpt><trkpt lat="42.11263208431202" lon="11.827894014774294"><ele>139.0</ele><time>2026-04-24T12:06:28Z</time></trkpt><trkpt lat="42.11281187689203" lon="11.827816484748707"><ele>139.0</ele><time>2026-04-24T12:06:29Z</time></trkpt><trkpt lat="42.11299747201537" lon="11.82772256100787"><ele>139.0</ele><time>2026-04-24T12:06:30Z</time></trkpt><trkpt lat="42.113177383919854" lon="11.827627130082364"><ele>139.0</ele><time>2026-04-24T12:06:31Z</time></trkpt><trkpt lat="42.11335130680832" lon="11.827513027888145"><ele>137.66666666666669</ele><time>2026-04-24T12:06:32Z</time></trkpt><trkpt lat="42.113517767152345" lon="11.82739164860542"><ele>136.33333333333334</ele><time>2026-04-24T12:06:33Z</time></trkpt><trkpt lat="42.11367848548727" lon="11.827244603074943"><ele>135.0</ele><time>2026-04-24T12:06:34Z</time></trkpt><trkpt lat="42.113839907450505" lon="11.827089890663757"><ele>135.0</ele><time>2026-04-24T12:06:35Z</time></trkpt><trkpt lat="42.11398609470474" lon="11.826934481045445"><ele>135.0</ele><time>2026-04-24T12:06:36Z</time></trkpt><trkpt lat="42.114132607864185" lon="11.826772704814784"><ele>135.0</ele><time>2026-04-24T12:06:37Z</time></trkpt><trkpt lat="42.114263464183885" lon="11.826602372528425"><ele>135.66666666666666</ele><time>2026-04-24T12:06:38Z</time></trkpt><trkpt lat="42.11439015092577" lon="11.826421413098986"><ele>136.33333333333331</ele><time>2026-04-24T12:06:39Z</time></trkpt><trkpt lat="42.114528372560855" lon="11.826273777119136"><ele>137.0</ele><time>2026-04-24T12:06:40Z</time></trkpt><trkpt lat="42.114646288664" lon="11.826101547049376"><ele>137.66666666666666</ele><time>2026-04-24T12:06:41Z</time></trkpt><trkpt lat="42.11476152590104" lon="11.825938398399035"><ele>138.33333333333334</ele><time>2026-04-24T12:06:42Z</time></trkpt><trkpt lat="42.11488284796696" lon="11.825755007497325"><ele>139.0</ele><time>2026-04-24T12:06:43Z</time></trkpt><trkpt lat="42.115006284551384" lon="11.825568737238836"><ele>139.0</ele><time>2026-04-24T12:06:44Z</time></trkpt><trkpt lat="42.1151407210334" lon="11.825367976557132"><ele>139.0</ele><time>2026-04-24T12:06:45Z</time></trkpt><trkpt lat="42.11525561569514" lon="11.82518656785378"><ele>139.0</ele><time>2026-04-24T12:06:46Z</time></trkpt><trkpt lat="42.1153824414132" lon="11.824991647851961"><ele>138.66666666666669</ele><time>2026-04-24T12:06:47Z</time></trkpt><trkpt lat="42.115514572961246" lon="11.824808910071965"><ele>138.33333333333334</ele><time>2026-04-24T12:06:48Z</time></trkpt><trkpt lat="42.11564049677055" lon="11.824619458883346"><ele>138.0</ele><time>2026-04-24T12:06:49Z</time></trkpt><trkpt lat="42.11577848160498" lon="11.82444818166865"><ele>137.33333333333334</ele><time>2026-04-24T12:06:50Z</time></trkpt><trkpt lat="42.11591716500767" lon="11.824283123325385"><ele>136.66666666666669</ele><time>2026-04-24T12:06:51Z</time></trkpt><trkpt lat="42.1160722992599" lon="11.82411984805867"><ele>136.0</ele><time>2026-04-24T12:06:52Z</time></trkpt><trkpt lat="42.11623942571482" lon="11.823964255486583"><ele>136.0</ele><time>2026-04-24T12:06:53Z</time></trkpt><trkpt lat="42.11640474244887" lon="11.823815467030656"><ele>136.0</ele><time>2026-04-24T12:06:54Z</time></trkpt><trkpt lat="42.1165752593747" lon="11.823673275860362"><ele>136.0</ele><time>2026-04-24T12:06:55Z</time></trkpt><trkpt lat="42.116764041201996" lon="11.823532024638167"><ele>137.66666666666669</ele><time>2026-04-24T12:06:56Z</time></trkpt><trkpt lat="42.11695352274146" lon="11.823415978584963"><ele>139.33333333333334</ele><time>2026-04-24T12:06:57Z</time></trkpt><trkpt lat="42.117138821835134" lon="11.823310928810441"><ele>141.0</ele><time>2026-04-24T12:06:58Z</time></trkpt><trkpt lat="42.117340195865815" lon="11.823212755079131"><ele>141.33333333333334</ele><time>2026-04-24T12:06:59Z</time></trkpt><trkpt lat="42.11753250668149" lon="11.823122590116094"><ele>141.66666666666669</ele><time>2026-04-24T12:07:00Z</time></trkpt><trkpt lat="42.11773050459781" lon="11.823043652513553"><ele>142.0</ele><time>2026-04-24T12:07:01Z</time></trkpt><trkpt lat="42.11792082848578" lon="11.82297609089036"><ele>142.0</ele><time>2026-04-24T12:07:02Z</time></trkpt><trkpt lat="42.11814712582665" lon="11.822931236626662"><ele>142.0</ele><time>2026-04-24T12:07:03Z</time></trkpt><trkpt lat="42.11835061581658" lon="11.822876717484927"><ele>142.0</ele><time>2026-04-24T12:07:04Z</time></trkpt><trkpt lat="42.118556851248044" lon="11.822836306598747"><ele>139.66666666666669</ele><time>2026-04-24T12:07:05Z</time></trkpt><trkpt lat="42.118750899617666" lon="11.822835335780907"><ele>137.33333333333334</ele><time>2026-04-24T12:07:06Z</time></trkpt><trkpt lat="42.11894624880214" lon="11.822857487064939"><ele>135.0</ele><time>2026-04-24T12:07:07Z</time></trkpt><trkpt lat="42.11913224645492" lon="11.822876338319523"><ele>132.0</ele><time>2026-04-24T12:07:08Z</time></trkpt><trkpt lat="42.119326466092474" lon="11.822897281861078"><ele>129.0</ele><time>2026-04-24T12:07:09Z</time></trkpt><trkpt lat="42.11953225343617" lon="11.82293939126667"><ele>126.0</ele><time>2026-04-24T12:07:10Z</time></trkpt><trkpt lat="42.119741101030186" lon="11.822980728333649"><ele>125.33333333333334</ele><time>2026-04-24T12:07:11Z</time></trkpt><trkpt lat="42.11994614923623" lon="11.823033883174075"><ele>124.66666666666667</ele><time>2026-04-24T12:07:12Z</time></trkpt><trkpt lat="42.12014562279572" lon="11.823090065766554"><ele>124.0</ele><time>2026-04-24T12:07:13Z</time></trkpt><trkpt lat="42.12034487323725" lon="11.823140400608263"><ele>124.0</ele><time>2026-04-24T12:07:14Z</time></trkpt><trkpt lat="42.120548867688" lon="11.823200081070096"><ele>124.0</ele><time>2026-04-24T12:07:15Z</time></trkpt><trkpt lat="42.12074882794533" lon="11.823256670914848"><ele>124.0</ele><time>2026-04-24T12:07:16Z</time></trkpt><trkpt lat="42.1209645501961" lon="11.823320093207693"><ele>122.0</ele><time>2026-04-24T12:07:17Z</time></trkpt><trkpt lat="42.121179581198376" lon="11.823382289890773"><ele>120.0</ele><time>2026-04-24T12:07:18Z</time></trkpt><trkpt lat="42.121386172623424" lon="11.82344896797486"><ele>118.0</ele><time>2026-04-24T12:07:19Z</time></trkpt><trkpt lat="42.12158773487409" lon="11.82351494183932"><ele>117.66666666666667</ele><time>2026-04-24T12:07:20Z</time></trkpt><trkpt lat="42.12178905694327" lon="11.823577644009326"><ele>117.33333333333334</ele><time>2026-04-24T12:07:21Z</time></trkpt><trkpt lat="42.121986013504" lon="11.823639270922985"><ele>117.0</ele><time>2026-04-24T12:07:22Z</time></trkpt><trkpt lat="42.12217415343503" lon="11.823693673293162"><ele>117.0</ele><time>2026-04-24T12:07:23Z</time></trkpt><trkpt lat="42.12236863152572" lon="11.823750377822991"><ele>117.0</ele><time>2026-04-24T12:07:24Z</time></trkpt><trkpt lat="42.122566367525245" lon="11.823811459766489"><ele>117.0</ele><time>2026-04-24T12:07:25Z</time></trkpt><trkpt lat="42.12276959380094" lon="11.823867583892271"><ele>116.0</ele><time>2026-04-24T12:07:26Z</time></trkpt><trkpt lat="42.122986401349486" lon="11.82391801815664"><ele>115.0</ele><time>2026-04-24T12:07:27Z</time></trkpt><trkpt lat="42.123227176383544" lon="11.823976979313533"><ele>113.0</ele><time>2026-04-24T12:07:28Z</time></trkpt><trkpt lat="42.12346335584542" lon="11.82400836215902"><ele>111.0</ele><time>2026-04-24T12:07:29Z</time></trkpt><trkpt lat="42.12369475228043" lon="11.824037854706246"><ele>111.0</ele><time>2026-04-24T12:07:30Z</time></trkpt><trkpt lat="42.123923421101274" lon="11.824054565060406"><ele>111.0</ele><time>2026-04-24T12:07:31Z</time></trkpt><trkpt lat="42.12414626285348" lon="11.824067880203534"><ele>110.33333333333334</ele><time>2026-04-24T12:07:32Z</time></trkpt><trkpt lat="42.124366789744315" lon="11.824079858179486"><ele>109.66666666666667</ele><time>2026-04-24T12:07:33Z</time></trkpt><trkpt lat="42.12459184605254" lon="11.824085966456483"><ele>109.0</ele><time>2026-04-24T12:07:34Z</time></trkpt><trkpt lat="42.124809511213996" lon="11.824083110466425"><ele>107.66666666666667</ele><time>2026-04-24T12:07:35Z</time></trkpt><trkpt lat="42.125036149299525" lon="11.824063081700682"><ele>106.33333333333334</ele><time>2026-04-24T12:07:36Z</time></trkpt><trkpt lat="42.12525175785409" lon="11.82404131584149"><ele>105.0</ele><time>2026-04-24T12:07:37Z</time></trkpt><trkpt lat="42.12547226412611" lon="11.824009134602091"><ele>105.0</ele><time>2026-04-24T12:07:38Z</time></trkpt><trkpt lat="42.12568385335706" lon="11.823976777950156"><ele>105.0</ele><time>2026-04-24T12:07:39Z</time></trkpt><trkpt lat="42.12589532014823" lon="11.823933730699135"><ele>105.0</ele><time>2026-04-24T12:07:40Z</time></trkpt><trkpt lat="42.12610394127182" lon="11.823884262043821"><ele>103.33333333333334</ele><time>2026-04-24T12:07:41Z</time></trkpt><trkpt lat="42.12630943158186" lon="11.823830403427024"><ele>101.66666666666667</ele><time>2026-04-24T12:07:42Z</time></trkpt><trkpt lat="42.12650790642266" lon="11.823773344024204"><ele>100.0</ele><time>2026-04-24T12:07:43Z</time></trkpt><trkpt lat="42.12671069142424" lon="11.823706576521444"><ele>97.33333333333334</ele><time>2026-04-24T12:07:44Z</time></trkpt><trkpt lat="42.12692569435217" lon="11.823629688501365"><ele>94.66666666666667</ele><time>2026-04-24T12:07:45Z</time></trkpt><trkpt lat="42.12712646197065" lon="11.82354570650249"><ele>92.0</ele><time>2026-04-24T12:07:46Z</time></trkpt><trkpt lat="42.12733023363886" lon="11.82346234817135"><ele>94.33333333333334</ele><time>2026-04-24T12:07:47Z</time></trkpt><trkpt lat="42.12752414535242" lon="11.823372602732363"><ele>96.66666666666667</ele><time>2026-04-24T12:07:48Z</time></trkpt><trkpt lat="42.12772569765792" lon="11.823283027751623"><ele>99.0</ele><time>2026-04-24T12:07:49Z</time></trkpt><trkpt lat="42.12792289272942" lon="11.823184794432986"><ele>99.0</ele><time>2026-04-24T12:07:50Z</time></trkpt><trkpt lat="42.12811587537559" lon="11.82307569569864"><ele>99.0</ele><time>2026-04-24T12:07:51Z</time></trkpt><trkpt lat="42.12831421462557" lon="11.822966087825419"><ele>99.0</ele><time>2026-04-24T12:07:52Z</time></trkpt><trkpt lat="42.128516165228156" lon="11.822864160870903"><ele>99.0</ele><time>2026-04-24T12:07:53Z</time></trkpt><trkpt lat="42.1287251655574" lon="11.822761491419145"><ele>99.0</ele><time>2026-04-24T12:07:54Z</time></trkpt><trkpt lat="42.12892385700272" lon="11.82266137548864"><ele>99.0</ele><time>2026-04-24T12:07:55Z</time></trkpt><trkpt lat="42.12912302837004" lon="11.822556570249409"><ele>102.33333333333334</ele><time>2026-04-24T12:07:56Z</time></trkpt><trkpt lat="42.12932272460933" lon="11.822453456434664"><ele>105.66666666666667</ele><time>2026-04-24T12:07:57Z</time></trkpt><trkpt lat="42.12951832797674" lon="11.822352304257176"><ele>109.0</ele><time>2026-04-24T12:07:58Z</time></trkpt><trkpt lat="42.12971567023534" lon="11.822252301231982"><ele>109.33333333333334</ele><time>2026-04-24T12:07:59Z</time></trkpt><trkpt lat="42.12991818573622" lon="11.822150123493412"><ele>109.66666666666666</ele><time>2026-04-24T12:08:00Z</time></trkpt><trkpt lat="42.1301301584109" lon="11.822032602661572"><ele>110.0</ele><time>2026-04-24T12:08:01Z</time></trkpt><trkpt lat="42.13034394297351" lon="11.821918229619643"><ele>113.66666666666666</ele><time>2026-04-24T12:08:02Z</time></trkpt><trkpt lat="42.130555424134194" lon="11.821804655633594"><ele>117.33333333333334</ele><time>2026-04-24T12:08:03Z</time></trkpt><trkpt lat="42.130761579030285" lon="11.821698271970591"><ele>121.0</ele><time>2026-04-24T12:08:04Z</time></trkpt><trkpt lat="42.130965258594266" lon="11.821589766466783"><ele>121.0</ele><time>2026-04-24T12:08:05Z</time></trkpt><trkpt lat="42.131165009046036" lon="11.821485428754997"><ele>121.0</ele><time>2026-04-24T12:08:06Z</time></trkpt><trkpt lat="42.131369825864645" lon="11.82137499023964"><ele>121.0</ele><time>2026-04-24T12:08:07Z</time></trkpt><trkpt lat="42.131574183372095" lon="11.821270954891268"><ele>122.0</ele><time>2026-04-24T12:08:08Z</time></trkpt><trkpt lat="42.13177940205765" lon="11.821158970807426"><ele>123.0</ele><time>2026-04-24T12:08:09Z</time></trkpt><trkpt lat="42.1319923902547" lon="11.821046949584957"><ele>124.5</ele><time>2026-04-24T12:08:10Z</time></trkpt><trkpt lat="42.13220603606775" lon="11.820931544223962"><ele>126.0</ele><time>2026-04-24T12:08:11Z</time></trkpt><trkpt lat="42.13241594542978" lon="11.82081109370935"><ele>127.66666666666666</ele><time>2026-04-24T12:08:12Z</time></trkpt><trkpt lat="42.13262184396751" lon="11.820690285116456"><ele>129.33333333333331</ele><time>2026-04-24T12:08:13Z</time></trkpt><trkpt lat="42.13282868272102" lon="11.82057411088682"><ele>131.0</ele><time>2026-04-24T12:08:14Z</time></trkpt><trkpt lat="42.133029666038" lon="11.82046552960755"><ele>132.0</ele><time>2026-04-24T12:08:15Z</time></trkpt><trkpt lat="42.13323131247678" lon="11.820364620036106"><ele>133.0</ele><time>2026-04-24T12:08:16Z</time></trkpt><trkpt lat="42.1334205593134" lon="11.820281795232662"><ele>134.0</ele><time>2026-04-24T12:08:17Z</time></trkpt><trkpt lat="42.13360426052764" lon="11.820206461066618"><ele>132.66666666666666</ele><time>2026-04-24T12:08:18Z</time></trkpt><trkpt lat="42.133796173795645" lon="11.820116563722975"><ele>131.33333333333334</ele><time>2026-04-24T12:08:19Z</time></trkpt><trkpt lat="42.133983415907835" lon="11.82002342400812"><ele>130.0</ele><time>2026-04-24T12:08:20Z</time></trkpt><trkpt lat="42.13416925234131" lon="11.819939688853815"><ele>130.0</ele><time>2026-04-24T12:08:21Z</time></trkpt><trkpt lat="42.1343500620141" lon="11.81986277274293"><ele>130.0</ele><time>2026-04-24T12:08:22Z</time></trkpt><trkpt lat="42.1345288732773" lon="11.819789490346624"><ele>130.0</ele><time>2026-04-24T12:08:23Z</time></trkpt><trkpt lat="42.13470210847262" lon="11.819720438064511"><ele>130.0</ele><time>2026-04-24T12:08:24Z</time></trkpt><trkpt lat="42.13488209254455" lon="11.819654730767565"><ele>130.0</ele><time>2026-04-24T12:08:25Z</time></trkpt><trkpt lat="42.135051363476144" lon="11.819599482449837"><ele>130.0</ele><time>2026-04-24T12:08:26Z</time></trkpt><trkpt lat="42.13523638102552" lon="11.819539348803957"><ele>130.0</ele><time>2026-04-24T12:08:27Z</time></trkpt><trkpt lat="42.13541608749319" lon="11.81948103404624"><ele>130.0</ele><time>2026-04-24T12:08:28Z</time></trkpt><trkpt lat="42.1356037853231" lon="11.819429246125848"><ele>130.0</ele><time>2026-04-24T12:08:29Z</time></trkpt><trkpt lat="42.13578747238634" lon="11.819382771083047"><ele>129.66666666666669</ele><time>2026-04-24T12:08:30Z</time></trkpt><trkpt lat="42.13597860608348" lon="11.81933409831821"><ele>129.33333333333334</ele><time>2026-04-24T12:08:31Z</time></trkpt><trkpt lat="42.136160615296255" lon="11.819286370805264"><ele>129.0</ele><time>2026-04-24T12:08:32Z</time></trkpt><trkpt lat="42.13633416047342" lon="11.819250016061616"><ele>129.0</ele><time>2026-04-24T12:08:33Z</time></trkpt><trkpt lat="42.13650218969176" lon="11.819219327069069"><ele>129.0</ele><time>2026-04-24T12:08:34Z</time></trkpt><trkpt lat="42.13667973141413" lon="11.819183922586479"><ele>129.0</ele><time>2026-04-24T12:08:35Z</time></trkpt><trkpt lat="42.136869943790295" lon="11.819133062875993"><ele>129.33333333333334</ele><time>2026-04-24T12:08:36Z</time></trkpt><trkpt lat="42.13706386828726" lon="11.81908620646014"><ele>129.66666666666669</ele><time>2026-04-24T12:08:37Z</time></trkpt><trkpt lat="42.13726812204874" lon="11.819046462503975"><ele>130.0</ele><time>2026-04-24T12:08:38Z</time></trkpt><trkpt lat="42.13748253459482" lon="11.819000958400293"><ele>128.5</ele><time>2026-04-24T12:08:39Z</time></trkpt><trkpt lat="42.137699310405" lon="11.81895541002463"><ele>127.0</ele><time>2026-04-24T12:08:40Z</time></trkpt><trkpt lat="42.13792997813563" lon="11.818912207325305"><ele>127.0</ele><time>2026-04-24T12:08:41Z</time></trkpt><trkpt lat="42.138167667784764" lon="11.818873209489022"><ele>127.0</ele><time>2026-04-24T12:08:42Z</time></trkpt><trkpt lat="42.1384162840781" lon="11.818830410448955"><ele>125.5</ele><time>2026-04-24T12:08:43Z</time></trkpt><trkpt lat="42.138656700337656" lon="11.818801104123347"><ele>124.0</ele><time>2026-04-24T12:08:44Z</time></trkpt><trkpt lat="42.138897496437984" lon="11.818762120126623"><ele>122.5</ele><time>2026-04-24T12:08:45Z</time></trkpt><trkpt lat="42.13913949984173" lon="11.818718459091313"><ele>121.0</ele><time>2026-04-24T12:08:46Z</time></trkpt><trkpt lat="42.13938237883617" lon="11.818678704544416"><ele>121.0</ele><time>2026-04-24T12:08:47Z</time></trkpt><trkpt lat="42.13961788655675" lon="11.81863752922907"><ele>121.0</ele><time>2026-04-24T12:08:48Z</time></trkpt><trkpt lat="42.139856102095294" lon="11.8185871737119"><ele>119.5</ele><time>2026-04-24T12:08:49Z</time></trkpt><trkpt lat="42.14010182224192" lon="11.818547542748417"><ele>118.0</ele><time>2026-04-24T12:08:50Z</time></trkpt><trkpt lat="42.14033648243369" lon="11.818503909101363"><ele>117.5</ele><time>2026-04-24T12:08:51Z</time></trkpt><trkpt lat="42.140568837614055" lon="11.81846025605481"><ele>117.0</ele><time>2026-04-24T12:08:52Z</time></trkpt><trkpt lat="42.14080019797268" lon="11.818414570339378"><ele>114.0</ele><time>2026-04-24T12:08:53Z</time></trkpt><trkpt lat="42.141028658399456" lon="11.818369164089335"><ele>111.0</ele><time>2026-04-24T12:08:54Z</time></trkpt><trkpt lat="42.14125527173094" lon="11.818320352981415"><ele>111.0</ele><time>2026-04-24T12:08:55Z</time></trkpt><trkpt lat="42.14148706726623" lon="11.81827627800739"><ele>111.0</ele><time>2026-04-24T12:08:56Z</time></trkpt><trkpt lat="42.141709148913314" lon="11.818240023247904"><ele>111.0</ele><time>2026-04-24T12:08:57Z</time></trkpt><trkpt lat="42.141939679125834" lon="11.818198806284755"><ele>111.0</ele><time>2026-04-24T12:08:58Z</time></trkpt><trkpt lat="42.142177336499024" lon="11.818148121810264"><ele>111.0</ele><time>2026-04-24T12:08:59Z</time></trkpt><trkpt lat="42.14241683003739" lon="11.818097021308487"><ele>111.0</ele><time>2026-04-24T12:09:00Z</time></trkpt><trkpt lat="42.14264697800841" lon="11.818047589296958"><ele>111.0</ele><time>2026-04-24T12:09:01Z</time></trkpt><trkpt lat="42.14287766442076" lon="11.817997916795154"><ele>111.0</ele><time>2026-04-24T12:09:02Z</time></trkpt><trkpt lat="42.14310560066046" lon="11.817936445860534"><ele>108.5</ele><time>2026-04-24T12:09:03Z</time></trkpt><trkpt lat="42.14333629024042" lon="11.817864545721013"><ele>106.0</ele><time>2026-04-24T12:09:04Z</time></trkpt><trkpt lat="42.14355726914556" lon="11.817776221993782"><ele>106.0</ele><time>2026-04-24T12:09:05Z</time></trkpt><trkpt lat="42.14378194963453" lon="11.81768151274768"><ele>106.0</ele><time>2026-04-24T12:09:06Z</time></trkpt><trkpt lat="42.143999426765426" lon="11.81758690961684"><ele>104.33333333333334</ele><time>2026-04-24T12:09:07Z</time></trkpt><trkpt lat="42.14421297781811" lon="11.817478134617755"><ele>102.66666666666666</ele><time>2026-04-24T12:09:08Z</time></trkpt><trkpt lat="42.14441569329817" lon="11.817366899348324"><ele>101.0</ele><time>2026-04-24T12:09:09Z</time></trkpt><trkpt lat="42.14460865626825" lon="11.81724652723167"><ele>101.0</ele><time>2026-04-24T12:09:10Z</time></trkpt><trkpt lat="42.144801775315415" lon="11.817121198782347"><ele>101.0</ele><time>2026-04-24T12:09:11Z</time></trkpt><trkpt lat="42.14499480020083" lon="11.81699368746005"><ele>101.0</ele><time>2026-04-24T12:09:12Z</time></trkpt><trkpt lat="42.14518312732636" lon="11.816861943618704"><ele>100.33333333333333</ele><time>2026-04-24T12:09:13Z</time></trkpt><trkpt lat="42.145370902524185" lon="11.816715213901599"><ele>99.66666666666666</ele><time>2026-04-24T12:09:14Z</time></trkpt><trkpt lat="42.145565918445946" lon="11.816553300965765"><ele>99.0</ele><time>2026-04-24T12:09:15Z</time></trkpt><trkpt lat="42.14574382338324" lon="11.816384550496156"><ele>99.0</ele><time>2026-04-24T12:09:16Z</time></trkpt><trkpt lat="42.145920529543" lon="11.816209567736848"><ele>99.0</ele><time>2026-04-24T12:09:17Z</time></trkpt><trkpt lat="42.14609074727636" lon="11.816028780011"><ele>99.0</ele><time>2026-04-24T12:09:18Z</time></trkpt><trkpt lat="42.14626360868574" lon="11.815834122216552"><ele>99.0</ele><time>2026-04-24T12:09:19Z</time></trkpt><trkpt lat="42.146438116098835" lon="11.81563673669289"><ele>99.0</ele><time>2026-04-24T12:09:20Z</time></trkpt><trkpt lat="42.14660406332669" lon="11.815433449860494"><ele>99.0</ele><time>2026-04-24T12:09:21Z</time></trkpt><trkpt lat="42.14677261771537" lon="11.815220397730915"><ele>99.0</ele><time>2026-04-24T12:09:22Z</time></trkpt><trkpt lat="42.14694221104495" lon="11.815000066371109"><ele>99.0</ele><time>2026-04-24T12:09:23Z</time></trkpt><trkpt lat="42.14708584130345" lon="11.814774418408952"><ele>99.0</ele><time>2026-04-24T12:09:24Z</time></trkpt><trkpt lat="42.14723124128985" lon="11.814545649598625"><ele>99.0</ele><time>2026-04-24T12:09:25Z</time></trkpt><trkpt lat="42.14736538685463" lon="11.814313804621948"><ele>99.0</ele><time>2026-04-24T12:09:26Z</time></trkpt><trkpt lat="42.14749915387169" lon="11.814071035321902"><ele>99.0</ele><time>2026-04-24T12:09:27Z</time></trkpt><trkpt lat="42.147623374849914" lon="11.81381979096397"><ele>99.0</ele><time>2026-04-24T12:09:28Z</time></trkpt><trkpt lat="42.14775086201722" lon="11.81355936294856"><ele>97.66666666666667</ele><time>2026-04-24T12:09:29Z</time></trkpt><trkpt lat="42.14786779157717" lon="11.81330285851785"><ele>96.33333333333334</ele><time>2026-04-24T12:09:30Z</time></trkpt><trkpt lat="42.14797657911673" lon="11.813036333296958"><ele>95.0</ele><time>2026-04-24T12:09:31Z</time></trkpt><trkpt lat="42.14808292785955" lon="11.812764644573223"><ele>94.66666666666667</ele><time>2026-04-24T12:09:32Z</time></trkpt><trkpt lat="42.148169316671435" lon="11.812492113142232"><ele>94.33333333333333</ele><time>2026-04-24T12:09:33Z</time></trkpt><trkpt lat="42.148254086789485" lon="11.812216627563107"><ele>94.0</ele><time>2026-04-24T12:09:34Z</time></trkpt><trkpt lat="42.14833996308684" lon="11.811934725607172"><ele>92.33333333333333</ele><time>2026-04-24T12:09:35Z</time></trkpt><trkpt lat="42.14841777054705" lon="11.811652379189663"><ele>90.66666666666667</ele><time>2026-04-24T12:09:36Z</time></trkpt><trkpt lat="42.148499012631426" lon="11.811371833364626"><ele>89.0</ele><time>2026-04-24T12:09:37Z</time></trkpt><trkpt lat="42.14858586600544" lon="11.811100797852843"><ele>87.66666666666667</ele><time>2026-04-24T12:09:38Z</time></trkpt><trkpt lat="42.14866463832972" lon="11.810833407118114"><ele>86.33333333333333</ele><time>2026-04-24T12:09:39Z</time></trkpt><trkpt lat="42.14874176497075" lon="11.81057008136846"><ele>85.0</ele><time>2026-04-24T12:09:40Z</time></trkpt><trkpt lat="42.14882723840385" lon="11.810288020914722"><ele>84.0</ele><time>2026-04-24T12:09:41Z</time></trkpt><trkpt lat="42.1489137948474" lon="11.810015728686746"><ele>83.0</ele><time>2026-04-24T12:09:42Z</time></trkpt><trkpt lat="42.14900242478442" lon="11.80974407637917"><ele>82.0</ele><time>2026-04-24T12:09:43Z</time></trkpt><trkpt lat="42.149081319537714" lon="11.809473131780317"><ele>80.0</ele><time>2026-04-24T12:09:44Z</time></trkpt><trkpt lat="42.14916244749696" lon="11.809192514317695"><ele>78.0</ele><time>2026-04-24T12:09:45Z</time></trkpt><trkpt lat="42.14924269080741" lon="11.808920075494056"><ele>76.0</ele><time>2026-04-24T12:09:46Z</time></trkpt><trkpt lat="42.1493149167941" lon="11.808644760660375"><ele>75.0</ele><time>2026-04-24T12:09:47Z</time></trkpt><trkpt lat="42.14939949909071" lon="11.808371936959208"><ele>74.0</ele><time>2026-04-24T12:09:48Z</time></trkpt><trkpt lat="42.14947850686131" lon="11.808102423586131"><ele>73.0</ele><time>2026-04-24T12:09:49Z</time></trkpt><trkpt lat="42.14957188518733" lon="11.807822470398916"><ele>72.0</ele><time>2026-04-24T12:09:50Z</time></trkpt><trkpt lat="42.149652339475566" lon="11.807545108202238"><ele>71.0</ele><time>2026-04-24T12:09:51Z</time></trkpt><trkpt lat="42.14973890904887" lon="11.807266091697354"><ele>70.0</ele><time>2026-04-24T12:09:52Z</time></trkpt><trkpt lat="42.14982740890683" lon="11.806985154524826"><ele>69.33333333333333</ele><time>2026-04-24T12:09:53Z</time></trkpt><trkpt lat="42.14990032129668" lon="11.806708516868929"><ele>68.66666666666667</ele><time>2026-04-24T12:09:54Z</time></trkpt><trkpt lat="42.149979080772844" lon="11.806428912799324"><ele>68.0</ele><time>2026-04-24T12:09:55Z</time></trkpt><trkpt lat="42.150056157910846" lon="11.80615170763375"><ele>67.66666666666667</ele><time>2026-04-24T12:09:56Z</time></trkpt><trkpt lat="42.150135250333626" lon="11.80587740787085"><ele>67.33333333333333</ele><time>2026-04-24T12:09:57Z</time></trkpt><trkpt lat="42.150219180131906" lon="11.805600612108057"><ele>67.0</ele><time>2026-04-24T12:09:58Z</time></trkpt><trkpt lat="42.15030695007565" lon="11.80531785745721"><ele>66.0</ele><time>2026-04-24T12:09:59Z</time></trkpt><trkpt lat="42.150388455952225" lon="11.805038260277826"><ele>65.0</ele><time>2026-04-24T12:10:00Z</time></trkpt><trkpt lat="42.150467946784566" lon="11.804770366288261"><ele>64.0</ele><time>2026-04-24T12:10:01Z</time></trkpt><trkpt lat="42.15055128031141" lon="11.804498781581376"><ele>64.0</ele><time>2026-04-24T12:10:02Z</time></trkpt><trkpt lat="42.15063366567098" lon="11.804212901347544"><ele>64.0</ele><time>2026-04-24T12:10:03Z</time></trkpt><trkpt lat="42.15072276039691" lon="11.803916790215155"><ele>64.0</ele><time>2026-04-24T12:10:04Z</time></trkpt><trkpt lat="42.150818978432824" lon="11.803614872240876"><ele>64.0</ele><time>2026-04-24T12:10:05Z</time></trkpt><trkpt lat="42.15091931293171" lon="11.803313686397269"><ele>63.0</ele><time>2026-04-24T12:10:06Z</time></trkpt><trkpt lat="42.151023062447784" lon="11.803015647720825"><ele>62.0</ele><time>2026-04-24T12:10:07Z</time></trkpt><trkpt lat="42.15113126706671" lon="11.802724985926966"><ele>60.5</ele><time>2026-04-24T12:10:08Z</time></trkpt><trkpt lat="42.15123936085039" lon="11.802427720956288"><ele>59.0</ele><time>2026-04-24T12:10:09Z</time></trkpt><trkpt lat="42.15135661152833" lon="11.802141456515715"><ele>59.0</ele><time>2026-04-24T12:10:10Z</time></trkpt><trkpt lat="42.151478262299236" lon="11.801864778606081"><ele>59.0</ele><time>2026-04-24T12:10:11Z</time></trkpt><trkpt lat="42.15160051542321" lon="11.80159554978591"><ele>59.5</ele><time>2026-04-24T12:10:12Z</time></trkpt><trkpt lat="42.1517327618357" lon="11.801324559375841"><ele>60.0</ele><time>2026-04-24T12:10:13Z</time></trkpt><trkpt lat="42.151868043487276" lon="11.801061280338192"><ele>58.5</ele><time>2026-04-24T12:10:14Z</time></trkpt><trkpt lat="42.1520168108293" lon="11.800804394438618"><ele>57.0</ele><time>2026-04-24T12:10:15Z</time></trkpt><trkpt lat="42.15216300156111" lon="11.80055633473034"><ele>57.0</ele><time>2026-04-24T12:10:16Z</time></trkpt><trkpt lat="42.15230905188788" lon="11.800312982759387"><ele>57.0</ele><time>2026-04-24T12:10:17Z</time></trkpt><trkpt lat="42.15246450239589" lon="11.800075850343392"><ele>57.5</ele><time>2026-04-24T12:10:18Z</time></trkpt><trkpt lat="42.1526261391927" lon="11.79984413657945"><ele>58.0</ele><time>2026-04-24T12:10:19Z</time></trkpt><trkpt lat="42.15278612822191" lon="11.799622205222956"><ele>58.0</ele><time>2026-04-24T12:10:20Z</time></trkpt><trkpt lat="42.15294467691502" lon="11.799408619162223"><ele>58.0</ele><time>2026-04-24T12:10:21Z</time></trkpt><trkpt lat="42.15311076145838" lon="11.799203617799646"><ele>58.0</ele><time>2026-04-24T12:10:22Z</time></trkpt><trkpt lat="42.1532767560125" lon="11.798996410354045"><ele>57.5</ele><time>2026-04-24T12:10:23Z</time></trkpt><trkpt lat="42.153458907145755" lon="11.798796874584063"><ele>57.0</ele><time>2026-04-24T12:10:24Z</time></trkpt><trkpt lat="42.153645374045176" lon="11.798588495572462"><ele>57.0</ele><time>2026-04-24T12:10:25Z</time></trkpt><trkpt lat="42.15382642925705" lon="11.79840625727656"><ele>57.0</ele><time>2026-04-24T12:10:26Z</time></trkpt><trkpt lat="42.15400923781909" lon="11.798220450939242"><ele>56.33333333333333</ele><time>2026-04-24T12:10:27Z</time></trkpt><trkpt lat="42.15418824728902" lon="11.7980439703857"><ele>55.666666666666664</ele><time>2026-04-24T12:10:28Z</time></trkpt><trkpt lat="42.1543622611956" lon="11.79788704785599"><ele>55.0</ele><time>2026-04-24T12:10:29Z</time></trkpt><trkpt lat="42.15454743501099" lon="11.797716835297152"><ele>54.666666666666664</ele><time>2026-04-24T12:10:30Z</time></trkpt><trkpt lat="42.1547229112267" lon="11.797548846551251"><ele>54.33333333333333</ele><time>2026-04-24T12:10:31Z</time></trkpt><trkpt lat="42.154896484519256" lon="11.797386896692993"><ele>54.0</ele><time>2026-04-24T12:10:32Z</time></trkpt><trkpt lat="42.15507559566355" lon="11.797217042759655"><ele>54.0</ele><time>2026-04-24T12:10:33Z</time></trkpt><trkpt lat="42.15524801475753" lon="11.79705095680932"><ele>54.0</ele><time>2026-04-24T12:10:34Z</time></trkpt><trkpt lat="42.1554112079705" lon="11.796899158814966"><ele>54.0</ele><time>2026-04-24T12:10:35Z</time></trkpt><trkpt lat="42.15558892854523" lon="11.796737999121396"><ele>52.33333333333333</ele><time>2026-04-24T12:10:36Z</time></trkpt><trkpt lat="42.155765949673295" lon="11.796565797098225"><ele>50.666666666666664</ele><time>2026-04-24T12:10:37Z</time></trkpt><trkpt lat="42.155941017393715" lon="11.796403437237187"><ele>49.0</ele><time>2026-04-24T12:10:38Z</time></trkpt><trkpt lat="42.15612009464375" lon="11.796231780080326"><ele>49.0</ele><time>2026-04-24T12:10:39Z</time></trkpt><trkpt lat="42.156305500380604" lon="11.79604765082996"><ele>49.0</ele><time>2026-04-24T12:10:40Z</time></trkpt><trkpt lat="42.15648798425309" lon="11.79587614755903"><ele>48.33333333333333</ele><time>2026-04-24T12:10:41Z</time></trkpt><trkpt lat="42.156668233402954" lon="11.795704900145768"><ele>47.666666666666664</ele><time>2026-04-24T12:10:42Z</time></trkpt><trkpt lat="42.15685931604386" lon="11.795541565549298"><ele>47.0</ele><time>2026-04-24T12:10:43Z</time></trkpt><trkpt lat="42.157035474882626" lon="11.795379938079842"><ele>47.0</ele><time>2026-04-24T12:10:44Z</time></trkpt><trkpt lat="42.157201831475845" lon="11.795214453708592"><ele>47.0</ele><time>2026-04-24T12:10:45Z</time></trkpt><trkpt lat="42.157398205008484" lon="11.795030208550436"><ele>47.0</ele><time>2026-04-24T12:10:46Z</time></trkpt><trkpt lat="42.15759410644384" lon="11.794840451647545"><ele>46.666666666666664</ele><time>2026-04-24T12:10:47Z</time></trkpt><trkpt lat="42.15777509945881" lon="11.794673171477797"><ele>46.333333333333336</ele><time>2026-04-24T12:10:48Z</time></trkpt><trkpt lat="42.15794967780854" lon="11.794507570265276"><ele>46.0</ele><time>2026-04-24T12:10:49Z</time></trkpt><trkpt lat="42.15811705536408" lon="11.794328568883763"><ele>42.0</ele><time>2026-04-24T12:10:50Z</time></trkpt><trkpt lat="42.15828333798935" lon="11.794152832926995"><ele>38.0</ele><time>2026-04-24T12:10:51Z</time></trkpt><trkpt lat="42.15845663920254" lon="11.793985949243"><ele>34.0</ele><time>2026-04-24T12:10:52Z</time></trkpt><trkpt lat="42.158636786714936" lon="11.793808389433467"><ele>34.0</ele><time>2026-04-24T12:10:53Z</time></trkpt><trkpt lat="42.15882274453626" lon="11.793636979705404"><ele>34.0</ele><time>2026-04-24T12:10:54Z</time></trkpt><trkpt lat="42.159014167057734" lon="11.793445986149212"><ele>31.0</ele><time>2026-04-24T12:10:55Z</time></trkpt><trkpt lat="42.15921956403551" lon="11.79325421103951"><ele>28.0</ele><time>2026-04-24T12:10:56Z</time></trkpt><trkpt lat="42.15943712313577" lon="11.793036860747542"><ele>28.0</ele><time>2026-04-24T12:10:57Z</time></trkpt><trkpt lat="42.15964819089901" lon="11.792823796467632"><ele>28.0</ele><time>2026-04-24T12:10:58Z</time></trkpt><trkpt lat="42.15988432415961" lon="11.792612359678529"><ele>27.5</ele><time>2026-04-24T12:10:59Z</time></trkpt><trkpt lat="42.16009043302115" lon="11.792409969622993"><ele>27.0</ele><time>2026-04-24T12:11:00Z</time></trkpt><trkpt lat="42.16030833356819" lon="11.792211575733733"><ele>27.0</ele><time>2026-04-24T12:11:01Z</time></trkpt><trkpt lat="42.16050578675504" lon="11.79202356018712"><ele>27.0</ele><time>2026-04-24T12:11:02Z</time></trkpt><trkpt lat="42.16070343205854" lon="11.791836923430992"><ele>28.0</ele><time>2026-04-24T12:11:03Z</time></trkpt><trkpt lat="42.160902474329816" lon="11.791655128718704"><ele>29.0</ele><time>2026-04-24T12:11:04Z</time></trkpt><trkpt lat="42.161083580717936" lon="11.791468312706336"><ele>29.0</ele><time>2026-04-24T12:11:05Z</time></trkpt><trkpt lat="42.16127091947395" lon="11.791291529380139"><ele>29.0</ele><time>2026-04-24T12:11:06Z</time></trkpt><trkpt lat="42.1614536083919" lon="11.79110869113633"><ele>32.5</ele><time>2026-04-24T12:11:07Z</time></trkpt><trkpt lat="42.16165385115387" lon="11.790935228466562"><ele>36.0</ele><time>2026-04-24T12:11:08Z</time></trkpt><trkpt lat="42.16183983535842" lon="11.790758619025828"><ele>36.0</ele><time>2026-04-24T12:11:09Z</time></trkpt><trkpt lat="42.16204312985547" lon="11.790578463625996"><ele>36.0</ele><time>2026-04-24T12:11:10Z</time></trkpt><trkpt lat="42.16224007774773" lon="11.790400390703907"><ele>37.5</ele><time>2026-04-24T12:11:11Z</time></trkpt><trkpt lat="42.16244272722195" lon="11.790230262131033"><ele>39.0</ele><time>2026-04-24T12:11:12Z</time></trkpt><trkpt lat="42.162640426887776" lon="11.790060852126322"><ele>39.0</ele><time>2026-04-24T12:11:13Z</time></trkpt><trkpt lat="42.16283889662894" lon="11.789891761329933"><ele>39.0</ele><time>2026-04-24T12:11:14Z</time></trkpt><trkpt lat="42.16303936246137" lon="11.789734768889153"><ele>39.0</ele><time>2026-04-24T12:11:15Z</time></trkpt><trkpt lat="42.16323529689205" lon="11.789593240698244"><ele>39.0</ele><time>2026-04-24T12:11:16Z</time></trkpt><trkpt lat="42.163436233181926" lon="11.78946991487506"><ele>39.0</ele><time>2026-04-24T12:11:17Z</time></trkpt><trkpt lat="42.16362110344827" lon="11.78934618666081"><ele>38.0</ele><time>2026-04-24T12:11:18Z</time></trkpt><trkpt lat="42.16381830319874" lon="11.78922420172596"><ele>37.0</ele><time>2026-04-24T12:11:19Z</time></trkpt><trkpt lat="42.164047854015934" lon="11.789102573816162"><ele>36.333333333333336</ele><time>2026-04-24T12:11:20Z</time></trkpt><trkpt lat="42.16426181313489" lon="11.789001418199009"><ele>35.666666666666664</ele><time>2026-04-24T12:11:21Z</time></trkpt><trkpt lat="42.16447165793507" lon="11.788905537154745"><ele>35.0</ele><time>2026-04-24T12:11:22Z</time></trkpt><trkpt lat="42.16468134135114" lon="11.788813764399132"><ele>35.33333333333333</ele><time>2026-04-24T12:11:23Z</time></trkpt><trkpt lat="42.16488833107192" lon="11.788737558941634"><ele>35.666666666666664</ele><time>2026-04-24T12:11:24Z</time></trkpt><trkpt lat="42.16509227932485" lon="11.78866712901912"><ele>36.0</ele><time>2026-04-24T12:11:25Z</time></trkpt><trkpt lat="42.165291382103156" lon="11.788604722530666"><ele>36.0</ele><time>2026-04-24T12:11:26Z</time></trkpt><trkpt lat="42.16550521440057" lon="11.788554145644932"><ele>36.0</ele><time>2026-04-24T12:11:27Z</time></trkpt><trkpt lat="42.1657285416977" lon="11.788506107675575"><ele>36.0</ele><time>2026-04-24T12:11:28Z</time></trkpt><trkpt lat="42.16594073895087" lon="11.788467933122778"><ele>35.666666666666664</ele><time>2026-04-24T12:11:29Z</time></trkpt><trkpt lat="42.166160007486695" lon="11.788430348732462"><ele>35.33333333333333</ele><time>2026-04-24T12:11:30Z</time></trkpt><trkpt lat="42.166380720785604" lon="11.788400416216442"><ele>35.0</ele><time>2026-04-24T12:11:31Z</time></trkpt><trkpt lat="42.1666196396271" lon="11.78836513505349"><ele>35.0</ele><time>2026-04-24T12:11:32Z</time></trkpt><trkpt lat="42.16682119322937" lon="11.788331351576748"><ele>35.0</ele><time>2026-04-24T12:11:33Z</time></trkpt><trkpt lat="42.16704190650742" lon="11.788309957645831"><ele>35.0</ele><time>2026-04-24T12:11:34Z</time></trkpt><trkpt lat="42.16725865659663" lon="11.788296437520511"><ele>36.5</ele><time>2026-04-24T12:11:35Z</time></trkpt><trkpt lat="42.16749092560881" lon="11.788279292697494"><ele>38.0</ele><time>2026-04-24T12:11:36Z</time></trkpt><trkpt lat="42.16773910181862" lon="11.788270092772692"><ele>38.0</ele><time>2026-04-24T12:11:37Z</time></trkpt><trkpt lat="42.168004334402156" lon="11.7882542302633"><ele>38.0</ele><time>2026-04-24T12:11:38Z</time></trkpt><trkpt lat="42.168274602857245" lon="11.788236333420544"><ele>36.5</ele><time>2026-04-24T12:11:39Z</time></trkpt><trkpt lat="42.168534816636786" lon="11.78821949932468"><ele>35.0</ele><time>2026-04-24T12:11:40Z</time></trkpt><trkpt lat="42.168811148723115" lon="11.788196494207016"><ele>34.0</ele><time>2026-04-24T12:11:41Z</time></trkpt><trkpt lat="42.16907161331544" lon="11.788188426497724"><ele>33.0</ele><time>2026-04-24T12:11:42Z</time></trkpt><trkpt lat="42.16930523496464" lon="11.788143404184614"><ele>33.0</ele><time>2026-04-24T12:11:43Z</time></trkpt><trkpt lat="42.16953549729339" lon="11.788124730439412"><ele>33.0</ele><time>2026-04-24T12:11:44Z</time></trkpt><trkpt lat="42.16976402428857" lon="11.788098954393208"><ele>33.5</ele><time>2026-04-24T12:11:45Z</time></trkpt><trkpt lat="42.17001984613093" lon="11.78808515932137"><ele>34.0</ele><time>2026-04-24T12:11:46Z</time></trkpt><trkpt lat="42.17026141190571" lon="11.788075740554989"><ele>34.0</ele><time>2026-04-24T12:11:47Z</time></trkpt><trkpt lat="42.17050887664061" lon="11.78804597781041"><ele>34.0</ele><time>2026-04-24T12:11:48Z</time></trkpt><trkpt lat="42.170743609036315" lon="11.788033170775531"><ele>34.0</ele><time>2026-04-24T12:11:49Z</time></trkpt><trkpt lat="42.17097475655132" lon="11.78801253549249"><ele>34.0</ele><time>2026-04-24T12:11:50Z</time></trkpt><trkpt lat="42.17119462866889" lon="11.787984260422364"><ele>34.0</ele><time>2026-04-24T12:11:51Z</time></trkpt><trkpt lat="42.171407968135426" lon="11.78795751919515"><ele>34.0</ele><time>2026-04-24T12:11:52Z</time></trkpt><trkpt lat="42.17163055006123" lon="11.78793797802833"><ele>34.0</ele><time>2026-04-24T12:11:53Z</time></trkpt><trkpt lat="42.17184457757303" lon="11.787913299415203"><ele>34.66666666666667</ele><time>2026-04-24T12:11:54Z</time></trkpt><trkpt lat="42.17205970638514" lon="11.787896269117299"><ele>35.333333333333336</ele><time>2026-04-24T12:11:55Z</time></trkpt><trkpt lat="42.17229215891065" lon="11.787877905072639"><ele>36.0</ele><time>2026-04-24T12:11:56Z</time></trkpt><trkpt lat="42.17252140099769" lon="11.78785998415914"><ele>36.5</ele><time>2026-04-24T12:11:57Z</time></trkpt><trkpt lat="42.17275435218174" lon="11.787848078758184"><ele>37.0</ele><time>2026-04-24T12:11:58Z</time></trkpt><trkpt lat="42.17299081318792" lon="11.78782758261272"><ele>36.0</ele><time>2026-04-24T12:11:59Z</time></trkpt><trkpt lat="42.173226182914966" lon="11.787805153729838"><ele>35.0</ele><time>2026-04-24T12:12:00Z</time></trkpt><trkpt lat="42.17344303200652" lon="11.787783800435323"><ele>35.0</ele><time>2026-04-24T12:12:01Z</time></trkpt><trkpt lat="42.17367644495826" lon="11.787763055427073"><ele>35.0</ele><time>2026-04-24T12:12:02Z</time></trkpt><trkpt lat="42.17390124606952" lon="11.787740825785077"><ele>35.0</ele><time>2026-04-24T12:12:03Z</time></trkpt><trkpt lat="42.17413746611162" lon="11.78771559515938"><ele>35.0</ele><time>2026-04-24T12:12:04Z</time></trkpt><trkpt lat="42.174366685028495" lon="11.787697212675907"><ele>35.0</ele><time>2026-04-24T12:12:05Z</time></trkpt><trkpt lat="42.174576456109776" lon="11.787670437534745"><ele>35.0</ele><time>2026-04-24T12:12:06Z</time></trkpt><trkpt lat="42.17479352284549" lon="11.787649626835709"><ele>35.0</ele><time>2026-04-24T12:12:07Z</time></trkpt><trkpt lat="42.175000190467635" lon="11.787627110290387"><ele>35.0</ele><time>2026-04-24T12:12:08Z</time></trkpt><trkpt lat="42.17521647294058" lon="11.787611343407521"><ele>35.0</ele><time>2026-04-24T12:12:09Z</time></trkpt><trkpt lat="42.175426842298485" lon="11.787593985806517"><ele>35.0</ele><time>2026-04-24T12:12:10Z</time></trkpt><trkpt lat="42.17565894032184" lon="11.78757803650487"><ele>35.5</ele><time>2026-04-24T12:12:11Z</time></trkpt><trkpt lat="42.17588914330865" lon="11.78757066519181"><ele>36.0</ele><time>2026-04-24T12:12:12Z</time></trkpt><trkpt lat="42.17610912274114" lon="11.787577758263362"><ele>36.0</ele><time>2026-04-24T12:12:13Z</time></trkpt><trkpt lat="42.17631391785916" lon="11.787584467074895"><ele>36.0</ele><time>2026-04-24T12:12:14Z</time></trkpt><trkpt lat="42.17652159544449" lon="11.787594541213021"><ele>36.0</ele><time>2026-04-24T12:12:15Z</time></trkpt><trkpt lat="42.176733041430275" lon="11.787610791666463"><ele>36.333333333333336</ele><time>2026-04-24T12:12:16Z</time></trkpt><trkpt lat="42.176952010111954" lon="11.787636393925753"><ele>36.66666666666667</ele><time>2026-04-24T12:12:17Z</time></trkpt><trkpt lat="42.177155164986736" lon="11.78766846735855"><ele>37.0</ele><time>2026-04-24T12:12:18Z</time></trkpt><trkpt lat="42.17736277392753" lon="11.787710988012615"><ele>38.333333333333336</ele><time>2026-04-24T12:12:19Z</time></trkpt><trkpt lat="42.17757061830519" lon="11.787759636929513"><ele>39.666666666666664</ele><time>2026-04-24T12:12:20Z</time></trkpt><trkpt lat="42.17776866925711" lon="11.787799272811082"><ele>41.0</ele><time>2026-04-24T12:12:21Z</time></trkpt><trkpt lat="42.177964838881195" lon="11.787852194200877"><ele>41.0</ele><time>2026-04-24T12:12:22Z</time></trkpt><trkpt lat="42.17816877906419" lon="11.787905215752271"><ele>41.0</ele><time>2026-04-24T12:12:23Z</time></trkpt><trkpt lat="42.178365647977685" lon="11.787975853065072"><ele>41.0</ele><time>2026-04-24T12:12:24Z</time></trkpt><trkpt lat="42.17855888833577" lon="11.78805134415771"><ele>40.666666666666664</ele><time>2026-04-24T12:12:25Z</time></trkpt><trkpt lat="42.17874392084347" lon="11.788131007989975"><ele>40.333333333333336</ele><time>2026-04-24T12:12:26Z</time></trkpt><trkpt lat="42.178944751065295" lon="11.7882248155764"><ele>40.0</ele><time>2026-04-24T12:12:27Z</time></trkpt><trkpt lat="42.17916108930546" lon="11.788319893567868"><ele>38.5</ele><time>2026-04-24T12:12:28Z</time></trkpt><trkpt lat="42.17936041104941" lon="11.788414012314934"><ele>37.0</ele><time>2026-04-24T12:12:29Z</time></trkpt><trkpt lat="42.1795930653179" lon="11.78853721834661"><ele>37.0</ele><time>2026-04-24T12:12:30Z</time></trkpt><trkpt lat="42.17982108118296" lon="11.788655054723282"><ele>37.0</ele><time>2026-04-24T12:12:31Z</time></trkpt><trkpt lat="42.18007228396953" lon="11.788777229748252"><ele>36.0</ele><time>2026-04-24T12:12:32Z</time></trkpt><trkpt lat="42.180311123429966" lon="11.788868367911158"><ele>35.0</ele><time>2026-04-24T12:12:33Z</time></trkpt><trkpt lat="42.180542259887616" lon="11.788975128726666"><ele>34.5</ele><time>2026-04-24T12:12:34Z</time></trkpt><trkpt lat="42.18077551240079" lon="11.789068636946256"><ele>34.0</ele><time>2026-04-24T12:12:35Z</time></trkpt><trkpt lat="42.1809971327904" lon="11.789134759646867"><ele>34.0</ele><time>2026-04-24T12:12:36Z</time></trkpt><trkpt lat="42.18123103625122" lon="11.789201559098236"><ele>34.0</ele><time>2026-04-24T12:12:37Z</time></trkpt><trkpt lat="42.18146248060951" lon="11.789241779999841"><ele>36.0</ele><time>2026-04-24T12:12:38Z</time></trkpt><trkpt lat="42.18169160016913" lon="11.78927321259903"><ele>38.0</ele><time>2026-04-24T12:12:39Z</time></trkpt><trkpt lat="42.18192145821921" lon="11.789277911093158"><ele>38.0</ele><time>2026-04-24T12:12:40Z</time></trkpt><trkpt lat="42.182133921211545" lon="11.789289082210015"><ele>38.0</ele><time>2026-04-24T12:12:41Z</time></trkpt><trkpt lat="42.18235079310901" lon="11.78928921107107"><ele>38.0</ele><time>2026-04-24T12:12:42Z</time></trkpt><trkpt lat="42.182563473149685" lon="11.78927080411429"><ele>38.33333333333333</ele><time>2026-04-24T12:12:43Z</time></trkpt><trkpt lat="42.18278748238204" lon="11.789248100945715"><ele>38.666666666666664</ele><time>2026-04-24T12:12:44Z</time></trkpt><trkpt lat="42.18300039548417" lon="11.789205126675224"><ele>39.0</ele><time>2026-04-24T12:12:45Z</time></trkpt><trkpt lat="42.183216554284094" lon="11.789145539378856"><ele>39.666666666666664</ele><time>2026-04-24T12:12:46Z</time></trkpt><trkpt lat="42.18341148160833" lon="11.789077435197768"><ele>40.33333333333333</ele><time>2026-04-24T12:12:47Z</time></trkpt><trkpt lat="42.183617698143145" lon="11.78900127624656"><ele>41.0</ele><time>2026-04-24T12:12:48Z</time></trkpt><trkpt lat="42.18382487742019" lon="11.788910064349476"><ele>41.33333333333333</ele><time>2026-04-24T12:12:49Z</time></trkpt><trkpt lat="42.18402434048257" lon="11.788811438794347"><ele>41.666666666666664</ele><time>2026-04-24T12:12:50Z</time></trkpt><trkpt lat="42.184222227416335" lon="11.788704701050136"><ele>42.0</ele><time>2026-04-24T12:12:51Z</time></trkpt><trkpt lat="42.18442625282165" lon="11.788593939273968"><ele>41.333333333333336</ele><time>2026-04-24T12:12:52Z</time></trkpt><trkpt lat="42.18461953792366" lon="11.788472882154608"><ele>40.66666666666667</ele><time>2026-04-24T12:12:53Z</time></trkpt><trkpt lat="42.18481716872664" lon="11.788348630716012"><ele>40.0</ele><time>2026-04-24T12:12:54Z</time></trkpt><trkpt lat="42.185004484944244" lon="11.788225421366858"><ele>39.66666666666667</ele><time>2026-04-24T12:12:55Z</time></trkpt><trkpt lat="42.18521276303629" lon="11.788111116106325"><ele>39.333333333333336</ele><time>2026-04-24T12:12:56Z</time></trkpt><trkpt lat="42.18540096185302" lon="11.787989816938993"><ele>39.0</ele><time>2026-04-24T12:12:57Z</time></trkpt><trkpt lat="42.18559798114078" lon="11.787876472202925"><ele>38.333333333333336</ele><time>2026-04-24T12:12:58Z</time></trkpt><trkpt lat="42.185791803455935" lon="11.787761243073314"><ele>37.66666666666667</ele><time>2026-04-24T12:12:59Z</time></trkpt><trkpt lat="42.18597253546675" lon="11.787646075086217"><ele>37.0</ele><time>2026-04-24T12:13:00Z</time></trkpt><trkpt lat="42.18616082318689" lon="11.787539462076467"><ele>36.333333333333336</ele><time>2026-04-24T12:13:01Z</time></trkpt><trkpt lat="42.186353224770436" lon="11.78744315677446"><ele>35.666666666666664</ele><time>2026-04-24T12:13:02Z</time></trkpt><trkpt lat="42.18654979736556" lon="11.787349494049847"><ele>35.0</ele><time>2026-04-24T12:13:03Z</time></trkpt><trkpt lat="42.18674827192247" lon="11.787259949972224"><ele>35.0</ele><time>2026-04-24T12:13:04Z</time></trkpt><trkpt lat="42.18693893157426" lon="11.787167568344492"><ele>35.0</ele><time>2026-04-24T12:13:05Z</time></trkpt><trkpt lat="42.18714956766746" lon="11.787093544389219"><ele>35.0</ele><time>2026-04-24T12:13:06Z</time></trkpt><trkpt lat="42.18736624404671" lon="11.787021542271457"><ele>34.33333333333333</ele><time>2026-04-24T12:13:07Z</time></trkpt><trkpt lat="42.187579281548075" lon="11.786965463143364"><ele>33.666666666666664</ele><time>2026-04-24T12:13:08Z</time></trkpt><trkpt lat="42.18779859490276" lon="11.786910001248845"><ele>33.0</ele><time>2026-04-24T12:13:09Z</time></trkpt><trkpt lat="42.18801466964932" lon="11.786857898754544"><ele>29.333333333333332</ele><time>2026-04-24T12:13:10Z</time></trkpt><trkpt lat="42.18824144851834" lon="11.786824576853094"><ele>25.666666666666664</ele><time>2026-04-24T12:13:11Z</time></trkpt><trkpt lat="42.188450138789456" lon="11.786783543776233"><ele>22.0</ele><time>2026-04-24T12:13:12Z</time></trkpt><trkpt lat="42.188661997093185" lon="11.786747238580151"><ele>22.0</ele><time>2026-04-24T12:13:13Z</time></trkpt><trkpt lat="42.18887254799261" lon="11.786721724686794"><ele>22.0</ele><time>2026-04-24T12:13:14Z</time></trkpt><trkpt lat="42.189083501475906" lon="11.786700160395737"><ele>22.0</ele><time>2026-04-24T12:13:15Z</time></trkpt><trkpt lat="42.18929793409262" lon="11.78667362744534"><ele>15.0</ele><time>2026-04-24T12:13:16Z</time></trkpt><trkpt lat="42.18952660292544" lon="11.786653869707125"><ele>8.0</ele><time>2026-04-24T12:13:17Z</time></trkpt><trkpt lat="42.18975163321066" lon="11.786620426853121"><ele>7.0</ele><time>2026-04-24T12:13:18Z</time></trkpt><trkpt lat="42.18996944397812" lon="11.786592998505483"><ele>6.0</ele><time>2026-04-24T12:13:19Z</time></trkpt><trkpt lat="42.190193601265385" lon="11.786565289226472"><ele>5.0</ele><time>2026-04-24T12:13:20Z</time></trkpt><trkpt lat="42.19041585228478" lon="11.786554478595521"><ele>5.0</ele><time>2026-04-24T12:13:21Z</time></trkpt><trkpt lat="42.190629021197374" lon="11.786537506372444"><ele>5.0</ele><time>2026-04-24T12:13:22Z</time></trkpt><trkpt lat="42.19084347726959" lon="11.786522292278216"><ele>5.0</ele><time>2026-04-24T12:13:23Z</time></trkpt><trkpt lat="42.191064240356496" lon="11.7865004370169"><ele>5.0</ele><time>2026-04-24T12:13:24Z</time></trkpt><trkpt lat="42.19128954289374" lon="11.7864794347011"><ele>5.0</ele><time>2026-04-24T12:13:25Z</time></trkpt><trkpt lat="42.19152925103996" lon="11.786450125088177"><ele>5.0</ele><time>2026-04-24T12:13:26Z</time></trkpt><trkpt lat="42.19176063511413" lon="11.786424416568996"><ele>5.0</ele><time>2026-04-24T12:13:27Z</time></trkpt><trkpt lat="42.191984365501476" lon="11.78640606714447"><ele>5.0</ele><time>2026-04-24T12:13:28Z</time></trkpt><trkpt lat="42.19221379743959" lon="11.786369483256138"><ele>5.0</ele><time>2026-04-24T12:13:29Z</time></trkpt><trkpt lat="42.19243698755537" lon="11.786349567700015"><ele>4.5</ele><time>2026-04-24T12:13:30Z</time></trkpt><trkpt lat="42.19266578131984" lon="11.786330457377408"><ele>4.0</ele><time>2026-04-24T12:13:31Z</time></trkpt><trkpt lat="42.19289893824895" lon="11.786312389806767"><ele>4.0</ele><time>2026-04-24T12:13:32Z</time></trkpt><trkpt lat="42.19313160645315" lon="11.786286954330643"><ele>4.0</ele><time>2026-04-24T12:13:33Z</time></trkpt><trkpt lat="42.19333239992163" lon="11.786267900741112"><ele>4.0</ele><time>2026-04-24T12:13:34Z</time></trkpt><trkpt lat="42.193559850483574" lon="11.786243855400533"><ele>4.0</ele><time>2026-04-24T12:13:35Z</time></trkpt><trkpt lat="42.19379031740544" lon="11.786210123137002"><ele>4.0</ele><time>2026-04-24T12:13:36Z</time></trkpt><trkpt lat="42.19400905621117" lon="11.786191554660542"><ele>4.0</ele><time>2026-04-24T12:13:37Z</time></trkpt><trkpt lat="42.19422757193599" lon="11.786166326359872"><ele>4.0</ele><time>2026-04-24T12:13:38Z</time></trkpt><trkpt lat="42.19443741159896" lon="11.786144098214853"><ele>4.0</ele><time>2026-04-24T12:13:39Z</time></trkpt><trkpt lat="42.19466976165406" lon="11.78612858781232"><ele>4.0</ele><time>2026-04-24T12:13:40Z</time></trkpt><trkpt lat="42.19489595665635" lon="11.786116869659347"><ele>4.0</ele><time>2026-04-24T12:13:41Z</time></trkpt><trkpt lat="42.19511113161144" lon="11.786108526171152"><ele>4.0</ele><time>2026-04-24T12:13:42Z</time></trkpt><trkpt lat="42.195315912108626" lon="11.786098887787174"><ele>4.0</ele><time>2026-04-24T12:13:43Z</time></trkpt><trkpt lat="42.1955264372165" lon="11.786082157077931"><ele>4.0</ele><time>2026-04-24T12:13:44Z</time></trkpt><trkpt lat="42.195753592112425" lon="11.78606190646861"><ele>4.0</ele><time>2026-04-24T12:13:45Z</time></trkpt><trkpt lat="42.195970827763105" lon="11.786032496546174"><ele>4.666666666666666</ele><time>2026-04-24T12:13:46Z</time></trkpt><trkpt lat="42.19617897646015" lon="11.785999201835017"><ele>5.333333333333333</ele><time>2026-04-24T12:13:47Z</time></trkpt><trkpt lat="42.19639847730825" lon="11.785964963164643"><ele>6.0</ele><time>2026-04-24T12:13:48Z</time></trkpt><trkpt lat="42.196651753041536" lon="11.785939166414838"><ele>6.0</ele><time>2026-04-24T12:13:49Z</time></trkpt><trkpt lat="42.19691321016183" lon="11.785920424969195"><ele>6.0</ele><time>2026-04-24T12:13:50Z</time></trkpt><trkpt lat="42.19716309016381" lon="11.785915110752198"><ele>6.0</ele><time>2026-04-24T12:13:51Z</time></trkpt><trkpt lat="42.197427323110766" lon="11.785883005049541"><ele>6.0</ele><time>2026-04-24T12:13:52Z</time></trkpt><trkpt lat="42.197708458600395" lon="11.785854558219137"><ele>6.0</ele><time>2026-04-24T12:13:53Z</time></trkpt><trkpt lat="42.1979826872311" lon="11.785827246687711"><ele>6.0</ele><time>2026-04-24T12:13:54Z</time></trkpt><trkpt lat="42.19825494404484" lon="11.785811683000304"><ele>5.5</ele><time>2026-04-24T12:13:55Z</time></trkpt><trkpt lat="42.19853109536646" lon="11.785788242393501"><ele>5.0</ele><time>2026-04-24T12:13:56Z</time></trkpt><trkpt lat="42.1987965450553" lon="11.785761781350933"><ele>6.0</ele><time>2026-04-24T12:13:57Z</time></trkpt><trkpt lat="42.19904582749214" lon="11.785739244694234"><ele>7.0</ele><time>2026-04-24T12:13:58Z</time></trkpt><trkpt lat="42.19929251702803" lon="11.78571625921199"><ele>7.0</ele><time>2026-04-24T12:13:59Z</time></trkpt><trkpt lat="42.19952451199564" lon="11.785689063830699"><ele>7.0</ele><time>2026-04-24T12:14:00Z</time></trkpt><trkpt lat="42.19977016509731" lon="11.78566017938011"><ele>7.5</ele><time>2026-04-24T12:14:01Z</time></trkpt><trkpt lat="42.19999918997109" lon="11.785632220244906"><ele>8.0</ele><time>2026-04-24T12:14:02Z</time></trkpt><trkpt lat="42.20023154801694" lon="11.78560601421448"><ele>8.0</ele><time>2026-04-24T12:14:03Z</time></trkpt><trkpt lat="42.20046671969755" lon="11.785585232397057"><ele>8.0</ele><time>2026-04-24T12:14:04Z</time></trkpt><trkpt lat="42.200702082351825" lon="11.785567119016857"><ele>7.5</ele><time>2026-04-24T12:14:05Z</time></trkpt><trkpt lat="42.2009280648964" lon="11.785545391901382"><ele>7.0</ele><time>2026-04-24T12:14:06Z</time></trkpt><trkpt lat="42.20116450238961" lon="11.785525613724468"><ele>7.0</ele><time>2026-04-24T12:14:07Z</time></trkpt><trkpt lat="42.20138307169978" lon="11.785499690561249"><ele>7.0</ele><time>2026-04-24T12:14:08Z</time></trkpt><trkpt lat="42.20160577610887" lon="11.785472279212634"><ele>7.0</ele><time>2026-04-24T12:14:09Z</time></trkpt><trkpt lat="42.20182876842862" lon="11.785448848438755"><ele>7.0</ele><time>2026-04-24T12:14:10Z</time></trkpt><trkpt lat="42.202056229630486" lon="11.785425771546592"><ele>7.0</ele><time>2026-04-24T12:14:11Z</time></trkpt><trkpt lat="42.20228821648774" lon="11.785401652850751"><ele>8.0</ele><time>2026-04-24T12:14:12Z</time></trkpt><trkpt lat="42.202499255371286" lon="11.78537712862616"><ele>9.0</ele><time>2026-04-24T12:14:13Z</time></trkpt><trkpt lat="42.20271592623932" lon="11.785346991498473"><ele>10.0</ele><time>2026-04-24T12:14:14Z</time></trkpt><trkpt lat="42.20293838379047" lon="11.785310433238404"><ele>10.0</ele><time>2026-04-24T12:14:15Z</time></trkpt><trkpt lat="42.20316157359332" lon="11.78527717763223"><ele>10.0</ele><time>2026-04-24T12:14:16Z</time></trkpt><trkpt lat="42.20338304640295" lon="11.785233244378126"><ele>10.0</ele><time>2026-04-24T12:14:17Z</time></trkpt><trkpt lat="42.20362154925136" lon="11.78518966497"><ele>13.0</ele><time>2026-04-24T12:14:18Z</time></trkpt><trkpt lat="42.2038574207983" lon="11.78513503932501"><ele>16.0</ele><time>2026-04-24T12:14:19Z</time></trkpt><trkpt lat="42.20408296313561" lon="11.785076524066646"><ele>17.5</ele><time>2026-04-24T12:14:20Z</time></trkpt><trkpt lat="42.20431422529945" lon="11.785012190846901"><ele>19.0</ele><time>2026-04-24T12:14:21Z</time></trkpt><trkpt lat="42.20454505033948" lon="11.784946287463123"><ele>19.0</ele><time>2026-04-24T12:14:22Z</time></trkpt><trkpt lat="42.20477697241677" lon="11.784877424152192"><ele>19.0</ele><time>2026-04-24T12:14:23Z</time></trkpt><trkpt lat="42.2050014713841" lon="11.78480314225469"><ele>19.0</ele><time>2026-04-24T12:14:24Z</time></trkpt><trkpt lat="42.20521967869316" lon="11.78472505360575"><ele>19.0</ele><time>2026-04-24T12:14:25Z</time></trkpt><trkpt lat="42.205451078956834" lon="11.78464738942361"><ele>19.0</ele><time>2026-04-24T12:14:26Z</time></trkpt><trkpt lat="42.20568336621546" lon="11.784563261007845"><ele>19.0</ele><time>2026-04-24T12:14:27Z</time></trkpt><trkpt lat="42.20590316660562" lon="11.784473030958141"><ele>19.0</ele><time>2026-04-24T12:14:28Z</time></trkpt><trkpt lat="42.20612685045185" lon="11.784379530084573"><ele>19.0</ele><time>2026-04-24T12:14:29Z</time></trkpt><trkpt lat="42.20635034022599" lon="11.784284584151374"><ele>25.5</ele><time>2026-04-24T12:14:30Z</time></trkpt><trkpt lat="42.20656617340767" lon="11.784184082336285"><ele>32.0</ele><time>2026-04-24T12:14:31Z</time></trkpt><trkpt lat="42.20678214254944" lon="11.784068454050018"><ele>32.0</ele><time>2026-04-24T12:14:32Z</time></trkpt><trkpt lat="42.20701228637446" lon="11.78395373558222"><ele>32.0</ele><time>2026-04-24T12:14:33Z</time></trkpt><trkpt lat="42.20723148315494" lon="11.783849840605862"><ele>32.0</ele><time>2026-04-24T12:14:34Z</time></trkpt><trkpt lat="42.20743918912506" lon="11.783735590334866"><ele>32.0</ele><time>2026-04-24T12:14:35Z</time></trkpt><trkpt lat="42.20763107367751" lon="11.783613886660927"><ele>32.0</ele><time>2026-04-24T12:14:36Z</time></trkpt><trkpt lat="42.20783487740668" lon="11.783488013795415"><ele>33.33333333333333</ele><time>2026-04-24T12:14:37Z</time></trkpt><trkpt lat="42.208027529514915" lon="11.783370354975737"><ele>34.666666666666664</ele><time>2026-04-24T12:14:38Z</time></trkpt><trkpt lat="42.208228043678716" lon="11.783241196373154"><ele>36.0</ele><time>2026-04-24T12:14:39Z</time></trkpt><trkpt lat="42.208413025483104" lon="11.783125338423778"><ele>36.0</ele><time>2026-04-24T12:14:40Z</time></trkpt><trkpt lat="42.20859962383364" lon="11.783002576795512"><ele>36.0</ele><time>2026-04-24T12:14:41Z</time></trkpt><trkpt lat="42.20878705368353" lon="11.782878751940352"><ele>36.0</ele><time>2026-04-24T12:14:42Z</time></trkpt><trkpt lat="42.20897143672329" lon="11.782752200924897"><ele>35.666666666666664</ele><time>2026-04-24T12:14:43Z</time></trkpt><trkpt lat="42.20914999350611" lon="11.782613758139707"><ele>35.33333333333333</ele><time>2026-04-24T12:14:44Z</time></trkpt><trkpt lat="42.2093331520156" lon="11.78247778511206"><ele>35.0</ele><time>2026-04-24T12:14:45Z</time></trkpt><trkpt lat="42.209494736038835" lon="11.782347792306183"><ele>35.0</ele><time>2026-04-24T12:14:46Z</time></trkpt><trkpt lat="42.20964030137069" lon="11.782216127417117"><ele>35.0</ele><time>2026-04-24T12:14:47Z</time></trkpt><trkpt lat="42.20979662177893" lon="11.782089207901386"><ele>35.0</ele><time>2026-04-24T12:14:48Z</time></trkpt><trkpt lat="42.209940810604024" lon="11.781968900260145"><ele>35.33333333333333</ele><time>2026-04-24T12:14:49Z</time></trkpt><trkpt lat="42.210087583452164" lon="11.781855243934661"><ele>35.666666666666664</ele><time>2026-04-24T12:14:50Z</time></trkpt><trkpt lat="42.210235289208455" lon="11.781743835296712"><ele>36.0</ele><time>2026-04-24T12:14:51Z</time></trkpt><trkpt lat="42.210374661329816" lon="11.781640055145514"><ele>36.666666666666664</ele><time>2026-04-24T12:14:52Z</time></trkpt><trkpt lat="42.210528819334584" lon="11.781538978328618"><ele>37.33333333333333</ele><time>2026-04-24T12:14:53Z</time></trkpt><trkpt lat="42.21067933334192" lon="11.781459836707755"><ele>38.0</ele><time>2026-04-24T12:14:54Z</time></trkpt><trkpt lat="42.21084759566179" lon="11.781393226695403"><ele>38.0</ele><time>2026-04-24T12:14:55Z</time></trkpt><trkpt lat="42.211023236238155" lon="11.781340398377775"><ele>38.0</ele><time>2026-04-24T12:14:56Z</time></trkpt><trkpt lat="42.21119135221172" lon="11.781306233732018"><ele>38.0</ele><time>2026-04-24T12:14:57Z</time></trkpt><trkpt lat="42.21134262767519" lon="11.781276823670947"><ele>38.0</ele><time>2026-04-24T12:14:58Z</time></trkpt><trkpt lat="42.211494717858834" lon="11.781254198475798"><ele>38.0</ele><time>2026-04-24T12:14:59Z</time></trkpt><trkpt lat="42.21164383465732" lon="11.781230547361526"><ele>38.0</ele><time>2026-04-24T12:15:00Z</time></trkpt><trkpt lat="42.211792127395746" lon="11.781205640920914"><ele>38.0</ele><time>2026-04-24T12:15:01Z</time></trkpt><trkpt lat="42.21192442448895" lon="11.78118665611241"><ele>38.0</ele><time>2026-04-24T12:15:02Z</time></trkpt><trkpt lat="42.21204761137346" lon="11.781163864812495"><ele>38.0</ele><time>2026-04-24T12:15:03Z</time></trkpt><trkpt lat="42.21217386964203" lon="11.781160130648463"><ele>38.0</ele><time>2026-04-24T12:15:04Z</time></trkpt><trkpt lat="42.212301325988996" lon="11.781168252930764"><ele>38.5</ele><time>2026-04-24T12:15:05Z</time></trkpt><trkpt lat="42.21241867116299" lon="11.781190213849877"><ele>39.0</ele><time>2026-04-24T12:15:06Z</time></trkpt><trkpt lat="42.21253483984025" lon="11.781196050210983"><ele>39.5</ele><time>2026-04-24T12:15:07Z</time></trkpt><trkpt lat="42.21264946589926" lon="11.781202832739185"><ele>40.0</ele><time>2026-04-24T12:15:08Z</time></trkpt><trkpt lat="42.21276828182949" lon="11.78131110148679"><ele>40.0</ele><time>2026-04-24T12:15:09Z</time></trkpt><trkpt lat="42.212860071217115" lon="11.781356611833"><ele>40.0</ele><time>2026-04-24T12:15:10Z</time></trkpt><trkpt lat="42.21295675214659" lon="11.781430784134022"><ele>40.0</ele><time>2026-04-24T12:15:11Z</time></trkpt><trkpt lat="42.21303748241506" lon="11.781504535693935"><ele>40.0</ele><time>2026-04-24T12:15:12Z</time></trkpt><trkpt lat="42.21311183479435" lon="11.781577704525658"><ele>40.0</ele><time>2026-04-24T12:15:13Z</time></trkpt><trkpt lat="42.21317928473498" lon="11.781647138339386"><ele>40.333333333333336</ele><time>2026-04-24T12:15:14Z</time></trkpt><trkpt lat="42.21323845178299" lon="11.78171513233783"><ele>40.66666666666667</ele><time>2026-04-24T12:15:15Z</time></trkpt><trkpt lat="42.21328349198224" lon="11.781790534108286"><ele>41.0</ele><time>2026-04-24T12:15:16Z</time></trkpt><trkpt lat="42.21332521302218" lon="11.781883960148711"><ele>41.333333333333336</ele><time>2026-04-24T12:15:17Z</time></trkpt><trkpt lat="42.213364309047805" lon="11.781973285470446"><ele>41.666666666666664</ele><time>2026-04-24T12:15:18Z</time></trkpt><trkpt lat="42.213414665884144" lon="11.782048406440522"><ele>42.0</ele><time>2026-04-24T12:15:19Z</time></trkpt><trkpt lat="42.21347615723265" lon="11.782101440055891"><ele>42.0</ele><time>2026-04-24T12:15:20Z</time></trkpt><trkpt lat="42.21354650345326" lon="11.782127885496497"><ele>42.0</ele><time>2026-04-24T12:15:21Z</time></trkpt><trkpt lat="42.21363465430867" lon="11.782121782221857"><ele>42.0</ele><time>2026-04-24T12:15:22Z</time></trkpt><trkpt lat="42.21372535921579" lon="11.782080888298239"><ele>42.0</ele><time>2026-04-24T12:15:23Z</time></trkpt><trkpt lat="42.213808678839875" lon="11.782062055167998"><ele>42.0</ele><time>2026-04-24T12:15:24Z</time></trkpt><trkpt lat="42.21390547762368" lon="11.78205137924586"><ele>42.0</ele><time>2026-04-24T12:15:25Z</time></trkpt><trkpt lat="42.21402231342346" lon="11.782068869115646"><ele>42.25</ele><time>2026-04-24T12:15:26Z</time></trkpt><trkpt lat="42.21414880199067" lon="11.782083773303812"><ele>42.5</ele><time>2026-04-24T12:15:27Z</time></trkpt><trkpt lat="42.21428860820679" lon="11.78211543187614"><ele>42.75</ele><time>2026-04-24T12:15:28Z</time></trkpt><trkpt lat="42.214423739405156" lon="11.782164128104109"><ele>43.0</ele><time>2026-04-24T12:15:29Z</time></trkpt><trkpt lat="42.21457013258103" lon="11.782224004942696"><ele>43.0</ele><time>2026-04-24T12:15:30Z</time></trkpt><trkpt lat="42.214713690774424" lon="11.782291676748535"><ele>43.0</ele><time>2026-04-24T12:15:31Z</time></trkpt><trkpt lat="42.214866271955835" lon="11.782375432032337"><ele>43.0</ele><time>2026-04-24T12:15:32Z</time></trkpt><trkpt lat="42.21504866206941" lon="11.782476238669332"><ele>43.0</ele><time>2026-04-24T12:15:33Z</time></trkpt><trkpt lat="42.215248188290325" lon="11.782592204635359"><ele>43.0</ele><time>2026-04-24T12:15:34Z</time></trkpt><trkpt lat="42.21546673342348" lon="11.782710240890033"><ele>44.0</ele><time>2026-04-24T12:15:35Z</time></trkpt><trkpt lat="42.21570076167079" lon="11.782831297818442"><ele>45.0</ele><time>2026-04-24T12:15:36Z</time></trkpt><trkpt lat="42.215919086270326" lon="11.782953742167878"><ele>45.0</ele><time>2026-04-24T12:15:37Z</time></trkpt><trkpt lat="42.216135458443276" lon="11.783059541533127"><ele>45.0</ele><time>2026-04-24T12:15:38Z</time></trkpt><trkpt lat="42.21632428067182" lon="11.783164383765152"><ele>45.0</ele><time>2026-04-24T12:15:39Z</time></trkpt><trkpt lat="42.216520968185584" lon="11.78326025889335"><ele>45.333333333333336</ele><time>2026-04-24T12:15:40Z</time></trkpt><trkpt lat="42.216706556738494" lon="11.783367986073593"><ele>45.66666666666667</ele><time>2026-04-24T12:15:41Z</time></trkpt><trkpt lat="42.21689180415949" lon="11.783458322332075"><ele>46.0</ele><time>2026-04-24T12:15:42Z</time></trkpt><trkpt lat="42.217087532238125" lon="11.78355624696192"><ele>46.66666666666667</ele><time>2026-04-24T12:15:43Z</time></trkpt><trkpt lat="42.21727589727257" lon="11.783649533507838"><ele>47.333333333333336</ele><time>2026-04-24T12:15:44Z</time></trkpt><trkpt lat="42.21746111111939" lon="11.78374573117592"><ele>48.0</ele><time>2026-04-24T12:15:45Z</time></trkpt><trkpt lat="42.21764499152695" lon="11.783833654309017"><ele>49.0</ele><time>2026-04-24T12:15:46Z</time></trkpt><trkpt lat="42.21780642631622" lon="11.783922845463458"><ele>50.0</ele><time>2026-04-24T12:15:47Z</time></trkpt><trkpt lat="42.21797873752673" lon="11.784015592475491"><ele>51.0</ele><time>2026-04-24T12:15:48Z</time></trkpt><trkpt lat="42.218153325521186" lon="11.784116035019487"><ele>51.66666666666667</ele><time>2026-04-24T12:15:49Z</time></trkpt><trkpt lat="42.218322017412746" lon="11.78420198044629"><ele>52.333333333333336</ele><time>2026-04-24T12:15:50Z</time></trkpt><trkpt lat="42.21848181693871" lon="11.784278138735425"><ele>53.0</ele><time>2026-04-24T12:15:51Z</time></trkpt><trkpt lat="42.21864622230198" lon="11.784360055364617"><ele>54.0</ele><time>2026-04-24T12:15:52Z</time></trkpt><trkpt lat="42.21880280114273" lon="11.78445250532048"><ele>55.0</ele><time>2026-04-24T12:15:53Z</time></trkpt><trkpt lat="42.21897102648201" lon="11.784547882234744"><ele>56.0</ele><time>2026-04-24T12:15:54Z</time></trkpt><trkpt lat="42.21913732388583" lon="11.784636046715981"><ele>56.66666666666667</ele><time>2026-04-24T12:15:55Z</time></trkpt><trkpt lat="42.219302898587635" lon="11.784717059128297"><ele>57.33333333333333</ele><time>2026-04-24T12:15:56Z</time></trkpt><trkpt lat="42.219474175895705" lon="11.784798823206312"><ele>58.0</ele><time>2026-04-24T12:15:57Z</time></trkpt><trkpt lat="42.21963280645535" lon="11.784887852450396"><ele>58.0</ele><time>2026-04-24T12:15:58Z</time></trkpt><trkpt lat="42.219787856578435" lon="11.78497446152146"><ele>58.0</ele><time>2026-04-24T12:15:59Z</time></trkpt><trkpt lat="42.2199475604511" lon="11.78505597881427"><ele>58.0</ele><time>2026-04-24T12:16:00Z</time></trkpt><trkpt lat="42.2201126362301" lon="11.785144884750057"><ele>58.666666666666664</ele><time>2026-04-24T12:16:01Z</time></trkpt><trkpt lat="42.22027494609091" lon="11.785226728166204"><ele>59.33333333333333</ele><time>2026-04-24T12:16:02Z</time></trkpt><trkpt lat="42.2204556884798" lon="11.785320267855766"><ele>60.0</ele><time>2026-04-24T12:16:03Z</time></trkpt><trkpt lat="42.22063970324556" lon="11.785404348163715"><ele>61.33333333333333</ele><time>2026-04-24T12:16:04Z</time></trkpt><trkpt lat="42.22084239052939" lon="11.78551066170808"><ele>62.666666666666664</ele><time>2026-04-24T12:16:05Z</time></trkpt><trkpt lat="42.22102545515558" lon="11.785593619378192"><ele>64.0</ele><time>2026-04-24T12:16:06Z</time></trkpt><trkpt lat="42.221197150519984" lon="11.785681927117345"><ele>64.0</ele><time>2026-04-24T12:16:07Z</time></trkpt><trkpt lat="42.22136863354583" lon="11.785780728116858"><ele>64.0</ele><time>2026-04-24T12:16:08Z</time></trkpt><trkpt lat="42.22154098558898" lon="11.785857802892977"><ele>64.0</ele><time>2026-04-24T12:16:09Z</time></trkpt><trkpt lat="42.221695017944626" lon="11.785946469173403"><ele>67.0</ele><time>2026-04-24T12:16:10Z</time></trkpt><trkpt lat="42.221845534658925" lon="11.786023166535069"><ele>70.0</ele><time>2026-04-24T12:16:11Z</time></trkpt><trkpt lat="42.22198666821974" lon="11.786099473068818"><ele>73.0</ele><time>2026-04-24T12:16:12Z</time></trkpt><trkpt lat="42.22211896600428" lon="11.786161537650798"><ele>73.0</ele><time>2026-04-24T12:16:13Z</time></trkpt><trkpt lat="42.222250155478186" lon="11.786234463935193"><ele>73.0</ele><time>2026-04-24T12:16:14Z</time></trkpt><trkpt lat="42.22236904347252" lon="11.78631598344463"><ele>73.0</ele><time>2026-04-24T12:16:15Z</time></trkpt><trkpt lat="42.222476482291185" lon="11.786422001238067"><ele>73.0</ele><time>2026-04-24T12:16:16Z</time></trkpt><trkpt lat="42.22257635816437" lon="11.786546493272342"><ele>74.0</ele><time>2026-04-24T12:16:17Z</time></trkpt><trkpt lat="42.22266936260962" lon="11.786703237268632"><ele>75.0</ele><time>2026-04-24T12:16:18Z</time></trkpt><trkpt lat="42.22276348274663" lon="11.786880696524927"><ele>76.0</ele><time>2026-04-24T12:16:19Z</time></trkpt><trkpt lat="42.22285163857055" lon="11.787066540280435"><ele>77.75</ele><time>2026-04-24T12:16:20Z</time></trkpt><trkpt lat="42.222934397963286" lon="11.787244445117969"><ele>79.5</ele><time>2026-04-24T12:16:21Z</time></trkpt><trkpt lat="42.223001595173585" lon="11.787419308082356"><ele>81.25</ele><time>2026-04-24T12:16:22Z</time></trkpt><trkpt lat="42.22305566184169" lon="11.78758514657567"><ele>83.0</ele><time>2026-04-24T12:16:23Z</time></trkpt><trkpt lat="42.22308583444588" lon="11.787780133401814"><ele>83.66666666666667</ele><time>2026-04-24T12:16:24Z</time></trkpt><trkpt lat="42.22311764484015" lon="11.787995588875958"><ele>84.33333333333333</ele><time>2026-04-24T12:16:25Z</time></trkpt><trkpt lat="42.223144988669034" lon="11.788224725107877"><ele>85.0</ele><time>2026-04-24T12:16:26Z</time></trkpt><trkpt lat="42.22316621765088" lon="11.788437282049227"><ele>87.33333333333333</ele><time>2026-04-24T12:16:27Z</time></trkpt><trkpt lat="42.22319156488094" lon="11.788668827466939"><ele>89.66666666666667</ele><time>2026-04-24T12:16:28Z</time></trkpt><trkpt lat="42.22321627801767" lon="11.788871315118085"><ele>92.0</ele><time>2026-04-24T12:16:29Z</time></trkpt><trkpt lat="42.22324632464535" lon="11.789072553588664"><ele>92.0</ele><time>2026-04-24T12:16:30Z</time></trkpt><trkpt lat="42.22329651754972" lon="11.789252597009325"><ele>92.0</ele><time>2026-04-24T12:16:31Z</time></trkpt><trkpt lat="42.22336787074052" lon="11.789447365121212"><ele>92.0</ele><time>2026-04-24T12:16:32Z</time></trkpt><trkpt lat="42.22345262474402" lon="11.789648582020325"><ele>93.33333333333334</ele><time>2026-04-24T12:16:33Z</time></trkpt><trkpt lat="42.22354612279915" lon="11.789864236274218"><ele>94.66666666666667</ele><time>2026-04-24T12:16:34Z</time></trkpt><trkpt lat="42.223657716217666" lon="11.790085413291784"><ele>96.0</ele><time>2026-04-24T12:16:35Z</time></trkpt><trkpt lat="42.223778615244555" lon="11.790334232507263"><ele>97.0</ele><time>2026-04-24T12:16:36Z</time></trkpt><trkpt lat="42.22388100412096" lon="11.790542211769361"><ele>98.0</ele><time>2026-04-24T12:16:37Z</time></trkpt><trkpt lat="42.22396622828303" lon="11.79075216962726"><ele>99.0</ele><time>2026-04-24T12:16:38Z</time></trkpt><trkpt lat="42.2240482942936" lon="11.790926086500628"><ele>99.75</ele><time>2026-04-24T12:16:39Z</time></trkpt><trkpt lat="42.22412642075372" lon="11.791096511602872"><ele>100.5</ele><time>2026-04-24T12:16:40Z</time></trkpt><trkpt lat="42.22418554576942" lon="11.791291783058028"><ele>101.25</ele><time>2026-04-24T12:16:41Z</time></trkpt><trkpt lat="42.22423509935258" lon="11.79147556478964"><ele>102.0</ele><time>2026-04-24T12:16:42Z</time></trkpt><trkpt lat="42.22426663604321" lon="11.791679598232875"><ele>103.0</ele><time>2026-04-24T12:16:43Z</time></trkpt><trkpt lat="42.22429016407435" lon="11.791891695471287"><ele>104.0</ele><time>2026-04-24T12:16:44Z</time></trkpt><trkpt lat="42.22430662877741" lon="11.792142883286655"><ele>105.0</ele><time>2026-04-24T12:16:45Z</time></trkpt><trkpt lat="42.22432758933716" lon="11.792367906285747"><ele>105.0</ele><time>2026-04-24T12:16:46Z</time></trkpt><trkpt lat="42.22435152194117" lon="11.79256881734967"><ele>105.0</ele><time>2026-04-24T12:16:47Z</time></trkpt><trkpt lat="42.224380233498934" lon="11.792756682933682"><ele>105.0</ele><time>2026-04-24T12:16:48Z</time></trkpt><trkpt lat="42.22442091801451" lon="11.792950884630788"><ele>105.0</ele><time>2026-04-24T12:16:49Z</time></trkpt><trkpt lat="42.22448264076868" lon="11.793151050528872"><ele>105.66666666666666</ele><time>2026-04-24T12:16:50Z</time></trkpt><trkpt lat="42.224545618268074" lon="11.793412373861992"><ele>106.33333333333333</ele><time>2026-04-24T12:16:51Z</time></trkpt><trkpt lat="42.22463830379211" lon="11.79364709584543"><ele>107.0</ele><time>2026-04-24T12:16:52Z</time></trkpt><trkpt lat="42.22472037425985" lon="11.793867030459646"><ele>107.0</ele><time>2026-04-24T12:16:53Z</time></trkpt><trkpt lat="42.224798196533605" lon="11.794084209464074"><ele>107.0</ele><time>2026-04-24T12:16:54Z</time></trkpt><trkpt lat="42.224874007369486" lon="11.794286815781843"><ele>107.0</ele><time>2026-04-24T12:16:55Z</time></trkpt><trkpt lat="42.22494631260164" lon="11.794483145805406"><ele>107.33333333333333</ele><time>2026-04-24T12:16:56Z</time></trkpt><trkpt lat="42.22500990236518" lon="11.79465756662135"><ele>107.66666666666666</ele><time>2026-04-24T12:16:57Z</time></trkpt><trkpt lat="42.22507669451861" lon="11.794847905968112"><ele>108.0</ele><time>2026-04-24T12:16:58Z</time></trkpt><trkpt lat="42.22514721930604" lon="11.795028495238107"><ele>108.25</ele><time>2026-04-24T12:16:59Z</time></trkpt><trkpt lat="42.22522934287206" lon="11.795184373572956"><ele>108.5</ele><time>2026-04-24T12:17:00Z</time></trkpt><trkpt lat="42.2253229831026" lon="11.79532770827512"><ele>108.75</ele><time>2026-04-24T12:17:01Z</time></trkpt><trkpt lat="42.22543755991469" lon="11.795463719040763"><ele>109.0</ele><time>2026-04-24T12:17:02Z</time></trkpt><trkpt lat="42.22557893411383" lon="11.795588989956812"><ele>109.66666666666667</ele><time>2026-04-24T12:17:03Z</time></trkpt><trkpt lat="42.22571214933154" lon="11.795759504795999"><ele>110.33333333333334</ele><time>2026-04-24T12:17:04Z</time></trkpt><trkpt lat="42.22586374417959" lon="11.795912892902987"><ele>111.0</ele><time>2026-04-24T12:17:05Z</time></trkpt><trkpt lat="42.22602604966061" lon="11.796068045239492"><ele>111.0</ele><time>2026-04-24T12:17:06Z</time></trkpt><trkpt lat="42.226188252584755" lon="11.796216706319488"><ele>111.0</ele><time>2026-04-24T12:17:07Z</time></trkpt><trkpt lat="42.226340829008485" lon="11.79636036199293"><ele>111.0</ele><time>2026-04-24T12:17:08Z</time></trkpt><trkpt lat="42.226508880086456" lon="11.796520701739297"><ele>111.66666666666666</ele><time>2026-04-24T12:17:09Z</time></trkpt><trkpt lat="42.22666669934769" lon="11.796668524765284"><ele>112.33333333333333</ele><time>2026-04-24T12:17:10Z</time></trkpt><trkpt lat="42.22681912257063" lon="11.796796545804424"><ele>113.0</ele><time>2026-04-24T12:17:11Z</time></trkpt><trkpt lat="42.226963019431494" lon="11.796907076085171"><ele>113.0</ele><time>2026-04-24T12:17:12Z</time></trkpt><trkpt lat="42.22711511264866" lon="11.797013323751818"><ele>113.0</ele><time>2026-04-24T12:17:13Z</time></trkpt><trkpt lat="42.227249012803384" lon="11.797119218621924"><ele>113.0</ele><time>2026-04-24T12:17:14Z</time></trkpt><trkpt lat="42.227388960062214" lon="11.797214166296586"><ele>113.66666666666666</ele><time>2026-04-24T12:17:15Z</time></trkpt><trkpt lat="42.227537199347886" lon="11.797302296768233"><ele>114.33333333333334</ele><time>2026-04-24T12:17:16Z</time></trkpt><trkpt lat="42.227699772307716" lon="11.797407570037917"><ele>115.0</ele><time>2026-04-24T12:17:17Z</time></trkpt><trkpt lat="42.227858756110585" lon="11.797480188315207"><ele>115.0</ele><time>2026-04-24T12:17:18Z</time></trkpt><trkpt lat="42.228007265179095" lon="11.797555396661435"><ele>115.0</ele><time>2026-04-24T12:17:19Z</time></trkpt><trkpt lat="42.22815774874934" lon="11.797609390746665"><ele>115.0</ele><time>2026-04-24T12:17:20Z</time></trkpt><trkpt lat="42.228303095733814" lon="11.797664015250223"><ele>115.75</ele><time>2026-04-24T12:17:21Z</time></trkpt><trkpt lat="42.228431976864925" lon="11.797714539105076"><ele>116.5</ele><time>2026-04-24T12:17:22Z</time></trkpt><trkpt lat="42.22855373011128" lon="11.797751081492262"><ele>117.25</ele><time>2026-04-24T12:17:23Z</time></trkpt><trkpt lat="42.228663150157914" lon="11.79779377711617"><ele>118.0</ele><time>2026-04-24T12:17:24Z</time></trkpt><trkpt lat="42.22877683228789" lon="11.797814680573456"><ele>118.0</ele><time>2026-04-24T12:17:25Z</time></trkpt><trkpt lat="42.22890093711119" lon="11.797820761536896"><ele>118.0</ele><time>2026-04-24T12:17:26Z</time></trkpt><trkpt lat="42.22904255019992" lon="11.797794394095538"><ele>118.0</ele><time>2026-04-24T12:17:27Z</time></trkpt><trkpt lat="42.22917760643832" lon="11.79775416825336"><ele>118.0</ele><time>2026-04-24T12:17:28Z</time></trkpt><trkpt lat="42.22931747261799" lon="11.79767000976833"><ele>117.0</ele><time>2026-04-24T12:17:29Z</time></trkpt><trkpt lat="42.229464982347444" lon="11.79757930489632"><ele>116.0</ele><time>2026-04-24T12:17:30Z</time></trkpt><trkpt lat="42.22962355924614" lon="11.797468372286707"><ele>115.0</ele><time>2026-04-24T12:17:31Z</time></trkpt><trkpt lat="42.22978103885024" lon="11.79733632744245"><ele>116.0</ele><time>2026-04-24T12:17:32Z</time></trkpt><trkpt lat="42.22996563230863" lon="11.79719014121958"><ele>117.0</ele><time>2026-04-24T12:17:33Z</time></trkpt><trkpt lat="42.2301346080687" lon="11.797040299153892"><ele>118.0</ele><time>2026-04-24T12:17:34Z</time></trkpt><trkpt lat="42.230295440773574" lon="11.796896246899582"><ele>117.33333333333334</ele><time>2026-04-24T12:17:35Z</time></trkpt><trkpt lat="42.230468035976564" lon="11.796749888145555"><ele>116.66666666666666</ele><time>2026-04-24T12:17:36Z</time></trkpt><trkpt lat="42.23063877537631" lon="11.79661297264833"><ele>116.0</ele><time>2026-04-24T12:17:37Z</time></trkpt><trkpt lat="42.2307886523195" lon="11.796480312149496"><ele>117.33333333333333</ele><time>2026-04-24T12:17:38Z</time></trkpt><trkpt lat="42.230942066441635" lon="11.796344947271324"><ele>118.66666666666666</ele><time>2026-04-24T12:17:39Z</time></trkpt><trkpt lat="42.23109045641513" lon="11.796212322722033"><ele>120.0</ele><time>2026-04-24T12:17:40Z</time></trkpt><trkpt lat="42.231241064726575" lon="11.796081059854027"><ele>119.33333333333334</ele><time>2026-04-24T12:17:41Z</time></trkpt><trkpt lat="42.23138199044474" lon="11.795949129172781"><ele>118.66666666666667</ele><time>2026-04-24T12:17:42Z</time></trkpt><trkpt lat="42.23149957131134" lon="11.79582678167852"><ele>118.0</ele><time>2026-04-24T12:17:43Z</time></trkpt><trkpt lat="42.23163092177393" lon="11.795716093255109"><ele>119.66666666666667</ele><time>2026-04-24T12:17:44Z</time></trkpt><trkpt lat="42.23174928699357" lon="11.795617218503171"><ele>121.33333333333334</ele><time>2026-04-24T12:17:45Z</time></trkpt><trkpt lat="42.231898469878914" lon="11.795502922094924"><ele>123.0</ele><time>2026-04-24T12:17:46Z</time></trkpt><trkpt lat="42.23205348040388" lon="11.795432033841564"><ele>123.0</ele><time>2026-04-24T12:17:47Z</time></trkpt><trkpt lat="42.23222793983266" lon="11.795361415318563"><ele>123.0</ele><time>2026-04-24T12:17:48Z</time></trkpt><trkpt lat="42.23240999368477" lon="11.795297967708526"><ele>123.0</ele><time>2026-04-24T12:17:49Z</time></trkpt><trkpt lat="42.232594168015346" lon="11.795237974519683"><ele>123.33333333333334</ele><time>2026-04-24T12:17:50Z</time></trkpt><trkpt lat="42.23270935766449" lon="11.79515380264478"><ele>123.66666666666667</ele><time>2026-04-24T12:17:51Z</time></trkpt><trkpt lat="42.23288732965613" lon="11.79508584424185"><ele>124.0</ele><time>2026-04-24T12:17:52Z</time></trkpt><trkpt lat="42.23306811335005" lon="11.795040964698513"><ele>125.0</ele><time>2026-04-24T12:17:53Z</time></trkpt><trkpt lat="42.23322447186036" lon="11.794977418449843"><ele>126.0</ele><time>2026-04-24T12:17:54Z</time></trkpt><trkpt lat="42.23336684295328" lon="11.794921146322126"><ele>127.0</ele><time>2026-04-24T12:17:55Z</time></trkpt><trkpt lat="42.23348118341498" lon="11.794849681646376"><ele>128.0</ele><time>2026-04-24T12:17:56Z</time></trkpt><trkpt lat="42.233606364642405" lon="11.794793443000096"><ele>128.0</ele><time>2026-04-24T12:17:57Z</time></trkpt><trkpt lat="42.233711212370245" lon="11.794757076200412"><ele>128.0</ele><time>2026-04-24T12:17:58Z</time></trkpt><trkpt lat="42.233838138419166" lon="11.794691124031777"><ele>128.0</ele><time>2026-04-24T12:17:59Z</time></trkpt><trkpt lat="42.23397887237802" lon="11.794669743013698"><ele>128.0</ele><time>2026-04-24T12:18:00Z</time></trkpt><trkpt lat="42.23409933371772" lon="11.794635399360125"><ele>128.8</ele><time>2026-04-24T12:18:01Z</time></trkpt><trkpt lat="42.234208955251525" lon="11.794620573575424"><ele>129.60000000000002</ele><time>2026-04-24T12:18:02Z</time></trkpt><trkpt lat="42.234317558359166" lon="11.794629020597627"><ele>130.39999999999998</ele><time>2026-04-24T12:18:03Z</time></trkpt><trkpt lat="42.23440464259705" lon="11.79465070191541"><ele>131.2</ele><time>2026-04-24T12:18:04Z</time></trkpt><trkpt lat="42.234461352854694" lon="11.794732820597742"><ele>132.0</ele><time>2026-04-24T12:18:05Z</time></trkpt><trkpt lat="42.234526225539746" lon="11.794821244981529"><ele>132.0</ele><time>2026-04-24T12:18:06Z</time></trkpt><trkpt lat="42.2345834258371" lon="11.794924324600801"><ele>132.0</ele><time>2026-04-24T12:18:07Z</time></trkpt><trkpt lat="42.2346351082848" lon="11.795042836400476"><ele>132.0</ele><time>2026-04-24T12:18:08Z</time></trkpt><trkpt lat="42.23468265755659" lon="11.795201004634864"><ele>132.0</ele><time>2026-04-24T12:18:09Z</time></trkpt><trkpt lat="42.2347092073923" lon="11.79532501263261"><ele>132.0</ele><time>2026-04-24T12:18:10Z</time></trkpt><trkpt lat="42.234748208362085" lon="11.795468698773334"><ele>134.0</ele><time>2026-04-24T12:18:11Z</time></trkpt><trkpt lat="42.234817627661336" lon="11.795611114556294"><ele>136.0</ele><time>2026-04-24T12:18:12Z</time></trkpt><trkpt lat="42.234881509807614" lon="11.795737273350797"><ele>138.0</ele><time>2026-04-24T12:18:13Z</time></trkpt><trkpt lat="42.23495545846242" lon="11.79585345857164"><ele>140.0</ele><time>2026-04-24T12:18:14Z</time></trkpt><trkpt lat="42.23505437112592" lon="11.795925146291562"><ele>139.75</ele><time>2026-04-24T12:18:15Z</time></trkpt><trkpt lat="42.2351470146622" lon="11.796023035829212"><ele>139.5</ele><time>2026-04-24T12:18:16Z</time></trkpt><trkpt lat="42.23526570164933" lon="11.796046829325286"><ele>139.25</ele><time>2026-04-24T12:18:17Z</time></trkpt><trkpt lat="42.23540840525773" lon="11.796098392456532"><ele>139.0</ele><time>2026-04-24T12:18:18Z</time></trkpt><trkpt lat="42.23553594908489" lon="11.796143081411492"><ele>140.0</ele><time>2026-04-24T12:18:19Z</time></trkpt><trkpt lat="42.23564953490798" lon="11.796189101047206"><ele>141.0</ele><time>2026-04-24T12:18:20Z</time></trkpt><trkpt lat="42.23577645111971" lon="11.796249410853948"><ele>142.0</ele><time>2026-04-24T12:18:21Z</time></trkpt><trkpt lat="42.23590654610351" lon="11.7963207101645"><ele>143.0</ele><time>2026-04-24T12:18:22Z</time></trkpt><trkpt lat="42.23604101060321" lon="11.796393533076849"><ele>143.0</ele><time>2026-04-24T12:18:23Z</time></trkpt><trkpt lat="42.236160399764316" lon="11.796467421299036"><ele>143.0</ele><time>2026-04-24T12:18:24Z</time></trkpt><trkpt lat="42.23628937290608" lon="11.796547984058279"><ele>143.0</ele><time>2026-04-24T12:18:25Z</time></trkpt><trkpt lat="42.23643064805083" lon="11.796633086850505"><ele>143.0</ele><time>2026-04-24T12:18:26Z</time></trkpt><trkpt lat="42.23658207098849" lon="11.796716998390217"><ele>143.33333333333331</ele><time>2026-04-24T12:18:27Z</time></trkpt><trkpt lat="42.23673073403512" lon="11.796799426477968"><ele>143.66666666666666</ele><time>2026-04-24T12:18:28Z</time></trkpt><trkpt lat="42.23687915811953" lon="11.796889284606266"><ele>144.0</ele><time>2026-04-24T12:18:29Z</time></trkpt><trkpt lat="42.23701693129493" lon="11.796978084375935"><ele>144.0</ele><time>2026-04-24T12:18:30Z</time></trkpt><trkpt lat="42.237159918994664" lon="11.797066704447476"><ele>144.0</ele><time>2026-04-24T12:18:31Z</time></trkpt><trkpt lat="42.23729617637336" lon="11.79716658987995"><ele>144.0</ele><time>2026-04-24T12:18:32Z</time></trkpt><trkpt lat="42.237413985753804" lon="11.797239250031957"><ele>144.0</ele><time>2026-04-24T12:18:33Z</time></trkpt><trkpt lat="42.237518961724945" lon="11.797306351675195"><ele>145.2</ele><time>2026-04-24T12:18:34Z</time></trkpt><trkpt lat="42.23760937493044" lon="11.797372729292778"><ele>146.4</ele><time>2026-04-24T12:18:35Z</time></trkpt><trkpt lat="42.23769232092086" lon="11.797445652836238"><ele>147.6</ele><time>2026-04-24T12:18:36Z</time></trkpt><trkpt lat="42.23777993543236" lon="11.797524218176973"><ele>148.8</ele><time>2026-04-24T12:18:37Z</time></trkpt><trkpt lat="42.23782932899807" lon="11.797640770169062"><ele>150.0</ele><time>2026-04-24T12:18:38Z</time></trkpt><trkpt lat="42.23786571046681" lon="11.797779019771749"><ele>150.0</ele><time>2026-04-24T12:18:39Z</time></trkpt><trkpt lat="42.23786644053952" lon="11.797924737528607"><ele>150.0</ele><time>2026-04-24T12:18:40Z</time></trkpt><trkpt lat="42.237865745821864" lon="11.798099741864673"><ele>150.0</ele><time>2026-04-24T12:18:41Z</time></trkpt><trkpt lat="42.23784382578269" lon="11.798251831711436"><ele>150.0</ele><time>2026-04-24T12:18:42Z</time></trkpt><trkpt lat="42.237801228881395" lon="11.798431690318266"><ele>151.5</ele><time>2026-04-24T12:18:43Z</time></trkpt><trkpt lat="42.237743950576544" lon="11.798593738711451"><ele>153.0</ele><time>2026-04-24T12:18:44Z</time></trkpt><trkpt lat="42.237660783246184" lon="11.798775446737144"><ele>154.5</ele><time>2026-04-24T12:18:45Z</time></trkpt><trkpt lat="42.23756982005419" lon="11.798917112677927"><ele>156.0</ele><time>2026-04-24T12:18:46Z</time></trkpt><trkpt lat="42.23749562856055" lon="11.79903454666493"><ele>156.0</ele><time>2026-04-24T12:18:47Z</time></trkpt><trkpt lat="42.237432884434114" lon="11.79915803627525"><ele>156.0</ele><time>2026-04-24T12:18:48Z</time></trkpt><trkpt lat="42.23738603636119" lon="11.799301382073846"><ele>156.0</ele><time>2026-04-24T12:18:49Z</time></trkpt><trkpt lat="42.237366845314085" lon="11.799446912551264"><ele>156.0</ele><time>2026-04-24T12:18:50Z</time></trkpt><trkpt lat="42.23736772746454" lon="11.799583562085859"><ele>156.0</ele><time>2026-04-24T12:18:51Z</time></trkpt><trkpt lat="42.237386707827795" lon="11.799742666902603"><ele>158.0</ele><time>2026-04-24T12:18:52Z</time></trkpt><trkpt lat="42.23743929645806" lon="11.799914841152944"><ele>160.0</ele><time>2026-04-24T12:18:53Z</time></trkpt><trkpt lat="42.237509670724414" lon="11.8001040981627"><ele>162.0</ele><time>2026-04-24T12:18:54Z</time></trkpt><trkpt lat="42.23759026581888" lon="11.800353942994601"><ele>163.0</ele><time>2026-04-24T12:18:55Z</time></trkpt><trkpt lat="42.23769472773633" lon="11.80063897431455"><ele>164.0</ele><time>2026-04-24T12:18:56Z</time></trkpt><trkpt lat="42.23779176204666" lon="11.800922889383061"><ele>164.66666666666666</ele><time>2026-04-24T12:18:57Z</time></trkpt><trkpt lat="42.23787495069566" lon="11.801196974787082"><ele>165.33333333333334</ele><time>2026-04-24T12:18:58Z</time></trkpt><trkpt lat="42.237962516676696" lon="11.801408972423939"><ele>166.0</ele><time>2026-04-24T12:18:59Z</time></trkpt><trkpt lat="42.23803452145705" lon="11.80163087567278"><ele>166.33333333333334</ele><time>2026-04-24T12:19:00Z</time></trkpt><trkpt lat="42.23811737009417" lon="11.801865571071673"><ele>166.66666666666666</ele><time>2026-04-24T12:19:01Z</time></trkpt><trkpt lat="42.23818144022605" lon="11.802112684001354"><ele>167.0</ele><time>2026-04-24T12:19:02Z</time></trkpt><trkpt lat="42.23826492204141" lon="11.802351125925632"><ele>167.0</ele><time>2026-04-24T12:19:03Z</time></trkpt><trkpt lat="42.238325759691946" lon="11.802565631976702"><ele>167.0</ele><time>2026-04-24T12:19:04Z</time></trkpt><trkpt lat="42.23839288885807" lon="11.802741807717739"><ele>167.0</ele><time>2026-04-24T12:19:05Z</time></trkpt><trkpt lat="42.2384699532528" lon="11.802926742698922"><ele>166.0</ele><time>2026-04-24T12:19:06Z</time></trkpt><trkpt lat="42.238543257526985" lon="11.803107562215109"><ele>165.0</ele><time>2026-04-24T12:19:07Z</time></trkpt><trkpt lat="42.23861983714663" lon="11.80329261307093"><ele>164.0</ele><time>2026-04-24T12:19:08Z</time></trkpt><trkpt lat="42.23869270961459" lon="11.803481537739174"><ele>162.33333333333331</ele><time>2026-04-24T12:19:09Z</time></trkpt><trkpt lat="42.23877118496499" lon="11.803677116843286"><ele>160.66666666666666</ele><time>2026-04-24T12:19:10Z</time></trkpt><trkpt lat="42.238842394025575" lon="11.803873021148581"><ele>159.0</ele><time>2026-04-24T12:19:11Z</time></trkpt><trkpt lat="42.23892713442158" lon="11.804050533608446"><ele>159.75</ele><time>2026-04-24T12:19:12Z</time></trkpt><trkpt lat="42.23899275357376" lon="11.80420019519491"><ele>160.5</ele><time>2026-04-24T12:19:13Z</time></trkpt><trkpt lat="42.23907675593962" lon="11.80435829647327"><ele>161.25</ele><time>2026-04-24T12:19:14Z</time></trkpt><trkpt lat="42.239138079237264" lon="11.804491614280124"><ele>162.0</ele><time>2026-04-24T12:19:15Z</time></trkpt><trkpt lat="42.23919188164904" lon="11.804638972976235"><ele>162.0</ele><time>2026-04-24T12:19:16Z</time></trkpt><trkpt lat="42.23928620311568" lon="11.804782832394443"><ele>162.0</ele><time>2026-04-24T12:19:17Z</time></trkpt><trkpt lat="42.239381456351786" lon="11.804938064633527"><ele>162.0</ele><time>2026-04-24T12:19:18Z</time></trkpt><trkpt lat="42.23948443334668" lon="11.805043074058217"><ele>162.0</ele><time>2026-04-24T12:19:19Z</time></trkpt><trkpt lat="42.23959890631634" lon="11.805142609790641"><ele>162.33333333333334</ele><time>2026-04-24T12:19:20Z</time></trkpt><trkpt lat="42.23972950772906" lon="11.805207118658977"><ele>162.66666666666669</ele><time>2026-04-24T12:19:21Z</time></trkpt><trkpt lat="42.239885694156634" lon="11.805286908468476"><ele>163.0</ele><time>2026-04-24T12:19:22Z</time></trkpt><trkpt lat="42.24006529970276" lon="11.80534767225874"><ele>164.33333333333334</ele><time>2026-04-24T12:19:23Z</time></trkpt><trkpt lat="42.240245707953946" lon="11.805447830027125"><ele>165.66666666666666</ele><time>2026-04-24T12:19:24Z</time></trkpt><trkpt lat="42.24043210694538" lon="11.805561623777233"><ele>167.0</ele><time>2026-04-24T12:19:25Z</time></trkpt><trkpt lat="42.240634704001096" lon="11.805690839621896"><ele>168.66666666666666</ele><time>2026-04-24T12:19:26Z</time></trkpt><trkpt lat="42.2408405689499" lon="11.805803304818676"><ele>170.33333333333334</ele><time>2026-04-24T12:19:27Z</time></trkpt><trkpt lat="42.241030130301624" lon="11.80591751472579"><ele>172.0</ele><time>2026-04-24T12:19:28Z</time></trkpt><trkpt lat="42.241207736640106" lon="11.806044362078492"><ele>172.0</ele><time>2026-04-24T12:19:29Z</time></trkpt><trkpt lat="42.24139316848462" lon="11.806168239428379"><ele>172.0</ele><time>2026-04-24T12:19:30Z</time></trkpt><trkpt lat="42.24158974929548" lon="11.806299448444268"><ele>172.0</ele><time>2026-04-24T12:19:31Z</time></trkpt><trkpt lat="42.24177115346112" lon="11.806420191833531"><ele>173.0</ele><time>2026-04-24T12:19:32Z</time></trkpt><trkpt lat="42.24193847360879" lon="11.806548585598204"><ele>174.0</ele><time>2026-04-24T12:19:33Z</time></trkpt><trkpt lat="42.242096628893044" lon="11.806664149410103"><ele>175.0</ele><time>2026-04-24T12:19:34Z</time></trkpt><trkpt lat="42.24226584623806" lon="11.806776797046204"><ele>176.33333333333334</ele><time>2026-04-24T12:19:35Z</time></trkpt><trkpt lat="42.242444484541984" lon="11.806893600532542"><ele>177.66666666666666</ele><time>2026-04-24T12:19:36Z</time></trkpt><trkpt lat="42.242618815131834" lon="11.807012939450503"><ele>179.0</ele><time>2026-04-24T12:19:37Z</time></trkpt><trkpt lat="42.24278812320337" lon="11.807135033492331"><ele>179.0</ele><time>2026-04-24T12:19:38Z</time></trkpt><trkpt lat="42.24294515417271" lon="11.807252927552536"><ele>179.0</ele><time>2026-04-24T12:19:39Z</time></trkpt><trkpt lat="42.243099349733974" lon="11.807360604142533"><ele>179.0</ele><time>2026-04-24T12:19:40Z</time></trkpt><trkpt lat="42.243255963688114" lon="11.807472208420883"><ele>179.66666666666666</ele><time>2026-04-24T12:19:41Z</time></trkpt><trkpt lat="42.24341206288363" lon="11.807570559883693"><ele>180.33333333333334</ele><time>2026-04-24T12:19:42Z</time></trkpt><trkpt lat="42.24355653411709" lon="11.807671317744239"><ele>181.0</ele><time>2026-04-24T12:19:43Z</time></trkpt><trkpt lat="42.24371096783693" lon="11.80778229050547"><ele>181.0</ele><time>2026-04-24T12:19:44Z</time></trkpt><trkpt lat="42.24386680266917" lon="11.807888879335078"><ele>181.0</ele><time>2026-04-24T12:19:45Z</time></trkpt><trkpt lat="42.24401424288725" lon="11.807995161062365"><ele>181.0</ele><time>2026-04-24T12:19:46Z</time></trkpt><trkpt lat="42.244166052567394" lon="11.808105991321797"><ele>182.0</ele><time>2026-04-24T12:19:47Z</time></trkpt><trkpt lat="42.24430909657511" lon="11.808204919934486"><ele>183.0</ele><time>2026-04-24T12:19:48Z</time></trkpt><trkpt lat="42.24444725734972" lon="11.808306414938182"><ele>184.0</ele><time>2026-04-24T12:19:49Z</time></trkpt><trkpt lat="42.244582887992415" lon="11.808396109076186"><ele>184.0</ele><time>2026-04-24T12:19:50Z</time></trkpt><trkpt lat="42.24471541880265" lon="11.808475196328288"><ele>184.0</ele><time>2026-04-24T12:19:51Z</time></trkpt><trkpt lat="42.24484625245527" lon="11.80854646274086"><ele>184.0</ele><time>2026-04-24T12:19:52Z</time></trkpt><trkpt lat="42.24497325624086" lon="11.80862530206326"><ele>184.0</ele><time>2026-04-24T12:19:53Z</time></trkpt><trkpt lat="42.24509381768856" lon="11.808700458190147"><ele>184.5</ele><time>2026-04-24T12:19:54Z</time></trkpt><trkpt lat="42.245216684355164" lon="11.808760622250764"><ele>185.0</ele><time>2026-04-24T12:19:55Z</time></trkpt><trkpt lat="42.2453387331766" lon="11.808817697189035"><ele>185.5</ele><time>2026-04-24T12:19:56Z</time></trkpt><trkpt lat="42.24546402854114" lon="11.8088744372681"><ele>186.0</ele><time>2026-04-24T12:19:57Z</time></trkpt><trkpt lat="42.245591375323116" lon="11.808937092127296"><ele>184.75</ele><time>2026-04-24T12:19:58Z</time></trkpt><trkpt lat="42.24573045915274" lon="11.808993455735319"><ele>183.5</ele><time>2026-04-24T12:19:59Z</time></trkpt><trkpt lat="42.24586701869594" lon="11.809056309184788"><ele>182.25</ele><time>2026-04-24T12:20:00Z</time></trkpt><trkpt lat="42.246005007309456" lon="11.809126051143357"><ele>181.0</ele><time>2026-04-24T12:20:01Z</time></trkpt><trkpt lat="42.246151301000396" lon="11.809191084481034"><ele>181.0</ele><time>2026-04-24T12:20:02Z</time></trkpt><trkpt lat="42.24629900749559" lon="11.809242794924927"><ele>181.0</ele><time>2026-04-24T12:20:03Z</time></trkpt><trkpt lat="42.24644371844242" lon="11.809300237341573"><ele>181.0</ele><time>2026-04-24T12:20:04Z</time></trkpt><trkpt lat="42.24661732490786" lon="11.809363831025033"><ele>180.66666666666669</ele><time>2026-04-24T12:20:05Z</time></trkpt><trkpt lat="42.24678288168308" lon="11.809432254995395"><ele>180.33333333333334</ele><time>2026-04-24T12:20:06Z</time></trkpt><trkpt lat="42.24694914908926" lon="11.809514374224836"><ele>180.0</ele><time>2026-04-24T12:20:07Z</time></trkpt><trkpt lat="42.24710772744473" lon="11.809564292124465"><ele>180.0</ele><time>2026-04-24T12:20:08Z</time></trkpt><trkpt lat="42.24727882924078" lon="11.809635093027998"><ele>180.0</ele><time>2026-04-24T12:20:09Z</time></trkpt><trkpt lat="42.2474426256839" lon="11.80970985564138"><ele>180.0</ele><time>2026-04-24T12:20:10Z</time></trkpt><trkpt lat="42.247612266672945" lon="11.80977583962179"><ele>177.66666666666666</ele><time>2026-04-24T12:20:11Z</time></trkpt><trkpt lat="42.24778563613632" lon="11.809846133088804"><ele>175.33333333333331</ele><time>2026-04-24T12:20:12Z</time></trkpt><trkpt lat="42.24796231970634" lon="11.809924630260152"><ele>173.0</ele><time>2026-04-24T12:20:13Z</time></trkpt><trkpt lat="42.24814528510971" lon="11.810010612756269"><ele>171.66666666666666</ele><time>2026-04-24T12:20:14Z</time></trkpt><trkpt lat="42.24831383576493" lon="11.810096128594575"><ele>170.33333333333334</ele><time>2026-04-24T12:20:15Z</time></trkpt><trkpt lat="42.24850840808915" lon="11.810181278069878"><ele>169.0</ele><time>2026-04-24T12:20:16Z</time></trkpt><trkpt lat="42.2487108429031" lon="11.81026184951336"><ele>169.0</ele><time>2026-04-24T12:20:17Z</time></trkpt><trkpt lat="42.2489026595223" lon="11.81034546226291"><ele>169.0</ele><time>2026-04-24T12:20:18Z</time></trkpt><trkpt lat="42.24908681184953" lon="11.810421366537964"><ele>169.0</ele><time>2026-04-24T12:20:19Z</time></trkpt><trkpt lat="42.249267932239874" lon="11.810511856154458"><ele>166.33333333333334</ele><time>2026-04-24T12:20:20Z</time></trkpt><trkpt lat="42.24942440585598" lon="11.810580691251339"><ele>163.66666666666666</ele><time>2026-04-24T12:20:21Z</time></trkpt><trkpt lat="42.24958266471132" lon="11.810650626005952"><ele>161.0</ele><time>2026-04-24T12:20:22Z</time></trkpt><trkpt lat="42.249746594503506" lon="11.81072552353346"><ele>162.33333333333331</ele><time>2026-04-24T12:20:23Z</time></trkpt><trkpt lat="42.24989685869381" lon="11.81081415244567"><ele>163.66666666666666</ele><time>2026-04-24T12:20:24Z</time></trkpt><trkpt lat="42.25006488285685" lon="11.810908179595948"><ele>165.0</ele><time>2026-04-24T12:20:25Z</time></trkpt><trkpt lat="42.250241305477985" lon="11.811009239686909"><ele>165.33333333333334</ele><time>2026-04-24T12:20:26Z</time></trkpt><trkpt lat="42.25042522426239" lon="11.811125502405234"><ele>165.66666666666669</ele><time>2026-04-24T12:20:27Z</time></trkpt><trkpt lat="42.2505984240381" lon="11.811254618663224"><ele>166.0</ele><time>2026-04-24T12:20:28Z</time></trkpt><trkpt lat="42.250772090874015" lon="11.81137357481787"><ele>166.33333333333334</ele><time>2026-04-24T12:20:29Z</time></trkpt><trkpt lat="42.25094298574827" lon="11.811509059979258"><ele>166.66666666666666</ele><time>2026-04-24T12:20:30Z</time></trkpt><trkpt lat="42.25111173565779" lon="11.811641991138776"><ele>167.0</ele><time>2026-04-24T12:20:31Z</time></trkpt><trkpt lat="42.25127154706295" lon="11.811776694955418"><ele>167.33333333333331</ele><time>2026-04-24T12:20:32Z</time></trkpt><trkpt lat="42.25142487812162" lon="11.811899520261525"><ele>167.66666666666666</ele><time>2026-04-24T12:20:33Z</time></trkpt><trkpt lat="42.25157901111958" lon="11.812021348906317"><ele>168.0</ele><time>2026-04-24T12:20:34Z</time></trkpt><trkpt lat="42.25173156102396" lon="11.812151393101182"><ele>166.0</ele><time>2026-04-24T12:20:35Z</time></trkpt><trkpt lat="42.25188047381088" lon="11.812280444383669"><ele>164.0</ele><time>2026-04-24T12:20:36Z</time></trkpt><trkpt lat="42.25202905381562" lon="11.812400214049651"><ele>162.0</ele><time>2026-04-24T12:20:37Z</time></trkpt><trkpt lat="42.25215833510797" lon="11.812522809684511"><ele>161.0</ele><time>2026-04-24T12:20:38Z</time></trkpt><trkpt lat="42.252286447778985" lon="11.812658801317452"><ele>160.0</ele><time>2026-04-24T12:20:39Z</time></trkpt><trkpt lat="42.25241271866631" lon="11.812808817005221"><ele>159.0</ele><time>2026-04-24T12:20:40Z</time></trkpt><trkpt lat="42.25253942129491" lon="11.812962760225211"><ele>159.0</ele><time>2026-04-24T12:20:41Z</time></trkpt><trkpt lat="42.252660084460466" lon="11.813117722268096"><ele>159.0</ele><time>2026-04-24T12:20:42Z</time></trkpt><trkpt lat="42.252781457360996" lon="11.813268775235949"><ele>159.0</ele><time>2026-04-24T12:20:43Z</time></trkpt><trkpt lat="42.25290069767534" lon="11.813425736055754"><ele>158.0</ele><time>2026-04-24T12:20:44Z</time></trkpt><trkpt lat="42.25302521484737" lon="11.813587246807998"><ele>157.0</ele><time>2026-04-24T12:20:45Z</time></trkpt><trkpt lat="42.25314321777581" lon="11.813750802154514"><ele>156.0</ele><time>2026-04-24T12:20:46Z</time></trkpt><trkpt lat="42.25326868232655" lon="11.813918050600114"><ele>156.0</ele><time>2026-04-24T12:20:47Z</time></trkpt><trkpt lat="42.253391008526705" lon="11.814069155199377"><ele>156.0</ele><time>2026-04-24T12:20:48Z</time></trkpt><trkpt lat="42.25351222098422" lon="11.814219920287943"><ele>156.0</ele><time>2026-04-24T12:20:49Z</time></trkpt><trkpt lat="42.253634936368556" lon="11.81437864991851"><ele>157.0</ele><time>2026-04-24T12:20:50Z</time></trkpt><trkpt lat="42.25375253353189" lon="11.814539453805358"><ele>158.0</ele><time>2026-04-24T12:20:51Z</time></trkpt><trkpt lat="42.25386753123417" lon="11.814703969926605"><ele>159.0</ele><time>2026-04-24T12:20:52Z</time></trkpt><trkpt lat="42.25398446703241" lon="11.814862424607028"><ele>159.0</ele><time>2026-04-24T12:20:53Z</time></trkpt><trkpt lat="42.25409964287634" lon="11.815020665926776"><ele>159.0</ele><time>2026-04-24T12:20:54Z</time></trkpt><trkpt lat="42.25421288741533" lon="11.815161569155094"><ele>159.0</ele><time>2026-04-24T12:20:55Z</time></trkpt><trkpt lat="42.25433588363688" lon="11.81532105711626"><ele>157.66666666666666</ele><time>2026-04-24T12:20:56Z</time></trkpt><trkpt lat="42.25444673420658" lon="11.815472194005014"><ele>156.33333333333331</ele><time>2026-04-24T12:20:57Z</time></trkpt><trkpt lat="42.25456196566591" lon="11.815611657099216"><ele>155.0</ele><time>2026-04-24T12:20:58Z</time></trkpt><trkpt lat="42.25467967668267" lon="11.815761284617452"><ele>155.33333333333331</ele><time>2026-04-24T12:20:59Z</time></trkpt><trkpt lat="42.25479650105733" lon="11.815909771099834"><ele>155.66666666666666</ele><time>2026-04-24T12:21:00Z</time></trkpt><trkpt lat="42.25491985663255" lon="11.816060668140723"><ele>156.0</ele><time>2026-04-24T12:21:01Z</time></trkpt><trkpt lat="42.25504279511886" lon="11.81620874512078"><ele>156.0</ele><time>2026-04-24T12:21:02Z</time></trkpt><trkpt lat="42.25517309345975" lon="11.816361159878513"><ele>156.0</ele><time>2026-04-24T12:21:03Z</time></trkpt><trkpt lat="42.25530592719245" lon="11.816515875484509"><ele>156.0</ele><time>2026-04-24T12:21:04Z</time></trkpt><trkpt lat="42.25543866185939" lon="11.81666012551926"><ele>156.0</ele><time>2026-04-24T12:21:05Z</time></trkpt><trkpt lat="42.25557137818225" lon="11.816802093429825"><ele>156.0</ele><time>2026-04-24T12:21:06Z</time></trkpt><trkpt lat="42.255705660798824" lon="11.816955563489552"><ele>156.0</ele><time>2026-04-24T12:21:07Z</time></trkpt><trkpt lat="42.25583925716628" lon="11.817122190771217"><ele>157.66666666666666</ele><time>2026-04-24T12:21:08Z</time></trkpt><trkpt lat="42.25597323851247" lon="11.81727908213755"><ele>159.33333333333331</ele><time>2026-04-24T12:21:09Z</time></trkpt><trkpt lat="42.25610823025517" lon="11.81744833363543"><ele>161.0</ele><time>2026-04-24T12:21:10Z</time></trkpt><trkpt lat="42.25623999126614" lon="11.817614549161625"><ele>161.66666666666666</ele><time>2026-04-24T12:21:11Z</time></trkpt><trkpt lat="42.2563554850136" lon="11.817768210694435"><ele>162.33333333333334</ele><time>2026-04-24T12:21:12Z</time></trkpt><trkpt lat="42.25647371736704" lon="11.817909915184133"><ele>163.0</ele><time>2026-04-24T12:21:13Z</time></trkpt><trkpt lat="42.25658799443902" lon="11.818059657012403"><ele>164.25</ele><time>2026-04-24T12:21:14Z</time></trkpt><trkpt lat="42.256692984861985" lon="11.81818260407328"><ele>165.5</ele><time>2026-04-24T12:21:15Z</time></trkpt><trkpt lat="42.256805913126094" lon="11.818313867824898"><ele>166.75</ele><time>2026-04-24T12:21:16Z</time></trkpt><trkpt lat="42.25693267858176" lon="11.818440324667323"><ele>168.0</ele><time>2026-04-24T12:21:17Z</time></trkpt><trkpt lat="42.25708508425304" lon="11.81855224272655"><ele>168.33333333333334</ele><time>2026-04-24T12:21:18Z</time></trkpt><trkpt lat="42.25723948628014" lon="11.818662365809454"><ele>168.66666666666669</ele><time>2026-04-24T12:21:19Z</time></trkpt><trkpt lat="42.25739445059315" lon="11.818773101791882"><ele>169.0</ele><time>2026-04-24T12:21:20Z</time></trkpt><trkpt lat="42.25755253056294" lon="11.818891531950944"><ele>171.0</ele><time>2026-04-24T12:21:21Z</time></trkpt><trkpt lat="42.25770946277461" lon="11.819033415528168"><ele>173.0</ele><time>2026-04-24T12:21:22Z</time></trkpt><trkpt lat="42.25786748570848" lon="11.819174371504127"><ele>175.0</ele><time>2026-04-24T12:21:23Z</time></trkpt><trkpt lat="42.258030000775534" lon="11.819346151009723"><ele>177.0</ele><time>2026-04-24T12:21:24Z</time></trkpt><trkpt lat="42.25819536038961" lon="11.819535566042914"><ele>179.0</ele><time>2026-04-24T12:21:25Z</time></trkpt><trkpt lat="42.258368200724064" lon="11.819736734910553"><ele>181.0</ele><time>2026-04-24T12:21:26Z</time></trkpt><trkpt lat="42.25853854597731" lon="11.819936713780585"><ele>181.0</ele><time>2026-04-24T12:21:27Z</time></trkpt><trkpt lat="42.25870452882225" lon="11.820141816251704"><ele>181.0</ele><time>2026-04-24T12:21:28Z</time></trkpt><trkpt lat="42.25886419983845" lon="11.820350300931379"><ele>181.0</ele><time>2026-04-24T12:21:29Z</time></trkpt><trkpt lat="42.2590092072709" lon="11.820530447275598"><ele>183.66666666666669</ele><time>2026-04-24T12:21:30Z</time></trkpt><trkpt lat="42.25914681776984" lon="11.820698928278512"><ele>186.33333333333334</ele><time>2026-04-24T12:21:31Z</time></trkpt><trkpt lat="42.25927419177051" lon="11.82085367745301"><ele>189.0</ele><time>2026-04-24T12:21:32Z</time></trkpt><trkpt lat="42.25938849197481" lon="11.820991698526715"><ele>190.75</ele><time>2026-04-24T12:21:33Z</time></trkpt><trkpt lat="42.259508949247184" lon="11.821135663224004"><ele>192.5</ele><time>2026-04-24T12:21:34Z</time></trkpt><trkpt lat="42.25962020800451" lon="11.821265624748465"><ele>194.25</ele><time>2026-04-24T12:21:35Z</time></trkpt><trkpt lat="42.25971866349052" lon="11.821379722164723"><ele>196.0</ele><time>2026-04-24T12:21:36Z</time></trkpt><trkpt lat="42.25980245674927" lon="11.821476566945643"><ele>197.4</ele><time>2026-04-24T12:21:37Z</time></trkpt><trkpt lat="42.25987667462452" lon="11.821566149183088"><ele>198.8</ele><time>2026-04-24T12:21:38Z</time></trkpt><trkpt lat="42.2599389653376" lon="11.821667398671016"><ele>200.20000000000002</ele><time>2026-04-24T12:21:39Z</time></trkpt><trkpt lat="42.259993459017544" lon="11.821787452174297"><ele>201.60000000000002</ele><time>2026-04-24T12:21:40Z</time></trkpt><trkpt lat="42.26002029408629" lon="11.821920376914232"><ele>203.0</ele><time>2026-04-24T12:21:41Z</time></trkpt><trkpt lat="42.26001553681213" lon="11.822059004197445"><ele>203.5</ele><time>2026-04-24T12:21:42Z</time></trkpt><trkpt lat="42.259982211318636" lon="11.822207300091634"><ele>204.0</ele><time>2026-04-24T12:21:43Z</time></trkpt><trkpt lat="42.259935734911274" lon="11.822393736490238"><ele>204.5</ele><time>2026-04-24T12:21:44Z</time></trkpt><trkpt lat="42.25987713488001" lon="11.822588814688878"><ele>205.0</ele><time>2026-04-24T12:21:45Z</time></trkpt><trkpt lat="42.25982629380832" lon="11.822824830044262"><ele>207.33333333333331</ele><time>2026-04-24T12:21:46Z</time></trkpt><trkpt lat="42.259773606772406" lon="11.823057374211867"><ele>209.66666666666669</ele><time>2026-04-24T12:21:47Z</time></trkpt><trkpt lat="42.259729171205784" lon="11.823259336156395"><ele>212.0</ele><time>2026-04-24T12:21:48Z</time></trkpt><trkpt lat="42.259683229444775" lon="11.823451135842799"><ele>213.0</ele><time>2026-04-24T12:21:49Z</time></trkpt><trkpt lat="42.259638514917064" lon="11.823633113017749"><ele>214.0</ele><time>2026-04-24T12:21:50Z</time></trkpt><trkpt lat="42.25960634353158" lon="11.823803381087082"><ele>215.0</ele><time>2026-04-24T12:21:51Z</time></trkpt><trkpt lat="42.25958951175369" lon="11.82397523126891"><ele>216.0</ele><time>2026-04-24T12:21:52Z</time></trkpt><trkpt lat="42.259593912863856" lon="11.82413101220016"><ele>216.0</ele><time>2026-04-24T12:21:53Z</time></trkpt><trkpt lat="42.259625172494" lon="11.824291402523745"><ele>216.0</ele><time>2026-04-24T12:21:54Z</time></trkpt><trkpt lat="42.25966313886757" lon="11.82447083530802"><ele>216.0</ele><time>2026-04-24T12:21:55Z</time></trkpt><trkpt lat="42.25973374881694" lon="11.824657089564768"><ele>216.0</ele><time>2026-04-24T12:21:56Z</time></trkpt><trkpt lat="42.259803373199375" lon="11.824890461512126"><ele>216.66666666666669</ele><time>2026-04-24T12:21:57Z</time></trkpt><trkpt lat="42.259887822174235" lon="11.825129794887886"><ele>217.33333333333334</ele><time>2026-04-24T12:21:58Z</time></trkpt><trkpt lat="42.25996877990427" lon="11.82535055452677"><ele>218.0</ele><time>2026-04-24T12:21:59Z</time></trkpt><trkpt lat="42.26005994847946" lon="11.82554236983474"><ele>218.5</ele><time>2026-04-24T12:22:00Z</time></trkpt><trkpt lat="42.260126221395936" lon="11.825727648757432"><ele>219.0</ele><time>2026-04-24T12:22:01Z</time></trkpt><trkpt lat="42.2601995361014" lon="11.8258915640785"><ele>219.5</ele><time>2026-04-24T12:22:02Z</time></trkpt><trkpt lat="42.2602575751343" lon="11.82605263187733"><ele>220.0</ele><time>2026-04-24T12:22:03Z</time></trkpt><trkpt lat="42.26030937329252" lon="11.826220175772692"><ele>220.33333333333331</ele><time>2026-04-24T12:22:04Z</time></trkpt><trkpt lat="42.260320825907606" lon="11.826421650228523"><ele>220.66666666666669</ele><time>2026-04-24T12:22:05Z</time></trkpt><trkpt lat="42.26033447474992" lon="11.826627887727346"><ele>221.0</ele><time>2026-04-24T12:22:06Z</time></trkpt><trkpt lat="42.260339836714735" lon="11.82685820066896"><ele>220.0</ele><time>2026-04-24T12:22:07Z</time></trkpt><trkpt lat="42.26033837979606" lon="11.827093431366599"><ele>219.0</ele><time>2026-04-24T12:22:08Z</time></trkpt><trkpt lat="42.260346761674185" lon="11.827346846201984"><ele>218.0</ele><time>2026-04-24T12:22:09Z</time></trkpt><trkpt lat="42.260328293075965" lon="11.827556675062214"><ele>217.33333333333334</ele><time>2026-04-24T12:22:10Z</time></trkpt><trkpt lat="42.26031947359126" lon="11.827775734182735"><ele>216.66666666666669</ele><time>2026-04-24T12:22:11Z</time></trkpt><trkpt lat="42.26030062437333" lon="11.827976053325814"><ele>216.0</ele><time>2026-04-24T12:22:12Z</time></trkpt><trkpt lat="42.26028909037256" lon="11.828170287671243"><ele>216.0</ele><time>2026-04-24T12:22:13Z</time></trkpt><trkpt lat="42.26028050787987" lon="11.828311715558263"><ele>216.0</ele><time>2026-04-24T12:22:14Z</time></trkpt><trkpt lat="42.26025452294644" lon="11.828522347778323"><ele>216.0</ele><time>2026-04-24T12:22:15Z</time></trkpt><trkpt lat="42.26024737656776" lon="11.828733613387989"><ele>216.0</ele><time>2026-04-24T12:22:16Z</time></trkpt><trkpt lat="42.260240231700394" lon="11.828949007994964"><ele>216.0</ele><time>2026-04-24T12:22:17Z</time></trkpt><trkpt lat="42.26023153083106" lon="11.82916321457383"><ele>216.0</ele><time>2026-04-24T12:22:18Z</time></trkpt><trkpt lat="42.260219871687255" lon="11.829359655937722"><ele>216.0</ele><time>2026-04-24T12:22:19Z</time></trkpt><trkpt lat="42.260217803198245" lon="11.829589578165418"><ele>216.0</ele><time>2026-04-24T12:22:20Z</time></trkpt><trkpt lat="42.26019383962386" lon="11.829790033313206"><ele>216.0</ele><time>2026-04-24T12:22:21Z</time></trkpt><trkpt lat="42.26018145374896" lon="11.829986439495007"><ele>216.0</ele><time>2026-04-24T12:22:22Z</time></trkpt><trkpt lat="42.26015085287946" lon="11.830218361333461"><ele>217.33333333333331</ele><time>2026-04-24T12:22:23Z</time></trkpt><trkpt lat="42.260109930179674" lon="11.830421847082928"><ele>218.66666666666666</ele><time>2026-04-24T12:22:24Z</time></trkpt><trkpt lat="42.260058733897296" lon="11.830624689815197"><ele>220.0</ele><time>2026-04-24T12:22:25Z</time></trkpt><trkpt lat="42.2600194466659" lon="11.830819189540854"><ele>219.25</ele><time>2026-04-24T12:22:26Z</time></trkpt><trkpt lat="42.25998146077186" lon="11.831006445095728"><ele>218.5</ele><time>2026-04-24T12:22:27Z</time></trkpt><trkpt lat="42.25994442068776" lon="11.831186276006763"><ele>217.75</ele><time>2026-04-24T12:22:28Z</time></trkpt><trkpt lat="42.259906616946715" lon="11.831369814453616"><ele>217.0</ele><time>2026-04-24T12:22:29Z</time></trkpt><trkpt lat="42.25986480725815" lon="11.831577077535478"><ele>217.0</ele><time>2026-04-24T12:22:30Z</time></trkpt><trkpt lat="42.259836915446805" lon="11.831781467520008"><ele>217.0</ele><time>2026-04-24T12:22:31Z</time></trkpt><trkpt lat="42.259802565041866" lon="11.831972987162198"><ele>217.0</ele><time>2026-04-24T12:22:32Z</time></trkpt><trkpt lat="42.25977830810065" lon="11.832169270781828"><ele>217.0</ele><time>2026-04-24T12:22:33Z</time></trkpt><trkpt lat="42.25973801640349" lon="11.832364998996177"><ele>216.66666666666666</ele><time>2026-04-24T12:22:34Z</time></trkpt><trkpt lat="42.25971384804016" lon="11.83256709871844"><ele>216.33333333333331</ele><time>2026-04-24T12:22:35Z</time></trkpt><trkpt lat="42.259689258445164" lon="11.83278024503122"><ele>216.0</ele><time>2026-04-24T12:22:36Z</time></trkpt><trkpt lat="42.25966475519502" lon="11.83298019229696"><ele>215.25</ele><time>2026-04-24T12:22:37Z</time></trkpt><trkpt lat="42.259663728515164" lon="11.833204264433489"><ele>214.5</ele><time>2026-04-24T12:22:38Z</time></trkpt><trkpt lat="42.25963422195555" lon="11.833394657413104"><ele>213.75</ele><time>2026-04-24T12:22:39Z</time></trkpt><trkpt lat="42.259623482966745" lon="11.833565760517573"><ele>213.0</ele><time>2026-04-24T12:22:40Z</time></trkpt><trkpt lat="42.25961547821379" lon="11.83377224945357"><ele>212.0</ele><time>2026-04-24T12:22:41Z</time></trkpt><trkpt lat="42.25961204563634" lon="11.833955289695881"><ele>211.0</ele><time>2026-04-24T12:22:42Z</time></trkpt><trkpt lat="42.25961204563354" lon="11.834151146500545"><ele>210.0</ele><time>2026-04-24T12:22:43Z</time></trkpt><trkpt lat="42.25961536884435" lon="11.834363529776894"><ele>209.0</ele><time>2026-04-24T12:22:44Z</time></trkpt><trkpt lat="42.25962033313736" lon="11.83454387822766"><ele>208.0</ele><time>2026-04-24T12:22:45Z</time></trkpt><trkpt lat="42.25963573259163" lon="11.83475048935235"><ele>207.0</ele><time>2026-04-24T12:22:46Z</time></trkpt><trkpt lat="42.25963443617613" lon="11.834955303591213"><ele>206.0</ele><time>2026-04-24T12:22:47Z</time></trkpt><trkpt lat="42.259642668217346" lon="11.835184433506303"><ele>205.0</ele><time>2026-04-24T12:22:48Z</time></trkpt><trkpt lat="42.25965727408767" lon="11.835398844418073"><ele>204.0</ele><time>2026-04-24T12:22:49Z</time></trkpt><trkpt lat="42.259683145425974" lon="11.835634438308205"><ele>203.0</ele><time>2026-04-24T12:22:50Z</time></trkpt><trkpt lat="42.25973137572199" lon="11.835863952223496"><ele>202.25</ele><time>2026-04-24T12:22:51Z</time></trkpt><trkpt lat="42.25973951485375" lon="11.83603378049842"><ele>201.5</ele><time>2026-04-24T12:22:52Z</time></trkpt><trkpt lat="42.25977287826693" lon="11.83620488115949"><ele>200.75</ele><time>2026-04-24T12:22:53Z</time></trkpt><trkpt lat="42.25979486067576" lon="11.836381437740634"><ele>200.0</ele><time>2026-04-24T12:22:54Z</time></trkpt><trkpt lat="42.25982904223029" lon="11.83657201060185"><ele>199.5</ele><time>2026-04-24T12:22:55Z</time></trkpt><trkpt lat="42.2598672299052" lon="11.8367588647578"><ele>199.0</ele><time>2026-04-24T12:22:56Z</time></trkpt><trkpt lat="42.25991151956301" lon="11.836928866364534"><ele>198.5</ele><time>2026-04-24T12:22:57Z</time></trkpt><trkpt lat="42.25996791002962" lon="11.837091287383188"><ele>198.0</ele><time>2026-04-24T12:22:58Z</time></trkpt><trkpt lat="42.260011501743406" lon="11.837259068178565"><ele>197.33333333333331</ele><time>2026-04-24T12:22:59Z</time></trkpt><trkpt lat="42.260082975087876" lon="11.837459908530482"><ele>196.66666666666666</ele><time>2026-04-24T12:23:00Z</time></trkpt><trkpt lat="42.26018858470404" lon="11.83764723963188"><ele>196.0</ele><time>2026-04-24T12:23:01Z</time></trkpt><trkpt lat="42.26029473798545" lon="11.837845666989399"><ele>195.33333333333331</ele><time>2026-04-24T12:23:02Z</time></trkpt><trkpt lat="42.260386508206764" lon="11.838034902046278"><ele>194.66666666666669</ele><time>2026-04-24T12:23:03Z</time></trkpt><trkpt lat="42.2604752934786" lon="11.838236127068333"><ele>194.0</ele><time>2026-04-24T12:23:04Z</time></trkpt><trkpt lat="42.2605547812441" lon="11.838435153755505"><ele>192.0</ele><time>2026-04-24T12:23:05Z</time></trkpt><trkpt lat="42.260642701647186" lon="11.838606607714631"><ele>190.0</ele><time>2026-04-24T12:23:06Z</time></trkpt><trkpt lat="42.26072450822051" lon="11.838784181703515"><ele>188.0</ele><time>2026-04-24T12:23:07Z</time></trkpt><trkpt lat="42.26079536748602" lon="11.838999372593284"><ele>188.0</ele><time>2026-04-24T12:23:08Z</time></trkpt><trkpt lat="42.26085997918776" lon="11.839221025944045"><ele>188.0</ele><time>2026-04-24T12:23:09Z</time></trkpt><trkpt lat="42.260894482052386" lon="11.839408452356357"><ele>188.0</ele><time>2026-04-24T12:23:10Z</time></trkpt><trkpt lat="42.26093038640863" lon="11.839621791187337"><ele>187.33333333333331</ele><time>2026-04-24T12:23:11Z</time></trkpt><trkpt lat="42.26096451666896" lon="11.839846826399294"><ele>186.66666666666666</ele><time>2026-04-24T12:23:12Z</time></trkpt><trkpt lat="42.26101100839684" lon="11.840017713055504"><ele>186.0</ele><time>2026-04-24T12:23:13Z</time></trkpt><trkpt lat="42.261041366468405" lon="11.840218076267742"><ele>185.66666666666666</ele><time>2026-04-24T12:23:14Z</time></trkpt><trkpt lat="42.261077996991006" lon="11.840407028667649"><ele>185.33333333333331</ele><time>2026-04-24T12:23:15Z</time></trkpt><trkpt lat="42.261122711283186" lon="11.840603266080725"><ele>185.0</ele><time>2026-04-24T12:23:16Z</time></trkpt><trkpt lat="42.26115446874382" lon="11.840806228148534"><ele>183.75</ele><time>2026-04-24T12:23:17Z</time></trkpt><trkpt lat="42.26119070606545" lon="11.840995331089317"><ele>182.5</ele><time>2026-04-24T12:23:18Z</time></trkpt><trkpt lat="42.261220683377" lon="11.841178466303026"><ele>181.25</ele><time>2026-04-24T12:23:19Z</time></trkpt><trkpt lat="42.26125639339777" lon="11.841392311657666"><ele>180.0</ele><time>2026-04-24T12:23:20Z</time></trkpt><trkpt lat="42.26130118092069" lon="11.841618282414121"><ele>178.33333333333334</ele><time>2026-04-24T12:23:21Z</time></trkpt><trkpt lat="42.26132100870991" lon="11.841833128234372"><ele>176.66666666666669</ele><time>2026-04-24T12:23:22Z</time></trkpt><trkpt lat="42.26134750955562" lon="11.842040613608397"><ele>175.0</ele><time>2026-04-24T12:23:23Z</time></trkpt><trkpt lat="42.26137301838652" lon="11.842241871894256"><ele>175.0</ele><time>2026-04-24T12:23:24Z</time></trkpt><trkpt lat="42.26139776799164" lon="11.842435745034772"><ele>175.0</ele><time>2026-04-24T12:23:25Z</time></trkpt><trkpt lat="42.26141217923876" lon="11.842642655552785"><ele>175.0</ele><time>2026-04-24T12:23:26Z</time></trkpt><trkpt lat="42.261457737134876" lon="11.842835517372569"><ele>175.0</ele><time>2026-04-24T12:23:27Z</time></trkpt><trkpt lat="42.26149194665456" lon="11.843028988478673"><ele>174.0</ele><time>2026-04-24T12:23:28Z</time></trkpt><trkpt lat="42.26153662812001" lon="11.843217391446572"><ele>173.0</ele><time>2026-04-24T12:23:29Z</time></trkpt><trkpt lat="42.26156976645795" lon="11.843386056937575"><ele>172.0</ele><time>2026-04-24T12:23:30Z</time></trkpt><trkpt lat="42.261592282620576" lon="11.843572482311515"><ele>171.0</ele><time>2026-04-24T12:23:31Z</time></trkpt><trkpt lat="42.26161958974129" lon="11.843727906959877"><ele>169.75</ele><time>2026-04-24T12:23:32Z</time></trkpt><trkpt lat="42.26164414821211" lon="11.8439131790366"><ele>168.5</ele><time>2026-04-24T12:23:33Z</time></trkpt><trkpt lat="42.26168003560386" lon="11.844082648490126"><ele>167.25</ele><time>2026-04-24T12:23:34Z</time></trkpt><trkpt lat="42.26170667180607" lon="11.844255059574559"><ele>166.0</ele><time>2026-04-24T12:23:35Z</time></trkpt><trkpt lat="42.261716958891114" lon="11.844411973743817"><ele>164.75</ele><time>2026-04-24T12:23:36Z</time></trkpt><trkpt lat="42.2617260414887" lon="11.844603002086444"><ele>163.5</ele><time>2026-04-24T12:23:37Z</time></trkpt><trkpt lat="42.261723566592366" lon="11.844787798260047"><ele>162.25</ele><time>2026-04-24T12:23:38Z</time></trkpt><trkpt lat="42.26171144421362" lon="11.844985857477646"><ele>161.0</ele><time>2026-04-24T12:23:39Z</time></trkpt><trkpt lat="42.26169451139296" lon="11.845180331936481"><ele>160.0</ele><time>2026-04-24T12:23:40Z</time></trkpt><trkpt lat="42.26166904089845" lon="11.84535412067041"><ele>159.0</ele><time>2026-04-24T12:23:41Z</time></trkpt><trkpt lat="42.26165878340825" lon="11.845532139212267"><ele>158.0</ele><time>2026-04-24T12:23:42Z</time></trkpt><trkpt lat="42.261640754196335" lon="11.845739770035582"><ele>157.0</ele><time>2026-04-24T12:23:43Z</time></trkpt><trkpt lat="42.26163884346691" lon="11.845961446828117"><ele>156.0</ele><time>2026-04-24T12:23:44Z</time></trkpt><trkpt lat="42.261637703214056" lon="11.846197224390975"><ele>155.0</ele><time>2026-04-24T12:23:45Z</time></trkpt><trkpt lat="42.26164734479577" lon="11.846412371281676"><ele>154.0</ele><time>2026-04-24T12:23:46Z</time></trkpt><trkpt lat="42.261663707629594" lon="11.846627838798794"><ele>153.0</ele><time>2026-04-24T12:23:47Z</time></trkpt><trkpt lat="42.261671934357985" lon="11.84683370293168"><ele>152.0</ele><time>2026-04-24T12:23:48Z</time></trkpt><trkpt lat="42.261678739351034" lon="11.847050181297774"><ele>151.0</ele><time>2026-04-24T12:23:49Z</time></trkpt><trkpt lat="42.26168311781391" lon="11.847263718224712"><ele>151.0</ele><time>2026-04-24T12:23:50Z</time></trkpt><trkpt lat="42.261683856562335" lon="11.847458947388136"><ele>151.0</ele><time>2026-04-24T12:23:51Z</time></trkpt><trkpt lat="42.26167822287012" lon="11.847656542239543"><ele>151.0</ele><time>2026-04-24T12:23:52Z</time></trkpt><trkpt lat="42.26168425011233" lon="11.847853523935648"><ele>151.0</ele><time>2026-04-24T12:23:53Z</time></trkpt><trkpt lat="42.26171248399654" lon="11.848055943844201"><ele>151.25</ele><time>2026-04-24T12:23:54Z</time></trkpt><trkpt lat="42.26176335118641" lon="11.848237525605477"><ele>151.5</ele><time>2026-04-24T12:23:55Z</time></trkpt><trkpt lat="42.26182054354384" lon="11.848407773024398"><ele>151.75</ele><time>2026-04-24T12:23:56Z</time></trkpt><trkpt lat="42.26187717936109" lon="11.848607803428445"><ele>152.0</ele><time>2026-04-24T12:23:57Z</time></trkpt><trkpt lat="42.2619292127262" lon="11.848810890425495"><ele>152.25</ele><time>2026-04-24T12:23:58Z</time></trkpt><trkpt lat="42.261973649066995" lon="11.848995603624674"><ele>152.5</ele><time>2026-04-24T12:23:59Z</time></trkpt><trkpt lat="42.26202179235916" lon="11.84916246374056"><ele>152.75</ele><time>2026-04-24T12:24:00Z</time></trkpt><trkpt lat="42.262073309275785" lon="11.849309707622119"><ele>153.0</ele><time>2026-04-24T12:24:01Z</time></trkpt><trkpt lat="42.26212400884218" lon="11.849488011837604"><ele>153.0</ele><time>2026-04-24T12:24:02Z</time></trkpt><trkpt lat="42.262185726372216" lon="11.849669748155282"><ele>153.0</ele><time>2026-04-24T12:24:03Z</time></trkpt><trkpt lat="42.262256552184986" lon="11.84985346764147"><ele>153.0</ele><time>2026-04-24T12:24:04Z</time></trkpt><trkpt lat="42.26232108503723" lon="11.850019394524045"><ele>153.0</ele><time>2026-04-24T12:24:05Z</time></trkpt><trkpt lat="42.262382645345355" lon="11.850224127326253"><ele>151.0</ele><time>2026-04-24T12:24:06Z</time></trkpt><trkpt lat="42.2624316976086" lon="11.850412584059141"><ele>149.0</ele><time>2026-04-24T12:24:07Z</time></trkpt><trkpt lat="42.262477828671884" lon="11.850603939528046"><ele>147.0</ele><time>2026-04-24T12:24:08Z</time></trkpt><trkpt lat="42.262487303231126" lon="11.85079183939585"><ele>145.0</ele><time>2026-04-24T12:24:09Z</time></trkpt><trkpt lat="42.26251381390154" lon="11.851001573675706"><ele>144.0</ele><time>2026-04-24T12:24:10Z</time></trkpt><trkpt lat="42.26253358985813" lon="11.851210924551694"><ele>143.0</ele><time>2026-04-24T12:24:11Z</time></trkpt><trkpt lat="42.26254980648093" lon="11.851396325242476"><ele>142.0</ele><time>2026-04-24T12:24:12Z</time></trkpt><trkpt lat="42.2625624514479" lon="11.8515684233922"><ele>141.0</ele><time>2026-04-24T12:24:13Z</time></trkpt><trkpt lat="42.262529861871066" lon="11.851722714674478"><ele>141.0</ele><time>2026-04-24T12:24:14Z</time></trkpt><trkpt lat="42.26256053744549" lon="11.851908828909496"><ele>141.0</ele><time>2026-04-24T12:24:15Z</time></trkpt><trkpt lat="42.262575339536696" lon="11.852083025512021"><ele>141.0</ele><time>2026-04-24T12:24:16Z</time></trkpt><trkpt lat="42.26258888952097" lon="11.85223033291061"><ele>141.0</ele><time>2026-04-24T12:24:17Z</time></trkpt><trkpt lat="42.262598115276404" lon="11.852369025097596"><ele>141.0</ele><time>2026-04-24T12:24:18Z</time></trkpt><trkpt lat="42.262595504694104" lon="11.852529517421281"><ele>141.0</ele><time>2026-04-24T12:24:19Z</time></trkpt><trkpt lat="42.26256785381541" lon="11.852691362990178"><ele>141.0</ele><time>2026-04-24T12:24:20Z</time></trkpt><trkpt lat="42.26251773087358" lon="11.852871034100447"><ele>141.0</ele><time>2026-04-24T12:24:21Z</time></trkpt><trkpt lat="42.26244258923846" lon="11.853057986731278"><ele>141.75</ele><time>2026-04-24T12:24:22Z</time></trkpt><trkpt lat="42.26236999790863" lon="11.85323050231275"><ele>142.5</ele><time>2026-04-24T12:24:23Z</time></trkpt><trkpt lat="42.26230253186177" lon="11.853418342949439"><ele>143.25</ele><time>2026-04-24T12:24:24Z</time></trkpt><trkpt lat="42.26225227098537" lon="11.853589671466967"><ele>144.0</ele><time>2026-04-24T12:24:25Z</time></trkpt><trkpt lat="42.26221538870192" lon="11.853770218667165"><ele>144.25</ele><time>2026-04-24T12:24:26Z</time></trkpt><trkpt lat="42.262195442731226" lon="11.853953550807788"><ele>144.5</ele><time>2026-04-24T12:24:27Z</time></trkpt><trkpt lat="42.26218257620004" lon="11.854144254229068"><ele>144.75</ele><time>2026-04-24T12:24:28Z</time></trkpt><trkpt lat="42.26218745362658" lon="11.854355276919593"><ele>145.0</ele><time>2026-04-24T12:24:29Z</time></trkpt><trkpt lat="42.26221225128783" lon="11.854587211065557"><ele>145.33333333333334</ele><time>2026-04-24T12:24:30Z</time></trkpt><trkpt lat="42.26224285220366" lon="11.854836040571834"><ele>145.66666666666666</ele><time>2026-04-24T12:24:31Z</time></trkpt><trkpt lat="42.26226234500527" lon="11.855114956085425"><ele>146.0</ele><time>2026-04-24T12:24:32Z</time></trkpt><trkpt lat="42.26228470501921" lon="11.855378248754521"><ele>147.33333333333331</ele><time>2026-04-24T12:24:33Z</time></trkpt><trkpt lat="42.26228535907611" lon="11.855624431379615"><ele>148.66666666666666</ele><time>2026-04-24T12:24:34Z</time></trkpt><trkpt lat="42.26230110450763" lon="11.855857220069216"><ele>150.0</ele><time>2026-04-24T12:24:35Z</time></trkpt><trkpt lat="42.26232936696629" lon="11.856070483278906"><ele>150.0</ele><time>2026-04-24T12:24:36Z</time></trkpt><trkpt lat="42.26234729333729" lon="11.856287782132831"><ele>150.0</ele><time>2026-04-24T12:24:37Z</time></trkpt><trkpt lat="42.26235630529453" lon="11.856488766096613"><ele>150.0</ele><time>2026-04-24T12:24:38Z</time></trkpt><trkpt lat="42.26237340801117" lon="11.856661897672165"><ele>150.0</ele><time>2026-04-24T12:24:39Z</time></trkpt><trkpt lat="42.2623947960294" lon="11.856874770256152"><ele>150.0</ele><time>2026-04-24T12:24:40Z</time></trkpt><trkpt lat="42.262430126065446" lon="11.85709398488214"><ele>150.0</ele><time>2026-04-24T12:24:41Z</time></trkpt><trkpt lat="42.26248712982168" lon="11.857335789504372"><ele>150.0</ele><time>2026-04-24T12:24:42Z</time></trkpt><trkpt lat="42.26253913753189" lon="11.85758448984674"><ele>149.33333333333334</ele><time>2026-04-24T12:24:43Z</time></trkpt><trkpt lat="42.2625801851577" lon="11.857855263919058"><ele>148.66666666666669</ele><time>2026-04-24T12:24:44Z</time></trkpt><trkpt lat="42.26263601083173" lon="11.858116472280164"><ele>148.0</ele><time>2026-04-24T12:24:45Z</time></trkpt><trkpt lat="42.26268425034071" lon="11.858391129692214"><ele>147.66666666666669</ele><time>2026-04-24T12:24:46Z</time></trkpt><trkpt lat="42.262723954496074" lon="11.858664994258039"><ele>147.33333333333334</ele><time>2026-04-24T12:24:47Z</time></trkpt><trkpt lat="42.26277804653422" lon="11.85893171626448"><ele>147.0</ele><time>2026-04-24T12:24:48Z</time></trkpt><trkpt lat="42.26281973474537" lon="11.859223347073897"><ele>148.0</ele><time>2026-04-24T12:24:49Z</time></trkpt><trkpt lat="42.26286198829918" lon="11.859498509893333"><ele>149.0</ele><time>2026-04-24T12:24:50Z</time></trkpt><trkpt lat="42.26290203818556" lon="11.859799227999632"><ele>150.0</ele><time>2026-04-24T12:24:51Z</time></trkpt><trkpt lat="42.262943764216665" lon="11.860096378197008"><ele>150.0</ele><time>2026-04-24T12:24:52Z</time></trkpt><trkpt lat="42.26297241495476" lon="11.860370574958429"><ele>150.0</ele><time>2026-04-24T12:24:53Z</time></trkpt><trkpt lat="42.2630216799526" lon="11.860625085285944"><ele>150.0</ele><time>2026-04-24T12:24:54Z</time></trkpt><trkpt lat="42.26305400856004" lon="11.860869679962066"><ele>150.33333333333334</ele><time>2026-04-24T12:24:55Z</time></trkpt><trkpt lat="42.26308621040891" lon="11.86111331567589"><ele>150.66666666666669</ele><time>2026-04-24T12:24:56Z</time></trkpt><trkpt lat="42.263113969963335" lon="11.861323341407696"><ele>151.0</ele><time>2026-04-24T12:24:57Z</time></trkpt><trkpt lat="42.26314031890519" lon="11.861535924114596"><ele>152.33333333333334</ele><time>2026-04-24T12:24:58Z</time></trkpt><trkpt lat="42.26316720891848" lon="11.861759533411407"><ele>153.66666666666666</ele><time>2026-04-24T12:24:59Z</time></trkpt><trkpt lat="42.26319286685223" lon="11.861998268898306"><ele>155.0</ele><time>2026-04-24T12:25:00Z</time></trkpt><trkpt lat="42.26321874628297" lon="11.86223977458246"><ele>155.33333333333331</ele><time>2026-04-24T12:25:01Z</time></trkpt><trkpt lat="42.2632273703055" lon="11.862477277575158"><ele>155.66666666666666</ele><time>2026-04-24T12:25:02Z</time></trkpt><trkpt lat="42.26325330084992" lon="11.86269859690235"><ele>156.0</ele><time>2026-04-24T12:25:03Z</time></trkpt><trkpt lat="42.26328735307335" lon="11.862895807282644"><ele>156.33333333333334</ele><time>2026-04-24T12:25:04Z</time></trkpt><trkpt lat="42.26329810219441" lon="11.863133173904446"><ele>156.66666666666669</ele><time>2026-04-24T12:25:05Z</time></trkpt><trkpt lat="42.26332070815405" lon="11.863332897179228"><ele>157.0</ele><time>2026-04-24T12:25:06Z</time></trkpt><trkpt lat="42.26334002936808" lon="11.863549104156558"><ele>157.33333333333334</ele><time>2026-04-24T12:25:07Z</time></trkpt><trkpt lat="42.26335463619675" lon="11.863749643848559"><ele>157.66666666666666</ele><time>2026-04-24T12:25:08Z</time></trkpt><trkpt lat="42.263373332249614" lon="11.86395526620896"><ele>158.0</ele><time>2026-04-24T12:25:09Z</time></trkpt><trkpt lat="42.263397353251605" lon="11.864157266927398"><ele>157.66666666666666</ele><time>2026-04-24T12:25:10Z</time></trkpt><trkpt lat="42.26342302113575" lon="11.864362063241204"><ele>157.33333333333334</ele><time>2026-04-24T12:25:11Z</time></trkpt><trkpt lat="42.26345161682403" lon="11.864590539614792"><ele>157.0</ele><time>2026-04-24T12:25:12Z</time></trkpt><trkpt lat="42.26347809338519" lon="11.86480124751491"><ele>157.0</ele><time>2026-04-24T12:25:13Z</time></trkpt><trkpt lat="42.26350393413665" lon="11.865000719509"><ele>157.0</ele><time>2026-04-24T12:25:14Z</time></trkpt><trkpt lat="42.26352349961725" lon="11.865197339705443"><ele>157.0</ele><time>2026-04-24T12:25:15Z</time></trkpt><trkpt lat="42.263548824779235" lon="11.865414501623297"><ele>156.0</ele><time>2026-04-24T12:25:16Z</time></trkpt><trkpt lat="42.263563956378476" lon="11.865634180848481"><ele>155.0</ele><time>2026-04-24T12:25:17Z</time></trkpt><trkpt lat="42.26357187731946" lon="11.86583035404973"><ele>154.0</ele><time>2026-04-24T12:25:18Z</time></trkpt><trkpt lat="42.263563230455475" lon="11.86604880922398"><ele>153.33333333333334</ele><time>2026-04-24T12:25:19Z</time></trkpt><trkpt lat="42.26355226340773" lon="11.866258641444404"><ele>152.66666666666666</ele><time>2026-04-24T12:25:20Z</time></trkpt><trkpt lat="42.26353086877941" lon="11.866492182393225"><ele>152.0</ele><time>2026-04-24T12:25:21Z</time></trkpt><trkpt lat="42.2635135201378" lon="11.866716208038486"><ele>153.0</ele><time>2026-04-24T12:25:22Z</time></trkpt><trkpt lat="42.2634927135392" lon="11.866931943272704"><ele>154.0</ele><time>2026-04-24T12:25:23Z</time></trkpt><trkpt lat="42.26346839075485" lon="11.86715642108441"><ele>155.0</ele><time>2026-04-24T12:25:24Z</time></trkpt><trkpt lat="42.26343727929779" lon="11.86737781826949"><ele>155.0</ele><time>2026-04-24T12:25:25Z</time></trkpt><trkpt lat="42.26340317017076" lon="11.867581426485044"><ele>155.0</ele><time>2026-04-24T12:25:26Z</time></trkpt><trkpt lat="42.26336903829809" lon="11.867793608513656"><ele>155.0</ele><time>2026-04-24T12:25:27Z</time></trkpt><trkpt lat="42.2633338393588" lon="11.868011878688883"><ele>156.66666666666666</ele><time>2026-04-24T12:25:28Z</time></trkpt><trkpt lat="42.263302415324546" lon="11.868233248600369"><ele>158.33333333333334</ele><time>2026-04-24T12:25:29Z</time></trkpt><trkpt lat="42.263273199646804" lon="11.868446572056795"><ele>160.0</ele><time>2026-04-24T12:25:30Z</time></trkpt><trkpt lat="42.26323954857731" lon="11.868652195713285"><ele>160.75</ele><time>2026-04-24T12:25:31Z</time></trkpt><trkpt lat="42.26320989890229" lon="11.868845542470403"><ele>161.5</ele><time>2026-04-24T12:25:32Z</time></trkpt><trkpt lat="42.26318928179915" lon="11.86902514301554"><ele>162.25</ele><time>2026-04-24T12:25:33Z</time></trkpt><trkpt lat="42.263173639626416" lon="11.86920754659701"><ele>163.0</ele><time>2026-04-24T12:25:34Z</time></trkpt><trkpt lat="42.26317206251366" lon="11.869393323923756"><ele>163.0</ele><time>2026-04-24T12:25:35Z</time></trkpt><trkpt lat="42.263173742904556" lon="11.86957723452002"><ele>163.0</ele><time>2026-04-24T12:25:36Z</time></trkpt><trkpt lat="42.26319768422398" lon="11.869769076048827"><ele>163.0</ele><time>2026-04-24T12:25:37Z</time></trkpt><trkpt lat="42.263233270825474" lon="11.869950837059337"><ele>163.0</ele><time>2026-04-24T12:25:38Z</time></trkpt><trkpt lat="42.2632853896938" lon="11.870126567558977"><ele>162.33333333333334</ele><time>2026-04-24T12:25:39Z</time></trkpt><trkpt lat="42.26335299321982" lon="11.870321951871452"><ele>161.66666666666666</ele><time>2026-04-24T12:25:40Z</time></trkpt><trkpt lat="42.263416594925225" lon="11.870525734290476"><ele>161.0</ele><time>2026-04-24T12:25:41Z</time></trkpt><trkpt lat="42.26347795389433" lon="11.87071465849053"><ele>161.0</ele><time>2026-04-24T12:25:42Z</time></trkpt><trkpt lat="42.26353617196413" lon="11.870914044558923"><ele>161.0</ele><time>2026-04-24T12:25:43Z</time></trkpt><trkpt lat="42.263597971253176" lon="11.871089605585338"><ele>161.0</ele><time>2026-04-24T12:25:44Z</time></trkpt><trkpt lat="42.26363167278514" lon="11.871249887760134"><ele>161.0</ele><time>2026-04-24T12:25:45Z</time></trkpt><trkpt lat="42.263693762666115" lon="11.87142701102664"><ele>160.25</ele><time>2026-04-24T12:25:46Z</time></trkpt><trkpt lat="42.263756231776725" lon="11.871587034037143"><ele>159.5</ele><time>2026-04-24T12:25:47Z</time></trkpt><trkpt lat="42.26381169936874" lon="11.87175689417757"><ele>158.75</ele><time>2026-04-24T12:25:48Z</time></trkpt><trkpt lat="42.26387571957366" lon="11.8719169030628"><ele>158.0</ele><time>2026-04-24T12:25:49Z</time></trkpt><trkpt lat="42.263931407064895" lon="11.872095456661343"><ele>158.25</ele><time>2026-04-24T12:25:50Z</time></trkpt><trkpt lat="42.26397697962136" lon="11.872269153815715"><ele>158.5</ele><time>2026-04-24T12:25:51Z</time></trkpt><trkpt lat="42.26402945299944" lon="11.872446731438693"><ele>158.75</ele><time>2026-04-24T12:25:52Z</time></trkpt><trkpt lat="42.26408561021321" lon="11.872608223585614"><ele>159.0</ele><time>2026-04-24T12:25:53Z</time></trkpt><trkpt lat="42.26414295975322" lon="11.872804519686724"><ele>159.25</ele><time>2026-04-24T12:25:54Z</time></trkpt><trkpt lat="42.26419674714289" lon="11.872995673069285"><ele>159.5</ele><time>2026-04-24T12:25:55Z</time></trkpt><trkpt lat="42.26425426491513" lon="11.873177338954404"><ele>159.75</ele><time>2026-04-24T12:25:56Z</time></trkpt><trkpt lat="42.26430715484484" lon="11.873355252461492"><ele>160.0</ele><time>2026-04-24T12:25:57Z</time></trkpt><trkpt lat="42.26435964205838" lon="11.873518600134767"><ele>160.25</ele><time>2026-04-24T12:25:58Z</time></trkpt><trkpt lat="42.26441733663492" lon="11.873672123984576"><ele>160.5</ele><time>2026-04-24T12:25:59Z</time></trkpt><trkpt lat="42.264479038505584" lon="11.873850798505417"><ele>160.75</ele><time>2026-04-24T12:26:00Z</time></trkpt><trkpt lat="42.264549992508954" lon="11.874051194027489"><ele>161.0</ele><time>2026-04-24T12:26:01Z</time></trkpt><trkpt lat="42.264628564780374" lon="11.874272185239692"><ele>161.33333333333331</ele><time>2026-04-24T12:26:02Z</time></trkpt><trkpt lat="42.26469506738583" lon="11.87451479272768"><ele>161.66666666666666</ele><time>2026-04-24T12:26:03Z</time></trkpt><trkpt lat="42.26476182151959" lon="11.87472444094143"><ele>162.0</ele><time>2026-04-24T12:26:04Z</time></trkpt><trkpt lat="42.26482772085073" lon="11.874935957074161"><ele>162.66666666666666</ele><time>2026-04-24T12:26:05Z</time></trkpt><trkpt lat="42.2648918123672" lon="11.875151374320355"><ele>163.33333333333331</ele><time>2026-04-24T12:26:06Z</time></trkpt><trkpt lat="42.26495955431555" lon="11.8753571608708"><ele>164.0</ele><time>2026-04-24T12:26:07Z</time></trkpt><trkpt lat="42.265031419556" lon="11.875571871782544"><ele>164.0</ele><time>2026-04-24T12:26:08Z</time></trkpt><trkpt lat="42.2651098355749" lon="11.875789809819514"><ele>164.0</ele><time>2026-04-24T12:26:09Z</time></trkpt><trkpt lat="42.26518200874754" lon="11.876032777570734"><ele>164.0</ele><time>2026-04-24T12:26:10Z</time></trkpt><trkpt lat="42.26526228241808" lon="11.876274401147397"><ele>164.33333333333331</ele><time>2026-04-24T12:26:11Z</time></trkpt><trkpt lat="42.265331919268775" lon="11.876507086441292"><ele>164.66666666666666</ele><time>2026-04-24T12:26:12Z</time></trkpt><trkpt lat="42.26540694196208" lon="11.876743670844188"><ele>165.0</ele><time>2026-04-24T12:26:13Z</time></trkpt><trkpt lat="42.26548228385887" lon="11.876963579682862"><ele>165.0</ele><time>2026-04-24T12:26:14Z</time></trkpt><trkpt lat="42.26556276175989" lon="11.877181854746809"><ele>165.0</ele><time>2026-04-24T12:26:15Z</time></trkpt><trkpt lat="42.26563195228553" lon="11.8774121862672"><ele>165.0</ele><time>2026-04-24T12:26:16Z</time></trkpt><trkpt lat="42.265708615644634" lon="11.877639597945327"><ele>164.66666666666666</ele><time>2026-04-24T12:26:17Z</time></trkpt><trkpt lat="42.26578620663182" lon="11.877856091614065"><ele>164.33333333333331</ele><time>2026-04-24T12:26:18Z</time></trkpt><trkpt lat="42.26585470238888" lon="11.878058304391196"><ele>164.0</ele><time>2026-04-24T12:26:19Z</time></trkpt><trkpt lat="42.26592888500962" lon="11.87826627376187"><ele>163.66666666666666</ele><time>2026-04-24T12:26:20Z</time></trkpt><trkpt lat="42.26599202521904" lon="11.878464093520645"><ele>163.33333333333334</ele><time>2026-04-24T12:26:21Z</time></trkpt><trkpt lat="42.2660554397676" lon="11.878647952779458"><ele>163.0</ele><time>2026-04-24T12:26:22Z</time></trkpt><trkpt lat="42.266119586569445" lon="11.878839730234501"><ele>163.0</ele><time>2026-04-24T12:26:23Z</time></trkpt><trkpt lat="42.266174130799655" lon="11.879035827312926"><ele>163.0</ele><time>2026-04-24T12:26:24Z</time></trkpt><trkpt lat="42.26622199215891" lon="11.879219882030739"><ele>163.0</ele><time>2026-04-24T12:26:25Z</time></trkpt><trkpt lat="42.26627370913711" lon="11.879402914272163"><ele>163.0</ele><time>2026-04-24T12:26:26Z</time></trkpt><trkpt lat="42.26631657592608" lon="11.879609243994151"><ele>163.0</ele><time>2026-04-24T12:26:27Z</time></trkpt><trkpt lat="42.266362588307445" lon="11.87980737300932"><ele>163.0</ele><time>2026-04-24T12:26:28Z</time></trkpt><trkpt lat="42.26640091221924" lon="11.880020913454059"><ele>163.0</ele><time>2026-04-24T12:26:29Z</time></trkpt><trkpt lat="42.26642690694685" lon="11.880213426730002"><ele>166.33333333333334</ele><time>2026-04-24T12:26:30Z</time></trkpt><trkpt lat="42.26646864166091" lon="11.880426025695254"><ele>169.66666666666666</ele><time>2026-04-24T12:26:31Z</time></trkpt><trkpt lat="42.26649985795989" lon="11.880646834164734"><ele>173.0</ele><time>2026-04-24T12:26:32Z</time></trkpt><trkpt lat="42.26653351167342" lon="11.880870294930077"><ele>173.0</ele><time>2026-04-24T12:26:33Z</time></trkpt><trkpt lat="42.26656051632721" lon="11.881101659568515"><ele>173.0</ele><time>2026-04-24T12:26:34Z</time></trkpt><trkpt lat="42.26658329631072" lon="11.88131772470509"><ele>173.0</ele><time>2026-04-24T12:26:35Z</time></trkpt><trkpt lat="42.26660397363321" lon="11.881538585303927"><ele>173.0</ele><time>2026-04-24T12:26:36Z</time></trkpt><trkpt lat="42.266624675741674" lon="11.881752431766161"><ele>173.0</ele><time>2026-04-24T12:26:37Z</time></trkpt><trkpt lat="42.26664496708067" lon="11.881950636231245"><ele>173.0</ele><time>2026-04-24T12:26:38Z</time></trkpt><trkpt lat="42.266659304739555" lon="11.882150704149561"><ele>173.0</ele><time>2026-04-24T12:26:39Z</time></trkpt><trkpt lat="42.26667299775907" lon="11.882338716894665"><ele>173.0</ele><time>2026-04-24T12:26:40Z</time></trkpt><trkpt lat="42.266689193582835" lon="11.88252074398659"><ele>173.0</ele><time>2026-04-24T12:26:41Z</time></trkpt><trkpt lat="42.26670291894042" lon="11.882700414396307"><ele>173.0</ele><time>2026-04-24T12:26:42Z</time></trkpt><trkpt lat="42.26671768796592" lon="11.88289753370742"><ele>173.0</ele><time>2026-04-24T12:26:43Z</time></trkpt><trkpt lat="42.26673936047042" lon="11.883100864630409"><ele>173.0</ele><time>2026-04-24T12:26:44Z</time></trkpt><trkpt lat="42.266756041611025" lon="11.88330747947613"><ele>173.0</ele><time>2026-04-24T12:26:45Z</time></trkpt><trkpt lat="42.26677232838872" lon="11.8835072701273"><ele>174.33333333333331</ele><time>2026-04-24T12:26:46Z</time></trkpt><trkpt lat="42.26679886913137" lon="11.883727981455612"><ele>175.66666666666666</ele><time>2026-04-24T12:26:47Z</time></trkpt><trkpt lat="42.266827597587465" lon="11.883948270099607"><ele>177.0</ele><time>2026-04-24T12:26:48Z</time></trkpt><trkpt lat="42.2668573105389" lon="11.884140366874028"><ele>178.33333333333334</ele><time>2026-04-24T12:26:49Z</time></trkpt><trkpt lat="42.26687312590611" lon="11.884341615995556"><ele>179.66666666666669</ele><time>2026-04-24T12:26:50Z</time></trkpt><trkpt lat="42.26689196987767" lon="11.884538790992536"><ele>181.0</ele><time>2026-04-24T12:26:51Z</time></trkpt><trkpt lat="42.26690865222312" lon="11.884746449830983"><ele>181.0</ele><time>2026-04-24T12:26:52Z</time></trkpt><trkpt lat="42.2669277054336" lon="11.884961501371045"><ele>181.0</ele><time>2026-04-24T12:26:53Z</time></trkpt><trkpt lat="42.266944708919446" lon="11.885173442651704"><ele>181.0</ele><time>2026-04-24T12:26:54Z</time></trkpt><trkpt lat="42.26697179158418" lon="11.885371827739615"><ele>181.33333333333334</ele><time>2026-04-24T12:26:55Z</time></trkpt><trkpt lat="42.266992665379874" lon="11.885580691287306"><ele>181.66666666666666</ele><time>2026-04-24T12:26:56Z</time></trkpt><trkpt lat="42.2670046342455" lon="11.885801330390557"><ele>182.0</ele><time>2026-04-24T12:26:57Z</time></trkpt><trkpt lat="42.2670225769992" lon="11.886013122959941"><ele>182.66666666666666</ele><time>2026-04-24T12:26:58Z</time></trkpt><trkpt lat="42.267045804138405" lon="11.886213780210731"><ele>183.33333333333334</ele><time>2026-04-24T12:26:59Z</time></trkpt><trkpt lat="42.26706432259527" lon="11.886423765184308"><ele>184.0</ele><time>2026-04-24T12:27:00Z</time></trkpt><trkpt lat="42.267086112758555" lon="11.88663976111909"><ele>183.33333333333334</ele><time>2026-04-24T12:27:01Z</time></trkpt><trkpt lat="42.26709972694533" lon="11.886859607259112"><ele>182.66666666666666</ele><time>2026-04-24T12:27:02Z</time></trkpt><trkpt lat="42.26711885818911" lon="11.887066544711905"><ele>182.0</ele><time>2026-04-24T12:27:03Z</time></trkpt><trkpt lat="42.26714328524341" lon="11.887298006134984"><ele>182.0</ele><time>2026-04-24T12:27:04Z</time></trkpt><trkpt lat="42.267160985194856" lon="11.887538705590718"><ele>182.0</ele><time>2026-04-24T12:27:05Z</time></trkpt><trkpt lat="42.267168551809846" lon="11.887745196786778"><ele>182.0</ele><time>2026-04-24T12:27:06Z</time></trkpt><trkpt lat="42.26718765446383" lon="11.887985105562604"><ele>182.33333333333331</ele><time>2026-04-24T12:27:07Z</time></trkpt><trkpt lat="42.26721376870714" lon="11.888203604867742"><ele>182.66666666666666</ele><time>2026-04-24T12:27:08Z</time></trkpt><trkpt lat="42.267226390372144" lon="11.888419957362796"><ele>183.0</ele><time>2026-04-24T12:27:09Z</time></trkpt><trkpt lat="42.267235751942025" lon="11.888621197726632"><ele>183.5</ele><time>2026-04-24T12:27:10Z</time></trkpt><trkpt lat="42.267247179189425" lon="11.888799760800548"><ele>184.0</ele><time>2026-04-24T12:27:11Z</time></trkpt><trkpt lat="42.26726106583974" lon="11.88895218166652"><ele>184.5</ele><time>2026-04-24T12:27:12Z</time></trkpt><trkpt lat="42.267277031546925" lon="11.889121806612273"><ele>185.0</ele><time>2026-04-24T12:27:13Z</time></trkpt><trkpt lat="42.26729254869758" lon="11.889270914054247"><ele>187.5</ele><time>2026-04-24T12:27:14Z</time></trkpt><trkpt lat="42.26730184743706" lon="11.889435151814956"><ele>190.0</ele><time>2026-04-24T12:27:15Z</time></trkpt><trkpt lat="42.267308138084736" lon="11.889596493924516"><ele>192.5</ele><time>2026-04-24T12:27:16Z</time></trkpt><trkpt lat="42.26731580496974" lon="11.889752183888152"><ele>195.0</ele><time>2026-04-24T12:27:17Z</time></trkpt><trkpt lat="42.267328476282174" lon="11.88989267339655"><ele>195.0</ele><time>2026-04-24T12:27:18Z</time></trkpt><trkpt lat="42.267334823241185" lon="11.890059542321614"><ele>195.0</ele><time>2026-04-24T12:27:19Z</time></trkpt><trkpt lat="42.26734091335823" lon="11.890209858993828"><ele>195.0</ele><time>2026-04-24T12:27:20Z</time></trkpt><trkpt lat="42.267349672710175" lon="11.890363891119042"><ele>195.0</ele><time>2026-04-24T12:27:21Z</time></trkpt><trkpt lat="42.267357821034565" lon="11.890524584222732"><ele>195.5</ele><time>2026-04-24T12:27:22Z</time></trkpt><trkpt lat="42.26736254220278" lon="11.890679369303367"><ele>196.0</ele><time>2026-04-24T12:27:23Z</time></trkpt><trkpt lat="42.26736611004053" lon="11.890837785273458"><ele>196.5</ele><time>2026-04-24T12:27:24Z</time></trkpt><trkpt lat="42.2673721884505" lon="11.890988142760529"><ele>197.0</ele><time>2026-04-24T12:27:25Z</time></trkpt><trkpt lat="42.26737992900711" lon="11.891147761017262"><ele>198.0</ele><time>2026-04-24T12:27:26Z</time></trkpt><trkpt lat="42.26738228479169" lon="11.891306327825832"><ele>199.0</ele><time>2026-04-24T12:27:27Z</time></trkpt><trkpt lat="42.26739145987584" lon="11.891467354868073"><ele>200.0</ele><time>2026-04-24T12:27:28Z</time></trkpt><trkpt lat="42.26739597515422" lon="11.891639656419223"><ele>201.0</ele><time>2026-04-24T12:27:29Z</time></trkpt><trkpt lat="42.26740112459929" lon="11.89180652077354"><ele>202.25</ele><time>2026-04-24T12:27:30Z</time></trkpt><trkpt lat="42.26740416045329" lon="11.891971081518054"><ele>203.5</ele><time>2026-04-24T12:27:31Z</time></trkpt><trkpt lat="42.26741138764751" lon="11.892119265016449"><ele>204.75</ele><time>2026-04-24T12:27:32Z</time></trkpt><trkpt lat="42.267418730638965" lon="11.89227909631172"><ele>206.0</ele><time>2026-04-24T12:27:33Z</time></trkpt><trkpt lat="42.2674188858123" lon="11.89242008992685"><ele>206.0</ele><time>2026-04-24T12:27:34Z</time></trkpt><trkpt lat="42.2674239864682" lon="11.892566985156014"><ele>206.0</ele><time>2026-04-24T12:27:35Z</time></trkpt><trkpt lat="42.26743359911452" lon="11.892698013741745"><ele>206.0</ele><time>2026-04-24T12:27:36Z</time></trkpt><trkpt lat="42.26743663990321" lon="11.89283451071187"><ele>206.0</ele><time>2026-04-24T12:27:37Z</time></trkpt><trkpt lat="42.26744498478435" lon="11.892968569566879"><ele>206.0</ele><time>2026-04-24T12:27:38Z</time></trkpt><trkpt lat="42.26745301939181" lon="11.893116765982457"><ele>207.0</ele><time>2026-04-24T12:27:39Z</time></trkpt><trkpt lat="42.26745968440871" lon="11.893255304074259"><ele>208.0</ele><time>2026-04-24T12:27:40Z</time></trkpt><trkpt lat="42.26746866481733" lon="11.893395245146955"><ele>209.0</ele><time>2026-04-24T12:27:41Z</time></trkpt><trkpt lat="42.26747049868949" lon="11.893536202861725"><ele>210.0</ele><time>2026-04-24T12:27:42Z</time></trkpt><trkpt lat="42.26747830653586" lon="11.893660969764793"><ele>211.0</ele><time>2026-04-24T12:27:43Z</time></trkpt><trkpt lat="42.26749062654375" lon="11.893803605958409"><ele>211.60000000000002</ele><time>2026-04-24T12:27:44Z</time></trkpt><trkpt lat="42.267496043912864" lon="11.893942142575039"><ele>212.2</ele><time>2026-04-24T12:27:45Z</time></trkpt><trkpt lat="42.26749962085739" lon="11.894085541762056"><ele>212.79999999999998</ele><time>2026-04-24T12:27:46Z</time></trkpt><trkpt lat="42.26750483966085" lon="11.89423381775932"><ele>213.39999999999998</ele><time>2026-04-24T12:27:47Z</time></trkpt><trkpt lat="42.26750773204044" lon="11.894385593553876"><ele>214.0</ele><time>2026-04-24T12:27:48Z</time></trkpt><trkpt lat="42.2675035173853" lon="11.894546057918838"><ele>214.75</ele><time>2026-04-24T12:27:49Z</time></trkpt><trkpt lat="42.267496433316474" lon="11.894720907672307"><ele>215.5</ele><time>2026-04-24T12:27:50Z</time></trkpt><trkpt lat="42.2674856667841" lon="11.894890553113694"><ele>216.25</ele><time>2026-04-24T12:27:51Z</time></trkpt><trkpt lat="42.267478314705116" lon="11.895061881751351"><ele>217.0</ele><time>2026-04-24T12:27:52Z</time></trkpt><trkpt lat="42.26747895748273" lon="11.895218532227851"><ele>219.25</ele><time>2026-04-24T12:27:53Z</time></trkpt><trkpt lat="42.26744886785674" lon="11.895390801981838"><ele>221.5</ele><time>2026-04-24T12:27:54Z</time></trkpt><trkpt lat="42.267450867125724" lon="11.895540927851323"><ele>223.75</ele><time>2026-04-24T12:27:55Z</time></trkpt><trkpt lat="42.26745459355587" lon="11.895699104517934"><ele>226.0</ele><time>2026-04-24T12:27:56Z</time></trkpt><trkpt lat="42.26746082538329" lon="11.89585718775482"><ele>226.75</ele><time>2026-04-24T12:27:57Z</time></trkpt><trkpt lat="42.26747831522611" lon="11.896063035127606"><ele>227.5</ele><time>2026-04-24T12:27:58Z</time></trkpt><trkpt lat="42.26750202925754" lon="11.896233117737186"><ele>228.25</ele><time>2026-04-24T12:27:59Z</time></trkpt><trkpt lat="42.26753449770223" lon="11.896402123788823"><ele>229.0</ele><time>2026-04-24T12:28:00Z</time></trkpt><trkpt lat="42.26753902746394" lon="11.896586036141928"><ele>229.0</ele><time>2026-04-24T12:28:01Z</time></trkpt><trkpt lat="42.2675605700657" lon="11.896725584021281"><ele>228.99999999999997</ele><time>2026-04-24T12:28:02Z</time></trkpt><trkpt lat="42.26757957082283" lon="11.896851766125371"><ele>228.99999999999997</ele><time>2026-04-24T12:28:03Z</time></trkpt><trkpt lat="42.267600975204296" lon="11.896955317502577"><ele>229.0</ele><time>2026-04-24T12:28:04Z</time></trkpt><trkpt lat="42.267615977105045" lon="11.897073245490459"><ele>229.0</ele><time>2026-04-24T12:28:05Z</time></trkpt><trkpt lat="42.26761683806432" lon="11.897183897087944"><ele>229.83333333333331</ele><time>2026-04-24T12:28:06Z</time></trkpt><trkpt lat="42.26760836892453" lon="11.897300366443085"><ele>230.66666666666666</ele><time>2026-04-24T12:28:07Z</time></trkpt><trkpt lat="42.267620647392334" lon="11.897399775625455"><ele>231.5</ele><time>2026-04-24T12:28:08Z</time></trkpt><trkpt lat="42.26764012549875" lon="11.897500854472236"><ele>232.33333333333331</ele><time>2026-04-24T12:28:09Z</time></trkpt><trkpt lat="42.267671722589895" lon="11.89757653027541"><ele>233.16666666666666</ele><time>2026-04-24T12:28:10Z</time></trkpt><trkpt lat="42.267723858576424" lon="11.897696854512391"><ele>234.0</ele><time>2026-04-24T12:28:12Z</time></trkpt><trkpt lat="42.26777113810812" lon="11.897814122665606"><ele>234.39999999999998</ele><time>2026-04-24T12:28:14Z</time></trkpt><trkpt lat="42.267815232906514" lon="11.897957860507988"><ele>234.79999999999998</ele><time>2026-04-24T12:28:15Z</time></trkpt><trkpt lat="42.26786759599089" lon="11.898077496877788"><ele>235.20000000000002</ele><time>2026-04-24T12:28:16Z</time></trkpt><trkpt lat="42.26791891106745" lon="11.898194497482626"><ele>235.60000000000002</ele><time>2026-04-24T12:28:17Z</time></trkpt><trkpt lat="42.267958766905274" lon="11.898280929880922"><ele>236.0</ele><time>2026-04-24T12:28:18Z</time></trkpt><trkpt lat="42.26800995750051" lon="11.89839530267928"><ele>236.25</ele><time>2026-04-24T12:28:19Z</time></trkpt><trkpt lat="42.268063031640864" lon="11.898508184240383"><ele>236.5</ele><time>2026-04-24T12:28:21Z</time></trkpt><trkpt lat="42.26817664173806" lon="11.89873279560076"><ele>236.75</ele><time>2026-04-24T12:29:31Z</time></trkpt><trkpt lat="42.26821857885716" lon="11.898821846888508"><ele>237.0</ele><time>2026-04-24T12:29:32Z</time></trkpt><trkpt lat="42.26825704838164" lon="11.898906456350728"><ele>237.0</ele><time>2026-04-24T12:29:34Z</time></trkpt><trkpt lat="42.268322788314826" lon="11.899032176733737"><ele>237.0</ele><time>2026-04-24T12:29:37Z</time></trkpt><trkpt lat="42.268390085147594" lon="11.89919660352078"><ele>237.0</ele><time>2026-04-24T12:29:39Z</time></trkpt><trkpt lat="42.26845409839594" lon="11.899334320201502"><ele>237.0</ele><time>2026-04-24T12:29:40Z</time></trkpt><trkpt lat="42.26851089751668" lon="11.899456121697627"><ele>237.2</ele><time>2026-04-24T12:29:41Z</time></trkpt><trkpt lat="42.268576895365285" lon="11.899593380292695"><ele>237.39999999999998</ele><time>2026-04-24T12:29:42Z</time></trkpt><trkpt lat="42.2686300531847" lon="11.899697233949334"><ele>237.60000000000002</ele><time>2026-04-24T12:29:43Z</time></trkpt><trkpt lat="42.26868737663591" lon="11.899803733800862"><ele>237.8</ele><time>2026-04-24T12:29:44Z</time></trkpt><trkpt lat="42.26874391372413" lon="11.899916946140669"><ele>238.0</ele><time>2026-04-24T12:29:45Z</time></trkpt><trkpt lat="42.26879009967169" lon="11.900019548737106"><ele>238.60000000000002</ele><time>2026-04-24T12:29:46Z</time></trkpt><trkpt lat="42.268842209765886" lon="11.90013345936661"><ele>239.20000000000002</ele><time>2026-04-24T12:29:47Z</time></trkpt><trkpt lat="42.26890166255959" lon="11.900258027862979"><ele>239.8</ele><time>2026-04-24T12:29:48Z</time></trkpt><trkpt lat="42.2689514874987" lon="11.900386676366542"><ele>240.4</ele><time>2026-04-24T12:29:49Z</time></trkpt><trkpt lat="42.269000247293654" lon="11.900550111122408"><ele>241.0</ele><time>2026-04-24T12:29:50Z</time></trkpt><trkpt lat="42.269044841968885" lon="11.900648353755518"><ele>241.0</ele><time>2026-04-24T12:29:51Z</time></trkpt><trkpt lat="42.26909512630941" lon="11.900763076171422"><ele>241.00000000000003</ele><time>2026-04-24T12:29:52Z</time></trkpt><trkpt lat="42.269151708840745" lon="11.900843956227721"><ele>241.00000000000003</ele><time>2026-04-24T12:29:53Z</time></trkpt><trkpt lat="42.269214402380825" lon="11.900954405134502"><ele>241.0</ele><time>2026-04-24T12:29:54Z</time></trkpt><trkpt lat="42.26926012183889" lon="11.9010537031412"><ele>241.0</ele><time>2026-04-24T12:29:55Z</time></trkpt><trkpt lat="42.26931371892259" lon="11.901159679621294"><ele>240.4</ele><time>2026-04-24T12:29:56Z</time></trkpt><trkpt lat="42.269358428055284" lon="11.90127063673271"><ele>239.8</ele><time>2026-04-24T12:29:57Z</time></trkpt><trkpt lat="42.269396839095755" lon="11.901379848379369"><ele>239.20000000000002</ele><time>2026-04-24T12:29:58Z</time></trkpt><trkpt lat="42.269428061642216" lon="11.90147179523159"><ele>238.60000000000002</ele><time>2026-04-24T12:29:59Z</time></trkpt><trkpt lat="42.2694973476882" lon="11.901624119474775"><ele>238.0</ele><time>2026-04-24T12:30:01Z</time></trkpt><trkpt lat="42.26957611325753" lon="11.901710225353774"><ele>237.66666666666666</ele><time>2026-04-24T12:30:02Z</time></trkpt><trkpt lat="42.26961320366721" lon="11.90178351490717"><ele>237.33333333333331</ele><time>2026-04-24T12:30:03Z</time></trkpt><trkpt lat="42.26965970383744" lon="11.901878257735591"><ele>237.0</ele><time>2026-04-24T12:30:04Z</time></trkpt><trkpt lat="42.269707153540196" lon="11.901974960820125"><ele>236.66666666666669</ele><time>2026-04-24T12:30:05Z</time></trkpt><trkpt lat="42.26976547844215" lon="11.902079615129892"><ele>236.33333333333334</ele><time>2026-04-24T12:30:06Z</time></trkpt><trkpt lat="42.26982052858424" lon="11.902175368064725"><ele>236.0</ele><time>2026-04-24T12:30:07Z</time></trkpt><trkpt lat="42.2698770466332" lon="11.902261058765745"><ele>236.00000000000003</ele><time>2026-04-24T12:30:08Z</time></trkpt><trkpt lat="42.26993579032063" lon="11.902381947857043"><ele>236.0</ele><time>2026-04-24T12:30:09Z</time></trkpt><trkpt lat="42.26999079045552" lon="11.902468208226876"><ele>236.0</ele><time>2026-04-24T12:30:10Z</time></trkpt><trkpt lat="42.27005178173764" lon="11.902557519679872"><ele>236.0</ele><time>2026-04-24T12:30:11Z</time></trkpt><trkpt lat="42.27010882136693" lon="11.902642143481472"><ele>236.00000000000003</ele><time>2026-04-24T12:30:12Z</time></trkpt><trkpt lat="42.27015476717972" lon="11.902719188137334"><ele>236.0</ele><time>2026-04-24T12:30:13Z</time></trkpt><trkpt lat="42.27020620461153" lon="11.90280485563681"><ele>235.16666666666669</ele><time>2026-04-24T12:30:14Z</time></trkpt><trkpt lat="42.27026168595572" lon="11.902893014984683"><ele>234.33333333333334</ele><time>2026-04-24T12:30:15Z</time></trkpt><trkpt lat="42.270329088532094" lon="11.90296601802193"><ele>233.5</ele><time>2026-04-24T12:30:16Z</time></trkpt><trkpt lat="42.27037779930875" lon="11.903045574290747"><ele>232.66666666666669</ele><time>2026-04-24T12:30:17Z</time></trkpt><trkpt lat="42.27044229666671" lon="11.90313905142803"><ele>231.83333333333334</ele><time>2026-04-24T12:30:18Z</time></trkpt><trkpt lat="42.2705017282385" lon="11.903238133167502"><ele>231.0</ele><time>2026-04-24T12:30:19Z</time></trkpt><trkpt lat="42.27055780239709" lon="11.903327546367066"><ele>230.60000000000002</ele><time>2026-04-24T12:30:20Z</time></trkpt><trkpt lat="42.27062400743431" lon="11.90343104254528"><ele>230.20000000000002</ele><time>2026-04-24T12:30:21Z</time></trkpt><trkpt lat="42.270689548232035" lon="11.90354039197878"><ele>229.79999999999998</ele><time>2026-04-24T12:30:22Z</time></trkpt><trkpt lat="42.27075162083499" lon="11.903628832659496"><ele>229.39999999999998</ele><time>2026-04-24T12:30:23Z</time></trkpt><trkpt lat="42.270817929734676" lon="11.903732930377316"><ele>229.0</ele><time>2026-04-24T12:30:24Z</time></trkpt><trkpt lat="42.27088407527694" lon="11.90384944729286"><ele>229.0</ele><time>2026-04-24T12:30:25Z</time></trkpt><trkpt lat="42.27094454323825" lon="11.90395773247383"><ele>228.99999999999997</ele><time>2026-04-24T12:30:26Z</time></trkpt><trkpt lat="42.27099932414789" lon="11.904062074549474"><ele>228.99999999999997</ele><time>2026-04-24T12:30:27Z</time></trkpt><trkpt lat="42.27106575213542" lon="11.904147044564477"><ele>229.0</ele><time>2026-04-24T12:30:28Z</time></trkpt><trkpt lat="42.27113656474272" lon="11.904239565753794"><ele>229.0</ele><time>2026-04-24T12:30:29Z</time></trkpt><trkpt lat="42.271187071778456" lon="11.904304129651706"><ele>228.2</ele><time>2026-04-24T12:30:30Z</time></trkpt><trkpt lat="42.27124858934762" lon="11.904405386086419"><ele>227.39999999999998</ele><time>2026-04-24T12:30:31Z</time></trkpt><trkpt lat="42.27131372458738" lon="11.904499058562934"><ele>226.6</ele><time>2026-04-24T12:30:32Z</time></trkpt><trkpt lat="42.27138350195217" lon="11.904598253246196"><ele>225.8</ele><time>2026-04-24T12:30:33Z</time></trkpt><trkpt lat="42.27145570417153" lon="11.904697576968278"><ele>225.0</ele><time>2026-04-24T12:30:34Z</time></trkpt><trkpt lat="42.271511181942216" lon="11.90480911884661"><ele>225.0</ele><time>2026-04-24T12:30:35Z</time></trkpt><trkpt lat="42.27157375461051" lon="11.904909216686695"><ele>225.0</ele><time>2026-04-24T12:30:36Z</time></trkpt><trkpt lat="42.27163482523347" lon="11.905006911685618"><ele>225.0</ele><time>2026-04-24T12:30:37Z</time></trkpt><trkpt lat="42.27169762020256" lon="11.905107365145003"><ele>225.0</ele><time>2026-04-24T12:30:38Z</time></trkpt><trkpt lat="42.27174864554486" lon="11.905188990696105"><ele>225.0</ele><time>2026-04-24T12:30:39Z</time></trkpt><trkpt lat="42.271795902259676" lon="11.905264587492127"><ele>225.0</ele><time>2026-04-24T12:30:40Z</time></trkpt><trkpt lat="42.27186661263018" lon="11.905343375400625"><ele>224.6</ele><time>2026-04-24T12:30:41Z</time></trkpt><trkpt lat="42.27191694622694" lon="11.90545589481514"><ele>224.2</ele><time>2026-04-24T12:30:42Z</time></trkpt><trkpt lat="42.271977423376846" lon="11.905571531973786"><ele>223.8</ele><time>2026-04-24T12:30:43Z</time></trkpt><trkpt lat="42.27203414285167" lon="11.905687709282368"><ele>223.4</ele><time>2026-04-24T12:30:44Z</time></trkpt><trkpt lat="42.27209206703359" lon="11.905812261177367"><ele>223.0</ele><time>2026-04-24T12:30:45Z</time></trkpt><trkpt lat="42.27215774146202" lon="11.905951699708503"><ele>222.5</ele><time>2026-04-24T12:30:46Z</time></trkpt><trkpt lat="42.27223241035632" lon="11.9060786092594"><ele>222.0</ele><time>2026-04-24T12:30:47Z</time></trkpt><trkpt lat="42.272334562790746" lon="11.906204687651693"><ele>221.5</ele><time>2026-04-24T12:30:48Z</time></trkpt><trkpt lat="42.27241641547021" lon="11.906332256152487"><ele>221.0</ele><time>2026-04-24T12:30:49Z</time></trkpt><trkpt lat="42.272482476268955" lon="11.906467541784119"><ele>221.0</ele><time>2026-04-24T12:30:50Z</time></trkpt><trkpt lat="42.272555905197954" lon="11.906595949757836"><ele>221.00000000000003</ele><time>2026-04-24T12:30:51Z</time></trkpt><trkpt lat="42.27263774646341" lon="11.906703547205495"><ele>221.00000000000003</ele><time>2026-04-24T12:30:52Z</time></trkpt><trkpt lat="42.27270081958261" lon="11.906789935751034"><ele>221.0</ele><time>2026-04-24T12:30:53Z</time></trkpt><trkpt lat="42.272752296379636" lon="11.906888414109343"><ele>221.0</ele><time>2026-04-24T12:30:54Z</time></trkpt><trkpt lat="42.27281304974196" lon="11.90699403103492"><ele>221.0</ele><time>2026-04-24T12:30:55Z</time></trkpt><trkpt lat="42.27287644823256" lon="11.907095571677349"><ele>221.00000000000003</ele><time>2026-04-24T12:30:56Z</time></trkpt><trkpt lat="42.272941644946656" lon="11.907204940631837"><ele>221.00000000000003</ele><time>2026-04-24T12:30:57Z</time></trkpt><trkpt lat="42.273013546702366" lon="11.90731670561473"><ele>221.0</ele><time>2026-04-24T12:30:58Z</time></trkpt><trkpt lat="42.27309627440981" lon="11.907444815586274"><ele>221.0</ele><time>2026-04-24T12:30:59Z</time></trkpt><trkpt lat="42.273178321575955" lon="11.907568948059955"><ele>220.20000000000002</ele><time>2026-04-24T12:31:00Z</time></trkpt><trkpt lat="42.273244376853995" lon="11.907674590015125"><ele>219.40000000000003</ele><time>2026-04-24T12:31:01Z</time></trkpt><trkpt lat="42.27331612020857" lon="11.907782059608198"><ele>218.6</ele><time>2026-04-24T12:31:02Z</time></trkpt><trkpt lat="42.27339126533095" lon="11.907894724966852"><ele>217.8</ele><time>2026-04-24T12:31:03Z</time></trkpt><trkpt lat="42.27347472602968" lon="11.90799941335778"><ele>217.0</ele><time>2026-04-24T12:31:04Z</time></trkpt><trkpt lat="42.27355597774499" lon="11.908122277892856"><ele>217.0</ele><time>2026-04-24T12:31:05Z</time></trkpt><trkpt lat="42.273640643978965" lon="11.908249118756956"><ele>217.0</ele><time>2026-04-24T12:31:06Z</time></trkpt><trkpt lat="42.27371826486663" lon="11.90839202314384"><ele>217.0</ele><time>2026-04-24T12:31:07Z</time></trkpt><trkpt lat="42.27379266054758" lon="11.908537104249099"><ele>217.0</ele><time>2026-04-24T12:31:08Z</time></trkpt><trkpt lat="42.273870722592015" lon="11.908643947495397"><ele>216.75</ele><time>2026-04-24T12:31:09Z</time></trkpt><trkpt lat="42.27394878071531" lon="11.90874800008014"><ele>216.5</ele><time>2026-04-24T12:31:10Z</time></trkpt><trkpt lat="42.274020362147525" lon="11.908856410396252"><ele>216.25</ele><time>2026-04-24T12:31:11Z</time></trkpt><trkpt lat="42.27408806028835" lon="11.908987810686403"><ele>216.0</ele><time>2026-04-24T12:31:12Z</time></trkpt><trkpt lat="42.27417497351295" lon="11.909099396140377"><ele>216.0</ele><time>2026-04-24T12:31:13Z</time></trkpt><trkpt lat="42.27426010682843" lon="11.909200350560184"><ele>216.00000000000003</ele><time>2026-04-24T12:31:14Z</time></trkpt><trkpt lat="42.27433144793979" lon="11.909310828015087"><ele>216.00000000000003</ele><time>2026-04-24T12:31:15Z</time></trkpt><trkpt lat="42.27439648322799" lon="11.909414514755946"><ele>216.0</ele><time>2026-04-24T12:31:16Z</time></trkpt><trkpt lat="42.27447483140452" lon="11.909538961797546"><ele>216.0</ele><time>2026-04-24T12:31:17Z</time></trkpt><trkpt lat="42.274554961818666" lon="11.909665097583662"><ele>214.75</ele><time>2026-04-24T12:31:18Z</time></trkpt><trkpt lat="42.27463857911356" lon="11.909796722189862"><ele>213.5</ele><time>2026-04-24T12:31:19Z</time></trkpt><trkpt lat="42.27472165627603" lon="11.909899882817026"><ele>212.25</ele><time>2026-04-24T12:31:20Z</time></trkpt><trkpt lat="42.27480496136924" lon="11.910113835675814"><ele>211.0</ele><time>2026-04-24T12:31:21Z</time></trkpt><trkpt lat="42.27489030553753" lon="11.910274365519603"><ele>210.25</ele><time>2026-04-24T12:31:22Z</time></trkpt><trkpt lat="42.274982545388866" lon="11.910443255104786"><ele>209.5</ele><time>2026-04-24T12:31:23Z</time></trkpt><trkpt lat="42.275080682399235" lon="11.910545301558798"><ele>208.75</ele><time>2026-04-24T12:31:24Z</time></trkpt><trkpt lat="42.27518208338438" lon="11.910718657436663"><ele>208.0</ele><time>2026-04-24T12:31:25Z</time></trkpt><trkpt lat="42.27526342326632" lon="11.910847487446999"><ele>207.5</ele><time>2026-04-24T12:31:26Z</time></trkpt><trkpt lat="42.27535173769108" lon="11.910989133658274"><ele>207.0</ele><time>2026-04-24T12:31:27Z</time></trkpt><trkpt lat="42.27542036192128" lon="11.91110614663091"><ele>206.5</ele><time>2026-04-24T12:31:28Z</time></trkpt><trkpt lat="42.275514713351576" lon="11.911258675330691"><ele>206.0</ele><time>2026-04-24T12:31:29Z</time></trkpt><trkpt lat="42.27561457101689" lon="11.911412360747342"><ele>205.25</ele><time>2026-04-24T12:31:30Z</time></trkpt><trkpt lat="42.275701105622936" lon="11.91152934709787"><ele>204.5</ele><time>2026-04-24T12:31:31Z</time></trkpt><trkpt lat="42.27581086162753" lon="11.91169667875399"><ele>203.75</ele><time>2026-04-24T12:31:32Z</time></trkpt><trkpt lat="42.27591262325514" lon="11.911848983808943"><ele>203.0</ele><time>2026-04-24T12:31:33Z</time></trkpt><trkpt lat="42.27601075435789" lon="11.911998316356827"><ele>203.0</ele><time>2026-04-24T12:31:34Z</time></trkpt><trkpt lat="42.27608458748125" lon="11.9121328025783"><ele>203.0</ele><time>2026-04-24T12:31:35Z</time></trkpt><trkpt lat="42.27613309078623" lon="11.912261961897686"><ele>203.0</ele><time>2026-04-24T12:31:36Z</time></trkpt><trkpt lat="42.27621722630639" lon="11.912382212619823"><ele>203.0</ele><time>2026-04-24T12:31:37Z</time></trkpt><trkpt lat="42.276306948125644" lon="11.912511456916818"><ele>202.75</ele><time>2026-04-24T12:31:38Z</time></trkpt><trkpt lat="42.27639925515694" lon="11.912661550020795"><ele>202.5</ele><time>2026-04-24T12:31:39Z</time></trkpt><trkpt lat="42.27648601673512" lon="11.91282264414603"><ele>202.25</ele><time>2026-04-24T12:31:40Z</time></trkpt><trkpt lat="42.27657367431504" lon="11.912922292431402"><ele>202.0</ele><time>2026-04-24T12:31:41Z</time></trkpt><trkpt lat="42.276668952378614" lon="11.913060395922924"><ele>202.0</ele><time>2026-04-24T12:31:42Z</time></trkpt><trkpt lat="42.27675785881349" lon="11.913194940563832"><ele>202.0</ele><time>2026-04-24T12:31:43Z</time></trkpt><trkpt lat="42.27684496978349" lon="11.913333367098934"><ele>202.0</ele><time>2026-04-24T12:31:44Z</time></trkpt><trkpt lat="42.276924209973025" lon="11.913459695149069"><ele>202.0</ele><time>2026-04-24T12:31:45Z</time></trkpt><trkpt lat="42.27700218779273" lon="11.913630579623687"><ele>202.0</ele><time>2026-04-24T12:31:46Z</time></trkpt><trkpt lat="42.27708845884514" lon="11.913766566823053"><ele>202.0</ele><time>2026-04-24T12:31:47Z</time></trkpt><trkpt lat="42.2771928189493" lon="11.913906363743624"><ele>202.0</ele><time>2026-04-24T12:31:48Z</time></trkpt><trkpt lat="42.277255510279474" lon="11.91406491969585"><ele>202.0</ele><time>2026-04-24T12:31:49Z</time></trkpt><trkpt lat="42.27735236417819" lon="11.914239817543864"><ele>203.33333333333331</ele><time>2026-04-24T12:31:50Z</time></trkpt><trkpt lat="42.27743485183106" lon="11.914410491501691"><ele>204.66666666666669</ele><time>2026-04-24T12:31:51Z</time></trkpt><trkpt lat="42.277527107043916" lon="11.914590601867072"><ele>206.0</ele><time>2026-04-24T12:31:52Z</time></trkpt><trkpt lat="42.27761767674374" lon="11.914763312028164"><ele>206.0</ele><time>2026-04-24T12:31:53Z</time></trkpt><trkpt lat="42.27770926242226" lon="11.914924767515508"><ele>206.0</ele><time>2026-04-24T12:31:54Z</time></trkpt><trkpt lat="42.27781384051808" lon="11.915104527529905"><ele>206.0</ele><time>2026-04-24T12:31:55Z</time></trkpt><trkpt lat="42.27790301084651" lon="11.915274021172268"><ele>205.75</ele><time>2026-04-24T12:31:56Z</time></trkpt><trkpt lat="42.27798742219459" lon="11.915436444871721"><ele>205.5</ele><time>2026-04-24T12:31:57Z</time></trkpt><trkpt lat="42.278070578401" lon="11.915587123570122"><ele>205.25</ele><time>2026-04-24T12:31:58Z</time></trkpt><trkpt lat="42.278153927030665" lon="11.915749490178872"><ele>205.0</ele><time>2026-04-24T12:31:59Z</time></trkpt><trkpt lat="42.2782456577931" lon="11.915917537129426"><ele>206.0</ele><time>2026-04-24T12:32:00Z</time></trkpt><trkpt lat="42.2783306399999" lon="11.916092277064005"><ele>207.0</ele><time>2026-04-24T12:32:01Z</time></trkpt><trkpt lat="42.278422504677415" lon="11.916259196520208"><ele>208.0</ele><time>2026-04-24T12:32:02Z</time></trkpt><trkpt lat="42.27850524066658" lon="11.916410726268428"><ele>209.0</ele><time>2026-04-24T12:32:03Z</time></trkpt><trkpt lat="42.278593293317286" lon="11.91658313579078"><ele>209.66666666666669</ele><time>2026-04-24T12:32:04Z</time></trkpt><trkpt lat="42.27868290099444" lon="11.91677112126368"><ele>210.33333333333331</ele><time>2026-04-24T12:32:05Z</time></trkpt><trkpt lat="42.27875794682941" lon="11.916947780420418"><ele>211.0</ele><time>2026-04-24T12:32:06Z</time></trkpt><trkpt lat="42.278850831776346" lon="11.917105287762167"><ele>210.5</ele><time>2026-04-24T12:32:07Z</time></trkpt><trkpt lat="42.27893855271384" lon="11.9172674106197"><ele>210.0</ele><time>2026-04-24T12:32:08Z</time></trkpt><trkpt lat="42.27902274230062" lon="11.917452258955489"><ele>209.5</ele><time>2026-04-24T12:32:09Z</time></trkpt><trkpt lat="42.27907524990549" lon="11.917617021688944"><ele>209.0</ele><time>2026-04-24T12:32:10Z</time></trkpt><trkpt lat="42.2791690612266" lon="11.917792563967982"><ele>209.0</ele><time>2026-04-24T12:32:11Z</time></trkpt><trkpt lat="42.27925670980398" lon="11.917991342706756"><ele>209.0</ele><time>2026-04-24T12:32:12Z</time></trkpt><trkpt lat="42.279377409393135" lon="11.91819794592785"><ele>209.0</ele><time>2026-04-24T12:32:13Z</time></trkpt><trkpt lat="42.279496711795936" lon="11.918378569162721"><ele>209.0</ele><time>2026-04-24T12:32:14Z</time></trkpt><trkpt lat="42.27959593313174" lon="11.918559330717404"><ele>209.0</ele><time>2026-04-24T12:32:15Z</time></trkpt><trkpt lat="42.279693296483586" lon="11.918728453628896"><ele>209.0</ele><time>2026-04-24T12:32:16Z</time></trkpt><trkpt lat="42.2797986403388" lon="11.918865939084311"><ele>209.0</ele><time>2026-04-24T12:32:17Z</time></trkpt><trkpt lat="42.279897177083214" lon="11.91905034340861"><ele>209.0</ele><time>2026-04-24T12:32:18Z</time></trkpt><trkpt lat="42.28000928255798" lon="11.91921096614194"><ele>209.0</ele><time>2026-04-24T12:32:19Z</time></trkpt><trkpt lat="42.28009804701508" lon="11.919369439915656"><ele>209.75</ele><time>2026-04-24T12:32:20Z</time></trkpt><trkpt lat="42.28019788128672" lon="11.919534686606756"><ele>210.5</ele><time>2026-04-24T12:32:21Z</time></trkpt><trkpt lat="42.28029627829517" lon="11.919690168125081"><ele>211.25</ele><time>2026-04-24T12:32:22Z</time></trkpt><trkpt lat="42.28038640670632" lon="11.919833859455144"><ele>212.0</ele><time>2026-04-24T12:32:23Z</time></trkpt><trkpt lat="42.28048425154415" lon="11.91995829396727"><ele>212.25</ele><time>2026-04-24T12:32:24Z</time></trkpt><trkpt lat="42.280548600294956" lon="11.92011461783798"><ele>212.5</ele><time>2026-04-24T12:32:25Z</time></trkpt><trkpt lat="42.28063597257402" lon="11.920250489535517"><ele>212.75</ele><time>2026-04-24T12:32:26Z</time></trkpt><trkpt lat="42.28072308716466" lon="11.920401032428586"><ele>213.0</ele><time>2026-04-24T12:32:27Z</time></trkpt><trkpt lat="42.2808182888285" lon="11.920540267960646"><ele>212.5</ele><time>2026-04-24T12:32:28Z</time></trkpt><trkpt lat="42.280903484678554" lon="11.920679976823768"><ele>212.0</ele><time>2026-04-24T12:32:29Z</time></trkpt><trkpt lat="42.28098740823651" lon="11.92081876989521"><ele>211.5</ele><time>2026-04-24T12:32:30Z</time></trkpt><trkpt lat="42.28107417102222" lon="11.920963376366926"><ele>211.0</ele><time>2026-04-24T12:32:31Z</time></trkpt><trkpt lat="42.28114831531234" lon="11.921092179141528"><ele>211.0</ele><time>2026-04-24T12:32:32Z</time></trkpt><trkpt lat="42.2812203552372" lon="11.921233752317526"><ele>211.0</ele><time>2026-04-24T12:32:33Z</time></trkpt><trkpt lat="42.28130784442917" lon="11.921366612631322"><ele>211.0</ele><time>2026-04-24T12:32:34Z</time></trkpt><trkpt lat="42.28137469176026" lon="11.921490332204183"><ele>211.0</ele><time>2026-04-24T12:32:35Z</time></trkpt><trkpt lat="42.28143683171198" lon="11.921597749564219"><ele>210.99999999999997</ele><time>2026-04-24T12:32:36Z</time></trkpt><trkpt lat="42.28150080565676" lon="11.921701886848291"><ele>211.0</ele><time>2026-04-24T12:32:37Z</time></trkpt><trkpt lat="42.28156007768837" lon="11.92179494248148"><ele>211.0</ele><time>2026-04-24T12:32:38Z</time></trkpt><trkpt lat="42.28161858875779" lon="11.921880156806877"><ele>211.0</ele><time>2026-04-24T12:32:39Z</time></trkpt><trkpt lat="42.281672204450345" lon="11.921983025847554"><ele>210.99999999999997</ele><time>2026-04-24T12:32:40Z</time></trkpt><trkpt lat="42.28169638438644" lon="11.922066666654013"><ele>211.0</ele><time>2026-04-24T12:32:41Z</time></trkpt><trkpt lat="42.28170317513611" lon="11.922173396884993"><ele>210.8</ele><time>2026-04-24T12:32:42Z</time></trkpt><trkpt lat="42.28173488319049" lon="11.922299767274737"><ele>210.60000000000002</ele><time>2026-04-24T12:32:43Z</time></trkpt><trkpt lat="42.28175984606528" lon="11.92241983819071"><ele>210.4</ele><time>2026-04-24T12:32:44Z</time></trkpt><trkpt lat="42.28174922898173" lon="11.922534117928397"><ele>210.2</ele><time>2026-04-24T12:32:45Z</time></trkpt><trkpt lat="42.28172967386803" lon="11.922682540807143"><ele>210.0</ele><time>2026-04-24T12:32:46Z</time></trkpt><trkpt lat="42.28169027105114" lon="11.922817750256796"><ele>209.6</ele><time>2026-04-24T12:32:47Z</time></trkpt><trkpt lat="42.28164330156353" lon="11.92294176676622"><ele>209.2</ele><time>2026-04-24T12:32:48Z</time></trkpt><trkpt lat="42.28161463794623" lon="11.923076537987562"><ele>208.8</ele><time>2026-04-24T12:32:49Z</time></trkpt><trkpt lat="42.281609250385685" lon="11.923219822177241"><ele>208.4</ele><time>2026-04-24T12:32:50Z</time></trkpt><trkpt lat="42.2816270937143" lon="11.923368105489313"><ele>208.0</ele><time>2026-04-24T12:32:51Z</time></trkpt><trkpt lat="42.281672405685384" lon="11.923515184856923"><ele>208.0</ele><time>2026-04-24T12:32:52Z</time></trkpt><trkpt lat="42.2817369280837" lon="11.923670874932933"><ele>208.0</ele><time>2026-04-24T12:32:53Z</time></trkpt><trkpt lat="42.28180732122013" lon="11.923806970488846"><ele>208.0</ele><time>2026-04-24T12:32:54Z</time></trkpt><trkpt lat="42.28187768744048" lon="11.923921470965082"><ele>208.0</ele><time>2026-04-24T12:32:55Z</time></trkpt><trkpt lat="42.28193956212304" lon="11.924049424311661"><ele>208.0</ele><time>2026-04-24T12:32:56Z</time></trkpt><trkpt lat="42.28197292734517" lon="11.924181892139876"><ele>208.0</ele><time>2026-04-24T12:32:57Z</time></trkpt><trkpt lat="42.28198279964975" lon="11.924305940000798"><ele>208.0</ele><time>2026-04-24T12:32:58Z</time></trkpt><trkpt lat="42.28197402682003" lon="11.924436215150102"><ele>208.0</ele><time>2026-04-24T12:32:59Z</time></trkpt><trkpt lat="42.281946687343826" lon="11.924554290445789"><ele>208.0</ele><time>2026-04-24T12:33:00Z</time></trkpt><trkpt lat="42.281897336249735" lon="11.924679049445356"><ele>208.5</ele><time>2026-04-24T12:33:01Z</time></trkpt><trkpt lat="42.28182932948234" lon="11.924799365488155"><ele>209.0</ele><time>2026-04-24T12:33:02Z</time></trkpt><trkpt lat="42.281744112969484" lon="11.924903738007288"><ele>209.5</ele><time>2026-04-24T12:33:03Z</time></trkpt><trkpt lat="42.28166658247585" lon="11.925021279540532"><ele>210.0</ele><time>2026-04-24T12:33:04Z</time></trkpt><trkpt lat="42.28160379155967" lon="11.92515733420209"><ele>210.0</ele><time>2026-04-24T12:33:05Z</time></trkpt><trkpt lat="42.2815512674707" lon="11.925300237293309"><ele>210.0</ele><time>2026-04-24T12:33:06Z</time></trkpt><trkpt lat="42.28151375518152" lon="11.925469257174457"><ele>210.0</ele><time>2026-04-24T12:33:07Z</time></trkpt><trkpt lat="42.281497203681134" lon="11.925644674222552"><ele>210.0</ele><time>2026-04-24T12:33:08Z</time></trkpt><trkpt lat="42.28150236069725" lon="11.92582566884047"><ele>210.25</ele><time>2026-04-24T12:33:09Z</time></trkpt><trkpt lat="42.28151646244616" lon="11.926011260049124"><ele>210.5</ele><time>2026-04-24T12:33:10Z</time></trkpt><trkpt lat="42.281558255989225" lon="11.926199056322424"><ele>210.75</ele><time>2026-04-24T12:33:11Z</time></trkpt><trkpt lat="42.281612157032114" lon="11.92640369907396"><ele>211.0</ele><time>2026-04-24T12:33:12Z</time></trkpt><trkpt lat="42.28168772248101" lon="11.926648177105381"><ele>209.33333333333331</ele><time>2026-04-24T12:33:13Z</time></trkpt><trkpt lat="42.281765898422" lon="11.926909136981088"><ele>207.66666666666669</ele><time>2026-04-24T12:33:14Z</time></trkpt><trkpt lat="42.28183071868289" lon="11.927148626233581"><ele>206.0</ele><time>2026-04-24T12:33:15Z</time></trkpt><trkpt lat="42.28189450941753" lon="11.92735772426607"><ele>205.33333333333334</ele><time>2026-04-24T12:33:16Z</time></trkpt><trkpt lat="42.28196253764187" lon="11.927590290984329"><ele>204.66666666666669</ele><time>2026-04-24T12:33:17Z</time></trkpt><trkpt lat="42.282044867624435" lon="11.927812412726174"><ele>204.0</ele><time>2026-04-24T12:33:18Z</time></trkpt><trkpt lat="42.282123056430706" lon="11.928044877316193"><ele>204.0</ele><time>2026-04-24T12:33:19Z</time></trkpt><trkpt lat="42.2822068794227" lon="11.928263727522168"><ele>204.0</ele><time>2026-04-24T12:33:20Z</time></trkpt><trkpt lat="42.28228707267268" lon="11.928487102390188"><ele>204.0</ele><time>2026-04-24T12:33:21Z</time></trkpt><trkpt lat="42.28236964141785" lon="11.928706351887591"><ele>203.33333333333331</ele><time>2026-04-24T12:33:22Z</time></trkpt><trkpt lat="42.28245364898487" lon="11.928927064101565"><ele>202.66666666666666</ele><time>2026-04-24T12:33:23Z</time></trkpt><trkpt lat="42.28254545894546" lon="11.929157275253832"><ele>202.0</ele><time>2026-04-24T12:33:24Z</time></trkpt><trkpt lat="42.28264130918444" lon="11.929393340225118"><ele>201.66666666666666</ele><time>2026-04-24T12:33:25Z</time></trkpt><trkpt lat="42.28274370680009" lon="11.929649969944249"><ele>201.33333333333331</ele><time>2026-04-24T12:33:26Z</time></trkpt><trkpt lat="42.28284664686209" lon="11.929907206521227"><ele>201.0</ele><time>2026-04-24T12:33:27Z</time></trkpt><trkpt lat="42.28294911912572" lon="11.930145493127554"><ele>203.0</ele><time>2026-04-24T12:33:28Z</time></trkpt><trkpt lat="42.283049806854194" lon="11.930376058137186"><ele>205.0</ele><time>2026-04-24T12:33:29Z</time></trkpt><trkpt lat="42.28315157587839" lon="11.93058748742873"><ele>207.0</ele><time>2026-04-24T12:33:30Z</time></trkpt><trkpt lat="42.283254152247096" lon="11.930803088225357"><ele>209.0</ele><time>2026-04-24T12:33:31Z</time></trkpt><trkpt lat="42.28335446963485" lon="11.931027444509542"><ele>211.0</ele><time>2026-04-24T12:33:32Z</time></trkpt><trkpt lat="42.28345707318673" lon="11.931226725946534"><ele>213.0</ele><time>2026-04-24T12:33:33Z</time></trkpt><trkpt lat="42.283562821174336" lon="11.931427957727774"><ele>213.0</ele><time>2026-04-24T12:33:34Z</time></trkpt><trkpt lat="42.28367601473211" lon="11.931634169379358"><ele>213.0</ele><time>2026-04-24T12:33:35Z</time></trkpt><trkpt lat="42.28378821229655" lon="11.931827675527066"><ele>213.0</ele><time>2026-04-24T12:33:36Z</time></trkpt><trkpt lat="42.28389945272891" lon="11.932037756815902"><ele>215.66666666666669</ele><time>2026-04-24T12:33:37Z</time></trkpt><trkpt lat="42.284016325099884" lon="11.932237121269546"><ele>218.33333333333334</ele><time>2026-04-24T12:33:38Z</time></trkpt><trkpt lat="42.28413575582234" lon="11.9324363379861"><ele>221.0</ele><time>2026-04-24T12:33:39Z</time></trkpt><trkpt lat="42.284259137228595" lon="11.932641530022904"><ele>223.33333333333334</ele><time>2026-04-24T12:33:40.014Z</time></trkpt><trkpt lat="42.28438551664681" lon="11.932842769759796"><ele>225.66666666666669</ele><time>2026-04-24T12:33:41.013Z</time></trkpt><trkpt lat="42.284514661524646" lon="11.933045103632502"><ele>228.0</ele><time>2026-04-24T12:33:42.016Z</time></trkpt><trkpt lat="42.284646132592975" lon="11.933245238996896"><ele>222.5</ele><time>2026-04-24T12:33:43.013Z</time></trkpt><trkpt lat="42.28478522163721" lon="11.93344938956321"><ele>217.0</ele><time>2026-04-24T12:33:44.017Z</time></trkpt><trkpt lat="42.285166732074956" lon="11.934053991001038"><ele>216.66666666666666</ele><time>2026-04-24T12:33:47Z</time></trkpt><trkpt lat="42.28530921350314" lon="11.934263111490935"><ele>216.33333333333331</ele><time>2026-04-24T12:33:48Z</time></trkpt><trkpt lat="42.28547247901412" lon="11.934448595492256"><ele>216.0</ele><time>2026-04-24T12:33:49Z</time></trkpt><trkpt lat="42.285610609462715" lon="11.934654987293193"><ele>216.0</ele><time>2026-04-24T12:33:50Z</time></trkpt><trkpt lat="42.28576388549251" lon="11.934820720935516"><ele>216.0</ele><time>2026-04-24T12:33:51Z</time></trkpt><trkpt lat="42.28590137591402" lon="11.93496250033973"><ele>216.0</ele><time>2026-04-24T12:33:52Z</time></trkpt><trkpt lat="42.28603869111326" lon="11.93517294609742"><ele>218.33333333333331</ele><time>2026-04-24T12:33:53Z</time></trkpt><trkpt lat="42.28617649035474" lon="11.93536472550298"><ele>220.66666666666666</ele><time>2026-04-24T12:33:54Z</time></trkpt><trkpt lat="42.28631619321895" lon="11.935557591746631"><ele>223.0</ele><time>2026-04-24T12:33:55.017Z</time></trkpt><trkpt lat="42.286710469091574" lon="11.93608425558725"><ele>218.0</ele><time>2026-04-24T12:33:58Z</time></trkpt><trkpt lat="42.28684509132938" lon="11.936263350317493"><ele>213.0</ele><time>2026-04-24T12:33:59Z</time></trkpt><trkpt lat="42.28706024291955" lon="11.936448756064458"><ele>208.0</ele><time>2026-04-24T12:34:00Z</time></trkpt><trkpt lat="42.28721960437175" lon="11.936594602707103"><ele>208.33333333333331</ele><time>2026-04-24T12:34:01Z</time></trkpt><trkpt lat="42.287402290565424" lon="11.936757711492398"><ele>208.66666666666669</ele><time>2026-04-24T12:34:02Z</time></trkpt><trkpt lat="42.287549487565244" lon="11.936914828604356"><ele>209.0</ele><time>2026-04-24T12:34:03Z</time></trkpt><trkpt lat="42.28767666151687" lon="11.937101881698917"><ele>209.0</ele><time>2026-04-24T12:34:04Z</time></trkpt><trkpt lat="42.287845758002796" lon="11.937280773203987"><ele>209.0</ele><time>2026-04-24T12:34:05Z</time></trkpt><trkpt lat="42.28803356145745" lon="11.937472747020086"><ele>208.0</ele><time>2026-04-24T12:34:06Z</time></trkpt><trkpt lat="42.288217142018944" lon="11.937652821186315"><ele>207.0</ele><time>2026-04-24T12:34:07Z</time></trkpt><trkpt lat="42.28839129478404" lon="11.937828422463731"><ele>206.0</ele><time>2026-04-24T12:34:08Z</time></trkpt><trkpt lat="42.288559206775766" lon="11.93799888297039"><ele>206.0</ele><time>2026-04-24T12:34:09Z</time></trkpt><trkpt lat="42.288731425327825" lon="11.938165626155678"><ele>206.0</ele><time>2026-04-24T12:34:10Z</time></trkpt><trkpt lat="42.288897942334046" lon="11.938328672287511"><ele>206.0</ele><time>2026-04-24T12:34:11Z</time></trkpt><trkpt lat="42.289064029143994" lon="11.93848201025438"><ele>205.0</ele><time>2026-04-24T12:34:12Z</time></trkpt><trkpt lat="42.28922694014576" lon="11.938644062701274"><ele>204.0</ele><time>2026-04-24T12:34:13Z</time></trkpt><trkpt lat="42.28939469743111" lon="11.938800392489478"><ele>203.0</ele><time>2026-04-24T12:34:14Z</time></trkpt><trkpt lat="42.28955855811573" lon="11.93895238952409"><ele>203.0</ele><time>2026-04-24T12:34:15Z</time></trkpt><trkpt lat="42.2897145840936" lon="11.939118176616287"><ele>203.0</ele><time>2026-04-24T12:34:16Z</time></trkpt><trkpt lat="42.289876733653045" lon="11.939274858354713"><ele>203.0</ele><time>2026-04-24T12:34:17Z</time></trkpt><trkpt lat="42.29003598861193" lon="11.93942574960028"><ele>203.66666666666669</ele><time>2026-04-24T12:34:18Z</time></trkpt><trkpt lat="42.290198143333356" lon="11.939579574236687"><ele>204.33333333333331</ele><time>2026-04-24T12:34:19Z</time></trkpt><trkpt lat="42.290351804294964" lon="11.939732696790621"><ele>205.0</ele><time>2026-04-24T12:34:20Z</time></trkpt><trkpt lat="42.290507293384785" lon="11.939885011951135"><ele>205.66666666666666</ele><time>2026-04-24T12:34:21Z</time></trkpt><trkpt lat="42.29066463588222" lon="11.940039773384893"><ele>206.33333333333331</ele><time>2026-04-24T12:34:22Z</time></trkpt><trkpt lat="42.29082618058006" lon="11.940195971742842"><ele>207.0</ele><time>2026-04-24T12:34:23Z</time></trkpt><trkpt lat="42.290997034179604" lon="11.940357412425024"><ele>207.0</ele><time>2026-04-24T12:34:24Z</time></trkpt><trkpt lat="42.29116871161865" lon="11.9405290934847"><ele>207.0</ele><time>2026-04-24T12:34:25Z</time></trkpt><trkpt lat="42.2913388975158" lon="11.940702818714032"><ele>207.0</ele><time>2026-04-24T12:34:26Z</time></trkpt><trkpt lat="42.29151530847394" lon="11.940866804694604"><ele>207.66666666666669</ele><time>2026-04-24T12:34:27Z</time></trkpt><trkpt lat="42.29168878581555" lon="11.941039982878795"><ele>208.33333333333334</ele><time>2026-04-24T12:34:28Z</time></trkpt><trkpt lat="42.2918667771455" lon="11.941228598755544"><ele>209.0</ele><time>2026-04-24T12:34:29Z</time></trkpt><trkpt lat="42.29205265714218" lon="11.941416035057657"><ele>209.0</ele><time>2026-04-24T12:34:30Z</time></trkpt><trkpt lat="42.29222526404138" lon="11.94159636553258"><ele>209.0</ele><time>2026-04-24T12:34:31Z</time></trkpt><trkpt lat="42.29239107743412" lon="11.941778478251308"><ele>209.0</ele><time>2026-04-24T12:34:32Z</time></trkpt><trkpt lat="42.292556090321206" lon="11.941959233185223"><ele>208.66666666666669</ele><time>2026-04-24T12:34:33Z</time></trkpt><trkpt lat="42.292720836396555" lon="11.942137355238268"><ele>208.33333333333331</ele><time>2026-04-24T12:34:34Z</time></trkpt><trkpt lat="42.29287811405878" lon="11.942332576454582"><ele>208.0</ele><time>2026-04-24T12:34:35Z</time></trkpt><trkpt lat="42.29303261162823" lon="11.942518611464175"><ele>204.0</ele><time>2026-04-24T12:34:36Z</time></trkpt><trkpt lat="42.29318661345522" lon="11.94271340321499"><ele>200.0</ele><time>2026-04-24T12:34:37Z</time></trkpt><trkpt lat="42.29335232020539" lon="11.942906612732793"><ele>196.0</ele><time>2026-04-24T12:34:38Z</time></trkpt><trkpt lat="42.293504063410374" lon="11.943101652867073"><ele>196.0</ele><time>2026-04-24T12:34:39Z</time></trkpt><trkpt lat="42.29366266752887" lon="11.943299974308081"><ele>196.0</ele><time>2026-04-24T12:34:40Z</time></trkpt><trkpt lat="42.293803546845965" lon="11.943504537186046"><ele>196.0</ele><time>2026-04-24T12:34:41Z</time></trkpt><trkpt lat="42.29394114229805" lon="11.9437035182662"><ele>195.33333333333331</ele><time>2026-04-24T12:34:42Z</time></trkpt><trkpt lat="42.29408024493909" lon="11.943925449712594"><ele>194.66666666666669</ele><time>2026-04-24T12:34:43Z</time></trkpt><trkpt lat="42.29421079389935" lon="11.944137552949796"><ele>194.0</ele><time>2026-04-24T12:34:44Z</time></trkpt><trkpt lat="42.294333376554945" lon="11.944342237221061"><ele>197.0</ele><time>2026-04-24T12:34:45Z</time></trkpt><trkpt lat="42.294452016599344" lon="11.94455049852692"><ele>200.0</ele><time>2026-04-24T12:34:46Z</time></trkpt><trkpt lat="42.294578486427625" lon="11.944758639612646"><ele>203.0</ele><time>2026-04-24T12:34:47Z</time></trkpt><trkpt lat="42.294693535660784" lon="11.944960305223855"><ele>201.66666666666669</ele><time>2026-04-24T12:34:48Z</time></trkpt><trkpt lat="42.29480607489917" lon="11.945167167012043"><ele>200.33333333333331</ele><time>2026-04-24T12:34:49Z</time></trkpt><trkpt lat="42.294906794422815" lon="11.945366286830907"><ele>199.0</ele><time>2026-04-24T12:34:50Z</time></trkpt><trkpt lat="42.29499743558467" lon="11.945591654218102"><ele>199.0</ele><time>2026-04-24T12:34:51Z</time></trkpt><trkpt lat="42.2950962411224" lon="11.945788514383427"><ele>199.0</ele><time>2026-04-24T12:34:52Z</time></trkpt><trkpt lat="42.29520345705299" lon="11.946011221197203"><ele>199.0</ele><time>2026-04-24T12:34:53Z</time></trkpt><trkpt lat="42.29531249980414" lon="11.946242756758641"><ele>200.33333333333331</ele><time>2026-04-24T12:34:54Z</time></trkpt><trkpt lat="42.29541754327723" lon="11.9464755232567"><ele>201.66666666666669</ele><time>2026-04-24T12:34:55Z</time></trkpt><trkpt lat="42.29551066881678" lon="11.946671713153194"><ele>203.0</ele><time>2026-04-24T12:34:56Z</time></trkpt><trkpt lat="42.2956031229757" lon="11.946905318890682"><ele>196.66666666666669</ele><time>2026-04-24T12:34:57Z</time></trkpt><trkpt lat="42.29568604920418" lon="11.947137837493031"><ele>190.33333333333334</ele><time>2026-04-24T12:34:58Z</time></trkpt><trkpt lat="42.29576976973584" lon="11.947353021148677"><ele>184.0</ele><time>2026-04-24T12:34:59Z</time></trkpt><trkpt lat="42.29585063637931" lon="11.947572226149642"><ele>183.33333333333334</ele><time>2026-04-24T12:35:00Z</time></trkpt><trkpt lat="42.29592846644743" lon="11.947797309160254"><ele>182.66666666666666</ele><time>2026-04-24T12:35:01Z</time></trkpt><trkpt lat="42.29600984059602" lon="11.948028133134414"><ele>182.0</ele><time>2026-04-24T12:35:02Z</time></trkpt><trkpt lat="42.29608906224092" lon="11.948268933404519"><ele>181.0</ele><time>2026-04-24T12:35:03Z</time></trkpt><trkpt lat="42.29614870653036" lon="11.948470843743392"><ele>180.0</ele><time>2026-04-24T12:35:04Z</time></trkpt><trkpt lat="42.296210431985564" lon="11.94869324976926"><ele>179.0</ele><time>2026-04-24T12:35:05Z</time></trkpt><trkpt lat="42.296280650754404" lon="11.948906519492942"><ele>179.0</ele><time>2026-04-24T12:35:06Z</time></trkpt><trkpt lat="42.296342245720844" lon="11.949138090139105"><ele>179.0</ele><time>2026-04-24T12:35:07Z</time></trkpt><trkpt lat="42.29640559812595" lon="11.949378536662413"><ele>179.0</ele><time>2026-04-24T12:35:08Z</time></trkpt><trkpt lat="42.29645596292729" lon="11.949608501795836"><ele>174.66666666666666</ele><time>2026-04-24T12:35:09Z</time></trkpt><trkpt lat="42.29651323281579" lon="11.949832911581842"><ele>170.33333333333334</ele><time>2026-04-24T12:35:10Z</time></trkpt><trkpt lat="42.29656452372916" lon="11.9500644131406"><ele>166.0</ele><time>2026-04-24T12:35:11Z</time></trkpt><trkpt lat="42.29660752511808" lon="11.950303817467569"><ele>166.0</ele><time>2026-04-24T12:35:12Z</time></trkpt><trkpt lat="42.29665694771075" lon="11.95056204640396"><ele>166.0</ele><time>2026-04-24T12:35:13Z</time></trkpt><trkpt lat="42.29670600300282" lon="11.950797589697888"><ele>166.0</ele><time>2026-04-24T12:35:14Z</time></trkpt><trkpt lat="42.29675701892475" lon="11.951043472839991"><ele>166.66666666666669</ele><time>2026-04-24T12:35:15Z</time></trkpt><trkpt lat="42.29680190213889" lon="11.951286695940436"><ele>167.33333333333334</ele><time>2026-04-24T12:35:16Z</time></trkpt><trkpt lat="42.29684137534488" lon="11.9515376532205"><ele>168.0</ele><time>2026-04-24T12:35:17Z</time></trkpt><trkpt lat="42.296871346509796" lon="11.951780849168083"><ele>168.33333333333334</ele><time>2026-04-24T12:35:18Z</time></trkpt><trkpt lat="42.296885665909016" lon="11.952023504305998"><ele>168.66666666666669</ele><time>2026-04-24T12:35:19Z</time></trkpt><trkpt lat="42.296910943287095" lon="11.952265487787622"><ele>169.0</ele><time>2026-04-24T12:35:20Z</time></trkpt><trkpt lat="42.29693533434768" lon="11.952491273109757"><ele>169.33333333333334</ele><time>2026-04-24T12:35:21Z</time></trkpt><trkpt lat="42.29695500697111" lon="11.952740233969646"><ele>169.66666666666666</ele><time>2026-04-24T12:35:22Z</time></trkpt><trkpt lat="42.29697618126737" lon="11.952966571493556"><ele>170.0</ele><time>2026-04-24T12:35:23Z</time></trkpt><trkpt lat="42.29699656048825" lon="11.95320832759841"><ele>171.0</ele><time>2026-04-24T12:35:24Z</time></trkpt><trkpt lat="42.29699350843953" lon="11.953449452217994"><ele>172.0</ele><time>2026-04-24T12:35:25Z</time></trkpt><trkpt lat="42.29699977174469" lon="11.95368843531306"><ele>173.0</ele><time>2026-04-24T12:35:26Z</time></trkpt><trkpt lat="42.296999068333875" lon="11.953929221229899"><ele>173.0</ele><time>2026-04-24T12:35:27Z</time></trkpt><trkpt lat="42.29701448434609" lon="11.954166395703805"><ele>173.0</ele><time>2026-04-24T12:35:28Z</time></trkpt><trkpt lat="42.29702850718048" lon="11.954412157500522"><ele>173.0</ele><time>2026-04-24T12:35:29Z</time></trkpt><trkpt lat="42.29703901857838" lon="11.954635569809856"><ele>175.33333333333331</ele><time>2026-04-24T12:35:30Z</time></trkpt><trkpt lat="42.29704261468878" lon="11.95488021952895"><ele>177.66666666666666</ele><time>2026-04-24T12:35:31Z</time></trkpt><trkpt lat="42.29703716882908" lon="11.95513908156377"><ele>180.0</ele><time>2026-04-24T12:35:32Z</time></trkpt><trkpt lat="42.29703503030244" lon="11.955369796682067"><ele>183.33333333333334</ele><time>2026-04-24T12:35:33Z</time></trkpt><trkpt lat="42.29703046143692" lon="11.955624776975197"><ele>186.66666666666669</ele><time>2026-04-24T12:35:34Z</time></trkpt><trkpt lat="42.29702866933977" lon="11.95587017672523"><ele>190.0</ele><time>2026-04-24T12:35:35Z</time></trkpt><trkpt lat="42.2970241828065" lon="11.956120763835449"><ele>190.66666666666669</ele><time>2026-04-24T12:35:36.013Z</time></trkpt><trkpt lat="42.29701495597923" lon="11.956371016511147"><ele>191.33333333333334</ele><time>2026-04-24T12:35:37.015Z</time></trkpt><trkpt lat="42.29700929605162" lon="11.956619322710264"><ele>192.0</ele><time>2026-04-24T12:35:38.019Z</time></trkpt><trkpt lat="42.29700502691033" lon="11.956868466164206"><ele>189.5</ele><time>2026-04-24T12:35:39.013Z</time></trkpt><trkpt lat="42.297005263580026" lon="11.957115042864483"><ele>187.0</ele><time>2026-04-24T12:35:40.013Z</time></trkpt><trkpt lat="42.2970241521832" lon="11.95808573242559"><ele>184.33333333333334</ele><time>2026-04-24T12:35:44.016Z</time></trkpt><trkpt lat="42.29701617617899" lon="11.958270521438168"><ele>181.66666666666666</ele><time>2026-04-24T12:35:45Z</time></trkpt><trkpt lat="42.29701493323687" lon="11.958505952902636"><ele>179.0</ele><time>2026-04-24T12:35:46Z</time></trkpt><trkpt lat="42.2970183869144" lon="11.958755181236539"><ele>177.33333333333331</ele><time>2026-04-24T12:35:47Z</time></trkpt><trkpt lat="42.29701970033911" lon="11.959007532343307"><ele>175.66666666666666</ele><time>2026-04-24T12:35:48Z</time></trkpt><trkpt lat="42.29702519173974" lon="11.959283228006784"><ele>174.0</ele><time>2026-04-24T12:35:49Z</time></trkpt><trkpt lat="42.29701457262027" lon="11.959551878546403"><ele>172.66666666666666</ele><time>2026-04-24T12:35:50Z</time></trkpt><trkpt lat="42.29701416000901" lon="11.959807955417105"><ele>171.33333333333331</ele><time>2026-04-24T12:35:51Z</time></trkpt><trkpt lat="42.297016666022785" lon="11.960084130107171"><ele>170.0</ele><time>2026-04-24T12:35:52Z</time></trkpt><trkpt lat="42.297016391789505" lon="11.960357294214658"><ele>168.0</ele><time>2026-04-24T12:35:53Z</time></trkpt><trkpt lat="42.297023027574355" lon="11.960611100993995"><ele>166.0</ele><time>2026-04-24T12:35:54Z</time></trkpt><trkpt lat="42.297038591819074" lon="11.960854375826994"><ele>164.0</ele><time>2026-04-24T12:35:55Z</time></trkpt><trkpt lat="42.29705662206241" lon="11.961124037554974"><ele>162.33333333333331</ele><time>2026-04-24T12:35:56Z</time></trkpt><trkpt lat="42.297081407011234" lon="11.961417789960523"><ele>160.66666666666666</ele><time>2026-04-24T12:35:57Z</time></trkpt><trkpt lat="42.29711428014615" lon="11.96172489915391"><ele>159.0</ele><time>2026-04-24T12:35:58Z</time></trkpt><trkpt lat="42.29714190299619" lon="11.96206511933798"><ele>159.0</ele><time>2026-04-24T12:35:59Z</time></trkpt><trkpt lat="42.29716982365628" lon="11.962387930545617"><ele>159.0</ele><time>2026-04-24T12:36:00Z</time></trkpt><trkpt lat="42.29720657319431" lon="11.962706937631447"><ele>160.0</ele><time>2026-04-24T12:36:01Z</time></trkpt><trkpt lat="42.29724265878443" lon="11.963017363655785"><ele>161.0</ele><time>2026-04-24T12:36:02Z</time></trkpt><trkpt lat="42.297285910140886" lon="11.963316759239678"><ele>157.0</ele><time>2026-04-24T12:36:03Z</time></trkpt><trkpt lat="42.2973323946808" lon="11.963625466526182"><ele>153.0</ele><time>2026-04-24T12:36:04Z</time></trkpt><trkpt lat="42.297382618845006" lon="11.963931161511917"><ele>152.66666666666666</ele><time>2026-04-24T12:36:05Z</time></trkpt><trkpt lat="42.297436605850855" lon="11.964232626871386"><ele>152.33333333333331</ele><time>2026-04-24T12:36:06Z</time></trkpt><trkpt lat="42.29749152811718" lon="11.964507029904514"><ele>152.0</ele><time>2026-04-24T12:36:07Z</time></trkpt><trkpt lat="42.29755278446397" lon="11.964762274650466"><ele>151.33333333333331</ele><time>2026-04-24T12:36:08Z</time></trkpt><trkpt lat="42.29759626598252" lon="11.965042894590123"><ele>150.66666666666666</ele><time>2026-04-24T12:36:09Z</time></trkpt><trkpt lat="42.297651447652214" lon="11.965309500626468"><ele>150.0</ele><time>2026-04-24T12:36:10Z</time></trkpt><trkpt lat="42.29771811030395" lon="11.965559036230946"><ele>150.0</ele><time>2026-04-24T12:36:11Z</time></trkpt><trkpt lat="42.29778512897946" lon="11.965804292456841"><ele>150.0</ele><time>2026-04-24T12:36:12Z</time></trkpt><trkpt lat="42.29784926779944" lon="11.966066377653599"><ele>150.0</ele><time>2026-04-24T12:36:13Z</time></trkpt><trkpt lat="42.297923773151915" lon="11.966295030989281"><ele>150.0</ele><time>2026-04-24T12:36:14Z</time></trkpt><trkpt lat="42.29798261193747" lon="11.966535821423442"><ele>150.0</ele><time>2026-04-24T12:36:15Z</time></trkpt><trkpt lat="42.29805203671853" lon="11.966758128566383"><ele>150.0</ele><time>2026-04-24T12:36:16Z</time></trkpt><trkpt lat="42.29811522707783" lon="11.966988129823417"><ele>152.66666666666666</ele><time>2026-04-24T12:36:17Z</time></trkpt><trkpt lat="42.298185948908454" lon="11.967221349593487"><ele>155.33333333333331</ele><time>2026-04-24T12:36:18Z</time></trkpt><trkpt lat="42.29825256667408" lon="11.967455472385124"><ele>158.0</ele><time>2026-04-24T12:36:19Z</time></trkpt><trkpt lat="42.29832139339666" lon="11.967697985131357"><ele>158.0</ele><time>2026-04-24T12:36:20Z</time></trkpt><trkpt lat="42.298398751272316" lon="11.967966611291144"><ele>158.0</ele><time>2026-04-24T12:36:21Z</time></trkpt><trkpt lat="42.29847159494908" lon="11.968234276578539"><ele>158.0</ele><time>2026-04-24T12:36:22Z</time></trkpt><trkpt lat="42.29855539247049" lon="11.968507459241202"><ele>159.0</ele><time>2026-04-24T12:36:23Z</time></trkpt><trkpt lat="42.298629427557024" lon="11.968771770207084"><ele>160.0</ele><time>2026-04-24T12:36:24Z</time></trkpt><trkpt lat="42.298704811340265" lon="11.969024407909506"><ele>161.0</ele><time>2026-04-24T12:36:25Z</time></trkpt><trkpt lat="42.29877484964463" lon="11.969299208092437"><ele>162.33333333333331</ele><time>2026-04-24T12:36:26Z</time></trkpt><trkpt lat="42.298848337048355" lon="11.969564022683356"><ele>163.66666666666666</ele><time>2026-04-24T12:36:27Z</time></trkpt><trkpt lat="42.29891753137334" lon="11.969836478608938"><ele>165.0</ele><time>2026-04-24T12:36:28Z</time></trkpt><trkpt lat="42.29898791109786" lon="11.970085881989089"><ele>165.0</ele><time>2026-04-24T12:36:29Z</time></trkpt><trkpt lat="42.29906109754801" lon="11.970333344173083"><ele>165.0</ele><time>2026-04-24T12:36:30Z</time></trkpt><trkpt lat="42.29913386672827" lon="11.97058345292195"><ele>165.0</ele><time>2026-04-24T12:36:31Z</time></trkpt><trkpt lat="42.299212040926086" lon="11.970838072957884"><ele>165.33333333333334</ele><time>2026-04-24T12:36:32Z</time></trkpt><trkpt lat="42.299284762017685" lon="11.971091136680345"><ele>165.66666666666669</ele><time>2026-04-24T12:36:33Z</time></trkpt><trkpt lat="42.29935516364461" lon="11.971341944700429"><ele>166.0</ele><time>2026-04-24T12:36:34Z</time></trkpt><trkpt lat="42.29942350623302" lon="11.971571990049421"><ele>167.0</ele><time>2026-04-24T12:36:35Z</time></trkpt><trkpt lat="42.2994863307417" lon="11.971800954459749"><ele>168.0</ele><time>2026-04-24T12:36:36Z</time></trkpt><trkpt lat="42.29955025121801" lon="11.972001398900899"><ele>169.0</ele><time>2026-04-24T12:36:37Z</time></trkpt><trkpt lat="42.2996138437089" lon="11.972214038449357"><ele>169.0</ele><time>2026-04-24T12:36:38Z</time></trkpt><trkpt lat="42.29967702909726" lon="11.972443760483124"><ele>169.0</ele><time>2026-04-24T12:36:39Z</time></trkpt><trkpt lat="42.2997374862527" lon="11.97266124976281"><ele>169.0</ele><time>2026-04-24T12:36:40Z</time></trkpt><trkpt lat="42.29980452653168" lon="11.972882975256125"><ele>169.66666666666669</ele><time>2026-04-24T12:36:41Z</time></trkpt><trkpt lat="42.29987043641891" lon="11.973120701064682"><ele>170.33333333333334</ele><time>2026-04-24T12:36:42Z</time></trkpt><trkpt lat="42.2999467036586" lon="11.973368427174934"><ele>171.0</ele><time>2026-04-24T12:36:43Z</time></trkpt><trkpt lat="42.30002610591146" lon="11.97364228312501"><ele>172.0</ele><time>2026-04-24T12:36:44Z</time></trkpt><trkpt lat="42.30011114966506" lon="11.973931334792303"><ele>173.0</ele><time>2026-04-24T12:36:45Z</time></trkpt><trkpt lat="42.300207607437564" lon="11.974242430909136"><ele>173.5</ele><time>2026-04-24T12:36:46Z</time></trkpt><trkpt lat="42.30029187321994" lon="11.97454977048003"><ele>174.0</ele><time>2026-04-24T12:36:47Z</time></trkpt><trkpt lat="42.30038996782269" lon="11.974870474783712"><ele>175.0</ele><time>2026-04-24T12:36:48Z</time></trkpt><trkpt lat="42.30050014727878" lon="11.975204326352253"><ele>176.0</ele><time>2026-04-24T12:36:49Z</time></trkpt><trkpt lat="42.30059293057302" lon="11.975521541942562"><ele>176.0</ele><time>2026-04-24T12:36:50Z</time></trkpt><trkpt lat="42.300674456835566" lon="11.975834422121235"><ele>176.0</ele><time>2026-04-24T12:36:51Z</time></trkpt><trkpt lat="42.300768794364146" lon="11.976145342916992"><ele>176.5</ele><time>2026-04-24T12:36:52Z</time></trkpt><trkpt lat="42.30085462945585" lon="11.97644444449894"><ele>177.0</ele><time>2026-04-24T12:36:53Z</time></trkpt><trkpt lat="42.300943681256555" lon="11.976740338121411"><ele>177.5</ele><time>2026-04-24T12:36:54Z</time></trkpt><trkpt lat="42.301032072115106" lon="11.97705141899903"><ele>178.0</ele><time>2026-04-24T12:36:55Z</time></trkpt><trkpt lat="42.30112584435492" lon="11.977362653305038"><ele>179.0</ele><time>2026-04-24T12:36:56Z</time></trkpt><trkpt lat="42.30120607285003" lon="11.977673901550773"><ele>180.0</ele><time>2026-04-24T12:36:57Z</time></trkpt><trkpt lat="42.3012918433511" lon="11.977968737891533"><ele>180.0</ele><time>2026-04-24T12:36:58Z</time></trkpt><trkpt lat="42.301370617588724" lon="11.978271307349623"><ele>180.0</ele><time>2026-04-24T12:36:59Z</time></trkpt><trkpt lat="42.30144911546163" lon="11.978568976493673"><ele>180.0</ele><time>2026-04-24T12:37:00Z</time></trkpt><trkpt lat="42.30153019028912" lon="11.97885790219136"><ele>180.0</ele><time>2026-04-24T12:37:01Z</time></trkpt><trkpt lat="42.3016070156829" lon="11.979143469903255"><ele>180.66666666666666</ele><time>2026-04-24T12:37:02Z</time></trkpt><trkpt lat="42.30167912891654" lon="11.979427750706323"><ele>181.33333333333331</ele><time>2026-04-24T12:37:03Z</time></trkpt><trkpt lat="42.301759339589445" lon="11.979710577177885"><ele>182.0</ele><time>2026-04-24T12:37:04Z</time></trkpt><trkpt lat="42.30183732973741" lon="11.979983263748803"><ele>183.0</ele><time>2026-04-24T12:37:05Z</time></trkpt><trkpt lat="42.301916537369074" lon="11.980266866887355"><ele>184.0</ele><time>2026-04-24T12:37:06Z</time></trkpt><trkpt lat="42.30200126463311" lon="11.980560663947275"><ele>184.0</ele><time>2026-04-24T12:37:07Z</time></trkpt><trkpt lat="42.30208609456689" lon="11.980837350647851"><ele>184.0</ele><time>2026-04-24T12:37:08Z</time></trkpt><trkpt lat="42.302162760001764" lon="11.98110188815694"><ele>184.0</ele><time>2026-04-24T12:37:09Z</time></trkpt><trkpt lat="42.30223683428768" lon="11.981373299615715"><ele>184.33333333333334</ele><time>2026-04-24T12:37:10Z</time></trkpt><trkpt lat="42.30231813035208" lon="11.981643017519701"><ele>184.66666666666666</ele><time>2026-04-24T12:37:11Z</time></trkpt><trkpt lat="42.302401704514985" lon="11.981909678206723"><ele>185.0</ele><time>2026-04-24T12:37:12Z</time></trkpt><trkpt lat="42.30248059967685" lon="11.982184607280162"><ele>185.0</ele><time>2026-04-24T12:37:13Z</time></trkpt><trkpt lat="42.30256675417611" lon="11.98244196763064"><ele>185.0</ele><time>2026-04-24T12:37:14Z</time></trkpt><trkpt lat="42.30264960518744" lon="11.982702252766721"><ele>185.0</ele><time>2026-04-24T12:37:15Z</time></trkpt><trkpt lat="42.302732853463475" lon="11.982972382325123"><ele>186.0</ele><time>2026-04-24T12:37:16Z</time></trkpt><trkpt lat="42.30282202777294" lon="11.983232053980974"><ele>187.0</ele><time>2026-04-24T12:37:17Z</time></trkpt><trkpt lat="42.302905042940715" lon="11.983491395346448"><ele>188.0</ele><time>2026-04-24T12:37:18Z</time></trkpt><trkpt lat="42.302989338010384" lon="11.983743024983685"><ele>188.66666666666666</ele><time>2026-04-24T12:37:19Z</time></trkpt><trkpt lat="42.3030729378494" lon="11.983981360587306"><ele>189.33333333333334</ele><time>2026-04-24T12:37:20Z</time></trkpt><trkpt lat="42.30315593858039" lon="11.98421657659156"><ele>190.0</ele><time>2026-04-24T12:37:21Z</time></trkpt><trkpt lat="42.30324387424569" lon="11.984459024885771"><ele>190.33333333333334</ele><time>2026-04-24T12:37:22Z</time></trkpt><trkpt lat="42.303332985949716" lon="11.984705071783631"><ele>190.66666666666666</ele><time>2026-04-24T12:37:23Z</time></trkpt><trkpt lat="42.30342457436228" lon="11.984949870867066"><ele>191.0</ele><time>2026-04-24T12:37:24Z</time></trkpt><trkpt lat="42.303515499306435" lon="11.985181681736924"><ele>191.66666666666666</ele><time>2026-04-24T12:37:25Z</time></trkpt><trkpt lat="42.303615900913854" lon="11.98540846099274"><ele>192.33333333333331</ele><time>2026-04-24T12:37:26Z</time></trkpt><trkpt lat="42.30371706593176" lon="11.985636782744251"><ele>193.0</ele><time>2026-04-24T12:37:27Z</time></trkpt><trkpt lat="42.30382367545916" lon="11.985882551439024"><ele>193.0</ele><time>2026-04-24T12:37:28Z</time></trkpt><trkpt lat="42.30392605943884" lon="11.98610444704752"><ele>193.0</ele><time>2026-04-24T12:37:29Z</time></trkpt><trkpt lat="42.304041465127966" lon="11.986334167328677"><ele>193.0</ele><time>2026-04-24T12:37:30Z</time></trkpt><trkpt lat="42.30415091195193" lon="11.98654738414302"><ele>193.33333333333331</ele><time>2026-04-24T12:37:31Z</time></trkpt><trkpt lat="42.30426123850201" lon="11.986784441931787"><ele>193.66666666666669</ele><time>2026-04-24T12:37:32Z</time></trkpt><trkpt lat="42.30437483530984" lon="11.987007387710854"><ele>194.0</ele><time>2026-04-24T12:37:33Z</time></trkpt><trkpt lat="42.304494372961734" lon="11.987237784295244"><ele>194.0</ele><time>2026-04-24T12:37:34Z</time></trkpt><trkpt lat="42.30462185464092" lon="11.9874470158563"><ele>194.0</ele><time>2026-04-24T12:37:35Z</time></trkpt><trkpt lat="42.30474718554634" lon="11.987663427267451"><ele>194.0</ele><time>2026-04-24T12:37:36Z</time></trkpt><trkpt lat="42.30487602734711" lon="11.98787854548665"><ele>194.33333333333334</ele><time>2026-04-24T12:37:37Z</time></trkpt><trkpt lat="42.30501755639228" lon="11.98808382656138"><ele>194.66666666666669</ele><time>2026-04-24T12:37:38Z</time></trkpt><trkpt lat="42.30516105487976" lon="11.988291969398258"><ele>195.0</ele><time>2026-04-24T12:37:39Z</time></trkpt><trkpt lat="42.30530455499209" lon="11.988490006589327"><ele>195.66666666666669</ele><time>2026-04-24T12:37:40Z</time></trkpt><trkpt lat="42.30545457000838" lon="11.988679839462108"><ele>196.33333333333334</ele><time>2026-04-24T12:37:41Z</time></trkpt><trkpt lat="42.305612922291765" lon="11.988867071293397"><ele>197.0</ele><time>2026-04-24T12:37:42Z</time></trkpt><trkpt lat="42.305770032022814" lon="11.989054021386186"><ele>198.0</ele><time>2026-04-24T12:37:43Z</time></trkpt><trkpt lat="42.30593029078842" lon="11.989229608388506"><ele>199.0</ele><time>2026-04-24T12:37:44Z</time></trkpt><trkpt lat="42.30608411171946" lon="11.98939961035404"><ele>200.0</ele><time>2026-04-24T12:37:45Z</time></trkpt><trkpt lat="42.30623471138515" lon="11.989556213173183"><ele>200.0</ele><time>2026-04-24T12:37:46Z</time></trkpt><trkpt lat="42.30638550842432" lon="11.989704825200267"><ele>200.0</ele><time>2026-04-24T12:37:47Z</time></trkpt><trkpt lat="42.30653645030164" lon="11.98985889064222"><ele>200.0</ele><time>2026-04-24T12:37:48Z</time></trkpt><trkpt lat="42.30669167825357" lon="11.990008815676186"><ele>200.0</ele><time>2026-04-24T12:37:49Z</time></trkpt><trkpt lat="42.30685349379951" lon="11.990139830414662"><ele>200.0</ele><time>2026-04-24T12:37:50Z</time></trkpt><trkpt lat="42.30701640748274" lon="11.990264962837042"><ele>200.0</ele><time>2026-04-24T12:37:51Z</time></trkpt><trkpt lat="42.307176694654544" lon="11.990400294563921"><ele>199.0</ele><time>2026-04-24T12:37:52Z</time></trkpt><trkpt lat="42.307344740304856" lon="11.990534674198303"><ele>198.0</ele><time>2026-04-24T12:37:53Z</time></trkpt><trkpt lat="42.30751129833451" lon="11.990662131061736"><ele>197.0</ele><time>2026-04-24T12:37:54Z</time></trkpt><trkpt lat="42.30768977711215" lon="11.990789358417054"><ele>197.33333333333334</ele><time>2026-04-24T12:37:55Z</time></trkpt><trkpt lat="42.30787929018141" lon="11.99091522937552"><ele>197.66666666666669</ele><time>2026-04-24T12:37:56Z</time></trkpt><trkpt lat="42.30807608580448" lon="11.991038500870433"><ele>198.0</ele><time>2026-04-24T12:37:57Z</time></trkpt><trkpt lat="42.30827242236891" lon="11.991144068761114"><ele>197.33333333333331</ele><time>2026-04-24T12:37:58Z</time></trkpt><trkpt lat="42.30846118734911" lon="11.991249567393604"><ele>196.66666666666666</ele><time>2026-04-24T12:37:59Z</time></trkpt><trkpt lat="42.30865108791665" lon="11.991345312966322"><ele>196.0</ele><time>2026-04-24T12:38:00Z</time></trkpt><trkpt lat="42.30883960978627" lon="11.991430349899359"><ele>196.33333333333331</ele><time>2026-04-24T12:38:01Z</time></trkpt><trkpt lat="42.30903193781588" lon="11.991509536616778"><ele>196.66666666666669</ele><time>2026-04-24T12:38:02Z</time></trkpt><trkpt lat="42.30921192429488" lon="11.991589422723187"><ele>197.0</ele><time>2026-04-24T12:38:03Z</time></trkpt><trkpt lat="42.30939715796322" lon="11.991655476320387"><ele>197.66666666666669</ele><time>2026-04-24T12:38:04Z</time></trkpt><trkpt lat="42.30958865152424" lon="11.991721200170833"><ele>198.33333333333331</ele><time>2026-04-24T12:38:05Z</time></trkpt><trkpt lat="42.30977742583823" lon="11.991775993027598"><ele>199.0</ele><time>2026-04-24T12:38:06Z</time></trkpt><trkpt lat="42.30996751707896" lon="11.991824291105383"><ele>199.66666666666666</ele><time>2026-04-24T12:38:07Z</time></trkpt><trkpt lat="42.310163269009585" lon="11.991870760402461"><ele>200.33333333333331</ele><time>2026-04-24T12:38:08Z</time></trkpt><trkpt lat="42.31036130138869" lon="11.991915686238846"><ele>201.0</ele><time>2026-04-24T12:38:09Z</time></trkpt><trkpt lat="42.310557193573494" lon="11.991955100931657"><ele>200.66666666666669</ele><time>2026-04-24T12:38:10Z</time></trkpt><trkpt lat="42.310760054148595" lon="11.991988619043628"><ele>200.33333333333334</ele><time>2026-04-24T12:38:11Z</time></trkpt><trkpt lat="42.310963547073605" lon="11.992016074903956"><ele>200.0</ele><time>2026-04-24T12:38:12Z</time></trkpt><trkpt lat="42.31118740099935" lon="11.99203319993293"><ele>200.0</ele><time>2026-04-24T12:38:13Z</time></trkpt><trkpt lat="42.31140496630046" lon="11.99204944653891"><ele>200.0</ele><time>2026-04-24T12:38:14Z</time></trkpt><trkpt lat="42.311616765886896" lon="11.992056959315164"><ele>200.0</ele><time>2026-04-24T12:38:15Z</time></trkpt><trkpt lat="42.31182898287206" lon="11.99205921433701"><ele>200.33333333333334</ele><time>2026-04-24T12:38:16Z</time></trkpt><trkpt lat="42.31203776564244" lon="11.992059541537452"><ele>200.66666666666669</ele><time>2026-04-24T12:38:17Z</time></trkpt><trkpt lat="42.31224103666339" lon="11.992054798212829"><ele>201.0</ele><time>2026-04-24T12:38:18Z</time></trkpt><trkpt lat="42.31245030139629" lon="11.992052896740136"><ele>201.0</ele><time>2026-04-24T12:38:19Z</time></trkpt><trkpt lat="42.31266787542971" lon="11.992037906457371"><ele>201.0</ele><time>2026-04-24T12:38:20Z</time></trkpt><trkpt lat="42.31288061826571" lon="11.992016456251424"><ele>201.0</ele><time>2026-04-24T12:38:21Z</time></trkpt><trkpt lat="42.31309231857216" lon="11.991993538148582"><ele>199.66666666666669</ele><time>2026-04-24T12:38:22Z</time></trkpt><trkpt lat="42.3132970327261" lon="11.99197188719657"><ele>198.33333333333334</ele><time>2026-04-24T12:38:23Z</time></trkpt><trkpt lat="42.313505167409865" lon="11.991943335275044"><ele>197.0</ele><time>2026-04-24T12:38:24Z</time></trkpt><trkpt lat="42.313711829196315" lon="11.991912253521148"><ele>196.0</ele><time>2026-04-24T12:38:25Z</time></trkpt><trkpt lat="42.31392510337121" lon="11.991882465469207"><ele>195.0</ele><time>2026-04-24T12:38:26Z</time></trkpt><trkpt lat="42.3141253993591" lon="11.991851417142266"><ele>194.0</ele><time>2026-04-24T12:38:27Z</time></trkpt><trkpt lat="42.314336423868774" lon="11.991817752329608"><ele>194.0</ele><time>2026-04-24T12:38:28Z</time></trkpt><trkpt lat="42.31455595303676" lon="11.991787047185865"><ele>194.0</ele><time>2026-04-24T12:38:29Z</time></trkpt><trkpt lat="42.31476887571527" lon="11.99173912642746"><ele>194.0</ele><time>2026-04-24T12:38:30Z</time></trkpt><trkpt lat="42.3149823803193" lon="11.991694396424615"><ele>194.33333333333334</ele><time>2026-04-24T12:38:31Z</time></trkpt><trkpt lat="42.31519252951042" lon="11.991646153774601"><ele>194.66666666666669</ele><time>2026-04-24T12:38:32Z</time></trkpt><trkpt lat="42.315397648463374" lon="11.991602576845644"><ele>195.0</ele><time>2026-04-24T12:38:33Z</time></trkpt><trkpt lat="42.31561419117681" lon="11.991567921213376"><ele>195.33333333333331</ele><time>2026-04-24T12:38:34Z</time></trkpt><trkpt lat="42.315821655961244" lon="11.99152509441402"><ele>195.66666666666666</ele><time>2026-04-24T12:38:35Z</time></trkpt><trkpt lat="42.3160274212129" lon="11.9914894015409"><ele>196.0</ele><time>2026-04-24T12:38:36Z</time></trkpt><trkpt lat="42.31624114409182" lon="11.99145753316369"><ele>196.33333333333331</ele><time>2026-04-24T12:38:37Z</time></trkpt><trkpt lat="42.3164367319714" lon="11.991410248730057"><ele>196.66666666666669</ele><time>2026-04-24T12:38:38Z</time></trkpt><trkpt lat="42.316644044553435" lon="11.991359855824179"><ele>197.0</ele><time>2026-04-24T12:38:39Z</time></trkpt><trkpt lat="42.31685510837172" lon="11.991322137220894"><ele>197.0</ele><time>2026-04-24T12:38:40Z</time></trkpt><trkpt lat="42.31707617491954" lon="11.991283145618752"><ele>197.0</ele><time>2026-04-24T12:38:41Z</time></trkpt><trkpt lat="42.317308056377115" lon="11.991245752125792"><ele>197.0</ele><time>2026-04-24T12:38:42Z</time></trkpt><trkpt lat="42.31754395398629" lon="11.99119393021239"><ele>197.0</ele><time>2026-04-24T12:38:43Z</time></trkpt><trkpt lat="42.31779523516533" lon="11.991153798974652"><ele>197.0</ele><time>2026-04-24T12:38:44Z</time></trkpt><trkpt lat="42.318011082736625" lon="11.991115917153305"><ele>197.0</ele><time>2026-04-24T12:38:45Z</time></trkpt><trkpt lat="42.3182264997373" lon="11.991065943712796"><ele>197.0</ele><time>2026-04-24T12:38:46Z</time></trkpt><trkpt lat="42.31844799712944" lon="11.991020422898503"><ele>196.0</ele><time>2026-04-24T12:38:47Z</time></trkpt><trkpt lat="42.3186503854215" lon="11.990988844894176"><ele>195.0</ele><time>2026-04-24T12:38:48Z</time></trkpt><trkpt lat="42.31885214095814" lon="11.99093998777185"><ele>194.0</ele><time>2026-04-24T12:38:49Z</time></trkpt><trkpt lat="42.31906051693927" lon="11.990890400224618"><ele>193.33333333333334</ele><time>2026-04-24T12:38:50Z</time></trkpt><trkpt lat="42.319268496169066" lon="11.99083693936887"><ele>192.66666666666669</ele><time>2026-04-24T12:38:51Z</time></trkpt><trkpt lat="42.31948474013077" lon="11.990793500957045"><ele>192.0</ele><time>2026-04-24T12:38:52Z</time></trkpt><trkpt lat="42.31969676878449" lon="11.990735227562597"><ele>192.0</ele><time>2026-04-24T12:38:53Z</time></trkpt><trkpt lat="42.319902854901684" lon="11.990683125827378"><ele>192.0</ele><time>2026-04-24T12:38:54Z</time></trkpt><trkpt lat="42.32010121993834" lon="11.990627209605524"><ele>192.0</ele><time>2026-04-24T12:38:55Z</time></trkpt><trkpt lat="42.32030393179231" lon="11.990573444896956"><ele>192.0</ele><time>2026-04-24T12:38:56Z</time></trkpt><trkpt lat="42.32050521122103" lon="11.990507968594057"><ele>192.0</ele><time>2026-04-24T12:38:57Z</time></trkpt><trkpt lat="42.32070094376729" lon="11.99044068419552"><ele>192.0</ele><time>2026-04-24T12:38:58Z</time></trkpt><trkpt lat="42.32088125081964" lon="11.990373166690516"><ele>192.0</ele><time>2026-04-24T12:38:59Z</time></trkpt><trkpt lat="42.321059352942044" lon="11.990307835640328"><ele>192.0</ele><time>2026-04-24T12:39:00Z</time></trkpt><trkpt lat="42.321243832225704" lon="11.990240131264576"><ele>192.0</ele><time>2026-04-24T12:39:01Z</time></trkpt><trkpt lat="42.32145791787249" lon="11.990161978343359"><ele>191.66666666666666</ele><time>2026-04-24T12:39:02Z</time></trkpt><trkpt lat="42.321665595482614" lon="11.990082897280123"><ele>191.33333333333331</ele><time>2026-04-24T12:39:03Z</time></trkpt><trkpt lat="42.32185361045864" lon="11.989999238284664"><ele>191.0</ele><time>2026-04-24T12:39:04Z</time></trkpt><trkpt lat="42.322039727338996" lon="11.989912883426031"><ele>191.0</ele><time>2026-04-24T12:39:05Z</time></trkpt><trkpt lat="42.32222312481199" lon="11.98983010438131"><ele>191.0</ele><time>2026-04-24T12:39:06Z</time></trkpt><trkpt lat="42.32239891376072" lon="11.989738293715327"><ele>191.0</ele><time>2026-04-24T12:39:07Z</time></trkpt><trkpt lat="42.32257365881192" lon="11.989657304742174"><ele>191.0</ele><time>2026-04-24T12:39:08Z</time></trkpt><trkpt lat="42.32275088209819" lon="11.989575873972704"><ele>191.0</ele><time>2026-04-24T12:39:09Z</time></trkpt><trkpt lat="42.32293834669078" lon="11.989490866315718"><ele>191.0</ele><time>2026-04-24T12:39:10Z</time></trkpt><trkpt lat="42.323119380526265" lon="11.989397113450735"><ele>190.33333333333331</ele><time>2026-04-24T12:39:11Z</time></trkpt><trkpt lat="42.32329235287911" lon="11.989299387040774"><ele>189.66666666666666</ele><time>2026-04-24T12:39:12Z</time></trkpt><trkpt lat="42.323457608280876" lon="11.989203161681342"><ele>189.0</ele><time>2026-04-24T12:39:13Z</time></trkpt><trkpt lat="42.32363337843801" lon="11.989100114424021"><ele>188.66666666666666</ele><time>2026-04-24T12:39:14Z</time></trkpt><trkpt lat="42.32380264166688" lon="11.9889995486943"><ele>188.33333333333331</ele><time>2026-04-24T12:39:15Z</time></trkpt><trkpt lat="42.32398187695474" lon="11.988895222017309"><ele>188.0</ele><time>2026-04-24T12:39:16Z</time></trkpt><trkpt lat="42.32415041745644" lon="11.988774032315783"><ele>188.0</ele><time>2026-04-24T12:39:17Z</time></trkpt><trkpt lat="42.32432866428309" lon="11.988672642110517"><ele>188.0</ele><time>2026-04-24T12:39:18Z</time></trkpt><trkpt lat="42.32450329316252" lon="11.98855965363225"><ele>188.0</ele><time>2026-04-24T12:39:19Z</time></trkpt><trkpt lat="42.32466784311352" lon="11.988445056712191"><ele>188.33333333333331</ele><time>2026-04-24T12:39:20Z</time></trkpt><trkpt lat="42.32484791128403" lon="11.988335281255251"><ele>188.66666666666666</ele><time>2026-04-24T12:39:21Z</time></trkpt><trkpt lat="42.32501942176269" lon="11.988229888999047"><ele>189.0</ele><time>2026-04-24T12:39:22Z</time></trkpt><trkpt lat="42.32519814346653" lon="11.988123715595737"><ele>189.0</ele><time>2026-04-24T12:39:23Z</time></trkpt><trkpt lat="42.32536400695278" lon="11.988011369218285"><ele>189.0</ele><time>2026-04-24T12:39:24Z</time></trkpt><trkpt lat="42.32554061961897" lon="11.987897528528357"><ele>189.0</ele><time>2026-04-24T12:39:25Z</time></trkpt><trkpt lat="42.325703670744865" lon="11.987795913798214"><ele>188.66666666666666</ele><time>2026-04-24T12:39:26Z</time></trkpt><trkpt lat="42.325865127236845" lon="11.987688624121583"><ele>188.33333333333331</ele><time>2026-04-24T12:39:27Z</time></trkpt><trkpt lat="42.32603391222835" lon="11.987584494592436"><ele>188.0</ele><time>2026-04-24T12:39:28Z</time></trkpt><trkpt lat="42.3262111562958" lon="11.987469280721927"><ele>187.33333333333331</ele><time>2026-04-24T12:39:29Z</time></trkpt><trkpt lat="42.32639971017002" lon="11.987354901388406"><ele>186.66666666666666</ele><time>2026-04-24T12:39:30Z</time></trkpt><trkpt lat="42.326560098263975" lon="11.987253661233106"><ele>186.0</ele><time>2026-04-24T12:39:31Z</time></trkpt><trkpt lat="42.32673947862683" lon="11.987142325718109"><ele>186.0</ele><time>2026-04-24T12:39:32Z</time></trkpt><trkpt lat="42.32690842793952" lon="11.987044144204713"><ele>186.0</ele><time>2026-04-24T12:39:33Z</time></trkpt><trkpt lat="42.327090682329356" lon="11.986938028696153"><ele>186.0</ele><time>2026-04-24T12:39:34Z</time></trkpt><trkpt lat="42.32726980336184" lon="11.986832304365771"><ele>186.0</ele><time>2026-04-24T12:39:35Z</time></trkpt><trkpt lat="42.3274290771077" lon="11.986724231825434"><ele>186.0</ele><time>2026-04-24T12:39:36Z</time></trkpt><trkpt lat="42.32759529637909" lon="11.986622740874056"><ele>186.0</ele><time>2026-04-24T12:39:37Z</time></trkpt><trkpt lat="42.32777695177993" lon="11.98652117265083"><ele>186.0</ele><time>2026-04-24T12:39:38Z</time></trkpt><trkpt lat="42.327942386968985" lon="11.986421471946704"><ele>186.0</ele><time>2026-04-24T12:39:39Z</time></trkpt><trkpt lat="42.328129171208545" lon="11.986328361701693"><ele>186.0</ele><time>2026-04-24T12:39:40Z</time></trkpt><trkpt lat="42.328313338558374" lon="11.986231712367807"><ele>184.66666666666666</ele><time>2026-04-24T12:39:41Z</time></trkpt><trkpt lat="42.32849215517504" lon="11.986130686729693"><ele>183.33333333333331</ele><time>2026-04-24T12:39:42Z</time></trkpt><trkpt lat="42.32867545400248" lon="11.986034266238295"><ele>182.0</ele><time>2026-04-24T12:39:43Z</time></trkpt><trkpt lat="42.32886774167815" lon="11.985945085812567"><ele>181.66666666666666</ele><time>2026-04-24T12:39:44Z</time></trkpt><trkpt lat="42.329065808807904" lon="11.985859093833716"><ele>181.33333333333334</ele><time>2026-04-24T12:39:45Z</time></trkpt><trkpt lat="42.329259576143905" lon="11.985768759801479"><ele>181.0</ele><time>2026-04-24T12:39:46Z</time></trkpt><trkpt lat="42.32946386220936" lon="11.985679133406334"><ele>181.0</ele><time>2026-04-24T12:39:47Z</time></trkpt><trkpt lat="42.329652682061884" lon="11.985595982535438"><ele>181.0</ele><time>2026-04-24T12:39:48Z</time></trkpt><trkpt lat="42.32985223334713" lon="11.98551511697636"><ele>181.0</ele><time>2026-04-24T12:39:49Z</time></trkpt><trkpt lat="42.33005312483665" lon="11.985433636691768"><ele>177.33333333333334</ele><time>2026-04-24T12:39:50Z</time></trkpt><trkpt lat="42.33024597649476" lon="11.985351701143555"><ele>173.66666666666666</ele><time>2026-04-24T12:39:51Z</time></trkpt><trkpt lat="42.330458956683465" lon="11.98527957911132"><ele>170.0</ele><time>2026-04-24T12:39:52Z</time></trkpt><trkpt lat="42.33065854516583" lon="11.985210060610221"><ele>169.33333333333331</ele><time>2026-04-24T12:39:53Z</time></trkpt><trkpt lat="42.33086561192895" lon="11.985145438138437"><ele>168.66666666666666</ele><time>2026-04-24T12:39:54Z</time></trkpt><trkpt lat="42.33109342517552" lon="11.985082539225733"><ele>168.0</ele><time>2026-04-24T12:39:55Z</time></trkpt><trkpt lat="42.331305195792886" lon="11.985029387260878"><ele>166.0</ele><time>2026-04-24T12:39:56Z</time></trkpt><trkpt lat="42.33152046907937" lon="11.984977026244854"><ele>164.0</ele><time>2026-04-24T12:39:57Z</time></trkpt><trkpt lat="42.331729241236424" lon="11.984927189816405"><ele>162.0</ele><time>2026-04-24T12:39:58Z</time></trkpt><trkpt lat="42.33191468892736" lon="11.9848797440204"><ele>162.0</ele><time>2026-04-24T12:39:59Z</time></trkpt><trkpt lat="42.332124793224736" lon="11.984844468912238"><ele>162.0</ele><time>2026-04-24T12:40:00Z</time></trkpt><trkpt lat="42.33231880259903" lon="11.984808501870308"><ele>162.0</ele><time>2026-04-24T12:40:01Z</time></trkpt><trkpt lat="42.33251985258928" lon="11.984772816503527"><ele>166.33333333333334</ele><time>2026-04-24T12:40:02Z</time></trkpt><trkpt lat="42.33270460057918" lon="11.984716834586578"><ele>170.66666666666669</ele><time>2026-04-24T12:40:03Z</time></trkpt><trkpt lat="42.33291433730214" lon="11.984662543453029"><ele>175.0</ele><time>2026-04-24T12:40:04Z</time></trkpt><trkpt lat="42.33313060582938" lon="11.984606375675902"><ele>179.0</ele><time>2026-04-24T12:40:05Z</time></trkpt><trkpt lat="42.333372610705055" lon="11.98455766880919"><ele>183.0</ele><time>2026-04-24T12:40:06Z</time></trkpt><trkpt lat="42.333585959632245" lon="11.984507245135275"><ele>183.0</ele><time>2026-04-24T12:40:07Z</time></trkpt><trkpt lat="42.33379813277595" lon="11.984456029041334"><ele>183.0</ele><time>2026-04-24T12:40:08Z</time></trkpt><trkpt lat="42.334009215928376" lon="11.98441011106419"><ele>183.0</ele><time>2026-04-24T12:40:09Z</time></trkpt><trkpt lat="42.3342243676477" lon="11.98437057086119"><ele>181.33333333333334</ele><time>2026-04-24T12:40:10Z</time></trkpt><trkpt lat="42.334423891389875" lon="11.984321848883285"><ele>179.66666666666669</ele><time>2026-04-24T12:40:11Z</time></trkpt><trkpt lat="42.33463216278791" lon="11.98427552012319"><ele>178.0</ele><time>2026-04-24T12:40:12Z</time></trkpt><trkpt lat="42.33483182498086" lon="11.984223894328691"><ele>177.33333333333334</ele><time>2026-04-24T12:40:13Z</time></trkpt><trkpt lat="42.33503280774826" lon="11.984172371389386"><ele>176.66666666666666</ele><time>2026-04-24T12:40:14Z</time></trkpt><trkpt lat="42.335249064665035" lon="11.984122277837397"><ele>176.0</ele><time>2026-04-24T12:40:15Z</time></trkpt><trkpt lat="42.3354629940229" lon="11.984087711714928"><ele>177.33333333333331</ele><time>2026-04-24T12:40:16Z</time></trkpt><trkpt lat="42.335670832892376" lon="11.98404169569947"><ele>178.66666666666666</ele><time>2026-04-24T12:40:17Z</time></trkpt><trkpt lat="42.335891675967325" lon="11.983997686685841"><ele>180.0</ele><time>2026-04-24T12:40:18Z</time></trkpt><trkpt lat="42.336113037413064" lon="11.983940655666878"><ele>180.0</ele><time>2026-04-24T12:40:19Z</time></trkpt><trkpt lat="42.33634297205638" lon="11.983895731539429"><ele>180.0</ele><time>2026-04-24T12:40:20Z</time></trkpt><trkpt lat="42.33655538576922" lon="11.983849771513134"><ele>180.0</ele><time>2026-04-24T12:40:21Z</time></trkpt><trkpt lat="42.33676456608666" lon="11.983800390649149"><ele>180.0</ele><time>2026-04-24T12:40:22Z</time></trkpt><trkpt lat="42.33698111648078" lon="11.983741682889507"><ele>180.0</ele><time>2026-04-24T12:40:23Z</time></trkpt><trkpt lat="42.33720121606244" lon="11.98370799148046"><ele>180.0</ele><time>2026-04-24T12:40:24Z</time></trkpt><trkpt lat="42.33740717415112" lon="11.983664140303976"><ele>179.33333333333334</ele><time>2026-04-24T12:40:25Z</time></trkpt><trkpt lat="42.3376215978434" lon="11.983625581870294"><ele>178.66666666666669</ele><time>2026-04-24T12:40:26Z</time></trkpt><trkpt lat="42.33782673148768" lon="11.983572626998905"><ele>178.0</ele><time>2026-04-24T12:40:27Z</time></trkpt><trkpt lat="42.33803181800829" lon="11.983529984147435"><ele>176.66666666666669</ele><time>2026-04-24T12:40:28Z</time></trkpt><trkpt lat="42.33823551477683" lon="11.983480881655638"><ele>175.33333333333334</ele><time>2026-04-24T12:40:29Z</time></trkpt><trkpt lat="42.33844703069864" lon="11.983433858961273"><ele>174.0</ele><time>2026-04-24T12:40:30Z</time></trkpt><trkpt lat="42.338653134196356" lon="11.98338655089745"><ele>174.66666666666666</ele><time>2026-04-24T12:40:31Z</time></trkpt><trkpt lat="42.33884529680762" lon="11.983336795514697"><ele>175.33333333333331</ele><time>2026-04-24T12:40:32Z</time></trkpt><trkpt lat="42.33904849590376" lon="11.983296275543665"><ele>176.0</ele><time>2026-04-24T12:40:33Z</time></trkpt><trkpt lat="42.33924994164823" lon="11.983262905861022"><ele>176.0</ele><time>2026-04-24T12:40:34Z</time></trkpt><trkpt lat="42.33944140855279" lon="11.983209051190899"><ele>176.0</ele><time>2026-04-24T12:40:35Z</time></trkpt><trkpt lat="42.3396375120187" lon="11.983175630119636"><ele>176.0</ele><time>2026-04-24T12:40:36Z</time></trkpt><trkpt lat="42.33984485670102" lon="11.98315684836657"><ele>177.0</ele><time>2026-04-24T12:40:37Z</time></trkpt><trkpt lat="42.34003099096641" lon="11.983106497071239"><ele>178.0</ele><time>2026-04-24T12:40:38Z</time></trkpt><trkpt lat="42.34021696297159" lon="11.983064886843279"><ele>179.0</ele><time>2026-04-24T12:40:39Z</time></trkpt><trkpt lat="42.34041864601861" lon="11.983021913101144"><ele>179.0</ele><time>2026-04-24T12:40:40Z</time></trkpt><trkpt lat="42.34062043069255" lon="11.982980474688118"><ele>179.0</ele><time>2026-04-24T12:40:41Z</time></trkpt><trkpt lat="42.340838620787395" lon="11.982942484455469"><ele>179.0</ele><time>2026-04-24T12:40:42Z</time></trkpt><trkpt lat="42.341067865360664" lon="11.982888386589734"><ele>179.0</ele><time>2026-04-24T12:40:43Z</time></trkpt><trkpt lat="42.341309692884614" lon="11.982829101484992"><ele>179.0</ele><time>2026-04-24T12:40:44Z</time></trkpt><trkpt lat="42.34151658545704" lon="11.982771563797337"><ele>178.0</ele><time>2026-04-24T12:40:45Z</time></trkpt><trkpt lat="42.34171015597304" lon="11.982727187212719"><ele>177.0</ele><time>2026-04-24T12:40:46Z</time></trkpt><trkpt lat="42.34191490895037" lon="11.982681419970493"><ele>176.0</ele><time>2026-04-24T12:40:47Z</time></trkpt><trkpt lat="42.342110142060214" lon="11.982643776339252"><ele>174.0</ele><time>2026-04-24T12:40:48Z</time></trkpt><trkpt lat="42.342284878903286" lon="11.982597015630324"><ele>172.0</ele><time>2026-04-24T12:40:49Z</time></trkpt><trkpt lat="42.342447200399164" lon="11.982554716960161"><ele>170.0</ele><time>2026-04-24T12:40:50Z</time></trkpt><trkpt lat="42.34263193583692" lon="11.982510509235157"><ele>170.0</ele><time>2026-04-24T12:40:51Z</time></trkpt><trkpt lat="42.34281480606751" lon="11.982457437965158"><ele>170.0</ele><time>2026-04-24T12:40:52Z</time></trkpt><trkpt lat="42.34300751884421" lon="11.982415204366092"><ele>170.0</ele><time>2026-04-24T12:40:53Z</time></trkpt><trkpt lat="42.34319152866392" lon="11.982377723495597"><ele>168.0</ele><time>2026-04-24T12:40:54Z</time></trkpt><trkpt lat="42.34338014939148" lon="11.982339916288685"><ele>166.0</ele><time>2026-04-24T12:40:55Z</time></trkpt><trkpt lat="42.34355461480509" lon="11.982293782852608"><ele>164.0</ele><time>2026-04-24T12:40:56Z</time></trkpt><trkpt lat="42.34374385765985" lon="11.982259796629025"><ele>165.66666666666666</ele><time>2026-04-24T12:40:57Z</time></trkpt><trkpt lat="42.343935660301824" lon="11.982233716516898"><ele>167.33333333333334</ele><time>2026-04-24T12:40:58Z</time></trkpt><trkpt lat="42.34411902329797" lon="11.982200134591757"><ele>169.0</ele><time>2026-04-24T12:40:59Z</time></trkpt><trkpt lat="42.344306201024665" lon="11.982159321024833"><ele>169.0</ele><time>2026-04-24T12:41:00Z</time></trkpt><trkpt lat="42.344493881047015" lon="11.982122187666267"><ele>169.0</ele><time>2026-04-24T12:41:01Z</time></trkpt><trkpt lat="42.344698901195095" lon="11.982078725278939"><ele>169.0</ele><time>2026-04-24T12:41:02Z</time></trkpt><trkpt lat="42.34489026743469" lon="11.982030963049336"><ele>170.33333333333334</ele><time>2026-04-24T12:41:03Z</time></trkpt><trkpt lat="42.34508381257741" lon="11.98198439000234"><ele>171.66666666666666</ele><time>2026-04-24T12:41:04Z</time></trkpt><trkpt lat="42.34526847640012" lon="11.981931692500496"><ele>173.0</ele><time>2026-04-24T12:41:05Z</time></trkpt><trkpt lat="42.34546124742221" lon="11.98190105211889"><ele>173.0</ele><time>2026-04-24T12:41:06Z</time></trkpt><trkpt lat="42.345643821641204" lon="11.981865130780516"><ele>173.0</ele><time>2026-04-24T12:41:07Z</time></trkpt><trkpt lat="42.34583577416499" lon="11.981836997704024"><ele>173.0</ele><time>2026-04-24T12:41:08Z</time></trkpt><trkpt lat="42.346022327009365" lon="11.981798845836076"><ele>173.0</ele><time>2026-04-24T12:41:09Z</time></trkpt><trkpt lat="42.34620955269441" lon="11.981759235159773"><ele>173.0</ele><time>2026-04-24T12:41:10Z</time></trkpt><trkpt lat="42.346393562736885" lon="11.981716872894363"><ele>173.0</ele><time>2026-04-24T12:41:11Z</time></trkpt><trkpt lat="42.34657079317641" lon="11.981671511050294"><ele>172.66666666666666</ele><time>2026-04-24T12:41:12Z</time></trkpt><trkpt lat="42.34675203155489" lon="11.981630077208756"><ele>172.33333333333334</ele><time>2026-04-24T12:41:13Z</time></trkpt><trkpt lat="42.346937302289945" lon="11.98159531763474"><ele>172.0</ele><time>2026-04-24T12:41:14Z</time></trkpt><trkpt lat="42.3471269407358" lon="11.981552404320286"><ele>171.0</ele><time>2026-04-24T12:41:15Z</time></trkpt><trkpt lat="42.34732835084853" lon="11.98150910261949"><ele>170.0</ele><time>2026-04-24T12:41:16Z</time></trkpt><trkpt lat="42.34751956939782" lon="11.981470036756043"><ele>169.0</ele><time>2026-04-24T12:41:17Z</time></trkpt><trkpt lat="42.34770131587673" lon="11.981440139647464"><ele>169.0</ele><time>2026-04-24T12:41:18Z</time></trkpt><trkpt lat="42.34788881429136" lon="11.981406876903899"><ele>169.0</ele><time>2026-04-24T12:41:19Z</time></trkpt><trkpt lat="42.348061297999756" lon="11.981381751839512"><ele>169.0</ele><time>2026-04-24T12:41:20Z</time></trkpt><trkpt lat="42.34824079024322" lon="11.981361477676959"><ele>168.66666666666669</ele><time>2026-04-24T12:41:21Z</time></trkpt><trkpt lat="42.34842287418715" lon="11.981338212373473"><ele>168.33333333333334</ele><time>2026-04-24T12:41:22Z</time></trkpt><trkpt lat="42.348607869013705" lon="11.981321335030046"><ele>168.0</ele><time>2026-04-24T12:41:23Z</time></trkpt><trkpt lat="42.34879807962378" lon="11.98130129328948"><ele>168.66666666666666</ele><time>2026-04-24T12:41:24Z</time></trkpt><trkpt lat="42.348966307296564" lon="11.981289915711319"><ele>169.33333333333331</ele><time>2026-04-24T12:41:25Z</time></trkpt><trkpt lat="42.34914680735748" lon="11.981268373074737"><ele>170.0</ele><time>2026-04-24T12:41:26Z</time></trkpt><trkpt lat="42.34932659225483" lon="11.981252640394"><ele>170.0</ele><time>2026-04-24T12:41:27Z</time></trkpt><trkpt lat="42.3495138078791" lon="11.981249810007576"><ele>170.0</ele><time>2026-04-24T12:41:28Z</time></trkpt><trkpt lat="42.34968947012222" lon="11.98125684687341"><ele>170.0</ele><time>2026-04-24T12:41:29Z</time></trkpt><trkpt lat="42.349874169489006" lon="11.98125337120068"><ele>170.0</ele><time>2026-04-24T12:41:30Z</time></trkpt><trkpt lat="42.35006249413207" lon="11.981256554686713"><ele>170.0</ele><time>2026-04-24T12:41:31Z</time></trkpt><trkpt lat="42.35023823350599" lon="11.981266610064289"><ele>170.0</ele><time>2026-04-24T12:41:32Z</time></trkpt><trkpt lat="42.35043070750116" lon="11.981280454772472"><ele>170.0</ele><time>2026-04-24T12:41:33Z</time></trkpt><trkpt lat="42.35061289101525" lon="11.981298150416354"><ele>170.0</ele><time>2026-04-24T12:41:34Z</time></trkpt><trkpt lat="42.350791621143244" lon="11.981322890802177"><ele>170.0</ele><time>2026-04-24T12:41:35Z</time></trkpt><trkpt lat="42.35097426347466" lon="11.981345729586744"><ele>170.0</ele><time>2026-04-24T12:41:36Z</time></trkpt><trkpt lat="42.35115201940183" lon="11.981375542356055"><ele>170.0</ele><time>2026-04-24T12:41:37Z</time></trkpt><trkpt lat="42.35134715486208" lon="11.981411089408361"><ele>170.0</ele><time>2026-04-24T12:41:38Z</time></trkpt><trkpt lat="42.35154470887038" lon="11.981460656951402"><ele>169.66666666666666</ele><time>2026-04-24T12:41:39Z</time></trkpt><trkpt lat="42.351752395736206" lon="11.981514080089045"><ele>169.33333333333334</ele><time>2026-04-24T12:41:40Z</time></trkpt><trkpt lat="42.35194789742944" lon="11.98155793873704"><ele>169.0</ele><time>2026-04-24T12:41:41Z</time></trkpt><trkpt lat="42.35214246319047" lon="11.981601121919272"><ele>168.33333333333334</ele><time>2026-04-24T12:41:42Z</time></trkpt><trkpt lat="42.3523464788256" lon="11.981655797506146"><ele>167.66666666666666</ele><time>2026-04-24T12:41:43Z</time></trkpt><trkpt lat="42.352540765444346" lon="11.981726339526517"><ele>167.0</ele><time>2026-04-24T12:41:44Z</time></trkpt><trkpt lat="42.35272236861443" lon="11.981785949360383"><ele>167.0</ele><time>2026-04-24T12:41:45Z</time></trkpt><trkpt lat="42.35291290984356" lon="11.981847479471641"><ele>167.0</ele><time>2026-04-24T12:41:46Z</time></trkpt><trkpt lat="42.35309870759685" lon="11.981912439550962"><ele>167.0</ele><time>2026-04-24T12:41:47Z</time></trkpt><trkpt lat="42.35329036253359" lon="11.9819844248373"><ele>167.0</ele><time>2026-04-24T12:41:48Z</time></trkpt><trkpt lat="42.35349172093199" lon="11.982072759676699"><ele>167.0</ele><time>2026-04-24T12:41:49Z</time></trkpt><trkpt lat="42.3536794836085" lon="11.982146692769575"><ele>167.0</ele><time>2026-04-24T12:41:50Z</time></trkpt><trkpt lat="42.35386708760374" lon="11.982251120216105"><ele>167.0</ele><time>2026-04-24T12:41:51Z</time></trkpt><trkpt lat="42.354050420778904" lon="11.982330626218083"><ele>167.0</ele><time>2026-04-24T12:41:52Z</time></trkpt><trkpt lat="42.3542253419995" lon="11.982435165258256"><ele>167.0</ele><time>2026-04-24T12:41:53Z</time></trkpt><trkpt lat="42.35439831851306" lon="11.982516445234783"><ele>167.0</ele><time>2026-04-24T12:41:54Z</time></trkpt><trkpt lat="42.35456168157673" lon="11.98262132392793"><ele>167.0</ele><time>2026-04-24T12:41:55Z</time></trkpt><trkpt lat="42.35474004469722" lon="11.98272006664147"><ele>167.0</ele><time>2026-04-24T12:41:56Z</time></trkpt><trkpt lat="42.354908418363564" lon="11.982816172130226"><ele>166.33333333333331</ele><time>2026-04-24T12:41:57Z</time></trkpt><trkpt lat="42.355080405086404" lon="11.982921024782831"><ele>165.66666666666666</ele><time>2026-04-24T12:41:58Z</time></trkpt><trkpt lat="42.35526439789833" lon="11.983025675488507"><ele>165.0</ele><time>2026-04-24T12:41:59Z</time></trkpt><trkpt lat="42.35544501315182" lon="11.983153331995702"><ele>165.33333333333334</ele><time>2026-04-24T12:42:00Z</time></trkpt><trkpt lat="42.355645286474775" lon="11.983301522188913"><ele>165.66666666666669</ele><time>2026-04-24T12:42:01Z</time></trkpt><trkpt lat="42.35582638180808" lon="11.983419289013991"><ele>166.0</ele><time>2026-04-24T12:42:02Z</time></trkpt><trkpt lat="42.35599954276753" lon="11.983549058890992"><ele>165.33333333333334</ele><time>2026-04-24T12:42:03Z</time></trkpt><trkpt lat="42.356176931552376" lon="11.983706093049095"><ele>164.66666666666666</ele><time>2026-04-24T12:42:04Z</time></trkpt><trkpt lat="42.35634551440306" lon="11.983855695215846"><ele>164.0</ele><time>2026-04-24T12:42:05Z</time></trkpt><trkpt lat="42.35651984559285" lon="11.984002030203909"><ele>164.0</ele><time>2026-04-24T12:42:06Z</time></trkpt><trkpt lat="42.35668472734098" lon="11.984153197619905"><ele>164.0</ele><time>2026-04-24T12:42:07Z</time></trkpt><trkpt lat="42.35684125167568" lon="11.984309493316376"><ele>164.0</ele><time>2026-04-24T12:42:08Z</time></trkpt><trkpt lat="42.35699236819897" lon="11.984449149387656"><ele>164.33333333333331</ele><time>2026-04-24T12:42:09Z</time></trkpt><trkpt lat="42.35713044640959" lon="11.984583766906699"><ele>164.66666666666666</ele><time>2026-04-24T12:42:10Z</time></trkpt><trkpt lat="42.357269770212156" lon="11.984733177210277"><ele>165.0</ele><time>2026-04-24T12:42:11Z</time></trkpt><trkpt lat="42.357405185481994" lon="11.98489249456067"><ele>158.66666666666666</ele><time>2026-04-24T12:42:12Z</time></trkpt><trkpt lat="42.3575517664564" lon="11.985053509736066"><ele>152.33333333333331</ele><time>2026-04-24T12:42:13Z</time></trkpt><trkpt lat="42.35770116163302" lon="11.985236484791987"><ele>146.0</ele><time>2026-04-24T12:42:14Z</time></trkpt><trkpt lat="42.35786311328234" lon="11.985425724932934"><ele>146.0</ele><time>2026-04-24T12:42:15Z</time></trkpt><trkpt lat="42.358032733311255" lon="11.98561769349752"><ele>146.0</ele><time>2026-04-24T12:42:16Z</time></trkpt><trkpt lat="42.35819462409382" lon="11.985831365870736"><ele>146.0</ele><time>2026-04-24T12:42:17Z</time></trkpt><trkpt lat="42.358349855818226" lon="11.98604429706238"><ele>145.66666666666666</ele><time>2026-04-24T12:42:18Z</time></trkpt><trkpt lat="42.358512131999916" lon="11.986258273302674"><ele>145.33333333333334</ele><time>2026-04-24T12:42:19Z</time></trkpt><trkpt lat="42.35866776660864" lon="11.986467539612736"><ele>145.0</ele><time>2026-04-24T12:42:20Z</time></trkpt><trkpt lat="42.35881530847525" lon="11.986671930981505"><ele>147.33333333333334</ele><time>2026-04-24T12:42:21Z</time></trkpt><trkpt lat="42.35896219710217" lon="11.986878575274575"><ele>149.66666666666666</ele><time>2026-04-24T12:42:22Z</time></trkpt><trkpt lat="42.359103822104274" lon="11.98708553949174"><ele>152.0</ele><time>2026-04-24T12:42:23Z</time></trkpt><trkpt lat="42.35922877475233" lon="11.987299347288388"><ele>151.33333333333331</ele><time>2026-04-24T12:42:24Z</time></trkpt><trkpt lat="42.359370550805906" lon="11.987510706022485"><ele>150.66666666666666</ele><time>2026-04-24T12:42:25Z</time></trkpt><trkpt lat="42.359504914324944" lon="11.987732868060975"><ele>150.0</ele><time>2026-04-24T12:42:26Z</time></trkpt><trkpt lat="42.3596308625886" lon="11.987953484622167"><ele>151.66666666666666</ele><time>2026-04-24T12:42:27Z</time></trkpt><trkpt lat="42.35975967376349" lon="11.988169019817352"><ele>153.33333333333331</ele><time>2026-04-24T12:42:28Z</time></trkpt><trkpt lat="42.35987923863103" lon="11.98838769885486"><ele>155.0</ele><time>2026-04-24T12:42:29Z</time></trkpt><trkpt lat="42.35999349063015" lon="11.988615753041767"><ele>155.0</ele><time>2026-04-24T12:42:30Z</time></trkpt><trkpt lat="42.36009850611284" lon="11.9888330525319"><ele>155.0</ele><time>2026-04-24T12:42:31Z</time></trkpt><trkpt lat="42.36020145669089" lon="11.989049498586295"><ele>155.0</ele><time>2026-04-24T12:42:32Z</time></trkpt><trkpt lat="42.36030479444198" lon="11.98926346926673"><ele>155.66666666666666</ele><time>2026-04-24T12:42:33Z</time></trkpt><trkpt lat="42.36039762379169" lon="11.98948563659917"><ele>156.33333333333334</ele><time>2026-04-24T12:42:34Z</time></trkpt><trkpt lat="42.36049998760818" lon="11.989700383966131"><ele>157.0</ele><time>2026-04-24T12:42:35Z</time></trkpt><trkpt lat="42.36059504573234" lon="11.989935656383913"><ele>160.0</ele><time>2026-04-24T12:42:36Z</time></trkpt><trkpt lat="42.360685903424304" lon="11.990171681205613"><ele>163.0</ele><time>2026-04-24T12:42:37Z</time></trkpt><trkpt lat="42.36077896226669" lon="11.99039907773237"><ele>166.0</ele><time>2026-04-24T12:42:38Z</time></trkpt><trkpt lat="42.360865144764595" lon="11.990641265814952"><ele>166.66666666666669</ele><time>2026-04-24T12:42:39Z</time></trkpt><trkpt lat="42.36096831183002" lon="11.990867735635458"><ele>167.33333333333334</ele><time>2026-04-24T12:42:40Z</time></trkpt><trkpt lat="42.36106353049308" lon="11.99111189122261"><ele>168.0</ele><time>2026-04-24T12:42:41Z</time></trkpt><trkpt lat="42.36115880492733" lon="11.991364886311361"><ele>168.0</ele><time>2026-04-24T12:42:42Z</time></trkpt><trkpt lat="42.3612463347497" lon="11.991639512214634"><ele>168.0</ele><time>2026-04-24T12:42:43Z</time></trkpt><trkpt lat="42.36133690344187" lon="11.991918669030374"><ele>168.0</ele><time>2026-04-24T12:42:44Z</time></trkpt><trkpt lat="42.361414421314535" lon="11.992211311984134"><ele>168.66666666666666</ele><time>2026-04-24T12:42:45Z</time></trkpt><trkpt lat="42.36148802522008" lon="11.992496712066021"><ele>169.33333333333331</ele><time>2026-04-24T12:42:46Z</time></trkpt><trkpt lat="42.36156123569249" lon="11.992766900400358"><ele>170.0</ele><time>2026-04-24T12:42:47Z</time></trkpt><trkpt lat="42.36162155363113" lon="11.993042282026634"><ele>170.0</ele><time>2026-04-24T12:42:48Z</time></trkpt><trkpt lat="42.36167285733424" lon="11.993315581053828"><ele>170.0</ele><time>2026-04-24T12:42:49Z</time></trkpt><trkpt lat="42.361736259156174" lon="11.993586970975118"><ele>170.0</ele><time>2026-04-24T12:42:50Z</time></trkpt><trkpt lat="42.36179257770451" lon="11.99385663759552"><ele>170.0</ele><time>2026-04-24T12:42:51Z</time></trkpt><trkpt lat="42.36184172564629" lon="11.994131049317927"><ele>170.0</ele><time>2026-04-24T12:42:52Z</time></trkpt><trkpt lat="42.36192063721873" lon="11.994318195285706"><ele>170.0</ele><time>2026-04-24T12:42:53Z</time></trkpt><trkpt lat="42.361971076288164" lon="11.994584105972878"><ele>170.0</ele><time>2026-04-24T12:42:54Z</time></trkpt><trkpt lat="42.36202151997191" lon="11.994856477419928"><ele>170.0</ele><time>2026-04-24T12:42:55Z</time></trkpt><trkpt lat="42.362053664984984" lon="11.995167620843105"><ele>170.0</ele><time>2026-04-24T12:42:56Z</time></trkpt><trkpt lat="42.36209496792891" lon="11.99546276844276"><ele>169.66666666666666</ele><time>2026-04-24T12:42:57Z</time></trkpt><trkpt lat="42.36213203726577" lon="11.995756472322157"><ele>169.33333333333334</ele><time>2026-04-24T12:42:58Z</time></trkpt><trkpt lat="42.36216880823971" lon="11.996038277666617"><ele>169.0</ele><time>2026-04-24T12:42:59Z</time></trkpt><trkpt lat="42.362194562409265" lon="11.996311428220244"><ele>170.33333333333334</ele><time>2026-04-24T12:43:00Z</time></trkpt><trkpt lat="42.36224188489726" lon="11.996537834074005"><ele>171.66666666666666</ele><time>2026-04-24T12:43:01Z</time></trkpt><trkpt lat="42.36229195152189" lon="11.996784706347839"><ele>173.0</ele><time>2026-04-24T12:43:02Z</time></trkpt><trkpt lat="42.36233024075823" lon="11.997044556826891"><ele>173.33333333333331</ele><time>2026-04-24T12:43:03Z</time></trkpt><trkpt lat="42.362363795981395" lon="11.99730539375369"><ele>173.66666666666666</ele><time>2026-04-24T12:43:04Z</time></trkpt><trkpt lat="42.362410038256016" lon="11.997539831447032"><ele>174.0</ele><time>2026-04-24T12:43:05Z</time></trkpt><trkpt lat="42.36244363047899" lon="11.9978013552816"><ele>174.33333333333334</ele><time>2026-04-24T12:43:06Z</time></trkpt><trkpt lat="42.362487529104385" lon="11.99805981674733"><ele>174.66666666666669</ele><time>2026-04-24T12:43:07Z</time></trkpt><trkpt lat="42.36253097846882" lon="11.99832450048085"><ele>175.0</ele><time>2026-04-24T12:43:08Z</time></trkpt><trkpt lat="42.36255722298461" lon="11.998603492754523"><ele>175.0</ele><time>2026-04-24T12:43:09Z</time></trkpt><trkpt lat="42.36259557698388" lon="11.998857283801293"><ele>175.0</ele><time>2026-04-24T12:43:10Z</time></trkpt><trkpt lat="42.36263920897493" lon="11.999117165192368"><ele>175.0</ele><time>2026-04-24T12:43:11Z</time></trkpt><trkpt lat="42.36268202184298" lon="11.999382642458757"><ele>175.0</ele><time>2026-04-24T12:43:12Z</time></trkpt><trkpt lat="42.36273078008302" lon="11.999643475562348"><ele>175.0</ele><time>2026-04-24T12:43:13Z</time></trkpt><trkpt lat="42.362773132948846" lon="11.999910448833472"><ele>175.0</ele><time>2026-04-24T12:43:14Z</time></trkpt><trkpt lat="42.36281906079782" lon="12.000183886006432"><ele>175.0</ele><time>2026-04-24T12:43:15Z</time></trkpt><trkpt lat="42.36285682190453" lon="12.00046391071432"><ele>175.0</ele><time>2026-04-24T12:43:16Z</time></trkpt><trkpt lat="42.362893391024706" lon="12.00071867850835"><ele>175.0</ele><time>2026-04-24T12:43:17Z</time></trkpt><trkpt lat="42.36293128281333" lon="12.001022941054611"><ele>175.0</ele><time>2026-04-24T12:43:18Z</time></trkpt><trkpt lat="42.36298226635354" lon="12.00132721143769"><ele>175.0</ele><time>2026-04-24T12:43:19Z</time></trkpt><trkpt lat="42.36302545833537" lon="12.001658941764317"><ele>177.5</ele><time>2026-04-24T12:43:20Z</time></trkpt><trkpt lat="42.36307405205308" lon="12.00200256622142"><ele>180.0</ele><time>2026-04-24T12:43:21Z</time></trkpt><trkpt lat="42.36312015558913" lon="12.00235807976914"><ele>180.5</ele><time>2026-04-24T12:43:22Z</time></trkpt><trkpt lat="42.363168344754826" lon="12.00271563798231"><ele>181.0</ele><time>2026-04-24T12:43:23Z</time></trkpt><trkpt lat="42.36319935070653" lon="12.003049390559486"><ele>181.5</ele><time>2026-04-24T12:43:24Z</time></trkpt><trkpt lat="42.36323778854999" lon="12.003373186875292"><ele>182.0</ele><time>2026-04-24T12:43:25Z</time></trkpt><trkpt lat="42.36327129298441" lon="12.003671313854278"><ele>182.0</ele><time>2026-04-24T12:43:26Z</time></trkpt><trkpt lat="42.363304384237836" lon="12.00395727348333"><ele>182.0</ele><time>2026-04-24T12:43:27Z</time></trkpt><trkpt lat="42.36333143797803" lon="12.004250731627724"><ele>182.0</ele><time>2026-04-24T12:43:28Z</time></trkpt><trkpt lat="42.36340338639332" lon="12.004510246557473"><ele>181.66666666666666</ele><time>2026-04-24T12:43:29Z</time></trkpt><trkpt lat="42.36346432520206" lon="12.004758173710709"><ele>181.33333333333334</ele><time>2026-04-24T12:43:30Z</time></trkpt><trkpt lat="42.36350269871442" lon="12.005055026021424"><ele>181.0</ele><time>2026-04-24T12:43:31Z</time></trkpt><trkpt lat="42.363543751833454" lon="12.005330133451098"><ele>180.66666666666669</ele><time>2026-04-24T12:43:32Z</time></trkpt><trkpt lat="42.36359079666939" lon="12.005596679380371"><ele>180.33333333333334</ele><time>2026-04-24T12:43:33Z</time></trkpt><trkpt lat="42.36364373281614" lon="12.005847202407113"><ele>180.0</ele><time>2026-04-24T12:43:34Z</time></trkpt><trkpt lat="42.36369709310381" lon="12.006075102897169"><ele>180.0</ele><time>2026-04-24T12:43:35Z</time></trkpt><trkpt lat="42.363736179258446" lon="12.006323766194795"><ele>180.0</ele><time>2026-04-24T12:43:36Z</time></trkpt><trkpt lat="42.363789361681675" lon="12.006544048252987"><ele>180.0</ele><time>2026-04-24T12:43:37Z</time></trkpt><trkpt lat="42.36382023434951" lon="12.006788343128367"><ele>179.66666666666666</ele><time>2026-04-24T12:43:38Z</time></trkpt><trkpt lat="42.363866229805716" lon="12.007028385798208"><ele>179.33333333333331</ele><time>2026-04-24T12:43:39Z</time></trkpt><trkpt lat="42.36388602741725" lon="12.0073002893686"><ele>179.0</ele><time>2026-04-24T12:43:40Z</time></trkpt><trkpt lat="42.36391890176019" lon="12.007548847259914"><ele>179.0</ele><time>2026-04-24T12:43:41Z</time></trkpt><trkpt lat="42.36396807070316" lon="12.007773380753859"><ele>179.0</ele><time>2026-04-24T12:43:42Z</time></trkpt><trkpt lat="42.364012915065125" lon="12.008026344360646"><ele>179.0</ele><time>2026-04-24T12:43:43Z</time></trkpt><trkpt lat="42.36406561737471" lon="12.00827908683285"><ele>180.0</ele><time>2026-04-24T12:43:44Z</time></trkpt><trkpt lat="42.364117219183115" lon="12.00853442855205"><ele>181.0</ele><time>2026-04-24T12:43:45Z</time></trkpt><trkpt lat="42.364173653907656" lon="12.008793393487746"><ele>182.0</ele><time>2026-04-24T12:43:46Z</time></trkpt><trkpt lat="42.36422481715467" lon="12.009048735842752"><ele>182.0</ele><time>2026-04-24T12:43:47Z</time></trkpt><trkpt lat="42.364285282758075" lon="12.00930077319119"><ele>182.0</ele><time>2026-04-24T12:43:48Z</time></trkpt><trkpt lat="42.364353666375386" lon="12.009538333419638"><ele>182.0</ele><time>2026-04-24T12:43:49Z</time></trkpt><trkpt lat="42.364430292783105" lon="12.00975520333464"><ele>183.0</ele><time>2026-04-24T12:43:50Z</time></trkpt><trkpt lat="42.36449350617889" lon="12.01000491104736"><ele>184.0</ele><time>2026-04-24T12:43:51Z</time></trkpt><trkpt lat="42.36456849380402" lon="12.010238813171666"><ele>185.0</ele><time>2026-04-24T12:43:52Z</time></trkpt><trkpt lat="42.36463172875924" lon="12.010481301840311"><ele>185.0</ele><time>2026-04-24T12:43:53Z</time></trkpt><trkpt lat="42.36468230459098" lon="12.010738868288083"><ele>185.0</ele><time>2026-04-24T12:43:54Z</time></trkpt><trkpt lat="42.364748046466104" lon="12.010967404641242"><ele>185.0</ele><time>2026-04-24T12:43:55Z</time></trkpt><trkpt lat="42.36480281276335" lon="12.011216057947792"><ele>181.66666666666666</ele><time>2026-04-24T12:43:56Z</time></trkpt><trkpt lat="42.36487229330476" lon="12.011438254992614"><ele>178.33333333333334</ele><time>2026-04-24T12:43:57Z</time></trkpt><trkpt lat="42.364934323091326" lon="12.011649888794482"><ele>175.0</ele><time>2026-04-24T12:43:58Z</time></trkpt><trkpt lat="42.365025121637196" lon="12.011877503836109"><ele>174.0</ele><time>2026-04-24T12:43:59Z</time></trkpt><trkpt lat="42.36509740475402" lon="12.012106098148552"><ele>173.0</ele><time>2026-04-24T12:44:00Z</time></trkpt><trkpt lat="42.36516876832972" lon="12.01236343646594"><ele>172.0</ele><time>2026-04-24T12:44:01Z</time></trkpt><trkpt lat="42.365221972540745" lon="12.012622015175518"><ele>172.0</ele><time>2026-04-24T12:44:02Z</time></trkpt><trkpt lat="42.365278629436744" lon="12.012871813986038"><ele>172.0</ele><time>2026-04-24T12:44:03Z</time></trkpt><trkpt lat="42.36534672607611" lon="12.013104106859602"><ele>172.0</ele><time>2026-04-24T12:44:04Z</time></trkpt><trkpt lat="42.36540538738546" lon="12.01334057255251"><ele>171.66666666666669</ele><time>2026-04-24T12:44:05Z</time></trkpt><trkpt lat="42.36547063594507" lon="12.0135919479663"><ele>171.33333333333334</ele><time>2026-04-24T12:44:06Z</time></trkpt><trkpt lat="42.36555672150976" lon="12.013841339100845"><ele>171.0</ele><time>2026-04-24T12:44:07Z</time></trkpt><trkpt lat="42.365611207661004" lon="12.014090609371264"><ele>171.66666666666666</ele><time>2026-04-24T12:44:08Z</time></trkpt><trkpt lat="42.365690499198664" lon="12.01433583630317"><ele>172.33333333333331</ele><time>2026-04-24T12:44:09Z</time></trkpt><trkpt lat="42.3657558004319" lon="12.014592980977511"><ele>173.0</ele><time>2026-04-24T12:44:10Z</time></trkpt><trkpt lat="42.365829698564866" lon="12.014813299131633"><ele>173.66666666666666</ele><time>2026-04-24T12:44:11Z</time></trkpt><trkpt lat="42.3658939372635" lon="12.015030311447639"><ele>174.33333333333334</ele><time>2026-04-24T12:44:12Z</time></trkpt><trkpt lat="42.36595494610598" lon="12.015253032914487"><ele>175.0</ele><time>2026-04-24T12:44:13Z</time></trkpt><trkpt lat="42.36602885208638" lon="12.015450736141926"><ele>175.0</ele><time>2026-04-24T12:44:14Z</time></trkpt><trkpt lat="42.36610514734596" lon="12.015652523164361"><ele>175.0</ele><time>2026-04-24T12:44:15Z</time></trkpt><trkpt lat="42.36617439350443" lon="12.015902700027217"><ele>175.0</ele><time>2026-04-24T12:44:16Z</time></trkpt><trkpt lat="42.36625164721872" lon="12.016128470890894"><ele>175.0</ele><time>2026-04-24T12:44:17Z</time></trkpt><trkpt lat="42.36631633206494" lon="12.016364184983633"><ele>175.0</ele><time>2026-04-24T12:44:18Z</time></trkpt><trkpt lat="42.36638968629618" lon="12.016606125064522"><ele>175.0</ele><time>2026-04-24T12:44:19Z</time></trkpt><trkpt lat="42.36646299442283" lon="12.016848542120188"><ele>176.0</ele><time>2026-04-24T12:44:20Z</time></trkpt><trkpt lat="42.36653446336417" lon="12.017088568556876"><ele>177.0</ele><time>2026-04-24T12:44:21Z</time></trkpt><trkpt lat="42.366607446171486" lon="12.017326438968473"><ele>178.0</ele><time>2026-04-24T12:44:22Z</time></trkpt><trkpt lat="42.36668326424668" lon="12.017551853519908"><ele>179.33333333333334</ele><time>2026-04-24T12:44:23Z</time></trkpt><trkpt lat="42.3667489083911" lon="12.017795478373447"><ele>180.66666666666666</ele><time>2026-04-24T12:44:24Z</time></trkpt><trkpt lat="42.366821458801645" lon="12.018039628684868"><ele>182.0</ele><time>2026-04-24T12:44:25Z</time></trkpt><trkpt lat="42.3668883461516" lon="12.018287066948865"><ele>183.33333333333331</ele><time>2026-04-24T12:44:26Z</time></trkpt><trkpt lat="42.366949321927436" lon="12.018531078089065"><ele>184.66666666666666</ele><time>2026-04-24T12:44:27Z</time></trkpt><trkpt lat="42.3670236419439" lon="12.018746572820858"><ele>186.0</ele><time>2026-04-24T12:44:28Z</time></trkpt><trkpt lat="42.3670821316298" lon="12.018994525252948"><ele>186.66666666666666</ele><time>2026-04-24T12:44:29Z</time></trkpt><trkpt lat="42.36714362904101" lon="12.01925915360956"><ele>187.33333333333331</ele><time>2026-04-24T12:44:30Z</time></trkpt><trkpt lat="42.3672124375099" lon="12.019516194898001"><ele>188.0</ele><time>2026-04-24T12:44:31Z</time></trkpt><trkpt lat="42.367280881868346" lon="12.01977625506989"><ele>188.33333333333331</ele><time>2026-04-24T12:44:32Z</time></trkpt><trkpt lat="42.3673427077711" lon="12.020029796406641"><ele>188.66666666666666</ele><time>2026-04-24T12:44:33Z</time></trkpt><trkpt lat="42.36739887854059" lon="12.020283892780272"><ele>189.0</ele><time>2026-04-24T12:44:34Z</time></trkpt><trkpt lat="42.36745367320272" lon="12.020540383160291"><ele>189.0</ele><time>2026-04-24T12:44:35Z</time></trkpt><trkpt lat="42.367512642343975" lon="12.02075942893983"><ele>189.0</ele><time>2026-04-24T12:44:36Z</time></trkpt><trkpt lat="42.36755707646283" lon="12.020986442293058"><ele>189.0</ele><time>2026-04-24T12:44:37Z</time></trkpt><trkpt lat="42.36761531843227" lon="12.021222605163743"><ele>189.33333333333334</ele><time>2026-04-24T12:44:38Z</time></trkpt><trkpt lat="42.36766697082851" lon="12.021472645156493"><ele>189.66666666666669</ele><time>2026-04-24T12:44:39Z</time></trkpt><trkpt lat="42.36772142834528" lon="12.021725441205945"><ele>190.0</ele><time>2026-04-24T12:44:40Z</time></trkpt><trkpt lat="42.36777749693495" lon="12.02195424292057"><ele>190.66666666666669</ele><time>2026-04-24T12:44:41Z</time></trkpt><trkpt lat="42.36782786670494" lon="12.022200573390696"><ele>191.33333333333334</ele><time>2026-04-24T12:44:42Z</time></trkpt><trkpt lat="42.36787492660913" lon="12.022453417447537"><ele>192.0</ele><time>2026-04-24T12:44:43Z</time></trkpt><trkpt lat="42.36792590539032" lon="12.02269136315015"><ele>192.33333333333331</ele><time>2026-04-24T12:44:44Z</time></trkpt><trkpt lat="42.36796049503885" lon="12.02295667768445"><ele>192.66666666666666</ele><time>2026-04-24T12:44:45Z</time></trkpt><trkpt lat="42.36799501462076" lon="12.023222234700116"><ele>193.0</ele><time>2026-04-24T12:44:46Z</time></trkpt><trkpt lat="42.36801471948173" lon="12.023528889920009"><ele>193.33333333333331</ele><time>2026-04-24T12:44:47Z</time></trkpt><trkpt lat="42.36806968138008" lon="12.023766033916104"><ele>193.66666666666669</ele><time>2026-04-24T12:44:48Z</time></trkpt><trkpt lat="42.368108496680364" lon="12.024002090561414"><ele>194.0</ele><time>2026-04-24T12:44:49Z</time></trkpt><trkpt lat="42.3681530653011" lon="12.024241599854996"><ele>194.66666666666669</ele><time>2026-04-24T12:44:50Z</time></trkpt><trkpt lat="42.36820667271501" lon="12.02447348532316"><ele>195.33333333333331</ele><time>2026-04-24T12:44:51Z</time></trkpt><trkpt lat="42.368242608007726" lon="12.024719984664989"><ele>196.0</ele><time>2026-04-24T12:44:52Z</time></trkpt><trkpt lat="42.36827633293935" lon="12.024965501366388"><ele>196.0</ele><time>2026-04-24T12:44:53Z</time></trkpt><trkpt lat="42.368306585481456" lon="12.025202881538375"><ele>196.0</ele><time>2026-04-24T12:44:54Z</time></trkpt><trkpt lat="42.3683406723059" lon="12.025440603178277"><ele>196.0</ele><time>2026-04-24T12:44:55Z</time></trkpt><trkpt lat="42.3683740791784" lon="12.025677351607332"><ele>196.0</ele><time>2026-04-24T12:44:56Z</time></trkpt><trkpt lat="42.368414137665035" lon="12.025897810040581"><ele>196.0</ele><time>2026-04-24T12:44:57Z</time></trkpt><trkpt lat="42.36843728043052" lon="12.02612396716857"><ele>196.0</ele><time>2026-04-24T12:44:58Z</time></trkpt><trkpt lat="42.368465686096165" lon="12.026380925117069"><ele>196.0</ele><time>2026-04-24T12:44:59Z</time></trkpt><trkpt lat="42.3684912170859" lon="12.026630556017851"><ele>196.0</ele><time>2026-04-24T12:45:00Z</time></trkpt><trkpt lat="42.36851734918903" lon="12.026876213738896"><ele>196.0</ele><time>2026-04-24T12:45:01Z</time></trkpt><trkpt lat="42.36855685642794" lon="12.027117764471084"><ele>196.33333333333331</ele><time>2026-04-24T12:45:02Z</time></trkpt><trkpt lat="42.368596704148" lon="12.027374335741197"><ele>196.66666666666669</ele><time>2026-04-24T12:45:03Z</time></trkpt><trkpt lat="42.368631465391154" lon="12.027647329494714"><ele>197.0</ele><time>2026-04-24T12:45:04Z</time></trkpt><trkpt lat="42.368664081029856" lon="12.027924183758692"><ele>196.66666666666669</ele><time>2026-04-24T12:45:05Z</time></trkpt><trkpt lat="42.36869752492767" lon="12.028197380659622"><ele>196.33333333333331</ele><time>2026-04-24T12:45:06Z</time></trkpt><trkpt lat="42.36872717765237" lon="12.02847723944891"><ele>196.0</ele><time>2026-04-24T12:45:07Z</time></trkpt><trkpt lat="42.368753685083625" lon="12.028747333170841"><ele>196.0</ele><time>2026-04-24T12:45:08Z</time></trkpt><trkpt lat="42.36878165950038" lon="12.029029626308043"><ele>196.0</ele><time>2026-04-24T12:45:09Z</time></trkpt><trkpt lat="42.36881457683593" lon="12.029298490554984"><ele>196.0</ele><time>2026-04-24T12:45:10Z</time></trkpt><trkpt lat="42.368847174793125" lon="12.029571152813118"><ele>197.33333333333331</ele><time>2026-04-24T12:45:11Z</time></trkpt><trkpt lat="42.368883446686596" lon="12.029835924816199"><ele>198.66666666666669</ele><time>2026-04-24T12:45:12Z</time></trkpt><trkpt lat="42.36891830368215" lon="12.030098890833912"><ele>200.0</ele><time>2026-04-24T12:45:13Z</time></trkpt><trkpt lat="42.368941597880465" lon="12.030351134335385"><ele>200.0</ele><time>2026-04-24T12:45:14Z</time></trkpt><trkpt lat="42.368967308898064" lon="12.030610100366474"><ele>200.0</ele><time>2026-04-24T12:45:15Z</time></trkpt><trkpt lat="42.36899207518819" lon="12.030878012274801"><ele>200.0</ele><time>2026-04-24T12:45:16Z</time></trkpt><trkpt lat="42.369027872031246" lon="12.031142063839235"><ele>200.0</ele><time>2026-04-24T12:45:17Z</time></trkpt><trkpt lat="42.36904465008254" lon="12.031409177711096"><ele>200.0</ele><time>2026-04-24T12:45:18Z</time></trkpt><trkpt lat="42.369079640226914" lon="12.03165586310301"><ele>200.0</ele><time>2026-04-24T12:45:19Z</time></trkpt><trkpt lat="42.36911096893243" lon="12.03192230037267"><ele>200.0</ele><time>2026-04-24T12:45:20Z</time></trkpt><trkpt lat="42.3691581626194" lon="12.032186793617443"><ele>200.0</ele><time>2026-04-24T12:45:21Z</time></trkpt><trkpt lat="42.369193038269366" lon="12.03242689984903"><ele>200.0</ele><time>2026-04-24T12:45:22Z</time></trkpt><trkpt lat="42.36922306673477" lon="12.032677925415463"><ele>200.33333333333334</ele><time>2026-04-24T12:45:23Z</time></trkpt><trkpt lat="42.36926087668292" lon="12.032899393771762"><ele>200.66666666666669</ele><time>2026-04-24T12:45:24Z</time></trkpt><trkpt lat="42.369304053034604" lon="12.033141904806993"><ele>201.0</ele><time>2026-04-24T12:45:25Z</time></trkpt><trkpt lat="42.36936078260012" lon="12.033357302147598"><ele>201.0</ele><time>2026-04-24T12:45:26Z</time></trkpt><trkpt lat="42.36939972083648" lon="12.033601553080453"><ele>201.0</ele><time>2026-04-24T12:45:27Z</time></trkpt><trkpt lat="42.36944395525061" lon="12.033811084106475"><ele>201.0</ele><time>2026-04-24T12:45:28Z</time></trkpt><trkpt lat="42.369471949420564" lon="12.034033808028518"><ele>201.66666666666669</ele><time>2026-04-24T12:45:29Z</time></trkpt><trkpt lat="42.36949597882546" lon="12.03426667408283"><ele>202.33333333333334</ele><time>2026-04-24T12:45:30Z</time></trkpt><trkpt lat="42.36952152589669" lon="12.034497636855026"><ele>203.0</ele><time>2026-04-24T12:45:31Z</time></trkpt><trkpt lat="42.36955798660584" lon="12.034753736055224"><ele>204.0</ele><time>2026-04-24T12:45:32Z</time></trkpt><trkpt lat="42.36960059793325" lon="12.035018033495803"><ele>205.0</ele><time>2026-04-24T12:45:33Z</time></trkpt><trkpt lat="42.36965165867116" lon="12.03529473423557"><ele>206.0</ele><time>2026-04-24T12:45:34Z</time></trkpt><trkpt lat="42.369703566576206" lon="12.035577978436592"><ele>207.33333333333334</ele><time>2026-04-24T12:45:35Z</time></trkpt><trkpt lat="42.369749202719206" lon="12.035864213983876"><ele>208.66666666666669</ele><time>2026-04-24T12:45:36Z</time></trkpt><trkpt lat="42.3697921826766" lon="12.03614937947096"><ele>210.0</ele><time>2026-04-24T12:45:37Z</time></trkpt><trkpt lat="42.36983832024114" lon="12.036412110755876"><ele>210.33333333333331</ele><time>2026-04-24T12:45:38Z</time></trkpt><trkpt lat="42.36988541904522" lon="12.036669944855467"><ele>210.66666666666666</ele><time>2026-04-24T12:45:39Z</time></trkpt><trkpt lat="42.36992512107945" lon="12.036936045219644"><ele>211.0</ele><time>2026-04-24T12:45:40Z</time></trkpt><trkpt lat="42.36996411517756" lon="12.037203779652115"><ele>211.5</ele><time>2026-04-24T12:45:41Z</time></trkpt><trkpt lat="42.37001020536051" lon="12.037488711274019"><ele>212.0</ele><time>2026-04-24T12:45:42Z</time></trkpt><trkpt lat="42.370072223097075" lon="12.037796773492355"><ele>212.0</ele><time>2026-04-24T12:45:43Z</time></trkpt><trkpt lat="42.370112305305135" lon="12.038103825248365"><ele>212.0</ele><time>2026-04-24T12:45:44Z</time></trkpt><trkpt lat="42.3701521804222" lon="12.038394065353486"><ele>212.0</ele><time>2026-04-24T12:45:45Z</time></trkpt><trkpt lat="42.37018750430914" lon="12.038675189218198"><ele>212.0</ele><time>2026-04-24T12:45:46Z</time></trkpt><trkpt lat="42.370241301568946" lon="12.03893284056666"><ele>212.0</ele><time>2026-04-24T12:45:47Z</time></trkpt><trkpt lat="42.37026957998544" lon="12.039207117857142"><ele>212.0</ele><time>2026-04-24T12:45:48Z</time></trkpt><trkpt lat="42.37030580881265" lon="12.039464028547197"><ele>212.33333333333334</ele><time>2026-04-24T12:45:49Z</time></trkpt><trkpt lat="42.37034336700011" lon="12.039715443365173"><ele>212.66666666666669</ele><time>2026-04-24T12:45:50Z</time></trkpt><trkpt lat="42.370384894059406" lon="12.039988808090063"><ele>213.0</ele><time>2026-04-24T12:45:51Z</time></trkpt><trkpt lat="42.37041108327627" lon="12.0402560731916"><ele>213.0</ele><time>2026-04-24T12:45:52Z</time></trkpt><trkpt lat="42.370456533264104" lon="12.04052940660813"><ele>213.0</ele><time>2026-04-24T12:45:53Z</time></trkpt><trkpt lat="42.37051036021603" lon="12.040836158431032"><ele>213.0</ele><time>2026-04-24T12:45:54Z</time></trkpt><trkpt lat="42.37054121101262" lon="12.04112375628067"><ele>214.0</ele><time>2026-04-24T12:45:55Z</time></trkpt><trkpt lat="42.370588567057716" lon="12.04136858751411"><ele>215.0</ele><time>2026-04-24T12:45:56Z</time></trkpt><trkpt lat="42.37062327580595" lon="12.041614782015051"><ele>216.0</ele><time>2026-04-24T12:45:57Z</time></trkpt><trkpt lat="42.370655253043715" lon="12.041844423054416"><ele>217.0</ele><time>2026-04-24T12:45:58Z</time></trkpt><trkpt lat="42.37069396567617" lon="12.04207141869297"><ele>218.0</ele><time>2026-04-24T12:45:59Z</time></trkpt><trkpt lat="42.37072274964219" lon="12.042303768312188"><ele>219.0</ele><time>2026-04-24T12:46:00Z</time></trkpt><trkpt lat="42.3707649092137" lon="12.04256117847896"><ele>219.66666666666669</ele><time>2026-04-24T12:46:01Z</time></trkpt><trkpt lat="42.37081678238396" lon="12.042807274784948"><ele>220.33333333333334</ele><time>2026-04-24T12:46:02Z</time></trkpt><trkpt lat="42.37086081133661" lon="12.043060019156165"><ele>221.0</ele><time>2026-04-24T12:46:03Z</time></trkpt><trkpt lat="42.37089824065807" lon="12.043322389881718"><ele>221.33333333333334</ele><time>2026-04-24T12:46:04Z</time></trkpt><trkpt lat="42.37094267412303" lon="12.043593000099975"><ele>221.66666666666669</ele><time>2026-04-24T12:46:05Z</time></trkpt><trkpt lat="42.37098210429211" lon="12.04384219127732"><ele>222.0</ele><time>2026-04-24T12:46:06Z</time></trkpt><trkpt lat="42.371015070654316" lon="12.044091095505195"><ele>222.0</ele><time>2026-04-24T12:46:07Z</time></trkpt><trkpt lat="42.37106115363411" lon="12.044350724867753"><ele>222.0</ele><time>2026-04-24T12:46:08Z</time></trkpt><trkpt lat="42.37109584656803" lon="12.044609507554746"><ele>222.0</ele><time>2026-04-24T12:46:09Z</time></trkpt><trkpt lat="42.37113961362288" lon="12.044836313757841"><ele>222.0</ele><time>2026-04-24T12:46:10Z</time></trkpt><trkpt lat="42.37120265381262" lon="12.045044245944435"><ele>222.0</ele><time>2026-04-24T12:46:11Z</time></trkpt><trkpt lat="42.3712163996699" lon="12.045273788646849"><ele>222.0</ele><time>2026-04-24T12:46:12Z</time></trkpt><trkpt lat="42.37127488152753" lon="12.045533693478855"><ele>222.33333333333331</ele><time>2026-04-24T12:46:13Z</time></trkpt><trkpt lat="42.371330092830114" lon="12.045807403359127"><ele>222.66666666666666</ele><time>2026-04-24T12:46:14Z</time></trkpt><trkpt lat="42.37138906064197" lon="12.04606309726798"><ele>223.0</ele><time>2026-04-24T12:46:15Z</time></trkpt><trkpt lat="42.37143739624068" lon="12.046343028844761"><ele>224.33333333333331</ele><time>2026-04-24T12:46:16Z</time></trkpt><trkpt lat="42.37148056660195" lon="12.046604550153242"><ele>225.66666666666669</ele><time>2026-04-24T12:46:17Z</time></trkpt><trkpt lat="42.371529368570485" lon="12.04685550690954"><ele>227.0</ele><time>2026-04-24T12:46:18Z</time></trkpt><trkpt lat="42.37159555599779" lon="12.047084918214138"><ele>227.33333333333334</ele><time>2026-04-24T12:46:19Z</time></trkpt><trkpt lat="42.37165249035728" lon="12.047307923166366"><ele>227.66666666666669</ele><time>2026-04-24T12:46:20Z</time></trkpt><trkpt lat="42.37172132995667" lon="12.047533308366456"><ele>228.0</ele><time>2026-04-24T12:46:21Z</time></trkpt><trkpt lat="42.371795366602186" lon="12.047764209671938"><ele>228.66666666666669</ele><time>2026-04-24T12:46:22Z</time></trkpt><trkpt lat="42.37187353977156" lon="12.047990725491086"><ele>229.33333333333334</ele><time>2026-04-24T12:46:23Z</time></trkpt><trkpt lat="42.37195588551824" lon="12.048201898109676"><ele>230.0</ele><time>2026-04-24T12:46:24Z</time></trkpt><trkpt lat="42.37204242945511" lon="12.048423481737387"><ele>230.33333333333334</ele><time>2026-04-24T12:46:25Z</time></trkpt><trkpt lat="42.37213085243732" lon="12.04864703452176"><ele>230.66666666666669</ele><time>2026-04-24T12:46:26Z</time></trkpt><trkpt lat="42.37222027165328" lon="12.048858566205942"><ele>231.0</ele><time>2026-04-24T12:46:27Z</time></trkpt><trkpt lat="42.37231689313719" lon="12.04906353262035"><ele>230.0</ele><time>2026-04-24T12:46:28Z</time></trkpt><trkpt lat="42.372415558341885" lon="12.049274860733805"><ele>229.0</ele><time>2026-04-24T12:46:29Z</time></trkpt><trkpt lat="42.3725120424745" lon="12.04947925145588"><ele>228.0</ele><time>2026-04-24T12:46:30Z</time></trkpt><trkpt lat="42.37260612400199" lon="12.049690984946464"><ele>228.0</ele><time>2026-04-24T12:46:31Z</time></trkpt><trkpt lat="42.372703861886144" lon="12.049904295892256"><ele>228.0</ele><time>2026-04-24T12:46:32Z</time></trkpt><trkpt lat="42.37282290584993" lon="12.050088203915521"><ele>228.0</ele><time>2026-04-24T12:46:33Z</time></trkpt><trkpt lat="42.3729433731888" lon="12.050265442578358"><ele>227.66666666666669</ele><time>2026-04-24T12:46:34Z</time></trkpt><trkpt lat="42.37305024501906" lon="12.050473723510638"><ele>227.33333333333334</ele><time>2026-04-24T12:46:35Z</time></trkpt><trkpt lat="42.37318961062057" lon="12.050632900427662"><ele>227.0</ele><time>2026-04-24T12:46:36Z</time></trkpt><trkpt lat="42.37331766395387" lon="12.050812301069362"><ele>228.66666666666669</ele><time>2026-04-24T12:46:37Z</time></trkpt><trkpt lat="42.37345625403478" lon="12.05097472045066"><ele>230.33333333333331</ele><time>2026-04-24T12:46:38Z</time></trkpt><trkpt lat="42.37357906009959" lon="12.051176514143654"><ele>232.0</ele><time>2026-04-24T12:46:39Z</time></trkpt><trkpt lat="42.373719382055874" lon="12.051346915952161"><ele>232.0</ele><time>2026-04-24T12:46:40Z</time></trkpt><trkpt lat="42.37385505307364" lon="12.051508250245462"><ele>232.0</ele><time>2026-04-24T12:46:41Z</time></trkpt><trkpt lat="42.37400328550439" lon="12.051652709399942"><ele>232.0</ele><time>2026-04-24T12:46:42Z</time></trkpt><trkpt lat="42.37414504782424" lon="12.051805299858907"><ele>233.33333333333331</ele><time>2026-04-24T12:46:43Z</time></trkpt><trkpt lat="42.37429689054945" lon="12.05195469332881"><ele>234.66666666666669</ele><time>2026-04-24T12:46:44Z</time></trkpt><trkpt lat="42.37444646937588" lon="12.05211261418778"><ele>236.0</ele><time>2026-04-24T12:46:45Z</time></trkpt><trkpt lat="42.37460176567556" lon="12.05227256903661"><ele>236.0</ele><time>2026-04-24T12:46:46Z</time></trkpt><trkpt lat="42.37476024719185" lon="12.052372831028402"><ele>236.0</ele><time>2026-04-24T12:46:47Z</time></trkpt><trkpt lat="42.374943549126044" lon="12.052519521905758"><ele>236.0</ele><time>2026-04-24T12:46:48Z</time></trkpt><trkpt lat="42.37514524662113" lon="12.052668043804562"><ele>236.0</ele><time>2026-04-24T12:46:49Z</time></trkpt><trkpt lat="42.37538280586752" lon="12.052800948895456"><ele>236.0</ele><time>2026-04-24T12:46:50Z</time></trkpt><trkpt lat="42.37556524029233" lon="12.052926750500767"><ele>235.66666666666669</ele><time>2026-04-24T12:46:51Z</time></trkpt><trkpt lat="42.37572607006672" lon="12.05305015631375"><ele>235.33333333333331</ele><time>2026-04-24T12:46:52Z</time></trkpt><trkpt lat="42.375899919905066" lon="12.053155325068438"><ele>235.0</ele><time>2026-04-24T12:46:53Z</time></trkpt><trkpt lat="42.3760790499921" lon="12.053264828686716"><ele>236.0</ele><time>2026-04-24T12:46:54Z</time></trkpt><trkpt lat="42.37626357872499" lon="12.053367323416552"><ele>237.0</ele><time>2026-04-24T12:46:55Z</time></trkpt><trkpt lat="42.37644835963455" lon="12.053466959002309"><ele>238.0</ele><time>2026-04-24T12:46:56Z</time></trkpt><trkpt lat="42.37662314942704" lon="12.053564426800484"><ele>238.33333333333331</ele><time>2026-04-24T12:46:57Z</time></trkpt><trkpt lat="42.3767922326455" lon="12.053665963157629"><ele>238.66666666666669</ele><time>2026-04-24T12:46:58Z</time></trkpt><trkpt lat="42.376955546355966" lon="12.053758951435901"><ele>239.0</ele><time>2026-04-24T12:46:59Z</time></trkpt><trkpt lat="42.37713133862052" lon="12.05385669335641"><ele>239.0</ele><time>2026-04-24T12:47:00Z</time></trkpt><trkpt lat="42.37732373024145" lon="12.053950842910934"><ele>239.0</ele><time>2026-04-24T12:47:01Z</time></trkpt><trkpt lat="42.37751846068235" lon="12.05404772858074"><ele>239.0</ele><time>2026-04-24T12:47:02Z</time></trkpt><trkpt lat="42.377724001798185" lon="12.054149491036451"><ele>239.33333333333334</ele><time>2026-04-24T12:47:03Z</time></trkpt><trkpt lat="42.377907658203654" lon="12.05425679083714"><ele>239.66666666666669</ele><time>2026-04-24T12:47:04Z</time></trkpt><trkpt lat="42.37811111657817" lon="12.054367213077615"><ele>240.0</ele><time>2026-04-24T12:47:05Z</time></trkpt><trkpt lat="42.37832238736084" lon="12.05447026589068"><ele>240.0</ele><time>2026-04-24T12:47:06Z</time></trkpt><trkpt lat="42.37854951320029" lon="12.05458654423142"><ele>240.0</ele><time>2026-04-24T12:47:07Z</time></trkpt><trkpt lat="42.37879505950848" lon="12.054712877891426"><ele>239.0</ele><time>2026-04-24T12:47:08Z</time></trkpt><trkpt lat="42.379035610643186" lon="12.054848986410342"><ele>238.0</ele><time>2026-04-24T12:47:09Z</time></trkpt><trkpt lat="42.37926816132537" lon="12.054984844330349"><ele>237.5</ele><time>2026-04-24T12:47:10Z</time></trkpt><trkpt lat="42.3794895074" lon="12.055104099479893"><ele>237.0</ele><time>2026-04-24T12:47:11Z</time></trkpt><trkpt lat="42.379712321420214" lon="12.055202927443464"><ele>237.0</ele><time>2026-04-24T12:47:12Z</time></trkpt><trkpt lat="42.379917680253925" lon="12.055309535961072"><ele>237.0</ele><time>2026-04-24T12:47:13Z</time></trkpt><trkpt lat="42.38012155236824" lon="12.055419029434725"><ele>237.0</ele><time>2026-04-24T12:47:14Z</time></trkpt><trkpt lat="42.38031673989655" lon="12.055515479512204"><ele>237.0</ele><time>2026-04-24T12:47:15Z</time></trkpt><trkpt lat="42.380502361941716" lon="12.055600486354432"><ele>237.0</ele><time>2026-04-24T12:47:16Z</time></trkpt><trkpt lat="42.3806848719078" lon="12.055697030883032"><ele>237.0</ele><time>2026-04-24T12:47:17Z</time></trkpt><trkpt lat="42.3808636368945" lon="12.055789727643146"><ele>238.33333333333331</ele><time>2026-04-24T12:47:18Z</time></trkpt><trkpt lat="42.38105314187761" lon="12.055888418167678"><ele>239.66666666666666</ele><time>2026-04-24T12:47:19Z</time></trkpt><trkpt lat="42.38123068133151" lon="12.055974788885122"><ele>241.0</ele><time>2026-04-24T12:47:20Z</time></trkpt><trkpt lat="42.38140583157625" lon="12.056066267284102"><ele>241.66666666666666</ele><time>2026-04-24T12:47:21Z</time></trkpt><trkpt lat="42.381585973850335" lon="12.056161539693653"><ele>242.33333333333331</ele><time>2026-04-24T12:47:22Z</time></trkpt><trkpt lat="42.38177453919714" lon="12.056255002481896"><ele>243.0</ele><time>2026-04-24T12:47:23Z</time></trkpt><trkpt lat="42.38196038173905" lon="12.056353641081529"><ele>243.0</ele><time>2026-04-24T12:47:24Z</time></trkpt><trkpt lat="42.38213797695036" lon="12.056444610570056"><ele>243.0</ele><time>2026-04-24T12:47:25Z</time></trkpt><trkpt lat="42.38231901669816" lon="12.056540835405107"><ele>243.0</ele><time>2026-04-24T12:47:26Z</time></trkpt><trkpt lat="42.382497983453874" lon="12.056636320584326"><ele>243.66666666666669</ele><time>2026-04-24T12:47:27Z</time></trkpt><trkpt lat="42.38267689845542" lon="12.056731612234673"><ele>244.33333333333334</ele><time>2026-04-24T12:47:28Z</time></trkpt><trkpt lat="42.38284909552009" lon="12.056821126587044"><ele>245.0</ele><time>2026-04-24T12:47:29Z</time></trkpt><trkpt lat="42.38301974753895" lon="12.056911447347398"><ele>245.0</ele><time>2026-04-24T12:47:30Z</time></trkpt><trkpt lat="42.38319944250602" lon="12.056998156761432"><ele>245.0</ele><time>2026-04-24T12:47:31Z</time></trkpt><trkpt lat="42.38337304620807" lon="12.057089511397114"><ele>245.0</ele><time>2026-04-24T12:47:32Z</time></trkpt><trkpt lat="42.3835412163414" lon="12.057181974681836"><ele>245.0</ele><time>2026-04-24T12:47:33Z</time></trkpt><trkpt lat="42.38370275240085" lon="12.05727280095677"><ele>245.0</ele><time>2026-04-24T12:47:34Z</time></trkpt><trkpt lat="42.383874356217405" lon="12.057360342121516"><ele>245.0</ele><time>2026-04-24T12:47:35Z</time></trkpt><trkpt lat="42.38404595727662" lon="12.057454652471359"><ele>246.0</ele><time>2026-04-24T12:47:36Z</time></trkpt><trkpt lat="42.38422459237016" lon="12.057541683427505"><ele>247.0</ele><time>2026-04-24T12:47:37Z</time></trkpt><trkpt lat="42.38441155340642" lon="12.05763234771443"><ele>248.0</ele><time>2026-04-24T12:47:38Z</time></trkpt><trkpt lat="42.38458579664124" lon="12.0577270650825"><ele>247.0</ele><time>2026-04-24T12:47:39Z</time></trkpt><trkpt lat="42.3847673382965" lon="12.057833417402426"><ele>246.0</ele><time>2026-04-24T12:47:40Z</time></trkpt><trkpt lat="42.38495765537276" lon="12.057929677037988"><ele>245.0</ele><time>2026-04-24T12:47:41Z</time></trkpt><trkpt lat="42.38514879899233" lon="12.058037346347772"><ele>245.0</ele><time>2026-04-24T12:47:42Z</time></trkpt><trkpt lat="42.3853333389472" lon="12.058141015736615"><ele>245.0</ele><time>2026-04-24T12:47:43Z</time></trkpt><trkpt lat="42.385517430157265" lon="12.05824842329007"><ele>245.0</ele><time>2026-04-24T12:47:44Z</time></trkpt><trkpt lat="42.38571006186979" lon="12.058354357555338"><ele>245.66666666666669</ele><time>2026-04-24T12:47:45Z</time></trkpt><trkpt lat="42.38590379543962" lon="12.058465171027484"><ele>246.33333333333331</ele><time>2026-04-24T12:47:46Z</time></trkpt><trkpt lat="42.38609059632992" lon="12.058578502206059"><ele>247.0</ele><time>2026-04-24T12:47:47Z</time></trkpt><trkpt lat="42.38629228389422" lon="12.05869254607047"><ele>247.0</ele><time>2026-04-24T12:47:48Z</time></trkpt><trkpt lat="42.38648769582048" lon="12.05880506352772"><ele>247.0</ele><time>2026-04-24T12:47:49Z</time></trkpt><trkpt lat="42.386680070484736" lon="12.058919704934114"><ele>247.0</ele><time>2026-04-24T12:47:50Z</time></trkpt><trkpt lat="42.386874051148105" lon="12.059029208592507"><ele>246.66666666666666</ele><time>2026-04-24T12:47:51Z</time></trkpt><trkpt lat="42.3870640405063" lon="12.059141041227178"><ele>246.33333333333331</ele><time>2026-04-24T12:47:52Z</time></trkpt><trkpt lat="42.38725524338846" lon="12.059260338377019"><ele>246.0</ele><time>2026-04-24T12:47:53Z</time></trkpt><trkpt lat="42.38744318126776" lon="12.059380329826176"><ele>246.0</ele><time>2026-04-24T12:47:54Z</time></trkpt><trkpt lat="42.38763256372693" lon="12.059489213297935"><ele>246.0</ele><time>2026-04-24T12:47:55Z</time></trkpt><trkpt lat="42.387818023008656" lon="12.059598326271635"><ele>246.0</ele><time>2026-04-24T12:47:56Z</time></trkpt><trkpt lat="42.38800954401931" lon="12.059710309551072"><ele>245.66666666666669</ele><time>2026-04-24T12:47:57Z</time></trkpt><trkpt lat="42.38820085003606" lon="12.05982284821127"><ele>245.33333333333334</ele><time>2026-04-24T12:47:58Z</time></trkpt><trkpt lat="42.38838321046695" lon="12.059941657264165"><ele>245.0</ele><time>2026-04-24T12:47:59Z</time></trkpt><trkpt lat="42.38856349345077" lon="12.06005006161223"><ele>244.66666666666669</ele><time>2026-04-24T12:48:00Z</time></trkpt><trkpt lat="42.38873216805785" lon="12.060152620876703"><ele>244.33333333333331</ele><time>2026-04-24T12:48:01Z</time></trkpt><trkpt lat="42.388912783647086" lon="12.060265726142157"><ele>244.0</ele><time>2026-04-24T12:48:02Z</time></trkpt><trkpt lat="42.389100863334626" lon="12.060375169205665"><ele>243.66666666666666</ele><time>2026-04-24T12:48:03Z</time></trkpt><trkpt lat="42.38929456232183" lon="12.06049831535865"><ele>243.33333333333331</ele><time>2026-04-24T12:48:04Z</time></trkpt><trkpt lat="42.389477201174685" lon="12.060612172575336"><ele>243.0</ele><time>2026-04-24T12:48:05Z</time></trkpt><trkpt lat="42.3896624532351" lon="12.060721246752548"><ele>243.0</ele><time>2026-04-24T12:48:06Z</time></trkpt><trkpt lat="42.3898472604224" lon="12.060832886482874"><ele>243.0</ele><time>2026-04-24T12:48:07Z</time></trkpt><trkpt lat="42.39003249461712" lon="12.060941246904678"><ele>243.0</ele><time>2026-04-24T12:48:08Z</time></trkpt><trkpt lat="42.3902138595754" lon="12.061058172746348"><ele>243.0</ele><time>2026-04-24T12:48:09Z</time></trkpt><trkpt lat="42.390394854947615" lon="12.061164311095565"><ele>243.0</ele><time>2026-04-24T12:48:10Z</time></trkpt><trkpt lat="42.39058099270021" lon="12.061281525360208"><ele>243.0</ele><time>2026-04-24T12:48:11Z</time></trkpt><trkpt lat="42.390764842138815" lon="12.061393355771095"><ele>243.0</ele><time>2026-04-24T12:48:12Z</time></trkpt><trkpt lat="42.39095589390657" lon="12.061507463378126"><ele>243.0</ele><time>2026-04-24T12:48:13Z</time></trkpt><trkpt lat="42.39113546890852" lon="12.061618962541576"><ele>243.0</ele><time>2026-04-24T12:48:14Z</time></trkpt><trkpt lat="42.39131959109591" lon="12.061726760133404"><ele>244.0</ele><time>2026-04-24T12:48:15Z</time></trkpt><trkpt lat="42.391489164244874" lon="12.061832634210042"><ele>245.0</ele><time>2026-04-24T12:48:16Z</time></trkpt><trkpt lat="42.39165828562179" lon="12.061929968205872"><ele>246.0</ele><time>2026-04-24T12:48:17Z</time></trkpt><trkpt lat="42.39182950235906" lon="12.062033321798847"><ele>246.0</ele><time>2026-04-24T12:48:18Z</time></trkpt><trkpt lat="42.3919926977076" lon="12.062133580828787"><ele>246.0</ele><time>2026-04-24T12:48:19Z</time></trkpt><trkpt lat="42.39216248030978" lon="12.062243592385274"><ele>246.0</ele><time>2026-04-24T12:48:20Z</time></trkpt><trkpt lat="42.39232975570948" lon="12.062342962307762"><ele>246.66666666666669</ele><time>2026-04-24T12:48:21Z</time></trkpt><trkpt lat="42.39249728999269" lon="12.062445814290706"><ele>247.33333333333334</ele><time>2026-04-24T12:48:22Z</time></trkpt><trkpt lat="42.39266493462953" lon="12.062545608899836"><ele>248.0</ele><time>2026-04-24T12:48:23Z</time></trkpt><trkpt lat="42.39283182979534" lon="12.062645434331484"><ele>248.33333333333334</ele><time>2026-04-24T12:48:24Z</time></trkpt><trkpt lat="42.39300498906258" lon="12.06275250951706"><ele>248.66666666666669</ele><time>2026-04-24T12:48:25Z</time></trkpt><trkpt lat="42.39317363186542" lon="12.062855982273415"><ele>249.0</ele><time>2026-04-24T12:48:26Z</time></trkpt><trkpt lat="42.393349881393874" lon="12.062965955520239"><ele>249.0</ele><time>2026-04-24T12:48:27Z</time></trkpt><trkpt lat="42.39353760579067" lon="12.063075381506973"><ele>249.0</ele><time>2026-04-24T12:48:28Z</time></trkpt><trkpt lat="42.39372426521276" lon="12.063184631986044"><ele>249.0</ele><time>2026-04-24T12:48:29Z</time></trkpt><trkpt lat="42.39391099639983" lon="12.063292758995619"><ele>250.66666666666669</ele><time>2026-04-24T12:48:30Z</time></trkpt><trkpt lat="42.39408954898037" lon="12.063396592569813"><ele>252.33333333333334</ele><time>2026-04-24T12:48:31Z</time></trkpt><trkpt lat="42.39427303022861" lon="12.063502592127506"><ele>254.0</ele><time>2026-04-24T12:48:32Z</time></trkpt><trkpt lat="42.39445426157425" lon="12.063606605076034"><ele>254.0</ele><time>2026-04-24T12:48:33Z</time></trkpt><trkpt lat="42.394636305080176" lon="12.063706582625166"><ele>254.0</ele><time>2026-04-24T12:48:34Z</time></trkpt><trkpt lat="42.39481768594" lon="12.063801698029101"><ele>254.0</ele><time>2026-04-24T12:48:35Z</time></trkpt><trkpt lat="42.39500106764932" lon="12.063900258470138"><ele>253.66666666666669</ele><time>2026-04-24T12:48:36Z</time></trkpt><trkpt lat="42.39518326330171" lon="12.064002174673325"><ele>253.33333333333331</ele><time>2026-04-24T12:48:37Z</time></trkpt><trkpt lat="42.39535904774609" lon="12.064097414058473"><ele>253.0</ele><time>2026-04-24T12:48:38Z</time></trkpt><trkpt lat="42.39554217768192" lon="12.064196462702288"><ele>253.66666666666666</ele><time>2026-04-24T12:48:39Z</time></trkpt><trkpt lat="42.395738393067894" lon="12.06429112976923"><ele>254.33333333333331</ele><time>2026-04-24T12:48:40Z</time></trkpt><trkpt lat="42.39592584943949" lon="12.06437909871866"><ele>255.0</ele><time>2026-04-24T12:48:41Z</time></trkpt><trkpt lat="42.396111015478965" lon="12.064469694404227"><ele>255.0</ele><time>2026-04-24T12:48:42Z</time></trkpt><trkpt lat="42.396282918612926" lon="12.06456004691627"><ele>255.0</ele><time>2026-04-24T12:48:43Z</time></trkpt><trkpt lat="42.39646313919673" lon="12.06464769152479"><ele>255.0</ele><time>2026-04-24T12:48:44Z</time></trkpt><trkpt lat="42.39663791728253" lon="12.064732741680267"><ele>253.33333333333331</ele><time>2026-04-24T12:48:45Z</time></trkpt><trkpt lat="42.39682099612126" lon="12.064822543733818"><ele>251.66666666666666</ele><time>2026-04-24T12:48:46Z</time></trkpt><trkpt lat="42.397009511876036" lon="12.06491877491864"><ele>250.0</ele><time>2026-04-24T12:48:47Z</time></trkpt><trkpt lat="42.39719445201771" lon="12.065016570822403"><ele>249.33333333333331</ele><time>2026-04-24T12:48:48Z</time></trkpt><trkpt lat="42.39738017491328" lon="12.065103476069062"><ele>248.66666666666669</ele><time>2026-04-24T12:48:49Z</time></trkpt><trkpt lat="42.39756546548775" lon="12.06519472657127"><ele>248.0</ele><time>2026-04-24T12:48:50Z</time></trkpt><trkpt lat="42.39776148129763" lon="12.06529144773061"><ele>248.0</ele><time>2026-04-24T12:48:51Z</time></trkpt><trkpt lat="42.397969235693814" lon="12.06539258356242"><ele>248.0</ele><time>2026-04-24T12:48:52Z</time></trkpt><trkpt lat="42.398186488370726" lon="12.065494235144833"><ele>247.5</ele><time>2026-04-24T12:48:53Z</time></trkpt><trkpt lat="42.39840222988984" lon="12.065608853235833"><ele>247.0</ele><time>2026-04-24T12:48:54Z</time></trkpt><trkpt lat="42.39861733200283" lon="12.06571771907969"><ele>247.33333333333331</ele><time>2026-04-24T12:48:55Z</time></trkpt><trkpt lat="42.398826790537775" lon="12.065819636215075"><ele>247.66666666666669</ele><time>2026-04-24T12:48:56Z</time></trkpt><trkpt lat="42.399038088448656" lon="12.065918699155477"><ele>248.0</ele><time>2026-04-24T12:48:57Z</time></trkpt><trkpt lat="42.39926270048191" lon="12.066035313816206"><ele>248.0</ele><time>2026-04-24T12:48:58Z</time></trkpt><trkpt lat="42.39947759497412" lon="12.066143482071304"><ele>248.0</ele><time>2026-04-24T12:48:59Z</time></trkpt><trkpt lat="42.39966696768163" lon="12.066240042996231"><ele>248.0</ele><time>2026-04-24T12:49:00Z</time></trkpt><trkpt lat="42.39985397197438" lon="12.066333363256712"><ele>248.66666666666669</ele><time>2026-04-24T12:49:01Z</time></trkpt><trkpt lat="42.400048197641254" lon="12.066425852408026"><ele>249.33333333333331</ele><time>2026-04-24T12:49:02Z</time></trkpt><trkpt lat="42.40023137569166" lon="12.06652915653321"><ele>250.0</ele><time>2026-04-24T12:49:03Z</time></trkpt><trkpt lat="42.400415270687034" lon="12.06663064682824"><ele>253.66666666666666</ele><time>2026-04-24T12:49:04Z</time></trkpt><trkpt lat="42.400603643370054" lon="12.066731928568974"><ele>257.3333333333333</ele><time>2026-04-24T12:49:05Z</time></trkpt><trkpt lat="42.40080010045496" lon="12.066831869893932"><ele>261.0</ele><time>2026-04-24T12:49:06Z</time></trkpt><trkpt lat="42.40099234367779" lon="12.066924644363223"><ele>261.0</ele><time>2026-04-24T12:49:07Z</time></trkpt><trkpt lat="42.40118287765297" lon="12.067019077990526"><ele>261.0</ele><time>2026-04-24T12:49:08Z</time></trkpt><trkpt lat="42.40137366559193" lon="12.067116881121166"><ele>261.0</ele><time>2026-04-24T12:49:09Z</time></trkpt><trkpt lat="42.40156602974902" lon="12.06721871214998"><ele>262.0</ele><time>2026-04-24T12:49:10Z</time></trkpt><trkpt lat="42.401750572382426" lon="12.067309399240344"><ele>263.0</ele><time>2026-04-24T12:49:11Z</time></trkpt><trkpt lat="42.40194055607194" lon="12.06740970862774"><ele>264.0</ele><time>2026-04-24T12:49:12Z</time></trkpt><trkpt lat="42.40212496570222" lon="12.067511560487889"><ele>265.0</ele><time>2026-04-24T12:49:13Z</time></trkpt><trkpt lat="42.40231413233731" lon="12.067613776865294"><ele>266.0</ele><time>2026-04-24T12:49:14Z</time></trkpt><trkpt lat="42.4024962763029" lon="12.067709122454394"><ele>267.0</ele><time>2026-04-24T12:49:15Z</time></trkpt><trkpt lat="42.40269108966058" lon="12.067797432928671"><ele>267.0</ele><time>2026-04-24T12:49:16Z</time></trkpt><trkpt lat="42.40288503848134" lon="12.067903218538728"><ele>267.0</ele><time>2026-04-24T12:49:17Z</time></trkpt><trkpt lat="42.40308323580996" lon="12.067996525578787"><ele>267.0</ele><time>2026-04-24T12:49:18Z</time></trkpt><trkpt lat="42.40325505736576" lon="12.068091211113275"><ele>266.6666666666667</ele><time>2026-04-24T12:49:19Z</time></trkpt><trkpt lat="42.40342359519985" lon="12.06818909203625"><ele>266.33333333333337</ele><time>2026-04-24T12:49:20Z</time></trkpt><trkpt lat="42.40357772201169" lon="12.068272451593451"><ele>266.0</ele><time>2026-04-24T12:49:21Z</time></trkpt><trkpt lat="42.40372554388201" lon="12.068371449536794"><ele>259.6666666666667</ele><time>2026-04-24T12:49:22Z</time></trkpt><trkpt lat="42.4038744537116" lon="12.068468767963434"><ele>253.33333333333331</ele><time>2026-04-24T12:49:23Z</time></trkpt><trkpt lat="42.40404399576341" lon="12.068564630849108"><ele>247.0</ele><time>2026-04-24T12:49:24Z</time></trkpt><trkpt lat="42.40421736078546" lon="12.06865602574355"><ele>247.0</ele><time>2026-04-24T12:49:25Z</time></trkpt><trkpt lat="42.404386066304475" lon="12.06876330902407"><ele>247.0</ele><time>2026-04-24T12:49:26Z</time></trkpt><trkpt lat="42.40455057939142" lon="12.068879805740808"><ele>247.0</ele><time>2026-04-24T12:49:27Z</time></trkpt><trkpt lat="42.40471668592542" lon="12.069001463795429"><ele>246.33333333333331</ele><time>2026-04-24T12:49:28Z</time></trkpt><trkpt lat="42.40488424546349" lon="12.069127902150921"><ele>245.66666666666669</ele><time>2026-04-24T12:49:29Z</time></trkpt><trkpt lat="42.40505241782191" lon="12.069256848544399"><ele>245.0</ele><time>2026-04-24T12:49:30Z</time></trkpt><trkpt lat="42.40521444811261" lon="12.069386507363916"><ele>245.0</ele><time>2026-04-24T12:49:31Z</time></trkpt><trkpt lat="42.40538125369056" lon="12.069513053358483"><ele>245.0</ele><time>2026-04-24T12:49:32Z</time></trkpt><trkpt lat="42.40553912039961" lon="12.069640693342544"><ele>245.0</ele><time>2026-04-24T12:49:33Z</time></trkpt><trkpt lat="42.405704112322795" lon="12.069767965872916"><ele>248.66666666666669</ele><time>2026-04-24T12:49:34Z</time></trkpt><trkpt lat="42.40586767513202" lon="12.069901112986464"><ele>252.33333333333331</ele><time>2026-04-24T12:49:35Z</time></trkpt><trkpt lat="42.40603914385489" lon="12.070038400877715"><ele>256.0</ele><time>2026-04-24T12:49:36Z</time></trkpt><trkpt lat="42.406209809799016" lon="12.070171706960533"><ele>259.3333333333333</ele><time>2026-04-24T12:49:37Z</time></trkpt><trkpt lat="42.40638287088185" lon="12.070306611433292"><ele>262.6666666666667</ele><time>2026-04-24T12:49:38Z</time></trkpt><trkpt lat="42.40655434450203" lon="12.070444729906647"><ele>266.0</ele><time>2026-04-24T12:49:39Z</time></trkpt><trkpt lat="42.40672242871682" lon="12.070584748094436"><ele>266.0</ele><time>2026-04-24T12:49:40Z</time></trkpt><trkpt lat="42.40689505801074" lon="12.070711692754747"><ele>266.0</ele><time>2026-04-24T12:49:41Z</time></trkpt><trkpt lat="42.407077294685514" lon="12.070846514980069"><ele>266.0</ele><time>2026-04-24T12:49:42Z</time></trkpt><trkpt lat="42.407263061443416" lon="12.070977670848666"><ele>265.0</ele><time>2026-04-24T12:49:43Z</time></trkpt><trkpt lat="42.40744732482117" lon="12.071109016593516"><ele>264.0</ele><time>2026-04-24T12:49:44Z</time></trkpt><trkpt lat="42.40763896028355" lon="12.071244298671422"><ele>263.0</ele><time>2026-04-24T12:49:45Z</time></trkpt><trkpt lat="42.40783326308364" lon="12.07139324330043"><ele>263.0</ele><time>2026-04-24T12:49:46Z</time></trkpt><trkpt lat="42.408039082779844" lon="12.071527208146298"><ele>263.0</ele><time>2026-04-24T12:49:47Z</time></trkpt><trkpt lat="42.4082269605144" lon="12.071663244703519"><ele>263.0</ele><time>2026-04-24T12:49:48Z</time></trkpt><trkpt lat="42.40841597665884" lon="12.071803799357253"><ele>263.6666666666667</ele><time>2026-04-24T12:49:49Z</time></trkpt><trkpt lat="42.40859392266791" lon="12.07194094194801"><ele>264.3333333333333</ele><time>2026-04-24T12:49:50Z</time></trkpt><trkpt lat="42.40876937287088" lon="12.072073953832104"><ele>265.0</ele><time>2026-04-24T12:49:51Z</time></trkpt><trkpt lat="42.408942693832635" lon="12.072199647344195"><ele>266.66666666666663</ele><time>2026-04-24T12:49:52Z</time></trkpt><trkpt lat="42.409121949839765" lon="12.07232468379485"><ele>268.3333333333333</ele><time>2026-04-24T12:49:53Z</time></trkpt><trkpt lat="42.4092979684356" lon="12.072451120833218"><ele>270.0</ele><time>2026-04-24T12:49:54Z</time></trkpt><trkpt lat="42.409480713799134" lon="12.072578131537272"><ele>270.0</ele><time>2026-04-24T12:49:55Z</time></trkpt><trkpt lat="42.409651928422804" lon="12.072703997479316"><ele>270.0</ele><time>2026-04-24T12:49:56Z</time></trkpt><trkpt lat="42.40982955700263" lon="12.072829731899775"><ele>270.0</ele><time>2026-04-24T12:49:57Z</time></trkpt><trkpt lat="42.410008544637655" lon="12.07295618922147"><ele>270.6666666666667</ele><time>2026-04-24T12:49:58Z</time></trkpt><trkpt lat="42.41019348188238" lon="12.073081690309321"><ele>271.33333333333337</ele><time>2026-04-24T12:49:59Z</time></trkpt><trkpt lat="42.410367165534105" lon="12.07320309681189"><ele>272.0</ele><time>2026-04-24T12:50:00Z</time></trkpt><trkpt lat="42.41054601021149" lon="12.073321125759783"><ele>273.0</ele><time>2026-04-24T12:50:01Z</time></trkpt><trkpt lat="42.41072551976967" lon="12.073444322841105"><ele>274.0</ele><time>2026-04-24T12:50:02Z</time></trkpt><trkpt lat="42.41090405030001" lon="12.073575882599782"><ele>275.0</ele><time>2026-04-24T12:50:03Z</time></trkpt><trkpt lat="42.41108644798869" lon="12.07370746448849"><ele>275.0</ele><time>2026-04-24T12:50:04Z</time></trkpt><trkpt lat="42.411259819456106" lon="12.073831603324916"><ele>275.0</ele><time>2026-04-24T12:50:05Z</time></trkpt><trkpt lat="42.41143851438688" lon="12.073955456134128"><ele>275.0</ele><time>2026-04-24T12:50:06Z</time></trkpt><trkpt lat="42.41160775275329" lon="12.07407570553065"><ele>274.6666666666667</ele><time>2026-04-24T12:50:07Z</time></trkpt><trkpt lat="42.41180173327653" lon="12.074208006517397"><ele>274.3333333333333</ele><time>2026-04-24T12:50:08Z</time></trkpt><trkpt lat="42.41199604479894" lon="12.074348533600979"><ele>274.0</ele><time>2026-04-24T12:50:09Z</time></trkpt><trkpt lat="42.412183475329506" lon="12.074472784669524"><ele>274.0</ele><time>2026-04-24T12:50:10Z</time></trkpt><trkpt lat="42.41236621536901" lon="12.074595565222614"><ele>274.0</ele><time>2026-04-24T12:50:11Z</time></trkpt><trkpt lat="42.41253938140146" lon="12.074719555922705"><ele>274.0</ele><time>2026-04-24T12:50:12Z</time></trkpt><trkpt lat="42.412706776096606" lon="12.074838587566852"><ele>274.0</ele><time>2026-04-24T12:50:13Z</time></trkpt><trkpt lat="42.41288463933448" lon="12.074963599529871"><ele>274.0</ele><time>2026-04-24T12:50:14Z</time></trkpt><trkpt lat="42.413069774446974" lon="12.075093048831373"><ele>274.0</ele><time>2026-04-24T12:50:15Z</time></trkpt><trkpt lat="42.413253659451314" lon="12.075216019287422"><ele>275.3333333333333</ele><time>2026-04-24T12:50:16Z</time></trkpt><trkpt lat="42.413416962035186" lon="12.075332941148345"><ele>276.6666666666667</ele><time>2026-04-24T12:50:17Z</time></trkpt><trkpt lat="42.41358933871096" lon="12.07545070256189"><ele>278.0</ele><time>2026-04-24T12:50:18Z</time></trkpt><trkpt lat="42.413761449544474" lon="12.075574177904178"><ele>279.33333333333337</ele><time>2026-04-24T12:50:19Z</time></trkpt><trkpt lat="42.413939922956615" lon="12.075693103166568"><ele>280.6666666666667</ele><time>2026-04-24T12:50:20Z</time></trkpt><trkpt lat="42.41411854874161" lon="12.075815246023456"><ele>282.0</ele><time>2026-04-24T12:50:21Z</time></trkpt><trkpt lat="42.414310638354415" lon="12.075935550453218"><ele>282.0</ele><time>2026-04-24T12:50:22Z</time></trkpt><trkpt lat="42.41449448845527" lon="12.076055392787676"><ele>282.0</ele><time>2026-04-24T12:50:23Z</time></trkpt><trkpt lat="42.41466526712498" lon="12.076185913920527"><ele>282.0</ele><time>2026-04-24T12:50:24Z</time></trkpt><trkpt lat="42.41483615239056" lon="12.076308290135739"><ele>282.3333333333333</ele><time>2026-04-24T12:50:25Z</time></trkpt><trkpt lat="42.415030812169874" lon="12.076421668674742"><ele>282.66666666666663</ele><time>2026-04-24T12:50:26Z</time></trkpt><trkpt lat="42.4152128234013" lon="12.076538281555855"><ele>283.0</ele><time>2026-04-24T12:50:27Z</time></trkpt><trkpt lat="42.41539578091389" lon="12.076634449886377"><ele>280.66666666666663</ele><time>2026-04-24T12:50:28Z</time></trkpt><trkpt lat="42.41556692621481" lon="12.076735365761689"><ele>278.3333333333333</ele><time>2026-04-24T12:50:29Z</time></trkpt><trkpt lat="42.41572485253811" lon="12.07682207632842"><ele>276.0</ele><time>2026-04-24T12:50:30Z</time></trkpt><trkpt lat="42.415888511137034" lon="12.076913282406927"><ele>276.0</ele><time>2026-04-24T12:50:31Z</time></trkpt><trkpt lat="42.41604723158186" lon="12.07699409294909"><ele>276.0</ele><time>2026-04-24T12:50:32Z</time></trkpt><trkpt lat="42.41622105116584" lon="12.07709736287854"><ele>276.0</ele><time>2026-04-24T12:50:33Z</time></trkpt><trkpt lat="42.41639216311575" lon="12.077181492091462"><ele>274.0</ele><time>2026-04-24T12:50:34Z</time></trkpt><trkpt lat="42.4165671704101" lon="12.077263702893976"><ele>272.0</ele><time>2026-04-24T12:50:35Z</time></trkpt><trkpt lat="42.41674390888229" lon="12.077345341024497"><ele>270.0</ele><time>2026-04-24T12:50:36Z</time></trkpt><trkpt lat="42.41690943884984" lon="12.07742683809772"><ele>270.3333333333333</ele><time>2026-04-24T12:50:37Z</time></trkpt><trkpt lat="42.41708274100468" lon="12.07750012203871"><ele>270.66666666666663</ele><time>2026-04-24T12:50:38Z</time></trkpt><trkpt lat="42.41725507246512" lon="12.077571120164917"><ele>271.0</ele><time>2026-04-24T12:50:39Z</time></trkpt><trkpt lat="42.4174278987014" lon="12.077645563875208"><ele>274.0</ele><time>2026-04-24T12:50:40Z</time></trkpt><trkpt lat="42.41759983243759" lon="12.077712047955757"><ele>277.0</ele><time>2026-04-24T12:50:41Z</time></trkpt><trkpt lat="42.41776614004246" lon="12.07778072605636"><ele>280.0</ele><time>2026-04-24T12:50:42Z</time></trkpt><trkpt lat="42.417937729791696" lon="12.077846885791953"><ele>282.3333333333333</ele><time>2026-04-24T12:50:43Z</time></trkpt><trkpt lat="42.41811988094193" lon="12.077916978072205"><ele>284.6666666666667</ele><time>2026-04-24T12:50:44Z</time></trkpt><trkpt lat="42.41829748057977" lon="12.07798869006292"><ele>287.0</ele><time>2026-04-24T12:50:45Z</time></trkpt><trkpt lat="42.4184683735551" lon="12.078059541914865"><ele>287.0</ele><time>2026-04-24T12:50:46Z</time></trkpt><trkpt lat="42.41863959265851" lon="12.078127088849127"><ele>287.0</ele><time>2026-04-24T12:50:47Z</time></trkpt><trkpt lat="42.4188186997684" lon="12.078194708461861"><ele>287.0</ele><time>2026-04-24T12:50:48Z</time></trkpt><trkpt lat="42.41899084581267" lon="12.078259760988175"><ele>288.33333333333337</ele><time>2026-04-24T12:50:49Z</time></trkpt><trkpt lat="42.41915390404259" lon="12.078328605137322"><ele>289.6666666666667</ele><time>2026-04-24T12:50:50Z</time></trkpt><trkpt lat="42.41933307380745" lon="12.078416167824967"><ele>291.0</ele><time>2026-04-24T12:50:51Z</time></trkpt><trkpt lat="42.4194970072624" lon="12.078479470813873"><ele>291.0</ele><time>2026-04-24T12:50:52Z</time></trkpt><trkpt lat="42.41964464453368" lon="12.078540743433852"><ele>291.0</ele><time>2026-04-24T12:50:53Z</time></trkpt><trkpt lat="42.419789462556984" lon="12.078590296876607"><ele>291.0</ele><time>2026-04-24T12:50:54Z</time></trkpt><trkpt lat="42.41994433880241" lon="12.078646186867767"><ele>291.6666666666667</ele><time>2026-04-24T12:50:55Z</time></trkpt><trkpt lat="42.42008939000668" lon="12.078700391726878"><ele>292.33333333333337</ele><time>2026-04-24T12:50:56Z</time></trkpt><trkpt lat="42.42024326845545" lon="12.078756605400082"><ele>293.0</ele><time>2026-04-24T12:50:57Z</time></trkpt><trkpt lat="42.420392592302825" lon="12.0788160504982"><ele>292.75</ele><time>2026-04-24T12:50:58Z</time></trkpt><trkpt lat="42.42054060627003" lon="12.078876297330112"><ele>292.5</ele><time>2026-04-24T12:50:59Z</time></trkpt><trkpt lat="42.42068064317277" lon="12.078928826377505"><ele>292.25</ele><time>2026-04-24T12:51:00Z</time></trkpt><trkpt lat="42.420823765212916" lon="12.078980283910902"><ele>292.0</ele><time>2026-04-24T12:51:01Z</time></trkpt><trkpt lat="42.42094947644439" lon="12.079038987219203"><ele>292.0</ele><time>2026-04-24T12:51:02Z</time></trkpt><trkpt lat="42.421083188412034" lon="12.079089901882476"><ele>292.0</ele><time>2026-04-24T12:51:03Z</time></trkpt><trkpt lat="42.42122545034007" lon="12.079143713412087"><ele>292.0</ele><time>2026-04-24T12:51:04Z</time></trkpt><trkpt lat="42.42136360011448" lon="12.079202286126202"><ele>292.0</ele><time>2026-04-24T12:51:05Z</time></trkpt><trkpt lat="42.421516144256195" lon="12.079255819063857"><ele>293.25</ele><time>2026-04-24T12:51:06Z</time></trkpt><trkpt lat="42.42164795309434" lon="12.079310413565759"><ele>294.5</ele><time>2026-04-24T12:51:07Z</time></trkpt><trkpt lat="42.42178999082111" lon="12.079371180131691"><ele>295.75</ele><time>2026-04-24T12:51:08Z</time></trkpt><trkpt lat="42.42193785178893" lon="12.079427137389645"><ele>297.0</ele><time>2026-04-24T12:51:09Z</time></trkpt><trkpt lat="42.42208156077802" lon="12.07948530050568"><ele>296.75</ele><time>2026-04-24T12:51:10Z</time></trkpt><trkpt lat="42.422225316065024" lon="12.079536078757917"><ele>296.5</ele><time>2026-04-24T12:51:11Z</time></trkpt><trkpt lat="42.42236109062909" lon="12.079589763409192"><ele>296.25</ele><time>2026-04-24T12:51:12Z</time></trkpt><trkpt lat="42.42249464430209" lon="12.079646701628166"><ele>296.0</ele><time>2026-04-24T12:51:13Z</time></trkpt><trkpt lat="42.42263927171009" lon="12.079705255412117"><ele>296.0</ele><time>2026-04-24T12:51:14Z</time></trkpt><trkpt lat="42.42278741436225" lon="12.079752401473389"><ele>296.0</ele><time>2026-04-24T12:51:15Z</time></trkpt><trkpt lat="42.4229284655701" lon="12.079813346373086"><ele>296.0</ele><time>2026-04-24T12:51:16Z</time></trkpt><trkpt lat="42.42307174917632" lon="12.079876442756381"><ele>297.0</ele><time>2026-04-24T12:51:17Z</time></trkpt><trkpt lat="42.42320846711109" lon="12.079933674793306"><ele>298.0</ele><time>2026-04-24T12:51:18Z</time></trkpt><trkpt lat="42.423342076390114" lon="12.079987414215688"><ele>299.0</ele><time>2026-04-24T12:51:19Z</time></trkpt><trkpt lat="42.423468818452584" lon="12.080041554415782"><ele>300.0</ele><time>2026-04-24T12:51:20Z</time></trkpt><trkpt lat="42.42360149075726" lon="12.080103048410047"><ele>300.0</ele><time>2026-04-24T12:51:21Z</time></trkpt><trkpt lat="42.423752827257616" lon="12.080155096108125"><ele>300.0</ele><time>2026-04-24T12:51:22Z</time></trkpt><trkpt lat="42.42390853802675" lon="12.080212037582543"><ele>300.0</ele><time>2026-04-24T12:51:23Z</time></trkpt><trkpt lat="42.42402890985362" lon="12.080265614572609"><ele>300.0</ele><time>2026-04-24T12:51:24Z</time></trkpt><trkpt lat="42.42417428126333" lon="12.080312088193834"><ele>300.0</ele><time>2026-04-24T12:51:25Z</time></trkpt><trkpt lat="42.42432290362628" lon="12.080371821472722"><ele>300.0</ele><time>2026-04-24T12:51:26Z</time></trkpt><trkpt lat="42.4244601875849" lon="12.080442520344029"><ele>300.0</ele><time>2026-04-24T12:51:27Z</time></trkpt><trkpt lat="42.42460527558988" lon="12.080496324989046"><ele>300.25</ele><time>2026-04-24T12:51:28Z</time></trkpt><trkpt lat="42.42474670161635" lon="12.080542831710613"><ele>300.5</ele><time>2026-04-24T12:51:29Z</time></trkpt><trkpt lat="42.42488634587508" lon="12.080607681187333"><ele>300.75</ele><time>2026-04-24T12:51:30Z</time></trkpt><trkpt lat="42.42502996554404" lon="12.08065773442443"><ele>301.0</ele><time>2026-04-24T12:51:31Z</time></trkpt><trkpt lat="42.425179933584154" lon="12.080711783969093"><ele>301.0</ele><time>2026-04-24T12:51:32Z</time></trkpt><trkpt lat="42.42531288545241" lon="12.080764709625168"><ele>301.0</ele><time>2026-04-24T12:51:33Z</time></trkpt><trkpt lat="42.425463124154646" lon="12.080828151698892"><ele>301.0</ele><time>2026-04-24T12:51:34Z</time></trkpt><trkpt lat="42.42560330852084" lon="12.080884145274629"><ele>301.0</ele><time>2026-04-24T12:51:35Z</time></trkpt><trkpt lat="42.42573631135956" lon="12.080930767435138"><ele>301.75</ele><time>2026-04-24T12:51:36Z</time></trkpt><trkpt lat="42.42587893242316" lon="12.080986105825058"><ele>302.5</ele><time>2026-04-24T12:51:37Z</time></trkpt><trkpt lat="42.426020534089204" lon="12.081043130859841"><ele>303.25</ele><time>2026-04-24T12:51:38Z</time></trkpt><trkpt lat="42.42615983835441" lon="12.081099177985534"><ele>304.0</ele><time>2026-04-24T12:51:39Z</time></trkpt><trkpt lat="42.42629066563734" lon="12.081155004028439"><ele>304.25</ele><time>2026-04-24T12:51:40Z</time></trkpt><trkpt lat="42.42642161298493" lon="12.08121020250083"><ele>304.5</ele><time>2026-04-24T12:51:41Z</time></trkpt><trkpt lat="42.42654739782679" lon="12.08127541770532"><ele>304.75</ele><time>2026-04-24T12:51:42Z</time></trkpt><trkpt lat="42.42668178506416" lon="12.081336133680436"><ele>305.0</ele><time>2026-04-24T12:51:43Z</time></trkpt><trkpt lat="42.42681444006459" lon="12.08140229817781"><ele>305.0</ele><time>2026-04-24T12:51:44Z</time></trkpt><trkpt lat="42.4269577072699" lon="12.08146331406998"><ele>305.0</ele><time>2026-04-24T12:51:45Z</time></trkpt><trkpt lat="42.427115200078994" lon="12.081536316234333"><ele>305.0</ele><time>2026-04-24T12:51:46Z</time></trkpt><trkpt lat="42.427260414150055" lon="12.081610964016788"><ele>305.75</ele><time>2026-04-24T12:51:47Z</time></trkpt><trkpt lat="42.42739406058624" lon="12.081685018050141"><ele>306.5</ele><time>2026-04-24T12:51:48Z</time></trkpt><trkpt lat="42.42753119980114" lon="12.081773705928898"><ele>307.25</ele><time>2026-04-24T12:51:49Z</time></trkpt><trkpt lat="42.427656063329394" lon="12.081860053220993"><ele>308.0</ele><time>2026-04-24T12:51:50Z</time></trkpt><trkpt lat="42.427778776605216" lon="12.081931782001515"><ele>308.0</ele><time>2026-04-24T12:51:51Z</time></trkpt><trkpt lat="42.42791192761927" lon="12.08200836700485"><ele>308.0</ele><time>2026-04-24T12:51:52Z</time></trkpt><trkpt lat="42.42801201975379" lon="12.082095153034583"><ele>308.0</ele><time>2026-04-24T12:51:53Z</time></trkpt><trkpt lat="42.428163215233816" lon="12.082153392173138"><ele>308.0</ele><time>2026-04-24T12:51:54Z</time></trkpt><trkpt lat="42.42828223428305" lon="12.082223749038892"><ele>308.0</ele><time>2026-04-24T12:51:55Z</time></trkpt><trkpt lat="42.42839688063414" lon="12.08229777711787"><ele>308.0</ele><time>2026-04-24T12:51:56Z</time></trkpt><trkpt lat="42.428500632809346" lon="12.082369206313766"><ele>308.0</ele><time>2026-04-24T12:51:57Z</time></trkpt><trkpt lat="42.42859931214936" lon="12.082434120687479"><ele>308.0</ele><time>2026-04-24T12:51:58Z</time></trkpt><trkpt lat="42.42868919806206" lon="12.082501456844984"><ele>308.33333333333337</ele><time>2026-04-24T12:51:59Z</time></trkpt><trkpt lat="42.42877098053115" lon="12.082566578462444"><ele>308.6666666666667</ele><time>2026-04-24T12:52:00Z</time></trkpt><trkpt lat="42.42883717189538" lon="12.082624198657733"><ele>309.0</ele><time>2026-04-24T12:52:01Z</time></trkpt><trkpt lat="42.42891147699199" lon="12.0826876764864"><ele>309.3333333333333</ele><time>2026-04-24T12:52:02Z</time></trkpt><trkpt lat="42.428985513782514" lon="12.082738518610302"><ele>309.66666666666663</ele><time>2026-04-24T12:52:03Z</time></trkpt><trkpt lat="42.42902531878482" lon="12.082841754543427"><ele>310.0</ele><time>2026-04-24T12:52:04Z</time></trkpt><trkpt lat="42.429071728365756" lon="12.082934655193004"><ele>310.5</ele><time>2026-04-24T12:52:05Z</time></trkpt><trkpt lat="42.42908262567154" lon="12.083028036650877"><ele>311.0</ele><time>2026-04-24T12:52:06Z</time></trkpt><trkpt lat="42.42910583861134" lon="12.083123012855188"><ele>311.5</ele><time>2026-04-24T12:52:07Z</time></trkpt><trkpt lat="42.42909513858834" lon="12.083239279935123"><ele>312.0</ele><time>2026-04-24T12:52:08Z</time></trkpt><trkpt lat="42.429089004769125" lon="12.083351096803797"><ele>312.5</ele><time>2026-04-24T12:52:09Z</time></trkpt><trkpt lat="42.429069228885886" lon="12.083445967173684"><ele>313.0</ele><time>2026-04-24T12:52:10Z</time></trkpt><trkpt lat="42.42906154351333" lon="12.083534790501165"><ele>313.0</ele><time>2026-04-24T12:52:11Z</time></trkpt><trkpt lat="42.42906424510429" lon="12.083629176406657"><ele>313.0</ele><time>2026-04-24T12:52:12Z</time></trkpt><trkpt lat="42.42907006466287" lon="12.083738992281358"><ele>313.0</ele><time>2026-04-24T12:52:13Z</time></trkpt><trkpt lat="42.42907839623432" lon="12.083840207904974"><ele>313.0</ele><time>2026-04-24T12:52:14Z</time></trkpt><trkpt lat="42.42909560016421" lon="12.083948125541017"><ele>313.0</ele><time>2026-04-24T12:52:15Z</time></trkpt><trkpt lat="42.42911617331211" lon="12.084063169292886"><ele>313.0</ele><time>2026-04-24T12:52:16Z</time></trkpt><trkpt lat="42.42914055901825" lon="12.084198288993951"><ele>312.66666666666663</ele><time>2026-04-24T12:52:17Z</time></trkpt><trkpt lat="42.42916093355853" lon="12.084309797278193"><ele>312.3333333333333</ele><time>2026-04-24T12:52:18Z</time></trkpt><trkpt lat="42.42918024033986" lon="12.084397954693085"><ele>312.0</ele><time>2026-04-24T12:52:19Z</time></trkpt><trkpt lat="42.429221335489345" lon="12.084557788178584"><ele>311.6666666666667</ele><time>2026-04-24T12:52:21Z</time></trkpt><trkpt lat="42.42924189085727" lon="12.084665731555203"><ele>311.33333333333337</ele><time>2026-04-24T12:52:22Z</time></trkpt><trkpt lat="42.42928275988472" lon="12.084761627427694"><ele>311.0</ele><time>2026-04-24T12:52:23Z</time></trkpt><trkpt lat="42.42933881681516" lon="12.084885689381903"><ele>311.0</ele><time>2026-04-24T12:52:25Z</time></trkpt><trkpt lat="42.42939129685916" lon="12.084976079549477"><ele>311.0</ele><time>2026-04-24T12:52:28Z</time></trkpt><trkpt lat="42.42941349416016" lon="12.085094681602408"><ele>311.0</ele><time>2026-04-24T12:52:30Z</time></trkpt><trkpt lat="42.429442169623364" lon="12.085179348027852"><ele>311.0</ele><time>2026-04-24T12:52:31Z</time></trkpt><trkpt lat="42.429489125685855" lon="12.08531515405527"><ele>311.0</ele><time>2026-04-24T12:52:32Z</time></trkpt><trkpt lat="42.42954465855634" lon="12.085474743653698"><ele>311.0</ele><time>2026-04-24T12:52:33Z</time></trkpt><trkpt lat="42.42960357345521" lon="12.08563726732302"><ele>311.0</ele><time>2026-04-24T12:52:34Z</time></trkpt><trkpt lat="42.429653406037005" lon="12.08578193335173"><ele>311.0</ele><time>2026-04-24T12:52:35Z</time></trkpt><trkpt lat="42.42968919168992" lon="12.085890281315283"><ele>311.0</ele><time>2026-04-24T12:52:36Z</time></trkpt><trkpt lat="42.42971667475528" lon="12.085987327887317"><ele>311.0</ele><time>2026-04-24T12:52:37Z</time></trkpt><trkpt lat="42.429734676057244" lon="12.086071285711485"><ele>312.2</ele><time>2026-04-24T12:52:38Z</time></trkpt><trkpt lat="42.42976259504501" lon="12.086206820950565"><ele>313.40000000000003</ele><time>2026-04-24T12:52:39Z</time></trkpt><trkpt lat="42.4297898678527" lon="12.086326382613114"><ele>314.6</ele><time>2026-04-24T12:52:40Z</time></trkpt><trkpt lat="42.42980642905531" lon="12.086471247178974"><ele>315.8</ele><time>2026-04-24T12:52:41Z</time></trkpt><trkpt lat="42.42982138582499" lon="12.086642727692496"><ele>317.0</ele><time>2026-04-24T12:52:42Z</time></trkpt><trkpt lat="42.42985188495918" lon="12.086855494125505"><ele>317.33333333333337</ele><time>2026-04-24T12:52:43Z</time></trkpt><trkpt lat="42.42988255701253" lon="12.087087626047829"><ele>317.6666666666667</ele><time>2026-04-24T12:52:44Z</time></trkpt><trkpt lat="42.429907230279824" lon="12.087318529240788"><ele>318.0</ele><time>2026-04-24T12:52:45Z</time></trkpt><trkpt lat="42.42991649034221" lon="12.087520634476425"><ele>318.3333333333333</ele><time>2026-04-24T12:52:46Z</time></trkpt><trkpt lat="42.42993774450548" lon="12.087719908400839"><ele>318.66666666666663</ele><time>2026-04-24T12:52:47Z</time></trkpt><trkpt lat="42.42997091405929" lon="12.087924663337759"><ele>319.0</ele><time>2026-04-24T12:52:48Z</time></trkpt><trkpt lat="42.42999378801705" lon="12.088134904890474"><ele>319.0</ele><time>2026-04-24T12:52:49Z</time></trkpt><trkpt lat="42.430028441076445" lon="12.088314458561696"><ele>319.0</ele><time>2026-04-24T12:52:50Z</time></trkpt><trkpt lat="42.430078701632766" lon="12.08849424640524"><ele>319.0</ele><time>2026-04-24T12:52:51Z</time></trkpt><trkpt lat="42.43012136637268" lon="12.088688015595599"><ele>319.0</ele><time>2026-04-24T12:52:52Z</time></trkpt><trkpt lat="42.43017632252232" lon="12.088902801859115"><ele>318.75</ele><time>2026-04-24T12:52:53Z</time></trkpt><trkpt lat="42.43020589938276" lon="12.089098986850946"><ele>318.5</ele><time>2026-04-24T12:52:54Z</time></trkpt><trkpt lat="42.43024631696688" lon="12.089285267505236"><ele>318.25</ele><time>2026-04-24T12:52:55Z</time></trkpt><trkpt lat="42.43030242554099" lon="12.089471997462736"><ele>318.0</ele><time>2026-04-24T12:52:56Z</time></trkpt><trkpt lat="42.43034453772212" lon="12.089651944125677"><ele>318.0</ele><time>2026-04-24T12:52:57Z</time></trkpt><trkpt lat="42.430394361319244" lon="12.089818701473575"><ele>318.0</ele><time>2026-04-24T12:52:58Z</time></trkpt><trkpt lat="42.43044966697856" lon="12.090001795685337"><ele>318.0</ele><time>2026-04-24T12:52:59Z</time></trkpt><trkpt lat="42.43049615519781" lon="12.09016287003809"><ele>318.0</ele><time>2026-04-24T12:53:00Z</time></trkpt><trkpt lat="42.43054735937391" lon="12.090337037203486"><ele>318.5</ele><time>2026-04-24T12:53:01Z</time></trkpt><trkpt lat="42.430587544606446" lon="12.090514091180161"><ele>319.0</ele><time>2026-04-24T12:53:02Z</time></trkpt><trkpt lat="42.43063142808148" lon="12.090679169655607"><ele>319.5</ele><time>2026-04-24T12:53:03Z</time></trkpt><trkpt lat="42.43066030756929" lon="12.090857817746198"><ele>320.0</ele><time>2026-04-24T12:53:04Z</time></trkpt><trkpt lat="42.43069286374579" lon="12.09099677367285"><ele>320.0</ele><time>2026-04-24T12:53:05Z</time></trkpt><trkpt lat="42.43069923698946" lon="12.091175788519521"><ele>320.0</ele><time>2026-04-24T12:53:06Z</time></trkpt><trkpt lat="42.430688178541" lon="12.091378989821918"><ele>320.0</ele><time>2026-04-24T12:53:07Z</time></trkpt><trkpt lat="42.43066385815786" lon="12.091533585030547"><ele>320.0</ele><time>2026-04-24T12:53:08Z</time></trkpt><trkpt lat="42.43063324772982" lon="12.091683312037878"><ele>319.75</ele><time>2026-04-24T12:53:09Z</time></trkpt><trkpt lat="42.430577803962336" lon="12.091845896344202"><ele>319.5</ele><time>2026-04-24T12:53:10Z</time></trkpt><trkpt lat="42.430513815196555" lon="12.092005318907399"><ele>319.25</ele><time>2026-04-24T12:53:11Z</time></trkpt><trkpt lat="42.43043897074169" lon="12.092159715215555"><ele>319.0</ele><time>2026-04-24T12:53:12Z</time></trkpt><trkpt lat="42.430352446476235" lon="12.09231753614723"><ele>318.5</ele><time>2026-04-24T12:53:13Z</time></trkpt><trkpt lat="42.43027443187437" lon="12.09245283823465"><ele>318.0</ele><time>2026-04-24T12:53:14Z</time></trkpt><trkpt lat="42.430199813360275" lon="12.092599807179177"><ele>317.5</ele><time>2026-04-24T12:53:15Z</time></trkpt><trkpt lat="42.43013924587481" lon="12.092738105655327"><ele>317.0</ele><time>2026-04-24T12:53:16Z</time></trkpt><trkpt lat="42.43006771979788" lon="12.092868336054181"><ele>317.0</ele><time>2026-04-24T12:53:17Z</time></trkpt><trkpt lat="42.43000252382712" lon="12.092989202859021"><ele>317.0</ele><time>2026-04-24T12:53:18Z</time></trkpt><trkpt lat="42.42993212732903" lon="12.09311127527985"><ele>317.0</ele><time>2026-04-24T12:53:19Z</time></trkpt><trkpt lat="42.42989841479066" lon="12.093247779202196"><ele>317.0</ele><time>2026-04-24T12:53:20Z</time></trkpt><trkpt lat="42.42986463610509" lon="12.093366020745089"><ele>317.0</ele><time>2026-04-24T12:53:21Z</time></trkpt><trkpt lat="42.42983278326022" lon="12.0934915256461"><ele>317.5</ele><time>2026-04-24T12:53:22Z</time></trkpt><trkpt lat="42.42972474240324" lon="12.093586852131866"><ele>318.0</ele><time>2026-04-24T12:53:23Z</time></trkpt><trkpt lat="42.42968089417963" lon="12.093706496487663"><ele>318.5</ele><time>2026-04-24T12:53:24Z</time></trkpt><trkpt lat="42.4296167698915" lon="12.093841635291312"><ele>319.0</ele><time>2026-04-24T12:53:25Z</time></trkpt><trkpt lat="42.42956962891487" lon="12.093976038737242"><ele>320.0</ele><time>2026-04-24T12:53:26Z</time></trkpt><trkpt lat="42.42952776798105" lon="12.094101164400353"><ele>321.0</ele><time>2026-04-24T12:53:27Z</time></trkpt><trkpt lat="42.42947142970235" lon="12.094243932844112"><ele>322.0</ele><time>2026-04-24T12:53:28Z</time></trkpt><trkpt lat="42.42941488601519" lon="12.09439689017883"><ele>323.0</ele><time>2026-04-24T12:53:29Z</time></trkpt><trkpt lat="42.42936555462112" lon="12.094542922270234"><ele>323.0</ele><time>2026-04-24T12:53:30Z</time></trkpt><trkpt lat="42.429319770706925" lon="12.094665046813073"><ele>323.0</ele><time>2026-04-24T12:53:31Z</time></trkpt><trkpt lat="42.42927488696992" lon="12.094793210420086"><ele>323.0</ele><time>2026-04-24T12:53:32Z</time></trkpt><trkpt lat="42.42923417292123" lon="12.094913080040474"><ele>323.0</ele><time>2026-04-24T12:53:33Z</time></trkpt><trkpt lat="42.429191758989546" lon="12.095023853189806"><ele>323.0</ele><time>2026-04-24T12:53:34Z</time></trkpt><trkpt lat="42.429143826785996" lon="12.095131026887504"><ele>323.0</ele><time>2026-04-24T12:53:35Z</time></trkpt><trkpt lat="42.42909765465227" lon="12.095227427278111"><ele>323.0</ele><time>2026-04-24T12:53:36Z</time></trkpt><trkpt lat="42.42905071849739" lon="12.09532213148768"><ele>323.0</ele><time>2026-04-24T12:53:37Z</time></trkpt><trkpt lat="42.42902639776777" lon="12.095427615305274"><ele>323.0</ele><time>2026-04-24T12:53:38Z</time></trkpt><trkpt lat="42.428972198071904" lon="12.095504444411175"><ele>323.0</ele><time>2026-04-24T12:53:39Z</time></trkpt><trkpt lat="42.42892683174449" lon="12.095624166777585"><ele>323.0</ele><time>2026-04-24T12:53:40Z</time></trkpt><trkpt lat="42.42888723249191" lon="12.095735179232987"><ele>323.0</ele><time>2026-04-24T12:53:41Z</time></trkpt><trkpt lat="42.42884648846682" lon="12.095825675106193"><ele>323.0</ele><time>2026-04-24T12:53:42Z</time></trkpt><trkpt lat="42.4287894851339" lon="12.095959287725202"><ele>323.0</ele><time>2026-04-24T12:53:43Z</time></trkpt><trkpt lat="42.428727792895586" lon="12.096108504745807"><ele>323.0</ele><time>2026-04-24T12:53:44Z</time></trkpt><trkpt lat="42.428668565300455" lon="12.096249295275701"><ele>323.0</ele><time>2026-04-24T12:53:45Z</time></trkpt><trkpt lat="42.42861863907237" lon="12.096383365974033"><ele>323.0</ele><time>2026-04-24T12:53:46Z</time></trkpt><trkpt lat="42.428565517028794" lon="12.096498702644931"><ele>323.0</ele><time>2026-04-24T12:53:47Z</time></trkpt><trkpt lat="42.428514060002705" lon="12.09662956908784"><ele>323.0</ele><time>2026-04-24T12:53:48Z</time></trkpt><trkpt lat="42.42846797250828" lon="12.096745955910807"><ele>323.0</ele><time>2026-04-24T12:53:49Z</time></trkpt><trkpt lat="42.42843230605708" lon="12.096847711063711"><ele>323.0</ele><time>2026-04-24T12:53:50Z</time></trkpt><trkpt lat="42.42840043089469" lon="12.096941417895952"><ele>322.5</ele><time>2026-04-24T12:53:51Z</time></trkpt><trkpt lat="42.42832085543451" lon="12.097049569668476"><ele>322.0</ele><time>2026-04-24T12:53:53Z</time></trkpt><trkpt lat="42.428395054473874" lon="12.09726311131522"><ele>321.5</ele><time>2026-04-24T12:53:55Z</time></trkpt><trkpt lat="42.42843718110935" lon="12.09732823017385"><ele>321.0</ele><time>2026-04-24T12:53:56Z</time></trkpt><trkpt lat="42.42853036638844" lon="12.097387482008713"><ele>321.0</ele><time>2026-04-24T12:53:58Z</time></trkpt><trkpt lat="42.4286414600368" lon="12.097360061429839"><ele>321.0</ele><time>2026-04-24T12:54:00Z</time></trkpt><trkpt lat="42.428733829594265" lon="12.097280337114194"><ele>321.0</ele><time>2026-04-24T12:54:02Z</time></trkpt><trkpt lat="42.42878836579329" lon="12.097232097880102"><ele>321.0</ele><time>2026-04-24T12:54:03Z</time></trkpt><trkpt lat="42.428846788151134" lon="12.097196758399216"><ele>321.0</ele><time>2026-04-24T12:54:04Z</time></trkpt><trkpt lat="42.428900827584236" lon="12.097148279855501"><ele>321.0</ele><time>2026-04-24T12:54:05Z</time></trkpt><trkpt lat="42.42898116737317" lon="12.097052738593934"><ele>321.4</ele><time>2026-04-24T12:54:07Z</time></trkpt><trkpt lat="42.429049318971764" lon="12.09697608432096"><ele>321.8</ele><time>2026-04-24T12:54:09Z</time></trkpt><trkpt lat="42.42915899594222" lon="12.096925013616257"><ele>322.2</ele><time>2026-04-24T12:54:11Z</time></trkpt><trkpt lat="42.42925321760788" lon="12.096869643998193"><ele>322.59999999999997</ele><time>2026-04-24T12:54:13Z</time></trkpt><trkpt lat="42.4293143939167" lon="12.096793977258596"><ele>323.0</ele><time>2026-04-24T12:54:15Z</time></trkpt><trkpt lat="42.429407343475575" lon="12.096751570706079"><ele>323.0</ele><time>2026-04-24T12:54:17Z</time></trkpt><trkpt lat="42.42947107820105" lon="12.096734779336181"><ele>323.0</ele><time>2026-04-24T12:54:18Z</time></trkpt><trkpt lat="42.42959367985924" lon="12.096682532478198"><ele>323.0</ele><time>2026-04-24T12:54:20Z</time></trkpt><trkpt lat="42.429693634071455" lon="12.09668585471273"><ele>323.0</ele><time>2026-04-24T12:54:21Z</time></trkpt><trkpt lat="42.42976936051158" lon="12.09665191696527"><ele>323.0</ele><time>2026-04-24T12:54:22Z</time></trkpt><trkpt lat="42.429835204353154" lon="12.096638115991194"><ele>323.0</ele><time>2026-04-24T12:54:23Z</time></trkpt><trkpt lat="42.42995306555572" lon="12.09660647457497"><ele>323.4</ele><time>2026-04-24T12:54:25Z</time></trkpt><trkpt lat="42.430086012337306" lon="12.096696031448493"><ele>323.79999999999995</ele><time>2026-04-24T12:54:27Z</time></trkpt><trkpt lat="42.43013881626511" lon="12.096783323303683"><ele>324.2</ele><time>2026-04-24T12:54:28Z</time></trkpt><trkpt lat="42.43020689137585" lon="12.096870041067769"><ele>324.6</ele><time>2026-04-24T12:54:29Z</time></trkpt><trkpt lat="42.43028277688766" lon="12.09697330781749"><ele>325.0</ele><time>2026-04-24T12:54:30Z</time></trkpt><trkpt lat="42.43035602361097" lon="12.097060659111827"><ele>325.0</ele><time>2026-04-24T12:54:31Z</time></trkpt><trkpt lat="42.43041475298685" lon="12.097142053758345"><ele>325.0</ele><time>2026-04-24T12:54:32Z</time></trkpt><trkpt lat="42.43047020664752" lon="12.097247607807113"><ele>325.0</ele><time>2026-04-24T12:54:33Z</time></trkpt><trkpt lat="42.430527198181274" lon="12.09734188885144"><ele>325.0</ele><time>2026-04-24T12:54:34Z</time></trkpt><trkpt lat="42.430576561026584" lon="12.097428898608689"><ele>325.0</ele><time>2026-04-24T12:54:35Z</time></trkpt><trkpt lat="42.430628170706825" lon="12.097522365612589"><ele>325.0</ele><time>2026-04-24T12:54:36Z</time></trkpt><trkpt lat="42.43066996249989" lon="12.097620568749175"><ele>324.8</ele><time>2026-04-24T12:54:37Z</time></trkpt><trkpt lat="42.43072054225166" lon="12.097706402653124"><ele>324.6</ele><time>2026-04-24T12:54:38Z</time></trkpt><trkpt lat="42.43076903166919" lon="12.097795446410817"><ele>324.4</ele><time>2026-04-24T12:54:39Z</time></trkpt><trkpt lat="42.43080603485559" lon="12.097924870832495"><ele>324.2</ele><time>2026-04-24T12:54:40Z</time></trkpt><trkpt lat="42.430847863714774" lon="12.098089589247904"><ele>324.0</ele><time>2026-04-24T12:54:41Z</time></trkpt><trkpt lat="42.43088927076693" lon="12.098258489434485"><ele>324.75</ele><time>2026-04-24T12:54:42Z</time></trkpt><trkpt lat="42.43093124409061" lon="12.09844548705526"><ele>325.5</ele><time>2026-04-24T12:54:43Z</time></trkpt><trkpt lat="42.430974062954036" lon="12.098631393006597"><ele>326.25</ele><time>2026-04-24T12:54:44Z</time></trkpt><trkpt lat="42.431013048556814" lon="12.098782314461138"><ele>327.0</ele><time>2026-04-24T12:54:45Z</time></trkpt><trkpt lat="42.431048986920864" lon="12.098935975933404"><ele>327.75</ele><time>2026-04-24T12:54:46Z</time></trkpt><trkpt lat="42.43108446159487" lon="12.099095270822426"><ele>328.5</ele><time>2026-04-24T12:54:47Z</time></trkpt><trkpt lat="42.431120873233496" lon="12.09925745527209"><ele>329.25</ele><time>2026-04-24T12:54:48Z</time></trkpt><trkpt lat="42.43115700872233" lon="12.09943719779733"><ele>330.0</ele><time>2026-04-24T12:54:49Z</time></trkpt><trkpt lat="42.43119864996155" lon="12.099646350644457"><ele>330.0</ele><time>2026-04-24T12:54:50.013Z</time></trkpt><trkpt lat="42.4312324778908" lon="12.099832639068797"><ele>330.0</ele><time>2026-04-24T12:54:51.02Z</time></trkpt><trkpt lat="42.43126873330739" lon="12.100018990460992"><ele>330.0</ele><time>2026-04-24T12:54:52.017Z</time></trkpt><trkpt lat="42.431276552682284" lon="12.100219370966006"><ele>330.0</ele><time>2026-04-24T12:54:53.018Z</time></trkpt><trkpt lat="42.43126281763728" lon="12.100507476494219"><ele>330.3333333333333</ele><time>2026-04-24T12:54:54Z</time></trkpt><trkpt lat="42.431274276740545" lon="12.100722358703047"><ele>330.66666666666663</ele><time>2026-04-24T12:54:55Z</time></trkpt><trkpt lat="42.4312879627291" lon="12.10098060899132"><ele>331.0</ele><time>2026-04-24T12:54:56Z</time></trkpt><trkpt lat="42.43129835000179" lon="12.10117661321556"><ele>331.25</ele><time>2026-04-24T12:54:57Z</time></trkpt><trkpt lat="42.43130636396591" lon="12.101305626448593"><ele>331.5</ele><time>2026-04-24T12:54:58Z</time></trkpt><trkpt lat="42.43132805736909" lon="12.101498003837664"><ele>331.75</ele><time>2026-04-24T12:54:59Z</time></trkpt><trkpt lat="42.43133906326917" lon="12.101671890059091"><ele>332.0</ele><time>2026-04-24T12:55:00Z</time></trkpt><trkpt lat="42.43137240949292" lon="12.10183519471041"><ele>332.0</ele><time>2026-04-24T12:55:01Z</time></trkpt><trkpt lat="42.43139636491849" lon="12.101982773343588"><ele>332.0</ele><time>2026-04-24T12:55:02Z</time></trkpt><trkpt lat="42.43142068218941" lon="12.102112199692087"><ele>332.0</ele><time>2026-04-24T12:55:03Z</time></trkpt><trkpt lat="42.43144926859909" lon="12.102244103807383"><ele>332.0</ele><time>2026-04-24T12:55:04Z</time></trkpt><trkpt lat="42.43147803110683" lon="12.10236476831129"><ele>332.0</ele><time>2026-04-24T12:55:05Z</time></trkpt><trkpt lat="42.43151004890682" lon="12.102513938467192"><ele>332.20000000000005</ele><time>2026-04-24T12:55:06Z</time></trkpt><trkpt lat="42.431547886653895" lon="12.102654422645614"><ele>332.4</ele><time>2026-04-24T12:55:07Z</time></trkpt><trkpt lat="42.4315832312398" lon="12.102785373422556"><ele>332.6</ele><time>2026-04-24T12:55:08Z</time></trkpt><trkpt lat="42.431618232667724" lon="12.102904658715277"><ele>332.79999999999995</ele><time>2026-04-24T12:55:09Z</time></trkpt><trkpt lat="42.431667881105795" lon="12.10306340281685"><ele>333.0</ele><time>2026-04-24T12:55:11Z</time></trkpt><trkpt lat="42.431694754021386" lon="12.103163146589008"><ele>333.0</ele><time>2026-04-24T12:55:12Z</time></trkpt><trkpt lat="42.43174479008641" lon="12.103226487070469"><ele>333.0</ele><time>2026-04-24T12:55:13Z</time></trkpt><trkpt lat="42.43179085177094" lon="12.103366611364292"><ele>333.0</ele><time>2026-04-24T12:55:15Z</time></trkpt><trkpt lat="42.43183655837322" lon="12.1034681505465"><ele>333.0</ele><time>2026-04-24T12:55:17Z</time></trkpt><trkpt lat="42.431885966859596" lon="12.10358609505052"><ele>333.0</ele><time>2026-04-24T12:55:19Z</time></trkpt><trkpt lat="42.43190809058417" lon="12.1036814538446"><ele>333.0</ele><time>2026-04-24T12:55:21Z</time></trkpt><trkpt lat="42.43191157470545" lon="12.103767786521345"><ele>333.1666666666667</ele><time>2026-04-24T12:55:23Z</time></trkpt><trkpt lat="42.43179437493744" lon="12.103893795488974"><ele>333.3333333333333</ele><time>2026-04-24T12:55:26Z</time></trkpt><trkpt lat="42.43174230045713" lon="12.103943565003746"><ele>333.5</ele><time>2026-04-24T12:55:27Z</time></trkpt><trkpt lat="42.43167299536976" lon="12.103953919440045"><ele>333.66666666666663</ele><time>2026-04-24T12:55:28Z</time></trkpt><trkpt lat="42.4316031741764" lon="12.103989056299016"><ele>333.8333333333333</ele><time>2026-04-24T12:55:29Z</time></trkpt><trkpt lat="42.43154016065907" lon="12.104031721725812"><ele>334.0</ele><time>2026-04-24T12:55:30Z</time></trkpt><trkpt lat="42.431444209137084" lon="12.104109945821573"><ele>334.3333333333333</ele><time>2026-04-24T12:55:32Z</time></trkpt><trkpt lat="42.43137130578536" lon="12.104198459871899"><ele>334.66666666666663</ele><time>2026-04-24T12:55:34Z</time></trkpt><trkpt lat="42.4313190289826" lon="12.104267116623998"><ele>335.0</ele><time>2026-04-24T12:55:35Z</time></trkpt><trkpt lat="42.431281147849404" lon="12.104345117201024"><ele>335.3333333333333</ele><time>2026-04-24T12:55:36Z</time></trkpt><trkpt lat="42.43123885115964" lon="12.104475745863107"><ele>335.6666666666667</ele><time>2026-04-24T12:55:38Z</time></trkpt><trkpt lat="42.43121851078062" lon="12.104557245184353"><ele>336.0</ele><time>2026-04-24T12:55:40Z</time></trkpt><trkpt lat="42.43121772768665" lon="12.10466878839275"><ele>336.0</ele><time>2026-04-24T12:55:43Z</time></trkpt><trkpt lat="42.43121250277829" lon="12.10476955862561"><ele>336.0</ele><time>2026-04-24T12:55:47Z</time></trkpt><trkpt lat="42.431253096270616" lon="12.104889428755342"><ele>336.0</ele><time>2026-04-24T12:56:04Z</time></trkpt><trkpt lat="42.431430944296594" lon="12.104855313290779"><ele>336.0</ele><time>2026-04-24T12:56:08Z</time></trkpt><trkpt lat="42.4315102845158" lon="12.10482258034729"><ele>336.0</ele><time>2026-04-24T12:56:09Z</time></trkpt><trkpt lat="42.431610842277145" lon="12.104784211269843"><ele>336.0</ele><time>2026-04-24T12:56:10Z</time></trkpt><trkpt lat="42.43173678839585" lon="12.104761463825072"><ele>336.0</ele><time>2026-04-24T12:56:11Z</time></trkpt><trkpt lat="42.43185265425639" lon="12.10472089709852"><ele>336.0</ele><time>2026-04-24T12:56:12Z</time></trkpt><trkpt lat="42.43195112372011" lon="12.10469050542386"><ele>336.0</ele><time>2026-04-24T12:56:13Z</time></trkpt><trkpt lat="42.43208412800552" lon="12.10462408474348"><ele>336.20000000000005</ele><time>2026-04-24T12:56:14Z</time></trkpt><trkpt lat="42.43219280493766" lon="12.104578826744254"><ele>336.40000000000003</ele><time>2026-04-24T12:56:15Z</time></trkpt><trkpt lat="42.43230074760917" lon="12.104539662537105"><ele>336.6</ele><time>2026-04-24T12:56:16Z</time></trkpt><trkpt lat="42.432381277589286" lon="12.10450698442935"><ele>336.8</ele><time>2026-04-24T12:56:17Z</time></trkpt><trkpt lat="42.43247294072429" lon="12.104465168985058"><ele>337.0</ele><time>2026-04-24T12:56:18Z</time></trkpt><trkpt lat="42.43256044440933" lon="12.1044221263499"><ele>337.0</ele><time>2026-04-24T12:56:19Z</time></trkpt><trkpt lat="42.43264725134994" lon="12.104381187849151"><ele>337.0</ele><time>2026-04-24T12:56:20Z</time></trkpt><trkpt lat="42.43273029885596" lon="12.104326518812892"><ele>337.0</ele><time>2026-04-24T12:56:21Z</time></trkpt><trkpt lat="42.43281347596743" lon="12.104289702813896"><ele>337.0</ele><time>2026-04-24T12:56:22Z</time></trkpt><trkpt lat="42.43290695894745" lon="12.104249998368681"><ele>337.0</ele><time>2026-04-24T12:56:23Z</time></trkpt><trkpt lat="42.432979912278995" lon="12.104204667788776"><ele>336.8333333333333</ele><time>2026-04-24T12:56:24Z</time></trkpt><trkpt lat="42.43305855553456" lon="12.104181767816144"><ele>336.66666666666663</ele><time>2026-04-24T12:56:25Z</time></trkpt><trkpt lat="42.433124858235075" lon="12.104151117738274"><ele>336.5</ele><time>2026-04-24T12:56:26Z</time></trkpt><trkpt lat="42.43319930995007" lon="12.104132290415635"><ele>336.3333333333333</ele><time>2026-04-24T12:56:27Z</time></trkpt><trkpt lat="42.433313729114545" lon="12.104082823229119"><ele>336.1666666666667</ele><time>2026-04-24T12:56:29Z</time></trkpt><trkpt lat="42.433401983755886" lon="12.10405273453151"><ele>336.0</ele><time>2026-04-24T12:56:31Z</time></trkpt><trkpt lat="42.433477776697366" lon="12.104054251945612"><ele>336.0</ele><time>2026-04-24T12:56:34Z</time></trkpt><trkpt lat="42.43354457594242" lon="12.10404368604171"><ele>336.0</ele><time>2026-04-24T12:56:44Z</time></trkpt><trkpt lat="42.43358951258249" lon="12.10398176427102"><ele>336.0</ele><time>2026-04-24T12:57:12Z</time></trkpt><trkpt lat="42.43370945012209" lon="12.10392835091453"><ele>336.0</ele><time>2026-04-24T12:57:14Z</time></trkpt><trkpt lat="42.43377931608774" lon="12.103903604336264"><ele>336.0</ele><time>2026-04-24T12:57:16Z</time></trkpt><trkpt lat="42.43384579460171" lon="12.103908329328837"><ele>336.0</ele><time>2026-04-24T12:57:18Z</time></trkpt><trkpt lat="42.43392719224879" lon="12.103901073292121"><ele>335.6</ele><time>2026-04-24T12:57:20Z</time></trkpt><trkpt lat="42.434000909835376" lon="12.103874499016746"><ele>335.20000000000005</ele><time>2026-04-24T12:57:21Z</time></trkpt><trkpt lat="42.43410089957064" lon="12.103854501874928"><ele>334.79999999999995</ele><time>2026-04-24T12:57:22Z</time></trkpt><trkpt lat="42.434237291373336" lon="12.103836222721075"><ele>334.4</ele><time>2026-04-24T12:57:23Z</time></trkpt><trkpt lat="42.43436705904294" lon="12.103820280605811"><ele>334.0</ele><time>2026-04-24T12:57:24Z</time></trkpt><trkpt lat="42.43449435769314" lon="12.103811106342443"><ele>334.0</ele><time>2026-04-24T12:57:25Z</time></trkpt><trkpt lat="42.43459087453414" lon="12.103800490862296"><ele>334.0</ele><time>2026-04-24T12:57:26Z</time></trkpt><trkpt lat="42.43469717129902" lon="12.10380431625494"><ele>334.0</ele><time>2026-04-24T12:57:27Z</time></trkpt><trkpt lat="42.43480803201839" lon="12.103811294118278"><ele>334.0</ele><time>2026-04-24T12:57:28Z</time></trkpt><trkpt lat="42.43491562376107" lon="12.103808816417656"><ele>334.0</ele><time>2026-04-24T12:57:29Z</time></trkpt><trkpt lat="42.435027186466215" lon="12.10382174005183"><ele>334.16666666666663</ele><time>2026-04-24T12:57:30Z</time></trkpt><trkpt lat="42.4351179816255" lon="12.103819303603062"><ele>334.3333333333333</ele><time>2026-04-24T12:57:31Z</time></trkpt><trkpt lat="42.4352082529986" lon="12.103831360018553"><ele>334.5</ele><time>2026-04-24T12:57:32Z</time></trkpt><trkpt lat="42.4352924544602" lon="12.103842448804166"><ele>334.6666666666667</ele><time>2026-04-24T12:57:33Z</time></trkpt><trkpt lat="42.43536977571761" lon="12.103844620866873"><ele>334.83333333333337</ele><time>2026-04-24T12:57:34Z</time></trkpt><trkpt lat="42.435452085067105" lon="12.10384851597471"><ele>335.0</ele><time>2026-04-24T12:57:35Z</time></trkpt><trkpt lat="42.43552772239929" lon="12.103849076319674"><ele>335.0</ele><time>2026-04-24T12:57:36Z</time></trkpt><trkpt lat="42.435608059722036" lon="12.103859464303447"><ele>335.0</ele><time>2026-04-24T12:57:37Z</time></trkpt><trkpt lat="42.43567170645874" lon="12.103877986976965"><ele>335.0</ele><time>2026-04-24T12:57:38Z</time></trkpt><trkpt lat="42.43577503082787" lon="12.10395008365073"><ele>335.0</ele><time>2026-04-24T12:57:40Z</time></trkpt><trkpt lat="42.435877576069664" lon="12.104044314906737"><ele>335.0</ele><time>2026-04-24T12:57:42Z</time></trkpt><trkpt lat="42.43593961041647" lon="12.104099364913623"><ele>335.1666666666667</ele><time>2026-04-24T12:57:43Z</time></trkpt><trkpt lat="42.435978224983415" lon="12.104204329001018"><ele>335.33333333333337</ele><time>2026-04-24T12:57:44Z</time></trkpt><trkpt lat="42.43605511299235" lon="12.104286536270212"><ele>335.5</ele><time>2026-04-24T12:57:45Z</time></trkpt><trkpt lat="42.43610951856292" lon="12.10435570813981"><ele>335.6666666666667</ele><time>2026-04-24T12:57:46Z</time></trkpt><trkpt lat="42.436176908161535" lon="12.104411979255929"><ele>335.8333333333333</ele><time>2026-04-24T12:57:47Z</time></trkpt><trkpt lat="42.436251403134015" lon="12.104437802244922"><ele>336.0</ele><time>2026-04-24T12:57:48Z</time></trkpt><trkpt lat="42.43631712212692" lon="12.104463547136449"><ele>336.20000000000005</ele><time>2026-04-24T12:57:51Z</time></trkpt><trkpt lat="42.436250468153304" lon="12.104466338187883"><ele>336.40000000000003</ele><time>2026-04-24T12:58:01Z</time></trkpt><trkpt lat="42.436193051220016" lon="12.104426155372796"><ele>336.6</ele><time>2026-04-24T12:58:12Z</time></trkpt><trkpt lat="42.43600140033006" lon="12.104432032175485"><ele>336.8</ele><time>2026-04-24T12:58:15Z</time></trkpt><trkpt lat="42.43593930323186" lon="12.104397727051534"><ele>337.0</ele><time>2026-04-24T12:58:16Z</time></trkpt><trkpt lat="42.43586807232341" lon="12.104358376024816"><ele>337.0</ele><time>2026-04-24T12:58:18Z</time></trkpt><trkpt lat="42.435823900628776" lon="12.104294250094808"><ele>337.0</ele><time>2026-04-24T12:58:20Z</time></trkpt><trkpt lat="42.436203862441644" lon="12.104019264887686"><ele>336.3333333333333</ele><time>2026-04-24T12:58:22Z</time></trkpt><trkpt lat="42.43622845990677" lon="12.103928569863228"><ele>335.6666666666667</ele><time>2026-04-24T12:58:24Z</time></trkpt><trkpt lat="42.435877315000326" lon="12.10404187972343"><ele>335.0</ele><time>2026-04-24T12:58:25Z</time></trkpt><trkpt lat="42.43629198755258" lon="12.103702261838954"><ele>335.0</ele><time>2026-04-24T12:58:28Z</time></trkpt><trkpt lat="42.436454501138535" lon="12.103662159542264"><ele>335.0</ele><time>2026-04-24T12:58:29Z</time></trkpt><trkpt lat="42.43660411969739" lon="12.10359341807311"><ele>335.0</ele><time>2026-04-24T12:58:30Z</time></trkpt><trkpt lat="42.43670977293796" lon="12.103566183341806"><ele>335.0</ele><time>2026-04-24T12:58:31Z</time></trkpt><trkpt lat="42.43682896146598" lon="12.103521532642693"><ele>335.0</ele><time>2026-04-24T12:58:32Z</time></trkpt><trkpt lat="42.436934028081765" lon="12.10348371558412"><ele>335.0</ele><time>2026-04-24T12:58:33Z</time></trkpt><trkpt lat="42.43703090576892" lon="12.103450925762473"><ele>335.0</ele><time>2026-04-24T12:58:34Z</time></trkpt><trkpt lat="42.43711523069107" lon="12.103418756154372"><ele>335.0</ele><time>2026-04-24T12:58:35Z</time></trkpt><trkpt lat="42.43718192797773" lon="12.103404764916075"><ele>335.0</ele><time>2026-04-24T12:58:36Z</time></trkpt><trkpt lat="42.43727607584429" lon="12.103380557020678"><ele>335.0</ele><time>2026-04-24T12:58:38Z</time></trkpt><trkpt lat="42.43738299069476" lon="12.103405251135644"><ele>335.0</ele><time>2026-04-24T12:58:40Z</time></trkpt><trkpt lat="42.437447394779795" lon="12.103457726165843"><ele>335.0</ele><time>2026-04-24T12:58:41Z</time></trkpt><trkpt lat="42.43750765684558" lon="12.103497511850234"><ele>335.0</ele><time>2026-04-24T12:58:42Z</time></trkpt><trkpt lat="42.437573061849605" lon="12.103509541702524"><ele>335.0</ele><time>2026-04-24T12:58:43Z</time></trkpt><trkpt lat="42.437666515337526" lon="12.10343949408966"><ele>335.0</ele><time>2026-04-24T12:58:45Z</time></trkpt><trkpt lat="42.437701092853146" lon="12.103365966640684"><ele>334.4</ele><time>2026-04-24T12:58:46Z</time></trkpt><trkpt lat="42.437735487842225" lon="12.103224623735768"><ele>333.8</ele><time>2026-04-24T12:58:48Z</time></trkpt><trkpt lat="42.437683947761144" lon="12.103113342552385"><ele>333.20000000000005</ele><time>2026-04-24T12:58:50Z</time></trkpt><trkpt lat="42.43758105676597" lon="12.103074903438236"><ele>332.6</ele><time>2026-04-24T12:58:52Z</time></trkpt><trkpt lat="42.437516948727605" lon="12.103080054833374"><ele>332.0</ele><time>2026-04-24T12:58:53Z</time></trkpt><trkpt lat="42.437407791470676" lon="12.103170025531279"><ele>332.6</ele><time>2026-04-24T12:58:55Z</time></trkpt><trkpt lat="42.43736032851745" lon="12.10324968139563"><ele>333.20000000000005</ele><time>2026-04-24T12:58:56Z</time></trkpt><trkpt lat="42.43730670024839" lon="12.103317870392745"><ele>333.8</ele><time>2026-04-24T12:58:57Z</time></trkpt><trkpt lat="42.437234729178535" lon="12.103353076760042"><ele>334.4</ele><time>2026-04-24T12:58:58Z</time></trkpt><trkpt lat="42.437133958878704" lon="12.103386492116"><ele>335.0</ele><time>2026-04-24T12:58:59Z</time></trkpt><trkpt lat="42.437001195561514" lon="12.103416178955422"><ele>335.0</ele><time>2026-04-24T12:59:00Z</time></trkpt><trkpt lat="42.436858346193546" lon="12.10344944459463"><ele>335.0</ele><time>2026-04-24T12:59:01Z</time></trkpt><trkpt lat="42.436707622280395" lon="12.103491229172283"><ele>335.0</ele><time>2026-04-24T12:59:02Z</time></trkpt><trkpt lat="42.43657799527076" lon="12.103535636209225"><ele>335.0</ele><time>2026-04-24T12:59:03Z</time></trkpt><trkpt lat="42.436452926415335" lon="12.103568541485263"><ele>335.0</ele><time>2026-04-24T12:59:04Z</time></trkpt><trkpt lat="42.43633997277375" lon="12.103623804785567"><ele>335.0</ele><time>2026-04-24T12:59:05Z</time></trkpt><trkpt lat="42.43622666351293" lon="12.103673359755462"><ele>335.0</ele><time>2026-04-24T12:59:06Z</time></trkpt><trkpt lat="42.43612396393438" lon="12.103704374059294"><ele>335.0</ele><time>2026-04-24T12:59:07Z</time></trkpt><trkpt lat="42.43602554341492" lon="12.103729413145919"><ele>335.0</ele><time>2026-04-24T12:59:08Z</time></trkpt><trkpt lat="42.43592447630473" lon="12.103745509130334"><ele>335.0</ele><time>2026-04-24T12:59:09Z</time></trkpt><trkpt lat="42.43582382625966" lon="12.10374504189366"><ele>335.0</ele><time>2026-04-24T12:59:10Z</time></trkpt><trkpt lat="42.435722644097346" lon="12.103739975418888"><ele>335.0</ele><time>2026-04-24T12:59:11Z</time></trkpt><trkpt lat="42.43560576098488" lon="12.103739824494767"><ele>335.0</ele><time>2026-04-24T12:59:12Z</time></trkpt><trkpt lat="42.43546375615877" lon="12.103744849432815"><ele>335.0</ele><time>2026-04-24T12:59:13Z</time></trkpt><trkpt lat="42.435311318820126" lon="12.103759638897744"><ele>335.0</ele><time>2026-04-24T12:59:14Z</time></trkpt><trkpt lat="42.43518063567801" lon="12.103747524107787"><ele>335.0</ele><time>2026-04-24T12:59:15Z</time></trkpt><trkpt lat="42.43505454307107" lon="12.10374342202388"><ele>335.0</ele><time>2026-04-24T12:59:16Z</time></trkpt><trkpt lat="42.43491612910477" lon="12.103741687577894"><ele>335.0</ele><time>2026-04-24T12:59:17Z</time></trkpt><trkpt lat="42.43480277825199" lon="12.103742402155401"><ele>335.0</ele><time>2026-04-24T12:59:18Z</time></trkpt><trkpt lat="42.43469285713822" lon="12.103735277688658"><ele>335.0</ele><time>2026-04-24T12:59:19Z</time></trkpt><trkpt lat="42.43459036667658" lon="12.103738806379061"><ele>335.0</ele><time>2026-04-24T12:59:20Z</time></trkpt><trkpt lat="42.43447460595677" lon="12.103742267309013"><ele>335.0</ele><time>2026-04-24T12:59:21Z</time></trkpt><trkpt lat="42.43436317141906" lon="12.103741339077377"><ele>334.8</ele><time>2026-04-24T12:59:22Z</time></trkpt><trkpt lat="42.4342508535826" lon="12.103751904387291"><ele>334.6</ele><time>2026-04-24T12:59:23Z</time></trkpt><trkpt lat="42.43414039069816" lon="12.103769076650556"><ele>334.4</ele><time>2026-04-24T12:59:24Z</time></trkpt><trkpt lat="42.43403834022719" lon="12.103773009148858"><ele>334.2</ele><time>2026-04-24T12:59:25Z</time></trkpt><trkpt lat="42.43393298041932" lon="12.10378744187044"><ele>334.0</ele><time>2026-04-24T12:59:26Z</time></trkpt><trkpt lat="42.433848934309104" lon="12.103788925195957"><ele>334.4</ele><time>2026-04-24T12:59:27Z</time></trkpt><trkpt lat="42.43375852221862" lon="12.10382644442932"><ele>334.79999999999995</ele><time>2026-04-24T12:59:28Z</time></trkpt><trkpt lat="42.43365434319984" lon="12.103859893458555"><ele>335.20000000000005</ele><time>2026-04-24T12:59:29Z</time></trkpt><trkpt lat="42.4335562638117" lon="12.10388846441332"><ele>335.6</ele><time>2026-04-24T12:59:30Z</time></trkpt><trkpt lat="42.43347458991276" lon="12.103924881166717"><ele>336.0</ele><time>2026-04-24T12:59:31Z</time></trkpt><trkpt lat="42.43337660959334" lon="12.103941661805944"><ele>336.0</ele><time>2026-04-24T12:59:32Z</time></trkpt><trkpt lat="42.43331846587725" lon="12.103994092937647"><ele>336.0</ele><time>2026-04-24T12:59:33Z</time></trkpt><trkpt lat="42.433246782356896" lon="12.104028394358913"><ele>336.0</ele><time>2026-04-24T12:59:35Z</time></trkpt><trkpt lat="42.43320418105254" lon="12.103954597057298"><ele>336.0</ele><time>2026-04-24T12:59:38Z</time></trkpt><trkpt lat="42.43324786472262" lon="12.103824690346727"><ele>336.0</ele><time>2026-04-24T13:00:50Z</time></trkpt><trkpt lat="42.43318960398683" lon="12.103792077715214"><ele>336.0</ele><time>2026-04-24T13:01:50Z</time></trkpt><trkpt lat="42.43312825942493" lon="12.10373963569256"><ele>336.0</ele><time>2026-04-24T13:02:21Z</time></trkpt><trkpt lat="42.43306116239446" lon="12.103732731288362"><ele>336.0</ele><time>2026-04-24T13:02:31Z</time></trkpt><trkpt lat="42.433002094148854" lon="12.103778495548017"><ele>336.0</ele><time>2026-04-24T13:02:35Z</time></trkpt><trkpt lat="42.43293212479387" lon="12.103779484875593"><ele>335.0</ele><time>2026-04-24T13:02:39Z</time></trkpt><trkpt lat="42.432929126774475" lon="12.103692804398495"><ele>335.0</ele><time>2026-04-24T13:03:11Z</time></trkpt></trkseg></trk></gpx>